<?xml version="1.0" encoding="UTF-8" standalone="no" ?>
<gpx xmlns="http://www.topografix.com/GPX/1/1" xmlns:xsi="http://www.w3.org/2001/XMLSchema-instance" xsi:schemaLocation="http://www.topografix.com/GPX/1/1 http://www.topografix.com/GPX/1/1/gpx.xsd" version="1.1" creator="VisuGPX - https://www.visugpx.com">
  <metadata>
    <name>Pic de L'escalette</name>
    <desc><![CDATA[
]]></desc>
  </metadata>
  <trk>
    <name><![CDATA[Afternoon Hike]]></name>
    <trkseg>
      <trkpt lat="42.94054" lon="0.72321">
        <ele>1334.6</ele>
        <time>2020-02-23T13:30:06Z</time>
      </trkpt>
      <trkpt lat="42.94058" lon="0.72324">
        <ele>1334.6</ele>
        <time>2020-02-23T13:30:08Z</time>
      </trkpt>
      <trkpt lat="42.94062" lon="0.72328">
        <ele>1334.8</ele>
        <time>2020-02-23T13:30:15Z</time>
      </trkpt>
      <trkpt lat="42.94066" lon="0.72331">
        <ele>1335</ele>
        <time>2020-02-23T13:30:16Z</time>
      </trkpt>
      <trkpt lat="42.94067" lon="0.72332">
        <ele>1335</ele>
        <time>2020-02-23T13:30:17Z</time>
      </trkpt>
      <trkpt lat="42.94068" lon="0.72333">
        <ele>1335.1</ele>
        <time>2020-02-23T13:30:18Z</time>
      </trkpt>
      <trkpt lat="42.9407" lon="0.72333">
        <ele>1335.1</ele>
        <time>2020-02-23T13:30:19Z</time>
      </trkpt>
      <trkpt lat="42.94071" lon="0.72334">
        <ele>1335.2</ele>
        <time>2020-02-23T13:30:20Z</time>
      </trkpt>
      <trkpt lat="42.94072" lon="0.72335">
        <ele>1335.2</ele>
        <time>2020-02-23T13:30:21Z</time>
      </trkpt>
      <trkpt lat="42.94073" lon="0.72336">
        <ele>1335.3</ele>
        <time>2020-02-23T13:30:22Z</time>
      </trkpt>
      <trkpt lat="42.94075" lon="0.72337">
        <ele>1335.4</ele>
        <time>2020-02-23T13:30:23Z</time>
      </trkpt>
      <trkpt lat="42.94076" lon="0.72338">
        <ele>1335.5</ele>
        <time>2020-02-23T13:30:24Z</time>
      </trkpt>
      <trkpt lat="42.94077" lon="0.72339">
        <ele>1335.5</ele>
        <time>2020-02-23T13:30:25Z</time>
      </trkpt>
      <trkpt lat="42.94078" lon="0.7234">
        <ele>1335.6</ele>
        <time>2020-02-23T13:30:26Z</time>
      </trkpt>
      <trkpt lat="42.94079" lon="0.72342">
        <ele>1335.7</ele>
        <time>2020-02-23T13:30:27Z</time>
      </trkpt>
      <trkpt lat="42.9408" lon="0.72343">
        <ele>1335.7</ele>
        <time>2020-02-23T13:30:28Z</time>
      </trkpt>
      <trkpt lat="42.94081" lon="0.72344">
        <ele>1335.8</ele>
        <time>2020-02-23T13:30:29Z</time>
      </trkpt>
      <trkpt lat="42.94082" lon="0.72345">
        <ele>1335.9</ele>
        <time>2020-02-23T13:30:30Z</time>
      </trkpt>
      <trkpt lat="42.94083" lon="0.72346">
        <ele>1335.9</ele>
        <time>2020-02-23T13:30:31Z</time>
      </trkpt>
      <trkpt lat="42.94084" lon="0.72347">
        <ele>1336</ele>
        <time>2020-02-23T13:30:32Z</time>
      </trkpt>
      <trkpt lat="42.94085" lon="0.72348">
        <ele>1336</ele>
        <time>2020-02-23T13:30:33Z</time>
      </trkpt>
      <trkpt lat="42.94086" lon="0.72349">
        <ele>1336.1</ele>
        <time>2020-02-23T13:30:34Z</time>
      </trkpt>
      <trkpt lat="42.94087" lon="0.7235">
        <ele>1336.1</ele>
        <time>2020-02-23T13:30:35Z</time>
      </trkpt>
      <trkpt lat="42.94087" lon="0.72351">
        <ele>1336.2</ele>
        <time>2020-02-23T13:30:36Z</time>
      </trkpt>
      <trkpt lat="42.94088" lon="0.72352">
        <ele>1336.2</ele>
        <time>2020-02-23T13:30:37Z</time>
      </trkpt>
      <trkpt lat="42.94089" lon="0.72353">
        <ele>1336.3</ele>
        <time>2020-02-23T13:30:38Z</time>
      </trkpt>
      <trkpt lat="42.9409" lon="0.72354">
        <ele>1336.3</ele>
        <time>2020-02-23T13:30:39Z</time>
      </trkpt>
      <trkpt lat="42.94091" lon="0.72355">
        <ele>1336.3</ele>
        <time>2020-02-23T13:30:40Z</time>
      </trkpt>
      <trkpt lat="42.94091" lon="0.72355">
        <ele>1336.4</ele>
        <time>2020-02-23T13:30:41Z</time>
      </trkpt>
      <trkpt lat="42.94092" lon="0.72356">
        <ele>1336.4</ele>
        <time>2020-02-23T13:30:42Z</time>
      </trkpt>
      <trkpt lat="42.94093" lon="0.72357">
        <ele>1336.4</ele>
        <time>2020-02-23T13:30:43Z</time>
      </trkpt>
      <trkpt lat="42.94093" lon="0.72358">
        <ele>1336.5</ele>
        <time>2020-02-23T13:30:44Z</time>
      </trkpt>
      <trkpt lat="42.94094" lon="0.72358">
        <ele>1336.5</ele>
        <time>2020-02-23T13:30:45Z</time>
      </trkpt>
      <trkpt lat="42.94095" lon="0.72359">
        <ele>1336.5</ele>
        <time>2020-02-23T13:30:46Z</time>
      </trkpt>
      <trkpt lat="42.94096" lon="0.7236">
        <ele>1336.6</ele>
        <time>2020-02-23T13:30:47Z</time>
      </trkpt>
      <trkpt lat="42.94096" lon="0.72361">
        <ele>1336.6</ele>
        <time>2020-02-23T13:30:48Z</time>
      </trkpt>
      <trkpt lat="42.94097" lon="0.72362">
        <ele>1336.7</ele>
        <time>2020-02-23T13:30:49Z</time>
      </trkpt>
      <trkpt lat="42.94097" lon="0.72363">
        <ele>1336.7</ele>
        <time>2020-02-23T13:30:50Z</time>
      </trkpt>
      <trkpt lat="42.94098" lon="0.72364">
        <ele>1336.7</ele>
        <time>2020-02-23T13:30:51Z</time>
      </trkpt>
      <trkpt lat="42.94098" lon="0.72365">
        <ele>1336.8</ele>
        <time>2020-02-23T13:30:52Z</time>
      </trkpt>
      <trkpt lat="42.94098" lon="0.72366">
        <ele>1336.8</ele>
        <time>2020-02-23T13:30:53Z</time>
      </trkpt>
      <trkpt lat="42.94099" lon="0.72367">
        <ele>1336.8</ele>
        <time>2020-02-23T13:30:54Z</time>
      </trkpt>
      <trkpt lat="42.94099" lon="0.72368">
        <ele>1336.8</ele>
        <time>2020-02-23T13:30:55Z</time>
      </trkpt>
      <trkpt lat="42.941" lon="0.72369">
        <ele>1336.8</ele>
        <time>2020-02-23T13:30:56Z</time>
      </trkpt>
      <trkpt lat="42.941" lon="0.7237">
        <ele>1336.9</ele>
        <time>2020-02-23T13:30:57Z</time>
      </trkpt>
      <trkpt lat="42.941" lon="0.72371">
        <ele>1336.9</ele>
        <time>2020-02-23T13:30:58Z</time>
      </trkpt>
      <trkpt lat="42.94101" lon="0.72372">
        <ele>1336.9</ele>
        <time>2020-02-23T13:30:59Z</time>
      </trkpt>
      <trkpt lat="42.94101" lon="0.72373">
        <ele>1336.9</ele>
        <time>2020-02-23T13:31:00Z</time>
      </trkpt>
      <trkpt lat="42.94102" lon="0.72374">
        <ele>1336.9</ele>
        <time>2020-02-23T13:31:01Z</time>
      </trkpt>
      <trkpt lat="42.94103" lon="0.72375">
        <ele>1336.9</ele>
        <time>2020-02-23T13:31:02Z</time>
      </trkpt>
      <trkpt lat="42.94104" lon="0.72377">
        <ele>1336.9</ele>
        <time>2020-02-23T13:31:03Z</time>
      </trkpt>
      <trkpt lat="42.94105" lon="0.72378">
        <ele>1337</ele>
        <time>2020-02-23T13:31:04Z</time>
      </trkpt>
      <trkpt lat="42.94105" lon="0.7238">
        <ele>1337</ele>
        <time>2020-02-23T13:31:05Z</time>
      </trkpt>
      <trkpt lat="42.94106" lon="0.72381">
        <ele>1337</ele>
        <time>2020-02-23T13:31:06Z</time>
      </trkpt>
      <trkpt lat="42.94107" lon="0.72382">
        <ele>1337</ele>
        <time>2020-02-23T13:31:07Z</time>
      </trkpt>
      <trkpt lat="42.94108" lon="0.72383">
        <ele>1337</ele>
        <time>2020-02-23T13:31:08Z</time>
      </trkpt>
      <trkpt lat="42.94109" lon="0.72383">
        <ele>1337</ele>
        <time>2020-02-23T13:31:09Z</time>
      </trkpt>
      <trkpt lat="42.9411" lon="0.72383">
        <ele>1337</ele>
        <time>2020-02-23T13:31:10Z</time>
      </trkpt>
      <trkpt lat="42.94111" lon="0.72383">
        <ele>1337.1</ele>
        <time>2020-02-23T13:31:11Z</time>
      </trkpt>
      <trkpt lat="42.94112" lon="0.72383">
        <ele>1337.1</ele>
        <time>2020-02-23T13:31:12Z</time>
      </trkpt>
      <trkpt lat="42.94113" lon="0.72383">
        <ele>1337.2</ele>
        <time>2020-02-23T13:31:13Z</time>
      </trkpt>
      <trkpt lat="42.94114" lon="0.72383">
        <ele>1337.2</ele>
        <time>2020-02-23T13:31:14Z</time>
      </trkpt>
      <trkpt lat="42.94115" lon="0.72384">
        <ele>1337.2</ele>
        <time>2020-02-23T13:31:15Z</time>
      </trkpt>
      <trkpt lat="42.94116" lon="0.72384">
        <ele>1337.3</ele>
        <time>2020-02-23T13:31:16Z</time>
      </trkpt>
      <trkpt lat="42.94116" lon="0.72384">
        <ele>1337.3</ele>
        <time>2020-02-23T13:31:17Z</time>
      </trkpt>
      <trkpt lat="42.94117" lon="0.72384">
        <ele>1337.4</ele>
        <time>2020-02-23T13:31:18Z</time>
      </trkpt>
      <trkpt lat="42.94118" lon="0.72384">
        <ele>1337.4</ele>
        <time>2020-02-23T13:31:19Z</time>
      </trkpt>
      <trkpt lat="42.94119" lon="0.72384">
        <ele>1337.4</ele>
        <time>2020-02-23T13:31:20Z</time>
      </trkpt>
      <trkpt lat="42.9412" lon="0.72384">
        <ele>1337.5</ele>
        <time>2020-02-23T13:31:21Z</time>
      </trkpt>
      <trkpt lat="42.9412" lon="0.72384">
        <ele>1337.5</ele>
        <time>2020-02-23T13:31:22Z</time>
      </trkpt>
      <trkpt lat="42.94121" lon="0.72384">
        <ele>1337.5</ele>
        <time>2020-02-23T13:31:23Z</time>
      </trkpt>
      <trkpt lat="42.94122" lon="0.72384">
        <ele>1337.6</ele>
        <time>2020-02-23T13:31:24Z</time>
      </trkpt>
      <trkpt lat="42.94123" lon="0.72384">
        <ele>1337.6</ele>
        <time>2020-02-23T13:31:25Z</time>
      </trkpt>
      <trkpt lat="42.94124" lon="0.72384">
        <ele>1337.7</ele>
        <time>2020-02-23T13:31:26Z</time>
      </trkpt>
      <trkpt lat="42.94124" lon="0.72384">
        <ele>1337.7</ele>
        <time>2020-02-23T13:31:27Z</time>
      </trkpt>
      <trkpt lat="42.94127" lon="0.72384">
        <ele>1337.8</ele>
        <time>2020-02-23T13:31:28Z</time>
      </trkpt>
      <trkpt lat="42.94127" lon="0.72384">
        <ele>1337.8</ele>
        <time>2020-02-23T13:31:29Z</time>
      </trkpt>
      <trkpt lat="42.94127" lon="0.72384">
        <ele>1337.8</ele>
        <time>2020-02-23T13:31:30Z</time>
      </trkpt>
      <trkpt lat="42.9413" lon="0.72384">
        <ele>1338</ele>
        <time>2020-02-23T13:31:31Z</time>
      </trkpt>
      <trkpt lat="42.9413" lon="0.72384">
        <ele>1338</ele>
        <time>2020-02-23T13:31:32Z</time>
      </trkpt>
      <trkpt lat="42.9413" lon="0.72384">
        <ele>1338</ele>
        <time>2020-02-23T13:31:33Z</time>
      </trkpt>
      <trkpt lat="42.94132" lon="0.72383">
        <ele>1338.1</ele>
        <time>2020-02-23T13:31:34Z</time>
      </trkpt>
      <trkpt lat="42.94132" lon="0.72383">
        <ele>1338.1</ele>
        <time>2020-02-23T13:31:35Z</time>
      </trkpt>
      <trkpt lat="42.94135" lon="0.72382">
        <ele>1338.2</ele>
        <time>2020-02-23T13:31:36Z</time>
      </trkpt>
      <trkpt lat="42.94135" lon="0.72382">
        <ele>1338.2</ele>
        <time>2020-02-23T13:31:37Z</time>
      </trkpt>
      <trkpt lat="42.94137" lon="0.72382">
        <ele>1338.3</ele>
        <time>2020-02-23T13:31:38Z</time>
      </trkpt>
      <trkpt lat="42.94137" lon="0.72382">
        <ele>1338.3</ele>
        <time>2020-02-23T13:31:39Z</time>
      </trkpt>
      <trkpt lat="42.94137" lon="0.72382">
        <ele>1338.3</ele>
        <time>2020-02-23T13:31:40Z</time>
      </trkpt>
      <trkpt lat="42.9414" lon="0.7238">
        <ele>1338.5</ele>
        <time>2020-02-23T13:31:41Z</time>
      </trkpt>
      <trkpt lat="42.9414" lon="0.7238">
        <ele>1338.5</ele>
        <time>2020-02-23T13:31:42Z</time>
      </trkpt>
      <trkpt lat="42.9414" lon="0.7238">
        <ele>1338.5</ele>
        <time>2020-02-23T13:31:43Z</time>
      </trkpt>
      <trkpt lat="42.94143" lon="0.72379">
        <ele>1338.6</ele>
        <time>2020-02-23T13:31:44Z</time>
      </trkpt>
      <trkpt lat="42.94143" lon="0.72379">
        <ele>1338.6</ele>
        <time>2020-02-23T13:31:45Z</time>
      </trkpt>
      <trkpt lat="42.94144" lon="0.72379">
        <ele>1338.6</ele>
        <time>2020-02-23T13:31:46Z</time>
      </trkpt>
      <trkpt lat="42.94145" lon="0.72379">
        <ele>1338.7</ele>
        <time>2020-02-23T13:31:47Z</time>
      </trkpt>
      <trkpt lat="42.94147" lon="0.72379">
        <ele>1338.8</ele>
        <time>2020-02-23T13:31:48Z</time>
      </trkpt>
      <trkpt lat="42.94148" lon="0.72378">
        <ele>1338.8</ele>
        <time>2020-02-23T13:31:49Z</time>
      </trkpt>
      <trkpt lat="42.94149" lon="0.72379">
        <ele>1338.9</ele>
        <time>2020-02-23T13:31:50Z</time>
      </trkpt>
      <trkpt lat="42.9415" lon="0.72379">
        <ele>1338.9</ele>
        <time>2020-02-23T13:31:51Z</time>
      </trkpt>
      <trkpt lat="42.94151" lon="0.72379">
        <ele>1339</ele>
        <time>2020-02-23T13:31:52Z</time>
      </trkpt>
      <trkpt lat="42.94153" lon="0.72379">
        <ele>1339.7</ele>
        <time>2020-02-23T13:31:53Z</time>
      </trkpt>
      <trkpt lat="42.94155" lon="0.72381">
        <ele>1339.7</ele>
        <time>2020-02-23T13:31:54Z</time>
      </trkpt>
      <trkpt lat="42.94155" lon="0.72381">
        <ele>1339.7</ele>
        <time>2020-02-23T13:31:55Z</time>
      </trkpt>
      <trkpt lat="42.94155" lon="0.72381">
        <ele>1339.7</ele>
        <time>2020-02-23T13:31:56Z</time>
      </trkpt>
      <trkpt lat="42.94157" lon="0.72384">
        <ele>1339.7</ele>
        <time>2020-02-23T13:31:57Z</time>
      </trkpt>
      <trkpt lat="42.94157" lon="0.72384">
        <ele>1339.7</ele>
        <time>2020-02-23T13:31:58Z</time>
      </trkpt>
      <trkpt lat="42.94159" lon="0.72386">
        <ele>1339.7</ele>
        <time>2020-02-23T13:31:59Z</time>
      </trkpt>
      <trkpt lat="42.94159" lon="0.72386">
        <ele>1339.7</ele>
        <time>2020-02-23T13:32:00Z</time>
      </trkpt>
      <trkpt lat="42.94159" lon="0.72387">
        <ele>1339.5</ele>
        <time>2020-02-23T13:32:01Z</time>
      </trkpt>
      <trkpt lat="42.9416" lon="0.72388">
        <ele>1339.3</ele>
        <time>2020-02-23T13:32:02Z</time>
      </trkpt>
      <trkpt lat="42.94161" lon="0.7239">
        <ele>1339</ele>
        <time>2020-02-23T13:32:03Z</time>
      </trkpt>
      <trkpt lat="42.94163" lon="0.72393">
        <ele>1338.6</ele>
        <time>2020-02-23T13:32:04Z</time>
      </trkpt>
      <trkpt lat="42.94163" lon="0.72393">
        <ele>1338.6</ele>
        <time>2020-02-23T13:32:05Z</time>
      </trkpt>
      <trkpt lat="42.94164" lon="0.72395">
        <ele>1338.2</ele>
        <time>2020-02-23T13:32:06Z</time>
      </trkpt>
      <trkpt lat="42.94164" lon="0.72395">
        <ele>1338.2</ele>
        <time>2020-02-23T13:32:07Z</time>
      </trkpt>
      <trkpt lat="42.94164" lon="0.72395">
        <ele>1338.2</ele>
        <time>2020-02-23T13:32:08Z</time>
      </trkpt>
      <trkpt lat="42.94165" lon="0.72399">
        <ele>1337.7</ele>
        <time>2020-02-23T13:32:09Z</time>
      </trkpt>
      <trkpt lat="42.94165" lon="0.72399">
        <ele>1337.7</ele>
        <time>2020-02-23T13:32:10Z</time>
      </trkpt>
      <trkpt lat="42.94166" lon="0.724">
        <ele>1337.5</ele>
        <time>2020-02-23T13:32:11Z</time>
      </trkpt>
      <trkpt lat="42.94167" lon="0.72402">
        <ele>1337.3</ele>
        <time>2020-02-23T13:32:12Z</time>
      </trkpt>
      <trkpt lat="42.94168" lon="0.72403">
        <ele>1337.1</ele>
        <time>2020-02-23T13:32:13Z</time>
      </trkpt>
      <trkpt lat="42.94168" lon="0.72404">
        <ele>1337</ele>
        <time>2020-02-23T13:32:14Z</time>
      </trkpt>
      <trkpt lat="42.9417" lon="0.72407">
        <ele>1336.9</ele>
        <time>2020-02-23T13:32:15Z</time>
      </trkpt>
      <trkpt lat="42.9417" lon="0.72407">
        <ele>1336.9</ele>
        <time>2020-02-23T13:32:16Z</time>
      </trkpt>
      <trkpt lat="42.9417" lon="0.72407">
        <ele>1336.9</ele>
        <time>2020-02-23T13:32:17Z</time>
      </trkpt>
      <trkpt lat="42.94172" lon="0.7241">
        <ele>1336.6</ele>
        <time>2020-02-23T13:32:18Z</time>
      </trkpt>
      <trkpt lat="42.94172" lon="0.7241">
        <ele>1336.6</ele>
        <time>2020-02-23T13:32:19Z</time>
      </trkpt>
      <trkpt lat="42.94173" lon="0.72412">
        <ele>1336.4</ele>
        <time>2020-02-23T13:32:20Z</time>
      </trkpt>
      <trkpt lat="42.94173" lon="0.72412">
        <ele>1336.4</ele>
        <time>2020-02-23T13:32:21Z</time>
      </trkpt>
      <trkpt lat="42.94173" lon="0.72412">
        <ele>1336.4</ele>
        <time>2020-02-23T13:32:22Z</time>
      </trkpt>
      <trkpt lat="42.94173" lon="0.72412">
        <ele>1336.4</ele>
        <time>2020-02-23T13:32:23Z</time>
      </trkpt>
      <trkpt lat="42.94176" lon="0.72414">
        <ele>1335.8</ele>
        <time>2020-02-23T13:32:24Z</time>
      </trkpt>
      <trkpt lat="42.94176" lon="0.72414">
        <ele>1335.8</ele>
        <time>2020-02-23T13:32:25Z</time>
      </trkpt>
      <trkpt lat="42.94177" lon="0.72414">
        <ele>1335.6</ele>
        <time>2020-02-23T13:32:26Z</time>
      </trkpt>
      <trkpt lat="42.94178" lon="0.72414">
        <ele>1335.4</ele>
        <time>2020-02-23T13:32:27Z</time>
      </trkpt>
      <trkpt lat="42.9418" lon="0.72414">
        <ele>1335.1</ele>
        <time>2020-02-23T13:32:28Z</time>
      </trkpt>
      <trkpt lat="42.94181" lon="0.72414">
        <ele>1334.9</ele>
        <time>2020-02-23T13:32:29Z</time>
      </trkpt>
      <trkpt lat="42.94182" lon="0.72414">
        <ele>1334.7</ele>
        <time>2020-02-23T13:32:30Z</time>
      </trkpt>
      <trkpt lat="42.94183" lon="0.72414">
        <ele>1334.4</ele>
        <time>2020-02-23T13:32:31Z</time>
      </trkpt>
      <trkpt lat="42.94185" lon="0.72415">
        <ele>1334.2</ele>
        <time>2020-02-23T13:32:32Z</time>
      </trkpt>
      <trkpt lat="42.94186" lon="0.72415">
        <ele>1334</ele>
        <time>2020-02-23T13:32:33Z</time>
      </trkpt>
      <trkpt lat="42.94187" lon="0.72414">
        <ele>1333.9</ele>
        <time>2020-02-23T13:32:34Z</time>
      </trkpt>
      <trkpt lat="42.94188" lon="0.72414">
        <ele>1333.7</ele>
        <time>2020-02-23T13:32:35Z</time>
      </trkpt>
      <trkpt lat="42.94189" lon="0.72414">
        <ele>1333.6</ele>
        <time>2020-02-23T13:32:36Z</time>
      </trkpt>
      <trkpt lat="42.94191" lon="0.72414">
        <ele>1333.4</ele>
        <time>2020-02-23T13:32:37Z</time>
      </trkpt>
      <trkpt lat="42.94192" lon="0.72413">
        <ele>1333.3</ele>
        <time>2020-02-23T13:32:38Z</time>
      </trkpt>
      <trkpt lat="42.94193" lon="0.72413">
        <ele>1333</ele>
        <time>2020-02-23T13:32:39Z</time>
      </trkpt>
      <trkpt lat="42.94194" lon="0.72413">
        <ele>1332.7</ele>
        <time>2020-02-23T13:32:40Z</time>
      </trkpt>
      <trkpt lat="42.94196" lon="0.72413">
        <ele>1332.5</ele>
        <time>2020-02-23T13:32:41Z</time>
      </trkpt>
      <trkpt lat="42.94197" lon="0.72412">
        <ele>1332.1</ele>
        <time>2020-02-23T13:32:42Z</time>
      </trkpt>
      <trkpt lat="42.94198" lon="0.72412">
        <ele>1331.8</ele>
        <time>2020-02-23T13:32:43Z</time>
      </trkpt>
      <trkpt lat="42.942" lon="0.72412">
        <ele>1331.5</ele>
        <time>2020-02-23T13:32:44Z</time>
      </trkpt>
      <trkpt lat="42.94201" lon="0.72411">
        <ele>1331.3</ele>
        <time>2020-02-23T13:32:45Z</time>
      </trkpt>
      <trkpt lat="42.94203" lon="0.72411">
        <ele>1331.2</ele>
        <time>2020-02-23T13:32:46Z</time>
      </trkpt>
      <trkpt lat="42.94204" lon="0.7241">
        <ele>1331</ele>
        <time>2020-02-23T13:32:47Z</time>
      </trkpt>
      <trkpt lat="42.94206" lon="0.7241">
        <ele>1330.8</ele>
        <time>2020-02-23T13:32:48Z</time>
      </trkpt>
      <trkpt lat="42.94207" lon="0.7241">
        <ele>1330.7</ele>
        <time>2020-02-23T13:32:49Z</time>
      </trkpt>
      <trkpt lat="42.94209" lon="0.7241">
        <ele>1330.6</ele>
        <time>2020-02-23T13:32:50Z</time>
      </trkpt>
      <trkpt lat="42.9421" lon="0.7241">
        <ele>1330.5</ele>
        <time>2020-02-23T13:32:51Z</time>
      </trkpt>
      <trkpt lat="42.94214" lon="0.72412">
        <ele>1330.3</ele>
        <time>2020-02-23T13:32:52Z</time>
      </trkpt>
      <trkpt lat="42.94214" lon="0.72412">
        <ele>1330.3</ele>
        <time>2020-02-23T13:32:53Z</time>
      </trkpt>
      <trkpt lat="42.94218" lon="0.72413">
        <ele>1330.1</ele>
        <time>2020-02-23T13:32:54Z</time>
      </trkpt>
      <trkpt lat="42.94218" lon="0.72413">
        <ele>1330.1</ele>
        <time>2020-02-23T13:32:55Z</time>
      </trkpt>
      <trkpt lat="42.9422" lon="0.72413">
        <ele>1330.1</ele>
        <time>2020-02-23T13:32:56Z</time>
      </trkpt>
      <trkpt lat="42.94221" lon="0.72414">
        <ele>1330.1</ele>
        <time>2020-02-23T13:32:57Z</time>
      </trkpt>
      <trkpt lat="42.94223" lon="0.72414">
        <ele>1330.1</ele>
        <time>2020-02-23T13:32:58Z</time>
      </trkpt>
      <trkpt lat="42.94225" lon="0.72415">
        <ele>1330.1</ele>
        <time>2020-02-23T13:32:59Z</time>
      </trkpt>
      <trkpt lat="42.94226" lon="0.72415">
        <ele>1330.1</ele>
        <time>2020-02-23T13:33:00Z</time>
      </trkpt>
      <trkpt lat="42.94228" lon="0.72415">
        <ele>1330</ele>
        <time>2020-02-23T13:33:01Z</time>
      </trkpt>
      <trkpt lat="42.94231" lon="0.72418">
        <ele>1329.8</ele>
        <time>2020-02-23T13:33:02Z</time>
      </trkpt>
      <trkpt lat="42.94231" lon="0.72418">
        <ele>1329.8</ele>
        <time>2020-02-23T13:33:03Z</time>
      </trkpt>
      <trkpt lat="42.94233" lon="0.7242">
        <ele>1329.6</ele>
        <time>2020-02-23T13:33:04Z</time>
      </trkpt>
      <trkpt lat="42.94233" lon="0.7242">
        <ele>1329.6</ele>
        <time>2020-02-23T13:33:05Z</time>
      </trkpt>
      <trkpt lat="42.94233" lon="0.7242">
        <ele>1329.6</ele>
        <time>2020-02-23T13:33:06Z</time>
      </trkpt>
      <trkpt lat="42.94236" lon="0.72423">
        <ele>1329.3</ele>
        <time>2020-02-23T13:33:07Z</time>
      </trkpt>
      <trkpt lat="42.94236" lon="0.72423">
        <ele>1329.3</ele>
        <time>2020-02-23T13:33:08Z</time>
      </trkpt>
      <trkpt lat="42.94236" lon="0.72423">
        <ele>1329.3</ele>
        <time>2020-02-23T13:33:09Z</time>
      </trkpt>
      <trkpt lat="42.94237" lon="0.72427">
        <ele>1329.2</ele>
        <time>2020-02-23T13:33:10Z</time>
      </trkpt>
      <trkpt lat="42.94238" lon="0.72431">
        <ele>1328.9</ele>
        <time>2020-02-23T13:33:11Z</time>
      </trkpt>
      <trkpt lat="42.94238" lon="0.72431">
        <ele>1328.9</ele>
        <time>2020-02-23T13:33:12Z</time>
      </trkpt>
      <trkpt lat="42.94238" lon="0.72431">
        <ele>1328.9</ele>
        <time>2020-02-23T13:33:13Z</time>
      </trkpt>
      <trkpt lat="42.9424" lon="0.72434">
        <ele>1328.6</ele>
        <time>2020-02-23T13:33:14Z</time>
      </trkpt>
      <trkpt lat="42.9424" lon="0.72434">
        <ele>1328.6</ele>
        <time>2020-02-23T13:33:15Z</time>
      </trkpt>
      <trkpt lat="42.94241" lon="0.72438">
        <ele>1328.3</ele>
        <time>2020-02-23T13:33:16Z</time>
      </trkpt>
      <trkpt lat="42.94241" lon="0.72438">
        <ele>1328.3</ele>
        <time>2020-02-23T13:33:17Z</time>
      </trkpt>
      <trkpt lat="42.94242" lon="0.72441">
        <ele>1328.1</ele>
        <time>2020-02-23T13:33:18Z</time>
      </trkpt>
      <trkpt lat="42.94242" lon="0.72441">
        <ele>1328.1</ele>
        <time>2020-02-23T13:33:19Z</time>
      </trkpt>
      <trkpt lat="42.94241" lon="0.72444">
        <ele>1327.9</ele>
        <time>2020-02-23T13:33:20Z</time>
      </trkpt>
      <trkpt lat="42.94241" lon="0.72444">
        <ele>1327.9</ele>
        <time>2020-02-23T13:33:21Z</time>
      </trkpt>
      <trkpt lat="42.9424" lon="0.72447">
        <ele>1327.7</ele>
        <time>2020-02-23T13:33:22Z</time>
      </trkpt>
      <trkpt lat="42.9424" lon="0.72447">
        <ele>1327.7</ele>
        <time>2020-02-23T13:33:23Z</time>
      </trkpt>
      <trkpt lat="42.94239" lon="0.72454">
        <ele>1327.5</ele>
        <time>2020-02-23T13:33:24Z</time>
      </trkpt>
      <trkpt lat="42.94239" lon="0.72454">
        <ele>1327.5</ele>
        <time>2020-02-23T13:33:25Z</time>
      </trkpt>
      <trkpt lat="42.94239" lon="0.72454">
        <ele>1327.5</ele>
        <time>2020-02-23T13:33:26Z</time>
      </trkpt>
      <trkpt lat="42.94239" lon="0.72459">
        <ele>1327.4</ele>
        <time>2020-02-23T13:33:27Z</time>
      </trkpt>
      <trkpt lat="42.94239" lon="0.72459">
        <ele>1327.4</ele>
        <time>2020-02-23T13:33:28Z</time>
      </trkpt>
      <trkpt lat="42.94238" lon="0.72461">
        <ele>1327.2</ele>
        <time>2020-02-23T13:33:29Z</time>
      </trkpt>
      <trkpt lat="42.94238" lon="0.72463">
        <ele>1327.1</ele>
        <time>2020-02-23T13:33:30Z</time>
      </trkpt>
      <trkpt lat="42.94238" lon="0.72466">
        <ele>1326.9</ele>
        <time>2020-02-23T13:33:31Z</time>
      </trkpt>
      <trkpt lat="42.94238" lon="0.72468">
        <ele>1326.8</ele>
        <time>2020-02-23T13:33:32Z</time>
      </trkpt>
      <trkpt lat="42.94237" lon="0.72471">
        <ele>1326.6</ele>
        <time>2020-02-23T13:33:33Z</time>
      </trkpt>
      <trkpt lat="42.94237" lon="0.72474">
        <ele>1326.5</ele>
        <time>2020-02-23T13:33:34Z</time>
      </trkpt>
      <trkpt lat="42.94237" lon="0.72477">
        <ele>1326.3</ele>
        <time>2020-02-23T13:33:35Z</time>
      </trkpt>
      <trkpt lat="42.94237" lon="0.72477">
        <ele>1326.3</ele>
        <time>2020-02-23T13:33:36Z</time>
      </trkpt>
      <trkpt lat="42.94236" lon="0.72486">
        <ele>1326.1</ele>
        <time>2020-02-23T13:33:37Z</time>
      </trkpt>
      <trkpt lat="42.94235" lon="0.72487">
        <ele>1326</ele>
        <time>2020-02-23T13:33:38Z</time>
      </trkpt>
      <trkpt lat="42.94235" lon="0.72488">
        <ele>1326</ele>
        <time>2020-02-23T13:33:39Z</time>
      </trkpt>
      <trkpt lat="42.94234" lon="0.72493">
        <ele>1325.9</ele>
        <time>2020-02-23T13:33:40Z</time>
      </trkpt>
      <trkpt lat="42.94234" lon="0.72493">
        <ele>1325.9</ele>
        <time>2020-02-23T13:33:41Z</time>
      </trkpt>
      <trkpt lat="42.94233" lon="0.72495">
        <ele>1326</ele>
        <time>2020-02-23T13:33:42Z</time>
      </trkpt>
      <trkpt lat="42.94233" lon="0.72495">
        <ele>1326</ele>
        <time>2020-02-23T13:33:43Z</time>
      </trkpt>
      <trkpt lat="42.94231" lon="0.725">
        <ele>1326.1</ele>
        <time>2020-02-23T13:33:44Z</time>
      </trkpt>
      <trkpt lat="42.94228" lon="0.72505">
        <ele>1326.4</ele>
        <time>2020-02-23T13:33:45Z</time>
      </trkpt>
      <trkpt lat="42.94228" lon="0.72505">
        <ele>1326.4</ele>
        <time>2020-02-23T13:33:46Z</time>
      </trkpt>
      <trkpt lat="42.94228" lon="0.72505">
        <ele>1326.4</ele>
        <time>2020-02-23T13:33:47Z</time>
      </trkpt>
      <trkpt lat="42.94227" lon="0.72507">
        <ele>1326.5</ele>
        <time>2020-02-23T13:33:48Z</time>
      </trkpt>
      <trkpt lat="42.94226" lon="0.7251">
        <ele>1326.6</ele>
        <time>2020-02-23T13:33:49Z</time>
      </trkpt>
      <trkpt lat="42.94225" lon="0.72512">
        <ele>1326.6</ele>
        <time>2020-02-23T13:33:50Z</time>
      </trkpt>
      <trkpt lat="42.94223" lon="0.72515">
        <ele>1326.6</ele>
        <time>2020-02-23T13:33:51Z</time>
      </trkpt>
      <trkpt lat="42.94222" lon="0.72518">
        <ele>1326.5</ele>
        <time>2020-02-23T13:33:52Z</time>
      </trkpt>
      <trkpt lat="42.94222" lon="0.72518">
        <ele>1326.5</ele>
        <time>2020-02-23T13:33:53Z</time>
      </trkpt>
      <trkpt lat="42.94222" lon="0.72518">
        <ele>1326.5</ele>
        <time>2020-02-23T13:33:54Z</time>
      </trkpt>
      <trkpt lat="42.9422" lon="0.72522">
        <ele>1326.7</ele>
        <time>2020-02-23T13:33:55Z</time>
      </trkpt>
      <trkpt lat="42.9422" lon="0.72522">
        <ele>1326.7</ele>
        <time>2020-02-23T13:33:56Z</time>
      </trkpt>
      <trkpt lat="42.9422" lon="0.72523">
        <ele>1326.8</ele>
        <time>2020-02-23T13:33:57Z</time>
      </trkpt>
      <trkpt lat="42.9422" lon="0.72525">
        <ele>1326.9</ele>
        <time>2020-02-23T13:33:58Z</time>
      </trkpt>
      <trkpt lat="42.9422" lon="0.72526">
        <ele>1327</ele>
        <time>2020-02-23T13:33:59Z</time>
      </trkpt>
      <trkpt lat="42.94219" lon="0.72528">
        <ele>1327.1</ele>
        <time>2020-02-23T13:34:00Z</time>
      </trkpt>
      <trkpt lat="42.94219" lon="0.72529">
        <ele>1327</ele>
        <time>2020-02-23T13:34:01Z</time>
      </trkpt>
      <trkpt lat="42.94219" lon="0.7253">
        <ele>1327</ele>
        <time>2020-02-23T13:34:02Z</time>
      </trkpt>
      <trkpt lat="42.94219" lon="0.72532">
        <ele>1326.9</ele>
        <time>2020-02-23T13:34:03Z</time>
      </trkpt>
      <trkpt lat="42.94219" lon="0.72533">
        <ele>1326.8</ele>
        <time>2020-02-23T13:34:04Z</time>
      </trkpt>
      <trkpt lat="42.94218" lon="0.72535">
        <ele>1326.8</ele>
        <time>2020-02-23T13:34:05Z</time>
      </trkpt>
      <trkpt lat="42.94218" lon="0.72536">
        <ele>1326.7</ele>
        <time>2020-02-23T13:34:06Z</time>
      </trkpt>
      <trkpt lat="42.94219" lon="0.72538">
        <ele>1326.7</ele>
        <time>2020-02-23T13:34:07Z</time>
      </trkpt>
      <trkpt lat="42.94219" lon="0.7254">
        <ele>1326.6</ele>
        <time>2020-02-23T13:34:08Z</time>
      </trkpt>
      <trkpt lat="42.94219" lon="0.72541">
        <ele>1326.5</ele>
        <time>2020-02-23T13:34:09Z</time>
      </trkpt>
      <trkpt lat="42.94219" lon="0.72543">
        <ele>1326.4</ele>
        <time>2020-02-23T13:34:10Z</time>
      </trkpt>
      <trkpt lat="42.94219" lon="0.72545">
        <ele>1326.3</ele>
        <time>2020-02-23T13:34:11Z</time>
      </trkpt>
      <trkpt lat="42.94219" lon="0.72546">
        <ele>1326.2</ele>
        <time>2020-02-23T13:34:12Z</time>
      </trkpt>
      <trkpt lat="42.94219" lon="0.72548">
        <ele>1326.2</ele>
        <time>2020-02-23T13:34:13Z</time>
      </trkpt>
      <trkpt lat="42.94219" lon="0.7255">
        <ele>1326.2</ele>
        <time>2020-02-23T13:34:14Z</time>
      </trkpt>
      <trkpt lat="42.94219" lon="0.72552">
        <ele>1326.1</ele>
        <time>2020-02-23T13:34:15Z</time>
      </trkpt>
      <trkpt lat="42.9422" lon="0.72554">
        <ele>1326.1</ele>
        <time>2020-02-23T13:34:16Z</time>
      </trkpt>
      <trkpt lat="42.9422" lon="0.72556">
        <ele>1326.1</ele>
        <time>2020-02-23T13:34:17Z</time>
      </trkpt>
      <trkpt lat="42.9422" lon="0.72558">
        <ele>1326</ele>
        <time>2020-02-23T13:34:18Z</time>
      </trkpt>
      <trkpt lat="42.9422" lon="0.72559">
        <ele>1325.9</ele>
        <time>2020-02-23T13:34:19Z</time>
      </trkpt>
      <trkpt lat="42.9422" lon="0.72561">
        <ele>1325.8</ele>
        <time>2020-02-23T13:34:20Z</time>
      </trkpt>
      <trkpt lat="42.94221" lon="0.72563">
        <ele>1325.6</ele>
        <time>2020-02-23T13:34:21Z</time>
      </trkpt>
      <trkpt lat="42.94221" lon="0.72564">
        <ele>1325.5</ele>
        <time>2020-02-23T13:34:22Z</time>
      </trkpt>
      <trkpt lat="42.94221" lon="0.72566">
        <ele>1325.3</ele>
        <time>2020-02-23T13:34:23Z</time>
      </trkpt>
      <trkpt lat="42.94221" lon="0.72567">
        <ele>1325.2</ele>
        <time>2020-02-23T13:34:24Z</time>
      </trkpt>
      <trkpt lat="42.94221" lon="0.72569">
        <ele>1325.1</ele>
        <time>2020-02-23T13:34:25Z</time>
      </trkpt>
      <trkpt lat="42.94221" lon="0.72572">
        <ele>1324.8</ele>
        <time>2020-02-23T13:34:26Z</time>
      </trkpt>
      <trkpt lat="42.9422" lon="0.72575">
        <ele>1324.5</ele>
        <time>2020-02-23T13:34:27Z</time>
      </trkpt>
      <trkpt lat="42.9422" lon="0.72577">
        <ele>1324.5</ele>
        <time>2020-02-23T13:34:28Z</time>
      </trkpt>
      <trkpt lat="42.94219" lon="0.7258">
        <ele>1324.5</ele>
        <time>2020-02-23T13:34:29Z</time>
      </trkpt>
      <trkpt lat="42.94219" lon="0.72583">
        <ele>1324.5</ele>
        <time>2020-02-23T13:34:30Z</time>
      </trkpt>
      <trkpt lat="42.94217" lon="0.72586">
        <ele>1324.1</ele>
        <time>2020-02-23T13:34:31Z</time>
      </trkpt>
      <trkpt lat="42.94216" lon="0.72588">
        <ele>1323.6</ele>
        <time>2020-02-23T13:34:32Z</time>
      </trkpt>
      <trkpt lat="42.94215" lon="0.72591">
        <ele>1323.2</ele>
        <time>2020-02-23T13:34:33Z</time>
      </trkpt>
      <trkpt lat="42.94214" lon="0.72593">
        <ele>1323.1</ele>
        <time>2020-02-23T13:34:34Z</time>
      </trkpt>
      <trkpt lat="42.94213" lon="0.72595">
        <ele>1323</ele>
        <time>2020-02-23T13:34:35Z</time>
      </trkpt>
      <trkpt lat="42.94212" lon="0.72597">
        <ele>1322.9</ele>
        <time>2020-02-23T13:34:36Z</time>
      </trkpt>
      <trkpt lat="42.94211" lon="0.72599">
        <ele>1322.8</ele>
        <time>2020-02-23T13:34:37Z</time>
      </trkpt>
      <trkpt lat="42.9421" lon="0.726">
        <ele>1323</ele>
        <time>2020-02-23T13:34:38Z</time>
      </trkpt>
      <trkpt lat="42.94209" lon="0.72602">
        <ele>1323.2</ele>
        <time>2020-02-23T13:34:39Z</time>
      </trkpt>
      <trkpt lat="42.94208" lon="0.72604">
        <ele>1323.4</ele>
        <time>2020-02-23T13:34:40Z</time>
      </trkpt>
      <trkpt lat="42.94207" lon="0.72605">
        <ele>1323.5</ele>
        <time>2020-02-23T13:34:41Z</time>
      </trkpt>
      <trkpt lat="42.94206" lon="0.72606">
        <ele>1323.7</ele>
        <time>2020-02-23T13:34:42Z</time>
      </trkpt>
      <trkpt lat="42.94205" lon="0.72607">
        <ele>1323.9</ele>
        <time>2020-02-23T13:34:43Z</time>
      </trkpt>
      <trkpt lat="42.94204" lon="0.72608">
        <ele>1324.2</ele>
        <time>2020-02-23T13:34:44Z</time>
      </trkpt>
      <trkpt lat="42.94204" lon="0.72609">
        <ele>1324.5</ele>
        <time>2020-02-23T13:34:45Z</time>
      </trkpt>
      <trkpt lat="42.94203" lon="0.72611">
        <ele>1324.7</ele>
        <time>2020-02-23T13:34:46Z</time>
      </trkpt>
      <trkpt lat="42.94202" lon="0.72612">
        <ele>1325</ele>
        <time>2020-02-23T13:34:47Z</time>
      </trkpt>
      <trkpt lat="42.94201" lon="0.72613">
        <ele>1325.3</ele>
        <time>2020-02-23T13:34:48Z</time>
      </trkpt>
      <trkpt lat="42.94201" lon="0.72616">
        <ele>1325.6</ele>
        <time>2020-02-23T13:34:49Z</time>
      </trkpt>
      <trkpt lat="42.942" lon="0.72619">
        <ele>1325.8</ele>
        <time>2020-02-23T13:34:50Z</time>
      </trkpt>
      <trkpt lat="42.942" lon="0.72622">
        <ele>1326</ele>
        <time>2020-02-23T13:34:51Z</time>
      </trkpt>
      <trkpt lat="42.942" lon="0.72625">
        <ele>1326.3</ele>
        <time>2020-02-23T13:34:52Z</time>
      </trkpt>
      <trkpt lat="42.94199" lon="0.72627">
        <ele>1326.4</ele>
        <time>2020-02-23T13:34:53Z</time>
      </trkpt>
      <trkpt lat="42.94199" lon="0.72629">
        <ele>1326.4</ele>
        <time>2020-02-23T13:34:54Z</time>
      </trkpt>
      <trkpt lat="42.94199" lon="0.72631">
        <ele>1326.5</ele>
        <time>2020-02-23T13:34:55Z</time>
      </trkpt>
      <trkpt lat="42.94199" lon="0.72633">
        <ele>1326.4</ele>
        <time>2020-02-23T13:34:56Z</time>
      </trkpt>
      <trkpt lat="42.94198" lon="0.72635">
        <ele>1325.9</ele>
        <time>2020-02-23T13:34:57Z</time>
      </trkpt>
      <trkpt lat="42.94198" lon="0.72637">
        <ele>1325.4</ele>
        <time>2020-02-23T13:34:58Z</time>
      </trkpt>
      <trkpt lat="42.94198" lon="0.72639">
        <ele>1324.8</ele>
        <time>2020-02-23T13:34:59Z</time>
      </trkpt>
      <trkpt lat="42.94198" lon="0.7264">
        <ele>1324.3</ele>
        <time>2020-02-23T13:35:00Z</time>
      </trkpt>
      <trkpt lat="42.94197" lon="0.72642">
        <ele>1323.8</ele>
        <time>2020-02-23T13:35:01Z</time>
      </trkpt>
      <trkpt lat="42.94197" lon="0.72644">
        <ele>1323.4</ele>
        <time>2020-02-23T13:35:02Z</time>
      </trkpt>
      <trkpt lat="42.94196" lon="0.72646">
        <ele>1323.2</ele>
        <time>2020-02-23T13:35:03Z</time>
      </trkpt>
      <trkpt lat="42.94196" lon="0.72648">
        <ele>1323</ele>
        <time>2020-02-23T13:35:04Z</time>
      </trkpt>
      <trkpt lat="42.94196" lon="0.7265">
        <ele>1322.8</ele>
        <time>2020-02-23T13:35:05Z</time>
      </trkpt>
      <trkpt lat="42.94195" lon="0.72651">
        <ele>1322.6</ele>
        <time>2020-02-23T13:35:06Z</time>
      </trkpt>
      <trkpt lat="42.94195" lon="0.72653">
        <ele>1322.4</ele>
        <time>2020-02-23T13:35:07Z</time>
      </trkpt>
      <trkpt lat="42.94195" lon="0.72654">
        <ele>1322.3</ele>
        <time>2020-02-23T13:35:08Z</time>
      </trkpt>
      <trkpt lat="42.94195" lon="0.72655">
        <ele>1322.2</ele>
        <time>2020-02-23T13:35:09Z</time>
      </trkpt>
      <trkpt lat="42.94195" lon="0.72656">
        <ele>1322.1</ele>
        <time>2020-02-23T13:35:10Z</time>
      </trkpt>
      <trkpt lat="42.94195" lon="0.72657">
        <ele>1322</ele>
        <time>2020-02-23T13:35:11Z</time>
      </trkpt>
      <trkpt lat="42.94195" lon="0.72658">
        <ele>1321.9</ele>
        <time>2020-02-23T13:35:12Z</time>
      </trkpt>
      <trkpt lat="42.94195" lon="0.72659">
        <ele>1321.8</ele>
        <time>2020-02-23T13:35:13Z</time>
      </trkpt>
      <trkpt lat="42.94195" lon="0.7266">
        <ele>1321.7</ele>
        <time>2020-02-23T13:35:14Z</time>
      </trkpt>
      <trkpt lat="42.94195" lon="0.72661">
        <ele>1321.6</ele>
        <time>2020-02-23T13:35:15Z</time>
      </trkpt>
      <trkpt lat="42.94196" lon="0.72662">
        <ele>1321.5</ele>
        <time>2020-02-23T13:35:16Z</time>
      </trkpt>
      <trkpt lat="42.94196" lon="0.72663">
        <ele>1321.4</ele>
        <time>2020-02-23T13:35:17Z</time>
      </trkpt>
      <trkpt lat="42.94196" lon="0.72664">
        <ele>1321.2</ele>
        <time>2020-02-23T13:35:18Z</time>
      </trkpt>
      <trkpt lat="42.94196" lon="0.72665">
        <ele>1321.1</ele>
        <time>2020-02-23T13:35:19Z</time>
      </trkpt>
      <trkpt lat="42.94196" lon="0.72666">
        <ele>1320.9</ele>
        <time>2020-02-23T13:35:20Z</time>
      </trkpt>
      <trkpt lat="42.94196" lon="0.72668">
        <ele>1320.6</ele>
        <time>2020-02-23T13:35:21Z</time>
      </trkpt>
      <trkpt lat="42.94196" lon="0.72669">
        <ele>1320.3</ele>
        <time>2020-02-23T13:35:22Z</time>
      </trkpt>
      <trkpt lat="42.94196" lon="0.72671">
        <ele>1320</ele>
        <time>2020-02-23T13:35:23Z</time>
      </trkpt>
      <trkpt lat="42.94196" lon="0.72673">
        <ele>1319.7</ele>
        <time>2020-02-23T13:35:24Z</time>
      </trkpt>
      <trkpt lat="42.94196" lon="0.72674">
        <ele>1319.5</ele>
        <time>2020-02-23T13:35:25Z</time>
      </trkpt>
      <trkpt lat="42.94196" lon="0.72676">
        <ele>1319.4</ele>
        <time>2020-02-23T13:35:26Z</time>
      </trkpt>
      <trkpt lat="42.94196" lon="0.72677">
        <ele>1319.3</ele>
        <time>2020-02-23T13:35:27Z</time>
      </trkpt>
      <trkpt lat="42.94196" lon="0.72679">
        <ele>1319.1</ele>
        <time>2020-02-23T13:35:28Z</time>
      </trkpt>
      <trkpt lat="42.94195" lon="0.72682">
        <ele>1318.9</ele>
        <time>2020-02-23T13:35:29Z</time>
      </trkpt>
      <trkpt lat="42.94194" lon="0.72684">
        <ele>1318.7</ele>
        <time>2020-02-23T13:35:30Z</time>
      </trkpt>
      <trkpt lat="42.94192" lon="0.72687">
        <ele>1318.5</ele>
        <time>2020-02-23T13:35:31Z</time>
      </trkpt>
      <trkpt lat="42.94191" lon="0.72689">
        <ele>1318.3</ele>
        <time>2020-02-23T13:35:32Z</time>
      </trkpt>
      <trkpt lat="42.9419" lon="0.72692">
        <ele>1318</ele>
        <time>2020-02-23T13:35:33Z</time>
      </trkpt>
      <trkpt lat="42.94189" lon="0.72694">
        <ele>1317.8</ele>
        <time>2020-02-23T13:35:34Z</time>
      </trkpt>
      <trkpt lat="42.94188" lon="0.72697">
        <ele>1317.6</ele>
        <time>2020-02-23T13:35:35Z</time>
      </trkpt>
      <trkpt lat="42.94187" lon="0.72699">
        <ele>1317.4</ele>
        <time>2020-02-23T13:35:36Z</time>
      </trkpt>
      <trkpt lat="42.94185" lon="0.72701">
        <ele>1317.5</ele>
        <time>2020-02-23T13:35:37Z</time>
      </trkpt>
      <trkpt lat="42.94184" lon="0.72704">
        <ele>1317.5</ele>
        <time>2020-02-23T13:35:38Z</time>
      </trkpt>
      <trkpt lat="42.94183" lon="0.72706">
        <ele>1317.7</ele>
        <time>2020-02-23T13:35:39Z</time>
      </trkpt>
      <trkpt lat="42.94181" lon="0.72708">
        <ele>1318.2</ele>
        <time>2020-02-23T13:35:40Z</time>
      </trkpt>
      <trkpt lat="42.9418" lon="0.7271">
        <ele>1318.7</ele>
        <time>2020-02-23T13:35:41Z</time>
      </trkpt>
      <trkpt lat="42.94179" lon="0.72712">
        <ele>1319.1</ele>
        <time>2020-02-23T13:35:42Z</time>
      </trkpt>
      <trkpt lat="42.94177" lon="0.72715">
        <ele>1319.5</ele>
        <time>2020-02-23T13:35:43Z</time>
      </trkpt>
      <trkpt lat="42.94176" lon="0.72716">
        <ele>1319.8</ele>
        <time>2020-02-23T13:35:44Z</time>
      </trkpt>
      <trkpt lat="42.94174" lon="0.72718">
        <ele>1320.2</ele>
        <time>2020-02-23T13:35:45Z</time>
      </trkpt>
      <trkpt lat="42.94173" lon="0.72719">
        <ele>1320.5</ele>
        <time>2020-02-23T13:35:46Z</time>
      </trkpt>
      <trkpt lat="42.94171" lon="0.72721">
        <ele>1320.9</ele>
        <time>2020-02-23T13:35:47Z</time>
      </trkpt>
      <trkpt lat="42.9417" lon="0.72722">
        <ele>1321.3</ele>
        <time>2020-02-23T13:35:48Z</time>
      </trkpt>
      <trkpt lat="42.94169" lon="0.72723">
        <ele>1321.5</ele>
        <time>2020-02-23T13:35:49Z</time>
      </trkpt>
      <trkpt lat="42.94169" lon="0.72724">
        <ele>1321.7</ele>
        <time>2020-02-23T13:35:50Z</time>
      </trkpt>
      <trkpt lat="42.94168" lon="0.72725">
        <ele>1322</ele>
        <time>2020-02-23T13:35:51Z</time>
      </trkpt>
      <trkpt lat="42.94167" lon="0.72726">
        <ele>1322.2</ele>
        <time>2020-02-23T13:35:52Z</time>
      </trkpt>
      <trkpt lat="42.94166" lon="0.72727">
        <ele>1322.4</ele>
        <time>2020-02-23T13:35:53Z</time>
      </trkpt>
      <trkpt lat="42.94165" lon="0.72728">
        <ele>1322.7</ele>
        <time>2020-02-23T13:35:54Z</time>
      </trkpt>
      <trkpt lat="42.94165" lon="0.72729">
        <ele>1322.9</ele>
        <time>2020-02-23T13:35:55Z</time>
      </trkpt>
      <trkpt lat="42.94164" lon="0.7273">
        <ele>1323.1</ele>
        <time>2020-02-23T13:35:56Z</time>
      </trkpt>
      <trkpt lat="42.94163" lon="0.72731">
        <ele>1323.4</ele>
        <time>2020-02-23T13:35:57Z</time>
      </trkpt>
      <trkpt lat="42.94162" lon="0.72731">
        <ele>1323.7</ele>
        <time>2020-02-23T13:35:58Z</time>
      </trkpt>
      <trkpt lat="42.94161" lon="0.72732">
        <ele>1323.9</ele>
        <time>2020-02-23T13:35:59Z</time>
      </trkpt>
      <trkpt lat="42.9416" lon="0.72732">
        <ele>1324.2</ele>
        <time>2020-02-23T13:36:00Z</time>
      </trkpt>
      <trkpt lat="42.94159" lon="0.72733">
        <ele>1324.5</ele>
        <time>2020-02-23T13:36:01Z</time>
      </trkpt>
      <trkpt lat="42.94158" lon="0.72733">
        <ele>1324.8</ele>
        <time>2020-02-23T13:36:02Z</time>
      </trkpt>
      <trkpt lat="42.94156" lon="0.72733">
        <ele>1325</ele>
        <time>2020-02-23T13:36:03Z</time>
      </trkpt>
      <trkpt lat="42.94155" lon="0.72734">
        <ele>1325.1</ele>
        <time>2020-02-23T13:36:04Z</time>
      </trkpt>
      <trkpt lat="42.94154" lon="0.72734">
        <ele>1325.1</ele>
        <time>2020-02-23T13:36:05Z</time>
      </trkpt>
      <trkpt lat="42.94154" lon="0.72735">
        <ele>1325.1</ele>
        <time>2020-02-23T13:36:06Z</time>
      </trkpt>
      <trkpt lat="42.94153" lon="0.72736">
        <ele>1325.2</ele>
        <time>2020-02-23T13:36:07Z</time>
      </trkpt>
      <trkpt lat="42.94153" lon="0.72737">
        <ele>1325.2</ele>
        <time>2020-02-23T13:36:08Z</time>
      </trkpt>
      <trkpt lat="42.94152" lon="0.72738">
        <ele>1325.2</ele>
        <time>2020-02-23T13:36:09Z</time>
      </trkpt>
      <trkpt lat="42.94152" lon="0.72738">
        <ele>1325.2</ele>
        <time>2020-02-23T13:36:10Z</time>
      </trkpt>
      <trkpt lat="42.94151" lon="0.72739">
        <ele>1325.1</ele>
        <time>2020-02-23T13:36:11Z</time>
      </trkpt>
      <trkpt lat="42.94151" lon="0.7274">
        <ele>1325</ele>
        <time>2020-02-23T13:36:12Z</time>
      </trkpt>
      <trkpt lat="42.9415" lon="0.72741">
        <ele>1324.9</ele>
        <time>2020-02-23T13:36:13Z</time>
      </trkpt>
      <trkpt lat="42.9415" lon="0.72742">
        <ele>1324.8</ele>
        <time>2020-02-23T13:36:14Z</time>
      </trkpt>
      <trkpt lat="42.94149" lon="0.72743">
        <ele>1324.7</ele>
        <time>2020-02-23T13:36:15Z</time>
      </trkpt>
      <trkpt lat="42.94149" lon="0.72744">
        <ele>1324.6</ele>
        <time>2020-02-23T13:36:16Z</time>
      </trkpt>
      <trkpt lat="42.94148" lon="0.72745">
        <ele>1324.4</ele>
        <time>2020-02-23T13:36:17Z</time>
      </trkpt>
      <trkpt lat="42.94147" lon="0.72747">
        <ele>1324.3</ele>
        <time>2020-02-23T13:36:18Z</time>
      </trkpt>
      <trkpt lat="42.94147" lon="0.72748">
        <ele>1324.1</ele>
        <time>2020-02-23T13:36:19Z</time>
      </trkpt>
      <trkpt lat="42.94146" lon="0.7275">
        <ele>1323.9</ele>
        <time>2020-02-23T13:36:20Z</time>
      </trkpt>
      <trkpt lat="42.94146" lon="0.72751">
        <ele>1323.7</ele>
        <time>2020-02-23T13:36:21Z</time>
      </trkpt>
      <trkpt lat="42.94145" lon="0.72752">
        <ele>1323.6</ele>
        <time>2020-02-23T13:36:22Z</time>
      </trkpt>
      <trkpt lat="42.94144" lon="0.72754">
        <ele>1323.4</ele>
        <time>2020-02-23T13:36:23Z</time>
      </trkpt>
      <trkpt lat="42.94144" lon="0.72755">
        <ele>1323.2</ele>
        <time>2020-02-23T13:36:24Z</time>
      </trkpt>
      <trkpt lat="42.94143" lon="0.72756">
        <ele>1323.1</ele>
        <time>2020-02-23T13:36:25Z</time>
      </trkpt>
      <trkpt lat="42.94143" lon="0.72757">
        <ele>1323</ele>
        <time>2020-02-23T13:36:26Z</time>
      </trkpt>
      <trkpt lat="42.94143" lon="0.72758">
        <ele>1322.9</ele>
        <time>2020-02-23T13:36:27Z</time>
      </trkpt>
      <trkpt lat="42.94143" lon="0.7276">
        <ele>1322.8</ele>
        <time>2020-02-23T13:36:28Z</time>
      </trkpt>
      <trkpt lat="42.94143" lon="0.72761">
        <ele>1322.7</ele>
        <time>2020-02-23T13:36:29Z</time>
      </trkpt>
      <trkpt lat="42.94143" lon="0.72762">
        <ele>1322.6</ele>
        <time>2020-02-23T13:36:30Z</time>
      </trkpt>
      <trkpt lat="42.94142" lon="0.72763">
        <ele>1322.5</ele>
        <time>2020-02-23T13:36:31Z</time>
      </trkpt>
      <trkpt lat="42.94142" lon="0.72764">
        <ele>1322.5</ele>
        <time>2020-02-23T13:36:32Z</time>
      </trkpt>
      <trkpt lat="42.94142" lon="0.72765">
        <ele>1322.5</ele>
        <time>2020-02-23T13:36:33Z</time>
      </trkpt>
      <trkpt lat="42.94142" lon="0.72766">
        <ele>1322.5</ele>
        <time>2020-02-23T13:36:34Z</time>
      </trkpt>
      <trkpt lat="42.94142" lon="0.72767">
        <ele>1322.5</ele>
        <time>2020-02-23T13:36:35Z</time>
      </trkpt>
      <trkpt lat="42.94142" lon="0.72768">
        <ele>1322.5</ele>
        <time>2020-02-23T13:36:36Z</time>
      </trkpt>
      <trkpt lat="42.94141" lon="0.7277">
        <ele>1322.6</ele>
        <time>2020-02-23T13:36:37Z</time>
      </trkpt>
      <trkpt lat="42.9414" lon="0.72772">
        <ele>1322.6</ele>
        <time>2020-02-23T13:36:38Z</time>
      </trkpt>
      <trkpt lat="42.94139" lon="0.72774">
        <ele>1322.4</ele>
        <time>2020-02-23T13:36:39Z</time>
      </trkpt>
      <trkpt lat="42.94138" lon="0.72776">
        <ele>1322.2</ele>
        <time>2020-02-23T13:36:40Z</time>
      </trkpt>
      <trkpt lat="42.94137" lon="0.72778">
        <ele>1322</ele>
        <time>2020-02-23T13:36:41Z</time>
      </trkpt>
      <trkpt lat="42.94136" lon="0.72779">
        <ele>1321.8</ele>
        <time>2020-02-23T13:36:42Z</time>
      </trkpt>
      <trkpt lat="42.94136" lon="0.72781">
        <ele>1321.6</ele>
        <time>2020-02-23T13:36:43Z</time>
      </trkpt>
      <trkpt lat="42.94135" lon="0.72782">
        <ele>1321.4</ele>
        <time>2020-02-23T13:36:44Z</time>
      </trkpt>
      <trkpt lat="42.94135" lon="0.72784">
        <ele>1321.2</ele>
        <time>2020-02-23T13:36:45Z</time>
      </trkpt>
      <trkpt lat="42.94134" lon="0.72785">
        <ele>1321</ele>
        <time>2020-02-23T13:36:46Z</time>
      </trkpt>
      <trkpt lat="42.94134" lon="0.72787">
        <ele>1320.9</ele>
        <time>2020-02-23T13:36:47Z</time>
      </trkpt>
      <trkpt lat="42.94133" lon="0.72788">
        <ele>1320.8</ele>
        <time>2020-02-23T13:36:48Z</time>
      </trkpt>
      <trkpt lat="42.94133" lon="0.7279">
        <ele>1320.7</ele>
        <time>2020-02-23T13:36:49Z</time>
      </trkpt>
      <trkpt lat="42.94132" lon="0.72791">
        <ele>1320.7</ele>
        <time>2020-02-23T13:36:50Z</time>
      </trkpt>
      <trkpt lat="42.94132" lon="0.72793">
        <ele>1320.7</ele>
        <time>2020-02-23T13:36:51Z</time>
      </trkpt>
      <trkpt lat="42.94132" lon="0.72794">
        <ele>1320.7</ele>
        <time>2020-02-23T13:36:52Z</time>
      </trkpt>
      <trkpt lat="42.94132" lon="0.72795">
        <ele>1320.7</ele>
        <time>2020-02-23T13:36:53Z</time>
      </trkpt>
      <trkpt lat="42.94133" lon="0.72797">
        <ele>1320.5</ele>
        <time>2020-02-23T13:36:54Z</time>
      </trkpt>
      <trkpt lat="42.94133" lon="0.72798">
        <ele>1320.2</ele>
        <time>2020-02-23T13:36:55Z</time>
      </trkpt>
      <trkpt lat="42.94133" lon="0.72799">
        <ele>1319.9</ele>
        <time>2020-02-23T13:36:56Z</time>
      </trkpt>
      <trkpt lat="42.94133" lon="0.72801">
        <ele>1319.6</ele>
        <time>2020-02-23T13:36:57Z</time>
      </trkpt>
      <trkpt lat="42.94133" lon="0.72802">
        <ele>1319.3</ele>
        <time>2020-02-23T13:36:58Z</time>
      </trkpt>
      <trkpt lat="42.94133" lon="0.72803">
        <ele>1318.9</ele>
        <time>2020-02-23T13:36:59Z</time>
      </trkpt>
      <trkpt lat="42.94133" lon="0.72805">
        <ele>1318.6</ele>
        <time>2020-02-23T13:37:00Z</time>
      </trkpt>
      <trkpt lat="42.94133" lon="0.72806">
        <ele>1318.3</ele>
        <time>2020-02-23T13:37:01Z</time>
      </trkpt>
      <trkpt lat="42.94133" lon="0.72808">
        <ele>1318.1</ele>
        <time>2020-02-23T13:37:02Z</time>
      </trkpt>
      <trkpt lat="42.94133" lon="0.72809">
        <ele>1317.9</ele>
        <time>2020-02-23T13:37:03Z</time>
      </trkpt>
      <trkpt lat="42.94133" lon="0.72811">
        <ele>1317.7</ele>
        <time>2020-02-23T13:37:04Z</time>
      </trkpt>
      <trkpt lat="42.94133" lon="0.72812">
        <ele>1317.6</ele>
        <time>2020-02-23T13:37:05Z</time>
      </trkpt>
      <trkpt lat="42.94133" lon="0.72814">
        <ele>1317.4</ele>
        <time>2020-02-23T13:37:06Z</time>
      </trkpt>
      <trkpt lat="42.94133" lon="0.72815">
        <ele>1317.2</ele>
        <time>2020-02-23T13:37:07Z</time>
      </trkpt>
      <trkpt lat="42.94132" lon="0.72817">
        <ele>1317</ele>
        <time>2020-02-23T13:37:08Z</time>
      </trkpt>
      <trkpt lat="42.94132" lon="0.72818">
        <ele>1316.8</ele>
        <time>2020-02-23T13:37:09Z</time>
      </trkpt>
      <trkpt lat="42.94131" lon="0.72821">
        <ele>1316.3</ele>
        <time>2020-02-23T13:37:10Z</time>
      </trkpt>
      <trkpt lat="42.9413" lon="0.72825">
        <ele>1315.7</ele>
        <time>2020-02-23T13:37:11Z</time>
      </trkpt>
      <trkpt lat="42.94129" lon="0.72828">
        <ele>1315</ele>
        <time>2020-02-23T13:37:12Z</time>
      </trkpt>
      <trkpt lat="42.94128" lon="0.72831">
        <ele>1314.2</ele>
        <time>2020-02-23T13:37:13Z</time>
      </trkpt>
      <trkpt lat="42.94127" lon="0.72835">
        <ele>1313.4</ele>
        <time>2020-02-23T13:37:14Z</time>
      </trkpt>
      <trkpt lat="42.94126" lon="0.72838">
        <ele>1313</ele>
        <time>2020-02-23T13:37:15Z</time>
      </trkpt>
      <trkpt lat="42.94125" lon="0.72841">
        <ele>1312.7</ele>
        <time>2020-02-23T13:37:16Z</time>
      </trkpt>
      <trkpt lat="42.94124" lon="0.72845">
        <ele>1312.4</ele>
        <time>2020-02-23T13:37:17Z</time>
      </trkpt>
      <trkpt lat="42.94122" lon="0.72848">
        <ele>1312</ele>
        <time>2020-02-23T13:37:18Z</time>
      </trkpt>
      <trkpt lat="42.94121" lon="0.72851">
        <ele>1311.5</ele>
        <time>2020-02-23T13:37:19Z</time>
      </trkpt>
      <trkpt lat="42.9412" lon="0.72855">
        <ele>1311</ele>
        <time>2020-02-23T13:37:20Z</time>
      </trkpt>
      <trkpt lat="42.94113" lon="0.7287">
        <ele>1311.6</ele>
        <time>2020-02-23T13:37:21Z</time>
      </trkpt>
      <trkpt lat="42.94113" lon="0.7287">
        <ele>1311.6</ele>
        <time>2020-02-23T13:37:22Z</time>
      </trkpt>
      <trkpt lat="42.9411" lon="0.72873">
        <ele>1311</ele>
        <time>2020-02-23T13:37:23Z</time>
      </trkpt>
      <trkpt lat="42.94106" lon="0.72877">
        <ele>1310.6</ele>
        <time>2020-02-23T13:37:24Z</time>
      </trkpt>
      <trkpt lat="42.94103" lon="0.7288">
        <ele>1311</ele>
        <time>2020-02-23T13:37:25Z</time>
      </trkpt>
      <trkpt lat="42.941" lon="0.72883">
        <ele>1311.3</ele>
        <time>2020-02-23T13:37:26Z</time>
      </trkpt>
      <trkpt lat="42.94097" lon="0.72885">
        <ele>1311.3</ele>
        <time>2020-02-23T13:37:27Z</time>
      </trkpt>
      <trkpt lat="42.94094" lon="0.72888">
        <ele>1311.3</ele>
        <time>2020-02-23T13:37:28Z</time>
      </trkpt>
      <trkpt lat="42.94092" lon="0.7289">
        <ele>1311.4</ele>
        <time>2020-02-23T13:37:29Z</time>
      </trkpt>
      <trkpt lat="42.9409" lon="0.72892">
        <ele>1311.5</ele>
        <time>2020-02-23T13:37:30Z</time>
      </trkpt>
      <trkpt lat="42.94089" lon="0.72894">
        <ele>1311.6</ele>
        <time>2020-02-23T13:37:31Z</time>
      </trkpt>
      <trkpt lat="42.94087" lon="0.72896">
        <ele>1311.7</ele>
        <time>2020-02-23T13:37:32Z</time>
      </trkpt>
      <trkpt lat="42.94085" lon="0.72897">
        <ele>1311.9</ele>
        <time>2020-02-23T13:37:33Z</time>
      </trkpt>
      <trkpt lat="42.94084" lon="0.72899">
        <ele>1312.1</ele>
        <time>2020-02-23T13:37:34Z</time>
      </trkpt>
      <trkpt lat="42.94083" lon="0.729">
        <ele>1312.3</ele>
        <time>2020-02-23T13:37:35Z</time>
      </trkpt>
      <trkpt lat="42.94082" lon="0.72902">
        <ele>1312.4</ele>
        <time>2020-02-23T13:37:36Z</time>
      </trkpt>
      <trkpt lat="42.94081" lon="0.72903">
        <ele>1312.6</ele>
        <time>2020-02-23T13:37:37Z</time>
      </trkpt>
      <trkpt lat="42.94079" lon="0.72904">
        <ele>1312.6</ele>
        <time>2020-02-23T13:37:38Z</time>
      </trkpt>
      <trkpt lat="42.94078" lon="0.72906">
        <ele>1312.5</ele>
        <time>2020-02-23T13:37:39Z</time>
      </trkpt>
      <trkpt lat="42.94077" lon="0.72907">
        <ele>1312.5</ele>
        <time>2020-02-23T13:37:40Z</time>
      </trkpt>
      <trkpt lat="42.94076" lon="0.72908">
        <ele>1312.5</ele>
        <time>2020-02-23T13:37:41Z</time>
      </trkpt>
      <trkpt lat="42.94076" lon="0.7291">
        <ele>1312.4</ele>
        <time>2020-02-23T13:37:42Z</time>
      </trkpt>
      <trkpt lat="42.94075" lon="0.72911">
        <ele>1312.4</ele>
        <time>2020-02-23T13:37:43Z</time>
      </trkpt>
      <trkpt lat="42.94074" lon="0.72912">
        <ele>1312.5</ele>
        <time>2020-02-23T13:37:44Z</time>
      </trkpt>
      <trkpt lat="42.94073" lon="0.72914">
        <ele>1312.6</ele>
        <time>2020-02-23T13:37:45Z</time>
      </trkpt>
      <trkpt lat="42.94072" lon="0.72915">
        <ele>1312.7</ele>
        <time>2020-02-23T13:37:46Z</time>
      </trkpt>
      <trkpt lat="42.9407" lon="0.72916">
        <ele>1312.8</ele>
        <time>2020-02-23T13:37:47Z</time>
      </trkpt>
      <trkpt lat="42.94069" lon="0.72917">
        <ele>1312.8</ele>
        <time>2020-02-23T13:37:48Z</time>
      </trkpt>
      <trkpt lat="42.94068" lon="0.72918">
        <ele>1312.9</ele>
        <time>2020-02-23T13:37:49Z</time>
      </trkpt>
      <trkpt lat="42.94067" lon="0.72919">
        <ele>1313</ele>
        <time>2020-02-23T13:37:50Z</time>
      </trkpt>
      <trkpt lat="42.94065" lon="0.7292">
        <ele>1313.1</ele>
        <time>2020-02-23T13:37:51Z</time>
      </trkpt>
      <trkpt lat="42.94064" lon="0.72921">
        <ele>1313.2</ele>
        <time>2020-02-23T13:37:52Z</time>
      </trkpt>
      <trkpt lat="42.94063" lon="0.72922">
        <ele>1313.3</ele>
        <time>2020-02-23T13:37:53Z</time>
      </trkpt>
      <trkpt lat="42.94062" lon="0.72924">
        <ele>1313.4</ele>
        <time>2020-02-23T13:37:54Z</time>
      </trkpt>
      <trkpt lat="42.9406" lon="0.72925">
        <ele>1313.4</ele>
        <time>2020-02-23T13:37:55Z</time>
      </trkpt>
      <trkpt lat="42.94059" lon="0.72926">
        <ele>1313.3</ele>
        <time>2020-02-23T13:37:56Z</time>
      </trkpt>
      <trkpt lat="42.94057" lon="0.72927">
        <ele>1313.1</ele>
        <time>2020-02-23T13:37:57Z</time>
      </trkpt>
      <trkpt lat="42.94056" lon="0.72928">
        <ele>1313</ele>
        <time>2020-02-23T13:37:58Z</time>
      </trkpt>
      <trkpt lat="42.94054" lon="0.7293">
        <ele>1312.8</ele>
        <time>2020-02-23T13:37:59Z</time>
      </trkpt>
      <trkpt lat="42.94053" lon="0.72931">
        <ele>1312.8</ele>
        <time>2020-02-23T13:38:00Z</time>
      </trkpt>
      <trkpt lat="42.94052" lon="0.72932">
        <ele>1312.8</ele>
        <time>2020-02-23T13:38:01Z</time>
      </trkpt>
      <trkpt lat="42.9405" lon="0.72934">
        <ele>1312.8</ele>
        <time>2020-02-23T13:38:02Z</time>
      </trkpt>
      <trkpt lat="42.94049" lon="0.72935">
        <ele>1312.8</ele>
        <time>2020-02-23T13:38:03Z</time>
      </trkpt>
      <trkpt lat="42.94048" lon="0.72936">
        <ele>1312.8</ele>
        <time>2020-02-23T13:38:04Z</time>
      </trkpt>
      <trkpt lat="42.94046" lon="0.72938">
        <ele>1312.8</ele>
        <time>2020-02-23T13:38:05Z</time>
      </trkpt>
      <trkpt lat="42.94045" lon="0.72939">
        <ele>1312.9</ele>
        <time>2020-02-23T13:38:06Z</time>
      </trkpt>
      <trkpt lat="42.94044" lon="0.7294">
        <ele>1312.9</ele>
        <time>2020-02-23T13:38:07Z</time>
      </trkpt>
      <trkpt lat="42.94043" lon="0.72942">
        <ele>1312.9</ele>
        <time>2020-02-23T13:38:08Z</time>
      </trkpt>
      <trkpt lat="42.94042" lon="0.72943">
        <ele>1313</ele>
        <time>2020-02-23T13:38:09Z</time>
      </trkpt>
      <trkpt lat="42.94041" lon="0.72944">
        <ele>1313</ele>
        <time>2020-02-23T13:38:10Z</time>
      </trkpt>
      <trkpt lat="42.9404" lon="0.72945">
        <ele>1313</ele>
        <time>2020-02-23T13:38:11Z</time>
      </trkpt>
      <trkpt lat="42.94039" lon="0.72947">
        <ele>1312.9</ele>
        <time>2020-02-23T13:38:12Z</time>
      </trkpt>
      <trkpt lat="42.94038" lon="0.72948">
        <ele>1312.9</ele>
        <time>2020-02-23T13:38:13Z</time>
      </trkpt>
      <trkpt lat="42.94038" lon="0.72949">
        <ele>1312.9</ele>
        <time>2020-02-23T13:38:14Z</time>
      </trkpt>
      <trkpt lat="42.94036" lon="0.7295">
        <ele>1312.9</ele>
        <time>2020-02-23T13:38:15Z</time>
      </trkpt>
      <trkpt lat="42.94034" lon="0.72951">
        <ele>1312.7</ele>
        <time>2020-02-23T13:38:16Z</time>
      </trkpt>
      <trkpt lat="42.94033" lon="0.72952">
        <ele>1312.6</ele>
        <time>2020-02-23T13:38:17Z</time>
      </trkpt>
      <trkpt lat="42.94031" lon="0.72953">
        <ele>1312.4</ele>
        <time>2020-02-23T13:38:18Z</time>
      </trkpt>
      <trkpt lat="42.94029" lon="0.72954">
        <ele>1312.2</ele>
        <time>2020-02-23T13:38:19Z</time>
      </trkpt>
      <trkpt lat="42.94028" lon="0.72955">
        <ele>1312.1</ele>
        <time>2020-02-23T13:38:20Z</time>
      </trkpt>
      <trkpt lat="42.94026" lon="0.72955">
        <ele>1311.9</ele>
        <time>2020-02-23T13:38:21Z</time>
      </trkpt>
      <trkpt lat="42.94025" lon="0.72956">
        <ele>1311.7</ele>
        <time>2020-02-23T13:38:22Z</time>
      </trkpt>
      <trkpt lat="42.94023" lon="0.72956">
        <ele>1311.6</ele>
        <time>2020-02-23T13:38:23Z</time>
      </trkpt>
      <trkpt lat="42.94022" lon="0.72957">
        <ele>1311.4</ele>
        <time>2020-02-23T13:38:24Z</time>
      </trkpt>
      <trkpt lat="42.94021" lon="0.72957">
        <ele>1311.2</ele>
        <time>2020-02-23T13:38:25Z</time>
      </trkpt>
      <trkpt lat="42.94018" lon="0.72959">
        <ele>1310.8</ele>
        <time>2020-02-23T13:38:26Z</time>
      </trkpt>
      <trkpt lat="42.94016" lon="0.72961">
        <ele>1310.5</ele>
        <time>2020-02-23T13:38:27Z</time>
      </trkpt>
      <trkpt lat="42.94013" lon="0.72963">
        <ele>1310</ele>
        <time>2020-02-23T13:38:28Z</time>
      </trkpt>
      <trkpt lat="42.9401" lon="0.72964">
        <ele>1309.6</ele>
        <time>2020-02-23T13:38:29Z</time>
      </trkpt>
      <trkpt lat="42.94008" lon="0.72965">
        <ele>1309.2</ele>
        <time>2020-02-23T13:38:30Z</time>
      </trkpt>
      <trkpt lat="42.94006" lon="0.72966">
        <ele>1309.1</ele>
        <time>2020-02-23T13:38:31Z</time>
      </trkpt>
      <trkpt lat="42.94005" lon="0.72967">
        <ele>1309</ele>
        <time>2020-02-23T13:38:32Z</time>
      </trkpt>
      <trkpt lat="42.94003" lon="0.72968">
        <ele>1309</ele>
        <time>2020-02-23T13:38:33Z</time>
      </trkpt>
      <trkpt lat="42.94001" lon="0.72969">
        <ele>1308.8</ele>
        <time>2020-02-23T13:38:34Z</time>
      </trkpt>
      <trkpt lat="42.93999" lon="0.7297">
        <ele>1308.5</ele>
        <time>2020-02-23T13:38:35Z</time>
      </trkpt>
      <trkpt lat="42.93998" lon="0.72971">
        <ele>1308.3</ele>
        <time>2020-02-23T13:38:36Z</time>
      </trkpt>
      <trkpt lat="42.93996" lon="0.72972">
        <ele>1308</ele>
        <time>2020-02-23T13:38:37Z</time>
      </trkpt>
      <trkpt lat="42.93995" lon="0.72972">
        <ele>1307.7</ele>
        <time>2020-02-23T13:38:38Z</time>
      </trkpt>
      <trkpt lat="42.93993" lon="0.72973">
        <ele>1307.5</ele>
        <time>2020-02-23T13:38:39Z</time>
      </trkpt>
      <trkpt lat="42.93991" lon="0.72974">
        <ele>1307.4</ele>
        <time>2020-02-23T13:38:40Z</time>
      </trkpt>
      <trkpt lat="42.9399" lon="0.72974">
        <ele>1307.3</ele>
        <time>2020-02-23T13:38:41Z</time>
      </trkpt>
      <trkpt lat="42.93988" lon="0.72975">
        <ele>1307.4</ele>
        <time>2020-02-23T13:38:42Z</time>
      </trkpt>
      <trkpt lat="42.93987" lon="0.72976">
        <ele>1307.7</ele>
        <time>2020-02-23T13:38:43Z</time>
      </trkpt>
      <trkpt lat="42.93985" lon="0.72976">
        <ele>1307.9</ele>
        <time>2020-02-23T13:38:44Z</time>
      </trkpt>
      <trkpt lat="42.93983" lon="0.72976">
        <ele>1308</ele>
        <time>2020-02-23T13:38:45Z</time>
      </trkpt>
      <trkpt lat="42.93981" lon="0.72976">
        <ele>1307.9</ele>
        <time>2020-02-23T13:38:46Z</time>
      </trkpt>
      <trkpt lat="42.93979" lon="0.72976">
        <ele>1307.8</ele>
        <time>2020-02-23T13:38:47Z</time>
      </trkpt>
      <trkpt lat="42.93978" lon="0.72976">
        <ele>1307.8</ele>
        <time>2020-02-23T13:38:48Z</time>
      </trkpt>
      <trkpt lat="42.93976" lon="0.72976">
        <ele>1307.8</ele>
        <time>2020-02-23T13:38:49Z</time>
      </trkpt>
      <trkpt lat="42.93974" lon="0.72977">
        <ele>1307.9</ele>
        <time>2020-02-23T13:38:50Z</time>
      </trkpt>
      <trkpt lat="42.93973" lon="0.72977">
        <ele>1308</ele>
        <time>2020-02-23T13:38:51Z</time>
      </trkpt>
      <trkpt lat="42.93971" lon="0.72977">
        <ele>1308.1</ele>
        <time>2020-02-23T13:38:52Z</time>
      </trkpt>
      <trkpt lat="42.9397" lon="0.72977">
        <ele>1308.2</ele>
        <time>2020-02-23T13:38:53Z</time>
      </trkpt>
      <trkpt lat="42.93968" lon="0.72977">
        <ele>1308.3</ele>
        <time>2020-02-23T13:38:54Z</time>
      </trkpt>
      <trkpt lat="42.93967" lon="0.72977">
        <ele>1308.5</ele>
        <time>2020-02-23T13:38:55Z</time>
      </trkpt>
      <trkpt lat="42.93966" lon="0.72977">
        <ele>1308.6</ele>
        <time>2020-02-23T13:38:56Z</time>
      </trkpt>
      <trkpt lat="42.93964" lon="0.72976">
        <ele>1308.7</ele>
        <time>2020-02-23T13:38:57Z</time>
      </trkpt>
      <trkpt lat="42.93963" lon="0.72976">
        <ele>1308.9</ele>
        <time>2020-02-23T13:38:58Z</time>
      </trkpt>
      <trkpt lat="42.93961" lon="0.72976">
        <ele>1309</ele>
        <time>2020-02-23T13:38:59Z</time>
      </trkpt>
      <trkpt lat="42.9396" lon="0.72976">
        <ele>1309.1</ele>
        <time>2020-02-23T13:39:00Z</time>
      </trkpt>
      <trkpt lat="42.93958" lon="0.72975">
        <ele>1309.3</ele>
        <time>2020-02-23T13:39:01Z</time>
      </trkpt>
      <trkpt lat="42.93957" lon="0.72975">
        <ele>1309.4</ele>
        <time>2020-02-23T13:39:02Z</time>
      </trkpt>
      <trkpt lat="42.93956" lon="0.72974">
        <ele>1309.5</ele>
        <time>2020-02-23T13:39:03Z</time>
      </trkpt>
      <trkpt lat="42.93955" lon="0.72973">
        <ele>1309.6</ele>
        <time>2020-02-23T13:39:04Z</time>
      </trkpt>
      <trkpt lat="42.93954" lon="0.72972">
        <ele>1309.7</ele>
        <time>2020-02-23T13:39:05Z</time>
      </trkpt>
      <trkpt lat="42.93953" lon="0.72972">
        <ele>1309.8</ele>
        <time>2020-02-23T13:39:06Z</time>
      </trkpt>
      <trkpt lat="42.93951" lon="0.72971">
        <ele>1309.9</ele>
        <time>2020-02-23T13:39:07Z</time>
      </trkpt>
      <trkpt lat="42.9395" lon="0.7297">
        <ele>1310</ele>
        <time>2020-02-23T13:39:08Z</time>
      </trkpt>
      <trkpt lat="42.93949" lon="0.7297">
        <ele>1310.2</ele>
        <time>2020-02-23T13:39:09Z</time>
      </trkpt>
      <trkpt lat="42.93948" lon="0.72969">
        <ele>1310.2</ele>
        <time>2020-02-23T13:39:10Z</time>
      </trkpt>
      <trkpt lat="42.93947" lon="0.72968">
        <ele>1310.3</ele>
        <time>2020-02-23T13:39:11Z</time>
      </trkpt>
      <trkpt lat="42.93946" lon="0.72967">
        <ele>1310.4</ele>
        <time>2020-02-23T13:39:12Z</time>
      </trkpt>
      <trkpt lat="42.93945" lon="0.72966">
        <ele>1310.6</ele>
        <time>2020-02-23T13:39:13Z</time>
      </trkpt>
      <trkpt lat="42.93944" lon="0.72965">
        <ele>1310.8</ele>
        <time>2020-02-23T13:39:14Z</time>
      </trkpt>
      <trkpt lat="42.93943" lon="0.72964">
        <ele>1310.9</ele>
        <time>2020-02-23T13:39:15Z</time>
      </trkpt>
      <trkpt lat="42.93943" lon="0.72963">
        <ele>1311</ele>
        <time>2020-02-23T13:39:16Z</time>
      </trkpt>
      <trkpt lat="42.93942" lon="0.72962">
        <ele>1311.1</ele>
        <time>2020-02-23T13:39:17Z</time>
      </trkpt>
      <trkpt lat="42.9394" lon="0.72961">
        <ele>1311.1</ele>
        <time>2020-02-23T13:39:18Z</time>
      </trkpt>
      <trkpt lat="42.93939" lon="0.72961">
        <ele>1311.1</ele>
        <time>2020-02-23T13:39:19Z</time>
      </trkpt>
      <trkpt lat="42.93938" lon="0.7296">
        <ele>1311.1</ele>
        <time>2020-02-23T13:39:20Z</time>
      </trkpt>
      <trkpt lat="42.93937" lon="0.7296">
        <ele>1311.2</ele>
        <time>2020-02-23T13:39:21Z</time>
      </trkpt>
      <trkpt lat="42.93936" lon="0.72959">
        <ele>1311.2</ele>
        <time>2020-02-23T13:39:22Z</time>
      </trkpt>
      <trkpt lat="42.93934" lon="0.72959">
        <ele>1311.2</ele>
        <time>2020-02-23T13:39:23Z</time>
      </trkpt>
      <trkpt lat="42.93933" lon="0.72958">
        <ele>1311.3</ele>
        <time>2020-02-23T13:39:24Z</time>
      </trkpt>
      <trkpt lat="42.93932" lon="0.72958">
        <ele>1311.4</ele>
        <time>2020-02-23T13:39:25Z</time>
      </trkpt>
      <trkpt lat="42.9393" lon="0.72958">
        <ele>1311.4</ele>
        <time>2020-02-23T13:39:26Z</time>
      </trkpt>
      <trkpt lat="42.93929" lon="0.72957">
        <ele>1311.5</ele>
        <time>2020-02-23T13:39:27Z</time>
      </trkpt>
      <trkpt lat="42.93928" lon="0.72957">
        <ele>1311.6</ele>
        <time>2020-02-23T13:39:28Z</time>
      </trkpt>
      <trkpt lat="42.93926" lon="0.72957">
        <ele>1311.7</ele>
        <time>2020-02-23T13:39:29Z</time>
      </trkpt>
      <trkpt lat="42.93925" lon="0.72956">
        <ele>1311.8</ele>
        <time>2020-02-23T13:39:30Z</time>
      </trkpt>
      <trkpt lat="42.93924" lon="0.72956">
        <ele>1311.9</ele>
        <time>2020-02-23T13:39:31Z</time>
      </trkpt>
      <trkpt lat="42.93922" lon="0.72957">
        <ele>1311.8</ele>
        <time>2020-02-23T13:39:32Z</time>
      </trkpt>
      <trkpt lat="42.93921" lon="0.72958">
        <ele>1311.8</ele>
        <time>2020-02-23T13:39:33Z</time>
      </trkpt>
      <trkpt lat="42.9392" lon="0.72959">
        <ele>1311.8</ele>
        <time>2020-02-23T13:39:34Z</time>
      </trkpt>
      <trkpt lat="42.93918" lon="0.7296">
        <ele>1311.7</ele>
        <time>2020-02-23T13:39:35Z</time>
      </trkpt>
      <trkpt lat="42.93917" lon="0.72961">
        <ele>1311.7</ele>
        <time>2020-02-23T13:39:36Z</time>
      </trkpt>
      <trkpt lat="42.93916" lon="0.72961">
        <ele>1311.8</ele>
        <time>2020-02-23T13:39:37Z</time>
      </trkpt>
      <trkpt lat="42.93914" lon="0.72962">
        <ele>1311.9</ele>
        <time>2020-02-23T13:39:38Z</time>
      </trkpt>
      <trkpt lat="42.93913" lon="0.72963">
        <ele>1312</ele>
        <time>2020-02-23T13:39:39Z</time>
      </trkpt>
      <trkpt lat="42.93911" lon="0.72963">
        <ele>1312.2</ele>
        <time>2020-02-23T13:39:40Z</time>
      </trkpt>
      <trkpt lat="42.93909" lon="0.72964">
        <ele>1312.2</ele>
        <time>2020-02-23T13:39:41Z</time>
      </trkpt>
      <trkpt lat="42.93908" lon="0.72964">
        <ele>1312.2</ele>
        <time>2020-02-23T13:39:42Z</time>
      </trkpt>
      <trkpt lat="42.93906" lon="0.72964">
        <ele>1312.2</ele>
        <time>2020-02-23T13:39:43Z</time>
      </trkpt>
      <trkpt lat="42.93905" lon="0.72965">
        <ele>1312.2</ele>
        <time>2020-02-23T13:39:44Z</time>
      </trkpt>
      <trkpt lat="42.93903" lon="0.72965">
        <ele>1312.1</ele>
        <time>2020-02-23T13:39:45Z</time>
      </trkpt>
      <trkpt lat="42.93902" lon="0.72966">
        <ele>1312</ele>
        <time>2020-02-23T13:39:46Z</time>
      </trkpt>
      <trkpt lat="42.93901" lon="0.72966">
        <ele>1311.9</ele>
        <time>2020-02-23T13:39:47Z</time>
      </trkpt>
      <trkpt lat="42.939" lon="0.72967">
        <ele>1311.8</ele>
        <time>2020-02-23T13:39:48Z</time>
      </trkpt>
      <trkpt lat="42.93899" lon="0.72968">
        <ele>1311.7</ele>
        <time>2020-02-23T13:39:49Z</time>
      </trkpt>
      <trkpt lat="42.93898" lon="0.72968">
        <ele>1311.6</ele>
        <time>2020-02-23T13:39:50Z</time>
      </trkpt>
      <trkpt lat="42.93897" lon="0.72969">
        <ele>1311.7</ele>
        <time>2020-02-23T13:39:51Z</time>
      </trkpt>
      <trkpt lat="42.93895" lon="0.72969">
        <ele>1311.7</ele>
        <time>2020-02-23T13:39:52Z</time>
      </trkpt>
      <trkpt lat="42.93894" lon="0.7297">
        <ele>1311.8</ele>
        <time>2020-02-23T13:39:53Z</time>
      </trkpt>
      <trkpt lat="42.93893" lon="0.7297">
        <ele>1311.9</ele>
        <time>2020-02-23T13:39:54Z</time>
      </trkpt>
      <trkpt lat="42.93892" lon="0.72971">
        <ele>1311.9</ele>
        <time>2020-02-23T13:39:55Z</time>
      </trkpt>
      <trkpt lat="42.93891" lon="0.72972">
        <ele>1311.9</ele>
        <time>2020-02-23T13:39:56Z</time>
      </trkpt>
      <trkpt lat="42.9389" lon="0.72972">
        <ele>1311.9</ele>
        <time>2020-02-23T13:39:57Z</time>
      </trkpt>
      <trkpt lat="42.93888" lon="0.72973">
        <ele>1311.8</ele>
        <time>2020-02-23T13:39:58Z</time>
      </trkpt>
      <trkpt lat="42.93887" lon="0.72973">
        <ele>1311.8</ele>
        <time>2020-02-23T13:39:59Z</time>
      </trkpt>
      <trkpt lat="42.93886" lon="0.72974">
        <ele>1311.6</ele>
        <time>2020-02-23T13:40:00Z</time>
      </trkpt>
      <trkpt lat="42.93885" lon="0.72975">
        <ele>1311.5</ele>
        <time>2020-02-23T13:40:01Z</time>
      </trkpt>
      <trkpt lat="42.93884" lon="0.72976">
        <ele>1311.3</ele>
        <time>2020-02-23T13:40:02Z</time>
      </trkpt>
      <trkpt lat="42.93883" lon="0.72977">
        <ele>1311.1</ele>
        <time>2020-02-23T13:40:03Z</time>
      </trkpt>
      <trkpt lat="42.93882" lon="0.72978">
        <ele>1310.9</ele>
        <time>2020-02-23T13:40:04Z</time>
      </trkpt>
      <trkpt lat="42.93881" lon="0.72979">
        <ele>1310.8</ele>
        <time>2020-02-23T13:40:05Z</time>
      </trkpt>
      <trkpt lat="42.9388" lon="0.7298">
        <ele>1310.7</ele>
        <time>2020-02-23T13:40:06Z</time>
      </trkpt>
      <trkpt lat="42.93879" lon="0.72981">
        <ele>1310.6</ele>
        <time>2020-02-23T13:40:07Z</time>
      </trkpt>
      <trkpt lat="42.93878" lon="0.72982">
        <ele>1310.5</ele>
        <time>2020-02-23T13:40:08Z</time>
      </trkpt>
      <trkpt lat="42.93878" lon="0.72983">
        <ele>1310.4</ele>
        <time>2020-02-23T13:40:09Z</time>
      </trkpt>
      <trkpt lat="42.93877" lon="0.72984">
        <ele>1310.4</ele>
        <time>2020-02-23T13:40:10Z</time>
      </trkpt>
      <trkpt lat="42.93877" lon="0.72985">
        <ele>1310.3</ele>
        <time>2020-02-23T13:40:11Z</time>
      </trkpt>
      <trkpt lat="42.93876" lon="0.72986">
        <ele>1310.2</ele>
        <time>2020-02-23T13:40:12Z</time>
      </trkpt>
      <trkpt lat="42.93876" lon="0.72987">
        <ele>1310.2</ele>
        <time>2020-02-23T13:40:13Z</time>
      </trkpt>
      <trkpt lat="42.93876" lon="0.72989">
        <ele>1310.1</ele>
        <time>2020-02-23T13:40:14Z</time>
      </trkpt>
      <trkpt lat="42.93875" lon="0.7299">
        <ele>1310.1</ele>
        <time>2020-02-23T13:40:15Z</time>
      </trkpt>
      <trkpt lat="42.93875" lon="0.72991">
        <ele>1310</ele>
        <time>2020-02-23T13:40:16Z</time>
      </trkpt>
      <trkpt lat="42.93874" lon="0.72992">
        <ele>1310</ele>
        <time>2020-02-23T13:40:17Z</time>
      </trkpt>
      <trkpt lat="42.93874" lon="0.72993">
        <ele>1309.9</ele>
        <time>2020-02-23T13:40:18Z</time>
      </trkpt>
      <trkpt lat="42.93873" lon="0.72994">
        <ele>1309.9</ele>
        <time>2020-02-23T13:40:19Z</time>
      </trkpt>
      <trkpt lat="42.93873" lon="0.72995">
        <ele>1309.8</ele>
        <time>2020-02-23T13:40:20Z</time>
      </trkpt>
      <trkpt lat="42.93873" lon="0.72996">
        <ele>1309.8</ele>
        <time>2020-02-23T13:40:21Z</time>
      </trkpt>
      <trkpt lat="42.93873" lon="0.72997">
        <ele>1309.7</ele>
        <time>2020-02-23T13:40:22Z</time>
      </trkpt>
      <trkpt lat="42.93872" lon="0.72998">
        <ele>1309.7</ele>
        <time>2020-02-23T13:40:23Z</time>
      </trkpt>
      <trkpt lat="42.93872" lon="0.72999">
        <ele>1309.6</ele>
        <time>2020-02-23T13:40:24Z</time>
      </trkpt>
      <trkpt lat="42.93872" lon="0.73001">
        <ele>1309.4</ele>
        <time>2020-02-23T13:40:25Z</time>
      </trkpt>
      <trkpt lat="42.93872" lon="0.73002">
        <ele>1309.3</ele>
        <time>2020-02-23T13:40:26Z</time>
      </trkpt>
      <trkpt lat="42.93871" lon="0.73003">
        <ele>1309.1</ele>
        <time>2020-02-23T13:40:27Z</time>
      </trkpt>
      <trkpt lat="42.93871" lon="0.73004">
        <ele>1309</ele>
        <time>2020-02-23T13:40:28Z</time>
      </trkpt>
      <trkpt lat="42.93871" lon="0.73005">
        <ele>1308.8</ele>
        <time>2020-02-23T13:40:29Z</time>
      </trkpt>
      <trkpt lat="42.93872" lon="0.73006">
        <ele>1308.6</ele>
        <time>2020-02-23T13:40:30Z</time>
      </trkpt>
      <trkpt lat="42.93873" lon="0.73008">
        <ele>1308.3</ele>
        <time>2020-02-23T13:40:31Z</time>
      </trkpt>
      <trkpt lat="42.93874" lon="0.73009">
        <ele>1307.9</ele>
        <time>2020-02-23T13:40:32Z</time>
      </trkpt>
      <trkpt lat="42.93874" lon="0.73011">
        <ele>1307.5</ele>
        <time>2020-02-23T13:40:33Z</time>
      </trkpt>
      <trkpt lat="42.93875" lon="0.73012">
        <ele>1307.1</ele>
        <time>2020-02-23T13:40:34Z</time>
      </trkpt>
      <trkpt lat="42.93876" lon="0.73014">
        <ele>1306.7</ele>
        <time>2020-02-23T13:40:35Z</time>
      </trkpt>
      <trkpt lat="42.93877" lon="0.73015">
        <ele>1306.5</ele>
        <time>2020-02-23T13:40:36Z</time>
      </trkpt>
      <trkpt lat="42.93877" lon="0.73016">
        <ele>1306.3</ele>
        <time>2020-02-23T13:40:37Z</time>
      </trkpt>
      <trkpt lat="42.93878" lon="0.73017">
        <ele>1306.2</ele>
        <time>2020-02-23T13:40:38Z</time>
      </trkpt>
      <trkpt lat="42.93878" lon="0.73018">
        <ele>1306.1</ele>
        <time>2020-02-23T13:40:39Z</time>
      </trkpt>
      <trkpt lat="42.93878" lon="0.73019">
        <ele>1305.9</ele>
        <time>2020-02-23T13:40:40Z</time>
      </trkpt>
      <trkpt lat="42.93878" lon="0.7302">
        <ele>1305.8</ele>
        <time>2020-02-23T13:40:41Z</time>
      </trkpt>
      <trkpt lat="42.93879" lon="0.73021">
        <ele>1305.6</ele>
        <time>2020-02-23T13:40:42Z</time>
      </trkpt>
      <trkpt lat="42.93879" lon="0.73023">
        <ele>1305.4</ele>
        <time>2020-02-23T13:40:43Z</time>
      </trkpt>
      <trkpt lat="42.93879" lon="0.73024">
        <ele>1305.2</ele>
        <time>2020-02-23T13:40:44Z</time>
      </trkpt>
      <trkpt lat="42.93879" lon="0.73025">
        <ele>1305</ele>
        <time>2020-02-23T13:40:45Z</time>
      </trkpt>
      <trkpt lat="42.9388" lon="0.73026">
        <ele>1304.8</ele>
        <time>2020-02-23T13:40:46Z</time>
      </trkpt>
      <trkpt lat="42.9388" lon="0.73027">
        <ele>1304.6</ele>
        <time>2020-02-23T13:40:47Z</time>
      </trkpt>
      <trkpt lat="42.9388" lon="0.73028">
        <ele>1304.3</ele>
        <time>2020-02-23T13:40:48Z</time>
      </trkpt>
      <trkpt lat="42.93881" lon="0.7303">
        <ele>1304</ele>
        <time>2020-02-23T13:40:49Z</time>
      </trkpt>
      <trkpt lat="42.93882" lon="0.73031">
        <ele>1303.6</ele>
        <time>2020-02-23T13:40:50Z</time>
      </trkpt>
      <trkpt lat="42.93882" lon="0.73033">
        <ele>1303.2</ele>
        <time>2020-02-23T13:40:51Z</time>
      </trkpt>
      <trkpt lat="42.93883" lon="0.73034">
        <ele>1302.8</ele>
        <time>2020-02-23T13:40:52Z</time>
      </trkpt>
      <trkpt lat="42.93883" lon="0.73035">
        <ele>1302.4</ele>
        <time>2020-02-23T13:40:53Z</time>
      </trkpt>
      <trkpt lat="42.93884" lon="0.73037">
        <ele>1302</ele>
        <time>2020-02-23T13:40:54Z</time>
      </trkpt>
      <trkpt lat="42.93884" lon="0.73038">
        <ele>1301.6</ele>
        <time>2020-02-23T13:40:55Z</time>
      </trkpt>
      <trkpt lat="42.93884" lon="0.7304">
        <ele>1301.2</ele>
        <time>2020-02-23T13:40:56Z</time>
      </trkpt>
      <trkpt lat="42.93884" lon="0.73042">
        <ele>1300.9</ele>
        <time>2020-02-23T13:40:57Z</time>
      </trkpt>
      <trkpt lat="42.93884" lon="0.73044">
        <ele>1300.6</ele>
        <time>2020-02-23T13:40:58Z</time>
      </trkpt>
      <trkpt lat="42.93884" lon="0.73046">
        <ele>1300.3</ele>
        <time>2020-02-23T13:40:59Z</time>
      </trkpt>
      <trkpt lat="42.93884" lon="0.73048">
        <ele>1300</ele>
        <time>2020-02-23T13:41:00Z</time>
      </trkpt>
      <trkpt lat="42.93884" lon="0.7305">
        <ele>1299.7</ele>
        <time>2020-02-23T13:41:01Z</time>
      </trkpt>
      <trkpt lat="42.93884" lon="0.73052">
        <ele>1299.3</ele>
        <time>2020-02-23T13:41:02Z</time>
      </trkpt>
      <trkpt lat="42.93884" lon="0.73054">
        <ele>1298.9</ele>
        <time>2020-02-23T13:41:03Z</time>
      </trkpt>
      <trkpt lat="42.93884" lon="0.73057">
        <ele>1298.5</ele>
        <time>2020-02-23T13:41:04Z</time>
      </trkpt>
      <trkpt lat="42.93884" lon="0.73059">
        <ele>1298.1</ele>
        <time>2020-02-23T13:41:05Z</time>
      </trkpt>
      <trkpt lat="42.93885" lon="0.73061">
        <ele>1297.7</ele>
        <time>2020-02-23T13:41:06Z</time>
      </trkpt>
      <trkpt lat="42.93885" lon="0.73063">
        <ele>1297.3</ele>
        <time>2020-02-23T13:41:07Z</time>
      </trkpt>
      <trkpt lat="42.93885" lon="0.73065">
        <ele>1296.9</ele>
        <time>2020-02-23T13:41:08Z</time>
      </trkpt>
      <trkpt lat="42.93886" lon="0.73066">
        <ele>1296.6</ele>
        <time>2020-02-23T13:41:09Z</time>
      </trkpt>
      <trkpt lat="42.93887" lon="0.73068">
        <ele>1296.2</ele>
        <time>2020-02-23T13:41:10Z</time>
      </trkpt>
      <trkpt lat="42.93888" lon="0.73069">
        <ele>1295.9</ele>
        <time>2020-02-23T13:41:11Z</time>
      </trkpt>
      <trkpt lat="42.93889" lon="0.7307">
        <ele>1295.6</ele>
        <time>2020-02-23T13:41:12Z</time>
      </trkpt>
      <trkpt lat="42.9389" lon="0.73072">
        <ele>1295.3</ele>
        <time>2020-02-23T13:41:13Z</time>
      </trkpt>
      <trkpt lat="42.93891" lon="0.73073">
        <ele>1295</ele>
        <time>2020-02-23T13:41:14Z</time>
      </trkpt>
      <trkpt lat="42.93892" lon="0.73074">
        <ele>1294.7</ele>
        <time>2020-02-23T13:41:15Z</time>
      </trkpt>
      <trkpt lat="42.93893" lon="0.73076">
        <ele>1294.4</ele>
        <time>2020-02-23T13:41:16Z</time>
      </trkpt>
      <trkpt lat="42.93894" lon="0.73077">
        <ele>1294.2</ele>
        <time>2020-02-23T13:41:17Z</time>
      </trkpt>
      <trkpt lat="42.93896" lon="0.73078">
        <ele>1293.9</ele>
        <time>2020-02-23T13:41:18Z</time>
      </trkpt>
      <trkpt lat="42.93897" lon="0.73079">
        <ele>1293.6</ele>
        <time>2020-02-23T13:41:19Z</time>
      </trkpt>
      <trkpt lat="42.93898" lon="0.73081">
        <ele>1293.4</ele>
        <time>2020-02-23T13:41:20Z</time>
      </trkpt>
      <trkpt lat="42.93899" lon="0.73082">
        <ele>1293.2</ele>
        <time>2020-02-23T13:41:21Z</time>
      </trkpt>
      <trkpt lat="42.939" lon="0.73083">
        <ele>1293</ele>
        <time>2020-02-23T13:41:22Z</time>
      </trkpt>
      <trkpt lat="42.93901" lon="0.73084">
        <ele>1292.8</ele>
        <time>2020-02-23T13:41:23Z</time>
      </trkpt>
      <trkpt lat="42.93902" lon="0.73086">
        <ele>1292.6</ele>
        <time>2020-02-23T13:41:24Z</time>
      </trkpt>
      <trkpt lat="42.93903" lon="0.73087">
        <ele>1292.5</ele>
        <time>2020-02-23T13:41:25Z</time>
      </trkpt>
      <trkpt lat="42.93904" lon="0.73088">
        <ele>1292.3</ele>
        <time>2020-02-23T13:41:26Z</time>
      </trkpt>
      <trkpt lat="42.93905" lon="0.73089">
        <ele>1292.2</ele>
        <time>2020-02-23T13:41:27Z</time>
      </trkpt>
      <trkpt lat="42.93906" lon="0.7309">
        <ele>1292.1</ele>
        <time>2020-02-23T13:41:28Z</time>
      </trkpt>
      <trkpt lat="42.93908" lon="0.73092">
        <ele>1292</ele>
        <time>2020-02-23T13:41:29Z</time>
      </trkpt>
      <trkpt lat="42.93908" lon="0.73093">
        <ele>1291.9</ele>
        <time>2020-02-23T13:41:30Z</time>
      </trkpt>
      <trkpt lat="42.93909" lon="0.73094">
        <ele>1291.7</ele>
        <time>2020-02-23T13:41:31Z</time>
      </trkpt>
      <trkpt lat="42.9391" lon="0.73096">
        <ele>1291.6</ele>
        <time>2020-02-23T13:41:32Z</time>
      </trkpt>
      <trkpt lat="42.93911" lon="0.73097">
        <ele>1291.5</ele>
        <time>2020-02-23T13:41:33Z</time>
      </trkpt>
      <trkpt lat="42.93912" lon="0.73098">
        <ele>1291.3</ele>
        <time>2020-02-23T13:41:34Z</time>
      </trkpt>
      <trkpt lat="42.93913" lon="0.731">
        <ele>1291.2</ele>
        <time>2020-02-23T13:41:35Z</time>
      </trkpt>
      <trkpt lat="42.93915" lon="0.73103">
        <ele>1290.9</ele>
        <time>2020-02-23T13:41:36Z</time>
      </trkpt>
      <trkpt lat="42.93915" lon="0.73103">
        <ele>1290.9</ele>
        <time>2020-02-23T13:41:37Z</time>
      </trkpt>
      <trkpt lat="42.93915" lon="0.73104">
        <ele>1290.8</ele>
        <time>2020-02-23T13:41:38Z</time>
      </trkpt>
      <trkpt lat="42.93915" lon="0.73106">
        <ele>1290.7</ele>
        <time>2020-02-23T13:41:39Z</time>
      </trkpt>
      <trkpt lat="42.93915" lon="0.73108">
        <ele>1290.6</ele>
        <time>2020-02-23T13:41:40Z</time>
      </trkpt>
      <trkpt lat="42.93916" lon="0.73109">
        <ele>1290.5</ele>
        <time>2020-02-23T13:41:41Z</time>
      </trkpt>
      <trkpt lat="42.93916" lon="0.73111">
        <ele>1290.5</ele>
        <time>2020-02-23T13:41:42Z</time>
      </trkpt>
      <trkpt lat="42.93916" lon="0.73113">
        <ele>1290.4</ele>
        <time>2020-02-23T13:41:43Z</time>
      </trkpt>
      <trkpt lat="42.93916" lon="0.73115">
        <ele>1290.4</ele>
        <time>2020-02-23T13:41:44Z</time>
      </trkpt>
      <trkpt lat="42.93916" lon="0.73117">
        <ele>1290.3</ele>
        <time>2020-02-23T13:41:45Z</time>
      </trkpt>
      <trkpt lat="42.93916" lon="0.7312">
        <ele>1290.2</ele>
        <time>2020-02-23T13:41:46Z</time>
      </trkpt>
      <trkpt lat="42.93916" lon="0.7312">
        <ele>1290.2</ele>
        <time>2020-02-23T13:41:47Z</time>
      </trkpt>
      <trkpt lat="42.93917" lon="0.73121">
        <ele>1290.1</ele>
        <time>2020-02-23T13:41:48Z</time>
      </trkpt>
      <trkpt lat="42.93917" lon="0.73123">
        <ele>1290.1</ele>
        <time>2020-02-23T13:41:49Z</time>
      </trkpt>
      <trkpt lat="42.93917" lon="0.73125">
        <ele>1290</ele>
        <time>2020-02-23T13:41:50Z</time>
      </trkpt>
      <trkpt lat="42.93917" lon="0.73127">
        <ele>1289.9</ele>
        <time>2020-02-23T13:41:51Z</time>
      </trkpt>
      <trkpt lat="42.93917" lon="0.73128">
        <ele>1289.9</ele>
        <time>2020-02-23T13:41:52Z</time>
      </trkpt>
      <trkpt lat="42.93917" lon="0.7313">
        <ele>1289.8</ele>
        <time>2020-02-23T13:41:53Z</time>
      </trkpt>
      <trkpt lat="42.93917" lon="0.73132">
        <ele>1289.7</ele>
        <time>2020-02-23T13:41:54Z</time>
      </trkpt>
      <trkpt lat="42.93917" lon="0.73134">
        <ele>1289.7</ele>
        <time>2020-02-23T13:41:55Z</time>
      </trkpt>
      <trkpt lat="42.93917" lon="0.73134">
        <ele>1289.7</ele>
        <time>2020-02-23T13:41:56Z</time>
      </trkpt>
      <trkpt lat="42.93917" lon="0.73139">
        <ele>1289.9</ele>
        <time>2020-02-23T13:41:57Z</time>
      </trkpt>
      <trkpt lat="42.93917" lon="0.73139">
        <ele>1289.9</ele>
        <time>2020-02-23T13:41:58Z</time>
      </trkpt>
      <trkpt lat="42.93916" lon="0.7314">
        <ele>1289.9</ele>
        <time>2020-02-23T13:41:59Z</time>
      </trkpt>
      <trkpt lat="42.93916" lon="0.73141">
        <ele>1290</ele>
        <time>2020-02-23T13:42:00Z</time>
      </trkpt>
      <trkpt lat="42.93916" lon="0.73143">
        <ele>1290</ele>
        <time>2020-02-23T13:42:01Z</time>
      </trkpt>
      <trkpt lat="42.93915" lon="0.73144">
        <ele>1290</ele>
        <time>2020-02-23T13:42:02Z</time>
      </trkpt>
      <trkpt lat="42.93913" lon="0.73148">
        <ele>1290.1</ele>
        <time>2020-02-23T13:42:03Z</time>
      </trkpt>
      <trkpt lat="42.93913" lon="0.73148">
        <ele>1290.1</ele>
        <time>2020-02-23T13:42:04Z</time>
      </trkpt>
      <trkpt lat="42.93913" lon="0.73148">
        <ele>1290.1</ele>
        <time>2020-02-23T13:42:05Z</time>
      </trkpt>
      <trkpt lat="42.93913" lon="0.73148">
        <ele>1290.1</ele>
        <time>2020-02-23T13:42:06Z</time>
      </trkpt>
      <trkpt lat="42.93912" lon="0.73149">
        <ele>1290.1</ele>
        <time>2020-02-23T13:42:07Z</time>
      </trkpt>
      <trkpt lat="42.93912" lon="0.73149">
        <ele>1290.1</ele>
        <time>2020-02-23T13:42:08Z</time>
      </trkpt>
      <trkpt lat="42.93911" lon="0.7315">
        <ele>1290.1</ele>
        <time>2020-02-23T13:42:09Z</time>
      </trkpt>
      <trkpt lat="42.93911" lon="0.7315">
        <ele>1290.2</ele>
        <time>2020-02-23T13:42:10Z</time>
      </trkpt>
      <trkpt lat="42.9391" lon="0.73151">
        <ele>1290.2</ele>
        <time>2020-02-23T13:42:11Z</time>
      </trkpt>
      <trkpt lat="42.9391" lon="0.73152">
        <ele>1290.2</ele>
        <time>2020-02-23T13:42:12Z</time>
      </trkpt>
      <trkpt lat="42.93909" lon="0.73152">
        <ele>1290.2</ele>
        <time>2020-02-23T13:42:13Z</time>
      </trkpt>
      <trkpt lat="42.93909" lon="0.73153">
        <ele>1290.3</ele>
        <time>2020-02-23T13:42:14Z</time>
      </trkpt>
      <trkpt lat="42.93908" lon="0.73153">
        <ele>1290.3</ele>
        <time>2020-02-23T13:42:15Z</time>
      </trkpt>
      <trkpt lat="42.93908" lon="0.73154">
        <ele>1290.3</ele>
        <time>2020-02-23T13:42:16Z</time>
      </trkpt>
      <trkpt lat="42.93907" lon="0.73154">
        <ele>1290.3</ele>
        <time>2020-02-23T13:42:17Z</time>
      </trkpt>
      <trkpt lat="42.93907" lon="0.73155">
        <ele>1290.4</ele>
        <time>2020-02-23T13:42:18Z</time>
      </trkpt>
      <trkpt lat="42.93905" lon="0.73158">
        <ele>1290.6</ele>
        <time>2020-02-23T13:42:19Z</time>
      </trkpt>
      <trkpt lat="42.93904" lon="0.73161">
        <ele>1290.8</ele>
        <time>2020-02-23T13:42:20Z</time>
      </trkpt>
      <trkpt lat="42.93902" lon="0.73164">
        <ele>1291</ele>
        <time>2020-02-23T13:42:21Z</time>
      </trkpt>
      <trkpt lat="42.93901" lon="0.73168">
        <ele>1291</ele>
        <time>2020-02-23T13:42:22Z</time>
      </trkpt>
      <trkpt lat="42.93899" lon="0.73171">
        <ele>1291.1</ele>
        <time>2020-02-23T13:42:23Z</time>
      </trkpt>
      <trkpt lat="42.93898" lon="0.73174">
        <ele>1291.3</ele>
        <time>2020-02-23T13:42:24Z</time>
      </trkpt>
      <trkpt lat="42.93896" lon="0.73178">
        <ele>1291.5</ele>
        <time>2020-02-23T13:42:25Z</time>
      </trkpt>
      <trkpt lat="42.93894" lon="0.73184">
        <ele>1291.8</ele>
        <time>2020-02-23T13:42:26Z</time>
      </trkpt>
      <trkpt lat="42.93894" lon="0.73184">
        <ele>1291.8</ele>
        <time>2020-02-23T13:42:27Z</time>
      </trkpt>
      <trkpt lat="42.93894" lon="0.73185">
        <ele>1291.9</ele>
        <time>2020-02-23T13:42:28Z</time>
      </trkpt>
      <trkpt lat="42.93894" lon="0.73187">
        <ele>1291.9</ele>
        <time>2020-02-23T13:42:29Z</time>
      </trkpt>
      <trkpt lat="42.93894" lon="0.73189">
        <ele>1292</ele>
        <time>2020-02-23T13:42:30Z</time>
      </trkpt>
      <trkpt lat="42.93894" lon="0.73191">
        <ele>1292.1</ele>
        <time>2020-02-23T13:42:31Z</time>
      </trkpt>
      <trkpt lat="42.93895" lon="0.73193">
        <ele>1292.1</ele>
        <time>2020-02-23T13:42:32Z</time>
      </trkpt>
      <trkpt lat="42.93895" lon="0.73195">
        <ele>1292.2</ele>
        <time>2020-02-23T13:42:33Z</time>
      </trkpt>
      <trkpt lat="42.93895" lon="0.73197">
        <ele>1292.2</ele>
        <time>2020-02-23T13:42:34Z</time>
      </trkpt>
      <trkpt lat="42.93893" lon="0.73199">
        <ele>1292.4</ele>
        <time>2020-02-23T13:42:35Z</time>
      </trkpt>
      <trkpt lat="42.93892" lon="0.73201">
        <ele>1292.5</ele>
        <time>2020-02-23T13:42:36Z</time>
      </trkpt>
      <trkpt lat="42.9389" lon="0.73203">
        <ele>1292.6</ele>
        <time>2020-02-23T13:42:37Z</time>
      </trkpt>
      <trkpt lat="42.93889" lon="0.73206">
        <ele>1292.7</ele>
        <time>2020-02-23T13:42:38Z</time>
      </trkpt>
      <trkpt lat="42.93887" lon="0.73208">
        <ele>1292.8</ele>
        <time>2020-02-23T13:42:39Z</time>
      </trkpt>
      <trkpt lat="42.93886" lon="0.7321">
        <ele>1292.9</ele>
        <time>2020-02-23T13:42:40Z</time>
      </trkpt>
      <trkpt lat="42.93885" lon="0.73215">
        <ele>1293.1</ele>
        <time>2020-02-23T13:42:41Z</time>
      </trkpt>
      <trkpt lat="42.93885" lon="0.73219">
        <ele>1293.3</ele>
        <time>2020-02-23T13:42:42Z</time>
      </trkpt>
      <trkpt lat="42.93884" lon="0.73223">
        <ele>1293.4</ele>
        <time>2020-02-23T13:42:43Z</time>
      </trkpt>
      <trkpt lat="42.93883" lon="0.73228">
        <ele>1293.3</ele>
        <time>2020-02-23T13:42:44Z</time>
      </trkpt>
      <trkpt lat="42.93882" lon="0.73231">
        <ele>1293.3</ele>
        <time>2020-02-23T13:42:45Z</time>
      </trkpt>
      <trkpt lat="42.9388" lon="0.73233">
        <ele>1293.3</ele>
        <time>2020-02-23T13:42:46Z</time>
      </trkpt>
      <trkpt lat="42.93878" lon="0.73236">
        <ele>1293.4</ele>
        <time>2020-02-23T13:42:47Z</time>
      </trkpt>
      <trkpt lat="42.93876" lon="0.73239">
        <ele>1293.5</ele>
        <time>2020-02-23T13:42:48Z</time>
      </trkpt>
      <trkpt lat="42.93877" lon="0.7324">
        <ele>1293.6</ele>
        <time>2020-02-23T13:42:49Z</time>
      </trkpt>
      <trkpt lat="42.93878" lon="0.73242">
        <ele>1293.7</ele>
        <time>2020-02-23T13:42:50Z</time>
      </trkpt>
      <trkpt lat="42.93879" lon="0.73244">
        <ele>1293.8</ele>
        <time>2020-02-23T13:42:51Z</time>
      </trkpt>
      <trkpt lat="42.9388" lon="0.73245">
        <ele>1293.9</ele>
        <time>2020-02-23T13:42:52Z</time>
      </trkpt>
      <trkpt lat="42.93881" lon="0.73247">
        <ele>1294</ele>
        <time>2020-02-23T13:42:53Z</time>
      </trkpt>
      <trkpt lat="42.93882" lon="0.73249">
        <ele>1294.1</ele>
        <time>2020-02-23T13:42:54Z</time>
      </trkpt>
      <trkpt lat="42.93881" lon="0.7325">
        <ele>1294.2</ele>
        <time>2020-02-23T13:42:55Z</time>
      </trkpt>
      <trkpt lat="42.93881" lon="0.73252">
        <ele>1294.4</ele>
        <time>2020-02-23T13:42:56Z</time>
      </trkpt>
      <trkpt lat="42.9388" lon="0.73254">
        <ele>1294.5</ele>
        <time>2020-02-23T13:42:57Z</time>
      </trkpt>
      <trkpt lat="42.9388" lon="0.73256">
        <ele>1294.6</ele>
        <time>2020-02-23T13:42:58Z</time>
      </trkpt>
      <trkpt lat="42.9388" lon="0.73257">
        <ele>1294.8</ele>
        <time>2020-02-23T13:42:59Z</time>
      </trkpt>
      <trkpt lat="42.93879" lon="0.73259">
        <ele>1294.9</ele>
        <time>2020-02-23T13:43:00Z</time>
      </trkpt>
      <trkpt lat="42.93879" lon="0.73261">
        <ele>1295</ele>
        <time>2020-02-23T13:43:01Z</time>
      </trkpt>
      <trkpt lat="42.93879" lon="0.73262">
        <ele>1295</ele>
        <time>2020-02-23T13:43:02Z</time>
      </trkpt>
      <trkpt lat="42.93878" lon="0.73263">
        <ele>1295</ele>
        <time>2020-02-23T13:43:03Z</time>
      </trkpt>
      <trkpt lat="42.93878" lon="0.73264">
        <ele>1295.1</ele>
        <time>2020-02-23T13:43:04Z</time>
      </trkpt>
      <trkpt lat="42.93878" lon="0.73265">
        <ele>1295.1</ele>
        <time>2020-02-23T13:43:05Z</time>
      </trkpt>
      <trkpt lat="42.93878" lon="0.73266">
        <ele>1295.1</ele>
        <time>2020-02-23T13:43:06Z</time>
      </trkpt>
      <trkpt lat="42.93878" lon="0.73267">
        <ele>1295.1</ele>
        <time>2020-02-23T13:43:07Z</time>
      </trkpt>
      <trkpt lat="42.93878" lon="0.73268">
        <ele>1295.2</ele>
        <time>2020-02-23T13:43:08Z</time>
      </trkpt>
      <trkpt lat="42.93877" lon="0.73269">
        <ele>1295.2</ele>
        <time>2020-02-23T13:43:09Z</time>
      </trkpt>
      <trkpt lat="42.93877" lon="0.7327">
        <ele>1295.2</ele>
        <time>2020-02-23T13:43:10Z</time>
      </trkpt>
      <trkpt lat="42.93877" lon="0.73271">
        <ele>1295.2</ele>
        <time>2020-02-23T13:43:11Z</time>
      </trkpt>
      <trkpt lat="42.93877" lon="0.73272">
        <ele>1295.3</ele>
        <time>2020-02-23T13:43:12Z</time>
      </trkpt>
      <trkpt lat="42.93877" lon="0.73273">
        <ele>1295.4</ele>
        <time>2020-02-23T13:43:13Z</time>
      </trkpt>
      <trkpt lat="42.93876" lon="0.73274">
        <ele>1295.4</ele>
        <time>2020-02-23T13:43:14Z</time>
      </trkpt>
      <trkpt lat="42.93876" lon="0.73276">
        <ele>1295.5</ele>
        <time>2020-02-23T13:43:15Z</time>
      </trkpt>
      <trkpt lat="42.93875" lon="0.73277">
        <ele>1295.6</ele>
        <time>2020-02-23T13:43:16Z</time>
      </trkpt>
      <trkpt lat="42.93875" lon="0.73278">
        <ele>1295.7</ele>
        <time>2020-02-23T13:43:17Z</time>
      </trkpt>
      <trkpt lat="42.93875" lon="0.73279">
        <ele>1295.8</ele>
        <time>2020-02-23T13:43:18Z</time>
      </trkpt>
      <trkpt lat="42.93874" lon="0.73281">
        <ele>1296.1</ele>
        <time>2020-02-23T13:43:19Z</time>
      </trkpt>
      <trkpt lat="42.93874" lon="0.73282">
        <ele>1296.3</ele>
        <time>2020-02-23T13:43:20Z</time>
      </trkpt>
      <trkpt lat="42.93874" lon="0.73283">
        <ele>1296.6</ele>
        <time>2020-02-23T13:43:21Z</time>
      </trkpt>
      <trkpt lat="42.93873" lon="0.73284">
        <ele>1296.8</ele>
        <time>2020-02-23T13:43:22Z</time>
      </trkpt>
      <trkpt lat="42.93873" lon="0.73286">
        <ele>1297</ele>
        <time>2020-02-23T13:43:23Z</time>
      </trkpt>
      <trkpt lat="42.93873" lon="0.73287">
        <ele>1297.3</ele>
        <time>2020-02-23T13:43:24Z</time>
      </trkpt>
      <trkpt lat="42.93873" lon="0.73289">
        <ele>1297.2</ele>
        <time>2020-02-23T13:43:25Z</time>
      </trkpt>
      <trkpt lat="42.93873" lon="0.7329">
        <ele>1297.2</ele>
        <time>2020-02-23T13:43:26Z</time>
      </trkpt>
      <trkpt lat="42.93873" lon="0.73292">
        <ele>1297.1</ele>
        <time>2020-02-23T13:43:27Z</time>
      </trkpt>
      <trkpt lat="42.93873" lon="0.73293">
        <ele>1297.1</ele>
        <time>2020-02-23T13:43:28Z</time>
      </trkpt>
      <trkpt lat="42.93874" lon="0.73295">
        <ele>1297</ele>
        <time>2020-02-23T13:43:29Z</time>
      </trkpt>
      <trkpt lat="42.93874" lon="0.73296">
        <ele>1297</ele>
        <time>2020-02-23T13:43:30Z</time>
      </trkpt>
      <trkpt lat="42.93874" lon="0.73298">
        <ele>1296.9</ele>
        <time>2020-02-23T13:43:31Z</time>
      </trkpt>
      <trkpt lat="42.93874" lon="0.733">
        <ele>1296.8</ele>
        <time>2020-02-23T13:43:32Z</time>
      </trkpt>
      <trkpt lat="42.93874" lon="0.73301">
        <ele>1296.7</ele>
        <time>2020-02-23T13:43:33Z</time>
      </trkpt>
      <trkpt lat="42.93875" lon="0.73303">
        <ele>1296.6</ele>
        <time>2020-02-23T13:43:34Z</time>
      </trkpt>
      <trkpt lat="42.93875" lon="0.73304">
        <ele>1296.4</ele>
        <time>2020-02-23T13:43:35Z</time>
      </trkpt>
      <trkpt lat="42.93876" lon="0.73306">
        <ele>1296.3</ele>
        <time>2020-02-23T13:43:36Z</time>
      </trkpt>
      <trkpt lat="42.93876" lon="0.73307">
        <ele>1296.2</ele>
        <time>2020-02-23T13:43:37Z</time>
      </trkpt>
      <trkpt lat="42.93876" lon="0.73309">
        <ele>1296.1</ele>
        <time>2020-02-23T13:43:38Z</time>
      </trkpt>
      <trkpt lat="42.93877" lon="0.7331">
        <ele>1296</ele>
        <time>2020-02-23T13:43:39Z</time>
      </trkpt>
      <trkpt lat="42.93877" lon="0.73312">
        <ele>1295.9</ele>
        <time>2020-02-23T13:43:40Z</time>
      </trkpt>
      <trkpt lat="42.93878" lon="0.73313">
        <ele>1295.8</ele>
        <time>2020-02-23T13:43:41Z</time>
      </trkpt>
      <trkpt lat="42.93879" lon="0.73314">
        <ele>1295.7</ele>
        <time>2020-02-23T13:43:42Z</time>
      </trkpt>
      <trkpt lat="42.9388" lon="0.73315">
        <ele>1295.6</ele>
        <time>2020-02-23T13:43:43Z</time>
      </trkpt>
      <trkpt lat="42.9388" lon="0.73317">
        <ele>1295.4</ele>
        <time>2020-02-23T13:43:44Z</time>
      </trkpt>
      <trkpt lat="42.93881" lon="0.73318">
        <ele>1295.3</ele>
        <time>2020-02-23T13:43:45Z</time>
      </trkpt>
      <trkpt lat="42.93882" lon="0.73319">
        <ele>1295.1</ele>
        <time>2020-02-23T13:43:46Z</time>
      </trkpt>
      <trkpt lat="42.93882" lon="0.7332">
        <ele>1294.9</ele>
        <time>2020-02-23T13:43:47Z</time>
      </trkpt>
      <trkpt lat="42.93883" lon="0.73321">
        <ele>1294.8</ele>
        <time>2020-02-23T13:43:48Z</time>
      </trkpt>
      <trkpt lat="42.93884" lon="0.73321">
        <ele>1294.6</ele>
        <time>2020-02-23T13:43:49Z</time>
      </trkpt>
      <trkpt lat="42.93885" lon="0.73322">
        <ele>1294.5</ele>
        <time>2020-02-23T13:43:50Z</time>
      </trkpt>
      <trkpt lat="42.93886" lon="0.73323">
        <ele>1294.4</ele>
        <time>2020-02-23T13:43:51Z</time>
      </trkpt>
      <trkpt lat="42.93887" lon="0.73323">
        <ele>1294.4</ele>
        <time>2020-02-23T13:43:52Z</time>
      </trkpt>
      <trkpt lat="42.93888" lon="0.73324">
        <ele>1294.3</ele>
        <time>2020-02-23T13:43:53Z</time>
      </trkpt>
      <trkpt lat="42.93889" lon="0.73325">
        <ele>1294.2</ele>
        <time>2020-02-23T13:43:54Z</time>
      </trkpt>
      <trkpt lat="42.9389" lon="0.73325">
        <ele>1294.1</ele>
        <time>2020-02-23T13:43:55Z</time>
      </trkpt>
      <trkpt lat="42.93891" lon="0.73326">
        <ele>1294.1</ele>
        <time>2020-02-23T13:43:56Z</time>
      </trkpt>
      <trkpt lat="42.93892" lon="0.73326">
        <ele>1293.9</ele>
        <time>2020-02-23T13:43:57Z</time>
      </trkpt>
      <trkpt lat="42.93893" lon="0.73327">
        <ele>1293.7</ele>
        <time>2020-02-23T13:43:58Z</time>
      </trkpt>
      <trkpt lat="42.93894" lon="0.73327">
        <ele>1293.4</ele>
        <time>2020-02-23T13:43:59Z</time>
      </trkpt>
      <trkpt lat="42.93895" lon="0.73328">
        <ele>1293.2</ele>
        <time>2020-02-23T13:44:00Z</time>
      </trkpt>
      <trkpt lat="42.93896" lon="0.73329">
        <ele>1293</ele>
        <time>2020-02-23T13:44:01Z</time>
      </trkpt>
      <trkpt lat="42.93897" lon="0.73329">
        <ele>1292.8</ele>
        <time>2020-02-23T13:44:02Z</time>
      </trkpt>
      <trkpt lat="42.93898" lon="0.7333">
        <ele>1292.6</ele>
        <time>2020-02-23T13:44:03Z</time>
      </trkpt>
      <trkpt lat="42.939" lon="0.7333">
        <ele>1292.5</ele>
        <time>2020-02-23T13:44:04Z</time>
      </trkpt>
      <trkpt lat="42.93901" lon="0.73331">
        <ele>1292.4</ele>
        <time>2020-02-23T13:44:05Z</time>
      </trkpt>
      <trkpt lat="42.93902" lon="0.73331">
        <ele>1292.2</ele>
        <time>2020-02-23T13:44:06Z</time>
      </trkpt>
      <trkpt lat="42.93903" lon="0.73332">
        <ele>1292.1</ele>
        <time>2020-02-23T13:44:07Z</time>
      </trkpt>
      <trkpt lat="42.93905" lon="0.73333">
        <ele>1291.9</ele>
        <time>2020-02-23T13:44:08Z</time>
      </trkpt>
      <trkpt lat="42.93906" lon="0.73334">
        <ele>1291.6</ele>
        <time>2020-02-23T13:44:09Z</time>
      </trkpt>
      <trkpt lat="42.9391" lon="0.73335">
        <ele>1291.1</ele>
        <time>2020-02-23T13:44:10Z</time>
      </trkpt>
      <trkpt lat="42.9391" lon="0.73335">
        <ele>1291.1</ele>
        <time>2020-02-23T13:44:11Z</time>
      </trkpt>
      <trkpt lat="42.93911" lon="0.73336">
        <ele>1290.8</ele>
        <time>2020-02-23T13:44:12Z</time>
      </trkpt>
      <trkpt lat="42.93913" lon="0.73336">
        <ele>1290.5</ele>
        <time>2020-02-23T13:44:13Z</time>
      </trkpt>
      <trkpt lat="42.93914" lon="0.73337">
        <ele>1290.3</ele>
        <time>2020-02-23T13:44:14Z</time>
      </trkpt>
      <trkpt lat="42.93915" lon="0.73337">
        <ele>1290</ele>
        <time>2020-02-23T13:44:15Z</time>
      </trkpt>
      <trkpt lat="42.93917" lon="0.73338">
        <ele>1289.7</ele>
        <time>2020-02-23T13:44:16Z</time>
      </trkpt>
      <trkpt lat="42.93918" lon="0.73339">
        <ele>1289.4</ele>
        <time>2020-02-23T13:44:17Z</time>
      </trkpt>
      <trkpt lat="42.9392" lon="0.73339">
        <ele>1289.1</ele>
        <time>2020-02-23T13:44:18Z</time>
      </trkpt>
      <trkpt lat="42.93921" lon="0.7334">
        <ele>1288.9</ele>
        <time>2020-02-23T13:44:19Z</time>
      </trkpt>
      <trkpt lat="42.93922" lon="0.73341">
        <ele>1288.6</ele>
        <time>2020-02-23T13:44:20Z</time>
      </trkpt>
      <trkpt lat="42.93923" lon="0.73342">
        <ele>1288.4</ele>
        <time>2020-02-23T13:44:21Z</time>
      </trkpt>
      <trkpt lat="42.93925" lon="0.73343">
        <ele>1288.1</ele>
        <time>2020-02-23T13:44:22Z</time>
      </trkpt>
      <trkpt lat="42.93926" lon="0.73344">
        <ele>1287.8</ele>
        <time>2020-02-23T13:44:23Z</time>
      </trkpt>
      <trkpt lat="42.93927" lon="0.73345">
        <ele>1287.6</ele>
        <time>2020-02-23T13:44:24Z</time>
      </trkpt>
      <trkpt lat="42.93929" lon="0.73345">
        <ele>1287.2</ele>
        <time>2020-02-23T13:44:25Z</time>
      </trkpt>
      <trkpt lat="42.93931" lon="0.73346">
        <ele>1286.9</ele>
        <time>2020-02-23T13:44:26Z</time>
      </trkpt>
      <trkpt lat="42.93933" lon="0.73346">
        <ele>1286.6</ele>
        <time>2020-02-23T13:44:27Z</time>
      </trkpt>
      <trkpt lat="42.93934" lon="0.73347">
        <ele>1286.2</ele>
        <time>2020-02-23T13:44:28Z</time>
      </trkpt>
      <trkpt lat="42.93936" lon="0.73348">
        <ele>1285.9</ele>
        <time>2020-02-23T13:44:29Z</time>
      </trkpt>
      <trkpt lat="42.93938" lon="0.73348">
        <ele>1285.5</ele>
        <time>2020-02-23T13:44:30Z</time>
      </trkpt>
      <trkpt lat="42.93939" lon="0.73348">
        <ele>1285.2</ele>
        <time>2020-02-23T13:44:31Z</time>
      </trkpt>
      <trkpt lat="42.93941" lon="0.73349">
        <ele>1284.8</ele>
        <time>2020-02-23T13:44:32Z</time>
      </trkpt>
      <trkpt lat="42.93943" lon="0.73349">
        <ele>1284.4</ele>
        <time>2020-02-23T13:44:33Z</time>
      </trkpt>
      <trkpt lat="42.93944" lon="0.73349">
        <ele>1284</ele>
        <time>2020-02-23T13:44:34Z</time>
      </trkpt>
      <trkpt lat="42.93946" lon="0.73349">
        <ele>1283.7</ele>
        <time>2020-02-23T13:44:35Z</time>
      </trkpt>
      <trkpt lat="42.93947" lon="0.73349">
        <ele>1283.4</ele>
        <time>2020-02-23T13:44:36Z</time>
      </trkpt>
      <trkpt lat="42.93948" lon="0.73349">
        <ele>1283.2</ele>
        <time>2020-02-23T13:44:37Z</time>
      </trkpt>
      <trkpt lat="42.9395" lon="0.73349">
        <ele>1283.1</ele>
        <time>2020-02-23T13:44:38Z</time>
      </trkpt>
      <trkpt lat="42.93951" lon="0.7335">
        <ele>1282.9</ele>
        <time>2020-02-23T13:44:39Z</time>
      </trkpt>
      <trkpt lat="42.93953" lon="0.7335">
        <ele>1282.7</ele>
        <time>2020-02-23T13:44:40Z</time>
      </trkpt>
      <trkpt lat="42.93954" lon="0.7335">
        <ele>1282.6</ele>
        <time>2020-02-23T13:44:41Z</time>
      </trkpt>
      <trkpt lat="42.93955" lon="0.7335">
        <ele>1282.4</ele>
        <time>2020-02-23T13:44:42Z</time>
      </trkpt>
      <trkpt lat="42.93957" lon="0.7335">
        <ele>1282.1</ele>
        <time>2020-02-23T13:44:43Z</time>
      </trkpt>
      <trkpt lat="42.93958" lon="0.73351">
        <ele>1281.9</ele>
        <time>2020-02-23T13:44:44Z</time>
      </trkpt>
      <trkpt lat="42.9396" lon="0.73351">
        <ele>1281.6</ele>
        <time>2020-02-23T13:44:45Z</time>
      </trkpt>
      <trkpt lat="42.93962" lon="0.73352">
        <ele>1281.3</ele>
        <time>2020-02-23T13:44:46Z</time>
      </trkpt>
      <trkpt lat="42.93963" lon="0.73352">
        <ele>1281.1</ele>
        <time>2020-02-23T13:44:47Z</time>
      </trkpt>
      <trkpt lat="42.93965" lon="0.73353">
        <ele>1280.8</ele>
        <time>2020-02-23T13:44:48Z</time>
      </trkpt>
      <trkpt lat="42.93967" lon="0.73353">
        <ele>1280.5</ele>
        <time>2020-02-23T13:44:49Z</time>
      </trkpt>
      <trkpt lat="42.93968" lon="0.73353">
        <ele>1280.2</ele>
        <time>2020-02-23T13:44:50Z</time>
      </trkpt>
      <trkpt lat="42.9397" lon="0.73353">
        <ele>1280</ele>
        <time>2020-02-23T13:44:51Z</time>
      </trkpt>
      <trkpt lat="42.93972" lon="0.73353">
        <ele>1279.7</ele>
        <time>2020-02-23T13:44:52Z</time>
      </trkpt>
      <trkpt lat="42.93973" lon="0.73354">
        <ele>1279.5</ele>
        <time>2020-02-23T13:44:53Z</time>
      </trkpt>
      <trkpt lat="42.93975" lon="0.73353">
        <ele>1279.4</ele>
        <time>2020-02-23T13:44:54Z</time>
      </trkpt>
      <trkpt lat="42.93976" lon="0.73353">
        <ele>1279.2</ele>
        <time>2020-02-23T13:44:55Z</time>
      </trkpt>
      <trkpt lat="42.93978" lon="0.73353">
        <ele>1279.1</ele>
        <time>2020-02-23T13:44:56Z</time>
      </trkpt>
      <trkpt lat="42.93979" lon="0.73353">
        <ele>1278.9</ele>
        <time>2020-02-23T13:44:57Z</time>
      </trkpt>
      <trkpt lat="42.93981" lon="0.73353">
        <ele>1278.8</ele>
        <time>2020-02-23T13:44:58Z</time>
      </trkpt>
      <trkpt lat="42.93985" lon="0.73352">
        <ele>1278.3</ele>
        <time>2020-02-23T13:44:59Z</time>
      </trkpt>
      <trkpt lat="42.93985" lon="0.73352">
        <ele>1278.3</ele>
        <time>2020-02-23T13:45:00Z</time>
      </trkpt>
      <trkpt lat="42.93985" lon="0.73352">
        <ele>1278.3</ele>
        <time>2020-02-23T13:45:01Z</time>
      </trkpt>
      <trkpt lat="42.93987" lon="0.73352">
        <ele>1278.2</ele>
        <time>2020-02-23T13:45:02Z</time>
      </trkpt>
      <trkpt lat="42.93988" lon="0.73352">
        <ele>1278</ele>
        <time>2020-02-23T13:45:03Z</time>
      </trkpt>
      <trkpt lat="42.93989" lon="0.73352">
        <ele>1277.9</ele>
        <time>2020-02-23T13:45:04Z</time>
      </trkpt>
      <trkpt lat="42.9399" lon="0.73351">
        <ele>1277.8</ele>
        <time>2020-02-23T13:45:05Z</time>
      </trkpt>
      <trkpt lat="42.93992" lon="0.73351">
        <ele>1277.7</ele>
        <time>2020-02-23T13:45:06Z</time>
      </trkpt>
      <trkpt lat="42.93993" lon="0.73351">
        <ele>1277.6</ele>
        <time>2020-02-23T13:45:07Z</time>
      </trkpt>
      <trkpt lat="42.93996" lon="0.73351">
        <ele>1277.4</ele>
        <time>2020-02-23T13:45:08Z</time>
      </trkpt>
      <trkpt lat="42.93996" lon="0.73351">
        <ele>1277.4</ele>
        <time>2020-02-23T13:45:09Z</time>
      </trkpt>
      <trkpt lat="42.93997" lon="0.73351">
        <ele>1277.3</ele>
        <time>2020-02-23T13:45:10Z</time>
      </trkpt>
      <trkpt lat="42.93998" lon="0.73351">
        <ele>1277.2</ele>
        <time>2020-02-23T13:45:11Z</time>
      </trkpt>
      <trkpt lat="42.93999" lon="0.73351">
        <ele>1277.1</ele>
        <time>2020-02-23T13:45:12Z</time>
      </trkpt>
      <trkpt lat="42.94" lon="0.73351">
        <ele>1277.1</ele>
        <time>2020-02-23T13:45:13Z</time>
      </trkpt>
      <trkpt lat="42.94001" lon="0.73351">
        <ele>1277</ele>
        <time>2020-02-23T13:45:14Z</time>
      </trkpt>
      <trkpt lat="42.94002" lon="0.73351">
        <ele>1276.9</ele>
        <time>2020-02-23T13:45:15Z</time>
      </trkpt>
      <trkpt lat="42.94003" lon="0.73351">
        <ele>1276.9</ele>
        <time>2020-02-23T13:45:16Z</time>
      </trkpt>
      <trkpt lat="42.94006" lon="0.73351">
        <ele>1276.8</ele>
        <time>2020-02-23T13:45:17Z</time>
      </trkpt>
      <trkpt lat="42.94006" lon="0.73351">
        <ele>1276.8</ele>
        <time>2020-02-23T13:45:18Z</time>
      </trkpt>
      <trkpt lat="42.94006" lon="0.73351">
        <ele>1276.8</ele>
        <time>2020-02-23T13:45:19Z</time>
      </trkpt>
      <trkpt lat="42.94007" lon="0.7335">
        <ele>1276.8</ele>
        <time>2020-02-23T13:45:20Z</time>
      </trkpt>
      <trkpt lat="42.94008" lon="0.7335">
        <ele>1276.8</ele>
        <time>2020-02-23T13:45:21Z</time>
      </trkpt>
      <trkpt lat="42.94009" lon="0.7335">
        <ele>1276.8</ele>
        <time>2020-02-23T13:45:22Z</time>
      </trkpt>
      <trkpt lat="42.9401" lon="0.73349">
        <ele>1276.8</ele>
        <time>2020-02-23T13:45:23Z</time>
      </trkpt>
      <trkpt lat="42.94012" lon="0.73349">
        <ele>1276.8</ele>
        <time>2020-02-23T13:45:24Z</time>
      </trkpt>
      <trkpt lat="42.94012" lon="0.73349">
        <ele>1276.8</ele>
        <time>2020-02-23T13:45:25Z</time>
      </trkpt>
      <trkpt lat="42.94015" lon="0.73348">
        <ele>1276.7</ele>
        <time>2020-02-23T13:45:26Z</time>
      </trkpt>
      <trkpt lat="42.94015" lon="0.73348">
        <ele>1276.7</ele>
        <time>2020-02-23T13:45:27Z</time>
      </trkpt>
      <trkpt lat="42.94017" lon="0.73348">
        <ele>1276.7</ele>
        <time>2020-02-23T13:45:28Z</time>
      </trkpt>
      <trkpt lat="42.94017" lon="0.73348">
        <ele>1276.7</ele>
        <time>2020-02-23T13:45:29Z</time>
      </trkpt>
      <trkpt lat="42.94019" lon="0.73348">
        <ele>1276.7</ele>
        <time>2020-02-23T13:45:30Z</time>
      </trkpt>
      <trkpt lat="42.94019" lon="0.73348">
        <ele>1276.7</ele>
        <time>2020-02-23T13:45:31Z</time>
      </trkpt>
      <trkpt lat="42.9402" lon="0.73347">
        <ele>1276.7</ele>
        <time>2020-02-23T13:45:32Z</time>
      </trkpt>
      <trkpt lat="42.9402" lon="0.73347">
        <ele>1276.7</ele>
        <time>2020-02-23T13:45:33Z</time>
      </trkpt>
      <trkpt lat="42.94023" lon="0.73347">
        <ele>1276.6</ele>
        <time>2020-02-23T13:45:34Z</time>
      </trkpt>
      <trkpt lat="42.94023" lon="0.73347">
        <ele>1276.6</ele>
        <time>2020-02-23T13:45:35Z</time>
      </trkpt>
      <trkpt lat="42.94025" lon="0.73347">
        <ele>1276.6</ele>
        <time>2020-02-23T13:45:36Z</time>
      </trkpt>
      <trkpt lat="42.94027" lon="0.73347">
        <ele>1276.5</ele>
        <time>2020-02-23T13:45:37Z</time>
      </trkpt>
      <trkpt lat="42.94027" lon="0.73347">
        <ele>1276.5</ele>
        <time>2020-02-23T13:45:38Z</time>
      </trkpt>
      <trkpt lat="42.94027" lon="0.73347">
        <ele>1276.5</ele>
        <time>2020-02-23T13:45:39Z</time>
      </trkpt>
      <trkpt lat="42.9403" lon="0.73347">
        <ele>1276.5</ele>
        <time>2020-02-23T13:45:40Z</time>
      </trkpt>
      <trkpt lat="42.9403" lon="0.73347">
        <ele>1276.5</ele>
        <time>2020-02-23T13:45:41Z</time>
      </trkpt>
      <trkpt lat="42.9403" lon="0.73347">
        <ele>1276.5</ele>
        <time>2020-02-23T13:45:42Z</time>
      </trkpt>
      <trkpt lat="42.94033" lon="0.73346">
        <ele>1276.4</ele>
        <time>2020-02-23T13:45:43Z</time>
      </trkpt>
      <trkpt lat="42.94035" lon="0.73346">
        <ele>1276.3</ele>
        <time>2020-02-23T13:45:44Z</time>
      </trkpt>
      <trkpt lat="42.94035" lon="0.73346">
        <ele>1276.3</ele>
        <time>2020-02-23T13:45:45Z</time>
      </trkpt>
      <trkpt lat="42.94035" lon="0.73346">
        <ele>1276.3</ele>
        <time>2020-02-23T13:45:46Z</time>
      </trkpt>
      <trkpt lat="42.94036" lon="0.73345">
        <ele>1276.2</ele>
        <time>2020-02-23T13:45:47Z</time>
      </trkpt>
      <trkpt lat="42.94037" lon="0.73345">
        <ele>1276.2</ele>
        <time>2020-02-23T13:45:48Z</time>
      </trkpt>
      <trkpt lat="42.94038" lon="0.73345">
        <ele>1276.1</ele>
        <time>2020-02-23T13:45:49Z</time>
      </trkpt>
      <trkpt lat="42.94039" lon="0.73345">
        <ele>1276</ele>
        <time>2020-02-23T13:45:50Z</time>
      </trkpt>
      <trkpt lat="42.94039" lon="0.73345">
        <ele>1276</ele>
        <time>2020-02-23T13:45:51Z</time>
      </trkpt>
      <trkpt lat="42.94043" lon="0.73346">
        <ele>1275.8</ele>
        <time>2020-02-23T13:45:52Z</time>
      </trkpt>
      <trkpt lat="42.94045" lon="0.73348">
        <ele>1275.7</ele>
        <time>2020-02-23T13:45:53Z</time>
      </trkpt>
      <trkpt lat="42.94045" lon="0.73348">
        <ele>1275.7</ele>
        <time>2020-02-23T13:45:54Z</time>
      </trkpt>
      <trkpt lat="42.94045" lon="0.73348">
        <ele>1275.7</ele>
        <time>2020-02-23T13:45:55Z</time>
      </trkpt>
      <trkpt lat="42.94047" lon="0.7335">
        <ele>1275.6</ele>
        <time>2020-02-23T13:45:56Z</time>
      </trkpt>
      <trkpt lat="42.94047" lon="0.7335">
        <ele>1275.6</ele>
        <time>2020-02-23T13:45:57Z</time>
      </trkpt>
      <trkpt lat="42.9405" lon="0.73351">
        <ele>1275.3</ele>
        <time>2020-02-23T13:45:58Z</time>
      </trkpt>
      <trkpt lat="42.9405" lon="0.73351">
        <ele>1275.3</ele>
        <time>2020-02-23T13:45:59Z</time>
      </trkpt>
      <trkpt lat="42.94051" lon="0.73353">
        <ele>1275.1</ele>
        <time>2020-02-23T13:46:00Z</time>
      </trkpt>
      <trkpt lat="42.94051" lon="0.73353">
        <ele>1275.1</ele>
        <time>2020-02-23T13:46:01Z</time>
      </trkpt>
      <trkpt lat="42.94054" lon="0.73355">
        <ele>1274.7</ele>
        <time>2020-02-23T13:46:02Z</time>
      </trkpt>
      <trkpt lat="42.94056" lon="0.73358">
        <ele>1274.4</ele>
        <time>2020-02-23T13:46:03Z</time>
      </trkpt>
      <trkpt lat="42.94056" lon="0.73358">
        <ele>1274.4</ele>
        <time>2020-02-23T13:46:04Z</time>
      </trkpt>
      <trkpt lat="42.94056" lon="0.73358">
        <ele>1274.4</ele>
        <time>2020-02-23T13:46:05Z</time>
      </trkpt>
      <trkpt lat="42.94056" lon="0.73358">
        <ele>1274.4</ele>
        <time>2020-02-23T13:46:06Z</time>
      </trkpt>
      <trkpt lat="42.94059" lon="0.73362">
        <ele>1273.9</ele>
        <time>2020-02-23T13:46:07Z</time>
      </trkpt>
      <trkpt lat="42.9406" lon="0.73365">
        <ele>1273.6</ele>
        <time>2020-02-23T13:46:08Z</time>
      </trkpt>
      <trkpt lat="42.9406" lon="0.73365">
        <ele>1273.6</ele>
        <time>2020-02-23T13:46:09Z</time>
      </trkpt>
      <trkpt lat="42.9406" lon="0.73365">
        <ele>1273.6</ele>
        <time>2020-02-23T13:46:10Z</time>
      </trkpt>
      <trkpt lat="42.94062" lon="0.73368">
        <ele>1273.3</ele>
        <time>2020-02-23T13:46:11Z</time>
      </trkpt>
      <trkpt lat="42.94063" lon="0.73371">
        <ele>1273</ele>
        <time>2020-02-23T13:46:12Z</time>
      </trkpt>
      <trkpt lat="42.94063" lon="0.73371">
        <ele>1273</ele>
        <time>2020-02-23T13:46:13Z</time>
      </trkpt>
      <trkpt lat="42.94063" lon="0.73371">
        <ele>1273</ele>
        <time>2020-02-23T13:46:14Z</time>
      </trkpt>
      <trkpt lat="42.94064" lon="0.73373">
        <ele>1272.8</ele>
        <time>2020-02-23T13:46:15Z</time>
      </trkpt>
      <trkpt lat="42.94064" lon="0.73375">
        <ele>1272.6</ele>
        <time>2020-02-23T13:46:16Z</time>
      </trkpt>
      <trkpt lat="42.94065" lon="0.73376">
        <ele>1272.4</ele>
        <time>2020-02-23T13:46:17Z</time>
      </trkpt>
      <trkpt lat="42.94066" lon="0.73378">
        <ele>1272.3</ele>
        <time>2020-02-23T13:46:18Z</time>
      </trkpt>
      <trkpt lat="42.94066" lon="0.73382">
        <ele>1271.9</ele>
        <time>2020-02-23T13:46:19Z</time>
      </trkpt>
      <trkpt lat="42.94067" lon="0.73386">
        <ele>1271.7</ele>
        <time>2020-02-23T13:46:20Z</time>
      </trkpt>
      <trkpt lat="42.94067" lon="0.73386">
        <ele>1271.7</ele>
        <time>2020-02-23T13:46:21Z</time>
      </trkpt>
      <trkpt lat="42.94067" lon="0.7339">
        <ele>1271.4</ele>
        <time>2020-02-23T13:46:22Z</time>
      </trkpt>
      <trkpt lat="42.94067" lon="0.7339">
        <ele>1271.5</ele>
        <time>2020-02-23T13:46:23Z</time>
      </trkpt>
      <trkpt lat="42.94067" lon="0.7339">
        <ele>1271.5</ele>
        <time>2020-02-23T13:46:24Z</time>
      </trkpt>
      <trkpt lat="42.94068" lon="0.73393">
        <ele>1271.3</ele>
        <time>2020-02-23T13:46:25Z</time>
      </trkpt>
      <trkpt lat="42.94068" lon="0.73396">
        <ele>1271</ele>
        <time>2020-02-23T13:46:26Z</time>
      </trkpt>
      <trkpt lat="42.94068" lon="0.73399">
        <ele>1270.6</ele>
        <time>2020-02-23T13:46:27Z</time>
      </trkpt>
      <trkpt lat="42.94068" lon="0.73399">
        <ele>1270.6</ele>
        <time>2020-02-23T13:46:28Z</time>
      </trkpt>
      <trkpt lat="42.94068" lon="0.73399">
        <ele>1270.6</ele>
        <time>2020-02-23T13:46:29Z</time>
      </trkpt>
      <trkpt lat="42.94068" lon="0.73402">
        <ele>1270</ele>
        <time>2020-02-23T13:46:30Z</time>
      </trkpt>
      <trkpt lat="42.94068" lon="0.73402">
        <ele>1270.1</ele>
        <time>2020-02-23T13:46:31Z</time>
      </trkpt>
      <trkpt lat="42.94068" lon="0.73405">
        <ele>1269.8</ele>
        <time>2020-02-23T13:46:32Z</time>
      </trkpt>
      <trkpt lat="42.94068" lon="0.73405">
        <ele>1269.8</ele>
        <time>2020-02-23T13:46:33Z</time>
      </trkpt>
      <trkpt lat="42.94068" lon="0.73405">
        <ele>1269.9</ele>
        <time>2020-02-23T13:46:34Z</time>
      </trkpt>
      <trkpt lat="42.94068" lon="0.73405">
        <ele>1269.9</ele>
        <time>2020-02-23T13:46:35Z</time>
      </trkpt>
      <trkpt lat="42.94068" lon="0.7341">
        <ele>1269.3</ele>
        <time>2020-02-23T13:46:36Z</time>
      </trkpt>
      <trkpt lat="42.94068" lon="0.7341">
        <ele>1269.3</ele>
        <time>2020-02-23T13:46:37Z</time>
      </trkpt>
      <trkpt lat="42.94068" lon="0.73412">
        <ele>1269.2</ele>
        <time>2020-02-23T13:46:38Z</time>
      </trkpt>
      <trkpt lat="42.94068" lon="0.73413">
        <ele>1269.1</ele>
        <time>2020-02-23T13:46:39Z</time>
      </trkpt>
      <trkpt lat="42.94068" lon="0.73414">
        <ele>1269</ele>
        <time>2020-02-23T13:46:40Z</time>
      </trkpt>
      <trkpt lat="42.94067" lon="0.73415">
        <ele>1268.7</ele>
        <time>2020-02-23T13:46:41Z</time>
      </trkpt>
      <trkpt lat="42.94067" lon="0.73416">
        <ele>1268.6</ele>
        <time>2020-02-23T13:46:42Z</time>
      </trkpt>
      <trkpt lat="42.94067" lon="0.73416">
        <ele>1268.7</ele>
        <time>2020-02-23T13:46:43Z</time>
      </trkpt>
      <trkpt lat="42.94067" lon="0.73416">
        <ele>1268.7</ele>
        <time>2020-02-23T13:46:44Z</time>
      </trkpt>
      <trkpt lat="42.94068" lon="0.73421">
        <ele>1267.9</ele>
        <time>2020-02-23T13:46:45Z</time>
      </trkpt>
      <trkpt lat="42.94068" lon="0.73421">
        <ele>1267.9</ele>
        <time>2020-02-23T13:46:46Z</time>
      </trkpt>
      <trkpt lat="42.94068" lon="0.73424">
        <ele>1267.5</ele>
        <time>2020-02-23T13:46:47Z</time>
      </trkpt>
      <trkpt lat="42.94068" lon="0.73424">
        <ele>1267.5</ele>
        <time>2020-02-23T13:46:48Z</time>
      </trkpt>
      <trkpt lat="42.94069" lon="0.73427">
        <ele>1267</ele>
        <time>2020-02-23T13:46:49Z</time>
      </trkpt>
      <trkpt lat="42.94069" lon="0.73427">
        <ele>1267</ele>
        <time>2020-02-23T13:46:50Z</time>
      </trkpt>
      <trkpt lat="42.94069" lon="0.73427">
        <ele>1267.1</ele>
        <time>2020-02-23T13:46:51Z</time>
      </trkpt>
      <trkpt lat="42.94069" lon="0.73427">
        <ele>1267.1</ele>
        <time>2020-02-23T13:46:52Z</time>
      </trkpt>
      <trkpt lat="42.94069" lon="0.73431">
        <ele>1266.4</ele>
        <time>2020-02-23T13:46:53Z</time>
      </trkpt>
      <trkpt lat="42.94069" lon="0.73431">
        <ele>1266.4</ele>
        <time>2020-02-23T13:46:54Z</time>
      </trkpt>
      <trkpt lat="42.94068" lon="0.73433">
        <ele>1266.1</ele>
        <time>2020-02-23T13:46:55Z</time>
      </trkpt>
      <trkpt lat="42.94068" lon="0.73433">
        <ele>1266.1</ele>
        <time>2020-02-23T13:46:56Z</time>
      </trkpt>
      <trkpt lat="42.94068" lon="0.73436">
        <ele>1265.6</ele>
        <time>2020-02-23T13:46:57Z</time>
      </trkpt>
      <trkpt lat="42.94068" lon="0.73436">
        <ele>1265.7</ele>
        <time>2020-02-23T13:46:58Z</time>
      </trkpt>
      <trkpt lat="42.94068" lon="0.73437">
        <ele>1265.5</ele>
        <time>2020-02-23T13:46:59Z</time>
      </trkpt>
      <trkpt lat="42.94068" lon="0.73439">
        <ele>1265.3</ele>
        <time>2020-02-23T13:47:00Z</time>
      </trkpt>
      <trkpt lat="42.94068" lon="0.7344">
        <ele>1265</ele>
        <time>2020-02-23T13:47:01Z</time>
      </trkpt>
      <trkpt lat="42.94068" lon="0.73441">
        <ele>1264.8</ele>
        <time>2020-02-23T13:47:02Z</time>
      </trkpt>
      <trkpt lat="42.94068" lon="0.73443">
        <ele>1264.6</ele>
        <time>2020-02-23T13:47:03Z</time>
      </trkpt>
      <trkpt lat="42.94067" lon="0.73444">
        <ele>1264.4</ele>
        <time>2020-02-23T13:47:04Z</time>
      </trkpt>
      <trkpt lat="42.94067" lon="0.73445">
        <ele>1264.3</ele>
        <time>2020-02-23T13:47:05Z</time>
      </trkpt>
      <trkpt lat="42.94067" lon="0.73446">
        <ele>1264.1</ele>
        <time>2020-02-23T13:47:06Z</time>
      </trkpt>
      <trkpt lat="42.94067" lon="0.73447">
        <ele>1263.9</ele>
        <time>2020-02-23T13:47:07Z</time>
      </trkpt>
      <trkpt lat="42.94066" lon="0.73448">
        <ele>1263.7</ele>
        <time>2020-02-23T13:47:08Z</time>
      </trkpt>
      <trkpt lat="42.94066" lon="0.73449">
        <ele>1263.5</ele>
        <time>2020-02-23T13:47:09Z</time>
      </trkpt>
      <trkpt lat="42.94064" lon="0.73453">
        <ele>1262.6</ele>
        <time>2020-02-23T13:47:10Z</time>
      </trkpt>
      <trkpt lat="42.94064" lon="0.73453">
        <ele>1262.6</ele>
        <time>2020-02-23T13:47:11Z</time>
      </trkpt>
      <trkpt lat="42.94064" lon="0.73453">
        <ele>1262.7</ele>
        <time>2020-02-23T13:47:12Z</time>
      </trkpt>
      <trkpt lat="42.94063" lon="0.73457">
        <ele>1261.9</ele>
        <time>2020-02-23T13:47:13Z</time>
      </trkpt>
      <trkpt lat="42.94063" lon="0.73457">
        <ele>1261.9</ele>
        <time>2020-02-23T13:47:14Z</time>
      </trkpt>
      <trkpt lat="42.94062" lon="0.7346">
        <ele>1261.5</ele>
        <time>2020-02-23T13:47:15Z</time>
      </trkpt>
      <trkpt lat="42.94062" lon="0.7346">
        <ele>1261.5</ele>
        <time>2020-02-23T13:47:16Z</time>
      </trkpt>
      <trkpt lat="42.94062" lon="0.7346">
        <ele>1261.6</ele>
        <time>2020-02-23T13:47:17Z</time>
      </trkpt>
      <trkpt lat="42.94062" lon="0.7346">
        <ele>1261.6</ele>
        <time>2020-02-23T13:47:18Z</time>
      </trkpt>
      <trkpt lat="42.94062" lon="0.73464">
        <ele>1261</ele>
        <time>2020-02-23T13:47:19Z</time>
      </trkpt>
      <trkpt lat="42.94062" lon="0.73464">
        <ele>1261</ele>
        <time>2020-02-23T13:47:20Z</time>
      </trkpt>
      <trkpt lat="42.94062" lon="0.73464">
        <ele>1261.1</ele>
        <time>2020-02-23T13:47:21Z</time>
      </trkpt>
      <trkpt lat="42.94062" lon="0.73464">
        <ele>1261.1</ele>
        <time>2020-02-23T13:47:22Z</time>
      </trkpt>
      <trkpt lat="42.94061" lon="0.73467">
        <ele>1260.6</ele>
        <time>2020-02-23T13:47:23Z</time>
      </trkpt>
      <trkpt lat="42.94061" lon="0.73467">
        <ele>1260.6</ele>
        <time>2020-02-23T13:47:24Z</time>
      </trkpt>
      <trkpt lat="42.94061" lon="0.73467">
        <ele>1260.7</ele>
        <time>2020-02-23T13:47:25Z</time>
      </trkpt>
      <trkpt lat="42.9406" lon="0.73471">
        <ele>1259.6</ele>
        <time>2020-02-23T13:47:26Z</time>
      </trkpt>
      <trkpt lat="42.9406" lon="0.73471">
        <ele>1259.7</ele>
        <time>2020-02-23T13:47:27Z</time>
      </trkpt>
      <trkpt lat="42.9406" lon="0.73471">
        <ele>1259.7</ele>
        <time>2020-02-23T13:47:28Z</time>
      </trkpt>
      <trkpt lat="42.94059" lon="0.73473">
        <ele>1259.3</ele>
        <time>2020-02-23T13:47:29Z</time>
      </trkpt>
      <trkpt lat="42.94058" lon="0.73474">
        <ele>1259</ele>
        <time>2020-02-23T13:47:30Z</time>
      </trkpt>
      <trkpt lat="42.94058" lon="0.73476">
        <ele>1258.6</ele>
        <time>2020-02-23T13:47:31Z</time>
      </trkpt>
      <trkpt lat="42.94057" lon="0.73477">
        <ele>1258.4</ele>
        <time>2020-02-23T13:47:32Z</time>
      </trkpt>
      <trkpt lat="42.94057" lon="0.73479">
        <ele>1258.3</ele>
        <time>2020-02-23T13:47:33Z</time>
      </trkpt>
      <trkpt lat="42.94056" lon="0.7348">
        <ele>1258.1</ele>
        <time>2020-02-23T13:47:34Z</time>
      </trkpt>
      <trkpt lat="42.94056" lon="0.73481">
        <ele>1258.1</ele>
        <time>2020-02-23T13:47:35Z</time>
      </trkpt>
      <trkpt lat="42.94056" lon="0.73483">
        <ele>1257.9</ele>
        <time>2020-02-23T13:47:36Z</time>
      </trkpt>
      <trkpt lat="42.94056" lon="0.73484">
        <ele>1257.9</ele>
        <time>2020-02-23T13:47:37Z</time>
      </trkpt>
      <trkpt lat="42.94055" lon="0.73485">
        <ele>1257.7</ele>
        <time>2020-02-23T13:47:38Z</time>
      </trkpt>
      <trkpt lat="42.94055" lon="0.73487">
        <ele>1257.6</ele>
        <time>2020-02-23T13:47:39Z</time>
      </trkpt>
      <trkpt lat="42.94055" lon="0.73488">
        <ele>1257.3</ele>
        <time>2020-02-23T13:47:40Z</time>
      </trkpt>
      <trkpt lat="42.94055" lon="0.73489">
        <ele>1257</ele>
        <time>2020-02-23T13:47:41Z</time>
      </trkpt>
      <trkpt lat="42.94054" lon="0.73491">
        <ele>1256.7</ele>
        <time>2020-02-23T13:47:42Z</time>
      </trkpt>
      <trkpt lat="42.94054" lon="0.73492">
        <ele>1256.4</ele>
        <time>2020-02-23T13:47:43Z</time>
      </trkpt>
      <trkpt lat="42.94054" lon="0.73494">
        <ele>1256.1</ele>
        <time>2020-02-23T13:47:44Z</time>
      </trkpt>
      <trkpt lat="42.94054" lon="0.73495">
        <ele>1255.8</ele>
        <time>2020-02-23T13:47:45Z</time>
      </trkpt>
      <trkpt lat="42.94054" lon="0.73496">
        <ele>1255.4</ele>
        <time>2020-02-23T13:47:46Z</time>
      </trkpt>
      <trkpt lat="42.94053" lon="0.73498">
        <ele>1255.1</ele>
        <time>2020-02-23T13:47:47Z</time>
      </trkpt>
      <trkpt lat="42.94053" lon="0.73498">
        <ele>1255.2</ele>
        <time>2020-02-23T13:47:48Z</time>
      </trkpt>
      <trkpt lat="42.94053" lon="0.73503">
        <ele>1254.7</ele>
        <time>2020-02-23T13:47:49Z</time>
      </trkpt>
      <trkpt lat="42.94053" lon="0.73503">
        <ele>1254.7</ele>
        <time>2020-02-23T13:47:50Z</time>
      </trkpt>
      <trkpt lat="42.94053" lon="0.73503">
        <ele>1254.8</ele>
        <time>2020-02-23T13:47:51Z</time>
      </trkpt>
      <trkpt lat="42.94054" lon="0.73507">
        <ele>1254.3</ele>
        <time>2020-02-23T13:47:52Z</time>
      </trkpt>
      <trkpt lat="42.94054" lon="0.73507">
        <ele>1254.3</ele>
        <time>2020-02-23T13:47:53Z</time>
      </trkpt>
      <trkpt lat="42.94055" lon="0.7351">
        <ele>1253.9</ele>
        <time>2020-02-23T13:47:54Z</time>
      </trkpt>
      <trkpt lat="42.94055" lon="0.7351">
        <ele>1253.9</ele>
        <time>2020-02-23T13:47:55Z</time>
      </trkpt>
      <trkpt lat="42.94056" lon="0.73513">
        <ele>1253.3</ele>
        <time>2020-02-23T13:47:56Z</time>
      </trkpt>
      <trkpt lat="42.94056" lon="0.73513">
        <ele>1253.3</ele>
        <time>2020-02-23T13:47:57Z</time>
      </trkpt>
      <trkpt lat="42.94057" lon="0.73516">
        <ele>1252.6</ele>
        <time>2020-02-23T13:47:58Z</time>
      </trkpt>
      <trkpt lat="42.94057" lon="0.73516">
        <ele>1252.6</ele>
        <time>2020-02-23T13:47:59Z</time>
      </trkpt>
      <trkpt lat="42.94059" lon="0.7352">
        <ele>1252</ele>
        <time>2020-02-23T13:48:00Z</time>
      </trkpt>
      <trkpt lat="42.94061" lon="0.73523">
        <ele>1251.3</ele>
        <time>2020-02-23T13:48:01Z</time>
      </trkpt>
      <trkpt lat="42.94061" lon="0.73523">
        <ele>1251.3</ele>
        <time>2020-02-23T13:48:02Z</time>
      </trkpt>
      <trkpt lat="42.94061" lon="0.73523">
        <ele>1251.3</ele>
        <time>2020-02-23T13:48:03Z</time>
      </trkpt>
      <trkpt lat="42.94062" lon="0.73528">
        <ele>1250.5</ele>
        <time>2020-02-23T13:48:04Z</time>
      </trkpt>
      <trkpt lat="42.94062" lon="0.73528">
        <ele>1250.5</ele>
        <time>2020-02-23T13:48:05Z</time>
      </trkpt>
      <trkpt lat="42.94062" lon="0.73528">
        <ele>1250.5</ele>
        <time>2020-02-23T13:48:06Z</time>
      </trkpt>
      <trkpt lat="42.94062" lon="0.73531">
        <ele>1249.5</ele>
        <time>2020-02-23T13:48:07Z</time>
      </trkpt>
      <trkpt lat="42.94063" lon="0.73535">
        <ele>1248.5</ele>
        <time>2020-02-23T13:48:08Z</time>
      </trkpt>
      <trkpt lat="42.94063" lon="0.73535">
        <ele>1248.5</ele>
        <time>2020-02-23T13:48:09Z</time>
      </trkpt>
      <trkpt lat="42.94063" lon="0.73535">
        <ele>1248.5</ele>
        <time>2020-02-23T13:48:10Z</time>
      </trkpt>
      <trkpt lat="42.94063" lon="0.73538">
        <ele>1247.8</ele>
        <time>2020-02-23T13:48:11Z</time>
      </trkpt>
      <trkpt lat="42.94063" lon="0.73538">
        <ele>1247.8</ele>
        <time>2020-02-23T13:48:12Z</time>
      </trkpt>
      <trkpt lat="42.94063" lon="0.73538">
        <ele>1247.8</ele>
        <time>2020-02-23T13:48:13Z</time>
      </trkpt>
      <trkpt lat="42.94063" lon="0.73542">
        <ele>1247.5</ele>
        <time>2020-02-23T13:48:14Z</time>
      </trkpt>
      <trkpt lat="42.94063" lon="0.73542">
        <ele>1247.5</ele>
        <time>2020-02-23T13:48:15Z</time>
      </trkpt>
      <trkpt lat="42.94062" lon="0.73545">
        <ele>1247.3</ele>
        <time>2020-02-23T13:48:16Z</time>
      </trkpt>
      <trkpt lat="42.94062" lon="0.73545">
        <ele>1247.3</ele>
        <time>2020-02-23T13:48:17Z</time>
      </trkpt>
      <trkpt lat="42.94062" lon="0.73547">
        <ele>1247.2</ele>
        <time>2020-02-23T13:48:18Z</time>
      </trkpt>
      <trkpt lat="42.94061" lon="0.73549">
        <ele>1246.8</ele>
        <time>2020-02-23T13:48:19Z</time>
      </trkpt>
      <trkpt lat="42.9406" lon="0.7355">
        <ele>1246.3</ele>
        <time>2020-02-23T13:48:20Z</time>
      </trkpt>
      <trkpt lat="42.94058" lon="0.73556">
        <ele>1244.6</ele>
        <time>2020-02-23T13:48:21Z</time>
      </trkpt>
      <trkpt lat="42.94058" lon="0.73556">
        <ele>1244.6</ele>
        <time>2020-02-23T13:48:22Z</time>
      </trkpt>
      <trkpt lat="42.94058" lon="0.73556">
        <ele>1244.6</ele>
        <time>2020-02-23T13:48:23Z</time>
      </trkpt>
      <trkpt lat="42.94058" lon="0.73556">
        <ele>1244.6</ele>
        <time>2020-02-23T13:48:24Z</time>
      </trkpt>
      <trkpt lat="42.94056" lon="0.7356">
        <ele>1243.5</ele>
        <time>2020-02-23T13:48:25Z</time>
      </trkpt>
      <trkpt lat="42.94056" lon="0.7356">
        <ele>1243.5</ele>
        <time>2020-02-23T13:48:26Z</time>
      </trkpt>
      <trkpt lat="42.94055" lon="0.73562">
        <ele>1243.1</ele>
        <time>2020-02-23T13:48:27Z</time>
      </trkpt>
      <trkpt lat="42.94055" lon="0.73564">
        <ele>1242.8</ele>
        <time>2020-02-23T13:48:28Z</time>
      </trkpt>
      <trkpt lat="42.94054" lon="0.73565">
        <ele>1242.5</ele>
        <time>2020-02-23T13:48:29Z</time>
      </trkpt>
      <trkpt lat="42.94053" lon="0.73567">
        <ele>1242.1</ele>
        <time>2020-02-23T13:48:30Z</time>
      </trkpt>
      <trkpt lat="42.94052" lon="0.73568">
        <ele>1241.8</ele>
        <time>2020-02-23T13:48:31Z</time>
      </trkpt>
      <trkpt lat="42.94051" lon="0.7357">
        <ele>1241.4</ele>
        <time>2020-02-23T13:48:32Z</time>
      </trkpt>
      <trkpt lat="42.9405" lon="0.73572">
        <ele>1240.9</ele>
        <time>2020-02-23T13:48:33Z</time>
      </trkpt>
      <trkpt lat="42.94049" lon="0.73574">
        <ele>1240.5</ele>
        <time>2020-02-23T13:48:34Z</time>
      </trkpt>
      <trkpt lat="42.94048" lon="0.73576">
        <ele>1240.3</ele>
        <time>2020-02-23T13:48:35Z</time>
      </trkpt>
      <trkpt lat="42.94047" lon="0.73578">
        <ele>1240</ele>
        <time>2020-02-23T13:48:36Z</time>
      </trkpt>
      <trkpt lat="42.94045" lon="0.73582">
        <ele>1239.6</ele>
        <time>2020-02-23T13:48:37Z</time>
      </trkpt>
      <trkpt lat="42.94045" lon="0.73582">
        <ele>1239.6</ele>
        <time>2020-02-23T13:48:38Z</time>
      </trkpt>
      <trkpt lat="42.94045" lon="0.73582">
        <ele>1239.6</ele>
        <time>2020-02-23T13:48:39Z</time>
      </trkpt>
      <trkpt lat="42.94044" lon="0.73583">
        <ele>1239.5</ele>
        <time>2020-02-23T13:48:40Z</time>
      </trkpt>
      <trkpt lat="42.94043" lon="0.73585">
        <ele>1239.5</ele>
        <time>2020-02-23T13:48:41Z</time>
      </trkpt>
      <trkpt lat="42.94042" lon="0.73587">
        <ele>1239.5</ele>
        <time>2020-02-23T13:48:42Z</time>
      </trkpt>
      <trkpt lat="42.94041" lon="0.73589">
        <ele>1239.5</ele>
        <time>2020-02-23T13:48:43Z</time>
      </trkpt>
      <trkpt lat="42.9404" lon="0.73591">
        <ele>1239.5</ele>
        <time>2020-02-23T13:48:44Z</time>
      </trkpt>
      <trkpt lat="42.94038" lon="0.73595">
        <ele>1239.7</ele>
        <time>2020-02-23T13:48:45Z</time>
      </trkpt>
      <trkpt lat="42.94038" lon="0.73595">
        <ele>1239.7</ele>
        <time>2020-02-23T13:48:46Z</time>
      </trkpt>
      <trkpt lat="42.94038" lon="0.73597">
        <ele>1239.7</ele>
        <time>2020-02-23T13:48:47Z</time>
      </trkpt>
      <trkpt lat="42.94037" lon="0.73599">
        <ele>1239.8</ele>
        <time>2020-02-23T13:48:48Z</time>
      </trkpt>
      <trkpt lat="42.94037" lon="0.73601">
        <ele>1240</ele>
        <time>2020-02-23T13:48:49Z</time>
      </trkpt>
      <trkpt lat="42.94036" lon="0.73602">
        <ele>1240.4</ele>
        <time>2020-02-23T13:48:50Z</time>
      </trkpt>
      <trkpt lat="42.94036" lon="0.73604">
        <ele>1240.8</ele>
        <time>2020-02-23T13:48:51Z</time>
      </trkpt>
      <trkpt lat="42.94036" lon="0.73606">
        <ele>1241.2</ele>
        <time>2020-02-23T13:48:52Z</time>
      </trkpt>
      <trkpt lat="42.94036" lon="0.73609">
        <ele>1241.8</ele>
        <time>2020-02-23T13:48:53Z</time>
      </trkpt>
      <trkpt lat="42.94036" lon="0.73609">
        <ele>1241.8</ele>
        <time>2020-02-23T13:48:54Z</time>
      </trkpt>
      <trkpt lat="42.94036" lon="0.73609">
        <ele>1241.8</ele>
        <time>2020-02-23T13:48:55Z</time>
      </trkpt>
      <trkpt lat="42.94036" lon="0.73609">
        <ele>1241.8</ele>
        <time>2020-02-23T13:48:56Z</time>
      </trkpt>
      <trkpt lat="42.94036" lon="0.73615">
        <ele>1242.6</ele>
        <time>2020-02-23T13:48:57Z</time>
      </trkpt>
      <trkpt lat="42.94036" lon="0.73618">
        <ele>1243</ele>
        <time>2020-02-23T13:48:58Z</time>
      </trkpt>
      <trkpt lat="42.94036" lon="0.73618">
        <ele>1243</ele>
        <time>2020-02-23T13:48:59Z</time>
      </trkpt>
      <trkpt lat="42.94036" lon="0.73618">
        <ele>1243</ele>
        <time>2020-02-23T13:49:00Z</time>
      </trkpt>
      <trkpt lat="42.94036" lon="0.73618">
        <ele>1243</ele>
        <time>2020-02-23T13:49:01Z</time>
      </trkpt>
      <trkpt lat="42.94035" lon="0.73623">
        <ele>1243.5</ele>
        <time>2020-02-23T13:49:02Z</time>
      </trkpt>
      <trkpt lat="42.94035" lon="0.73623">
        <ele>1243.5</ele>
        <time>2020-02-23T13:49:03Z</time>
      </trkpt>
      <trkpt lat="42.94035" lon="0.73623">
        <ele>1243.5</ele>
        <time>2020-02-23T13:49:04Z</time>
      </trkpt>
      <trkpt lat="42.94035" lon="0.73624">
        <ele>1243.7</ele>
        <time>2020-02-23T13:49:05Z</time>
      </trkpt>
      <trkpt lat="42.94036" lon="0.73626">
        <ele>1243.8</ele>
        <time>2020-02-23T13:49:06Z</time>
      </trkpt>
      <trkpt lat="42.94036" lon="0.73627">
        <ele>1244</ele>
        <time>2020-02-23T13:49:07Z</time>
      </trkpt>
      <trkpt lat="42.94036" lon="0.73629">
        <ele>1244.1</ele>
        <time>2020-02-23T13:49:08Z</time>
      </trkpt>
      <trkpt lat="42.94036" lon="0.7363">
        <ele>1244.2</ele>
        <time>2020-02-23T13:49:09Z</time>
      </trkpt>
      <trkpt lat="42.94036" lon="0.73632">
        <ele>1244.4</ele>
        <time>2020-02-23T13:49:10Z</time>
      </trkpt>
      <trkpt lat="42.94037" lon="0.73633">
        <ele>1244.6</ele>
        <time>2020-02-23T13:49:11Z</time>
      </trkpt>
      <trkpt lat="42.94037" lon="0.73635">
        <ele>1244.7</ele>
        <time>2020-02-23T13:49:12Z</time>
      </trkpt>
      <trkpt lat="42.94037" lon="0.73636">
        <ele>1244.9</ele>
        <time>2020-02-23T13:49:13Z</time>
      </trkpt>
      <trkpt lat="42.94037" lon="0.73638">
        <ele>1245.1</ele>
        <time>2020-02-23T13:49:14Z</time>
      </trkpt>
      <trkpt lat="42.94037" lon="0.7364">
        <ele>1245.2</ele>
        <time>2020-02-23T13:49:15Z</time>
      </trkpt>
      <trkpt lat="42.94037" lon="0.73641">
        <ele>1245.4</ele>
        <time>2020-02-23T13:49:16Z</time>
      </trkpt>
      <trkpt lat="42.94037" lon="0.73643">
        <ele>1245.6</ele>
        <time>2020-02-23T13:49:17Z</time>
      </trkpt>
      <trkpt lat="42.94037" lon="0.73645">
        <ele>1245.9</ele>
        <time>2020-02-23T13:49:18Z</time>
      </trkpt>
      <trkpt lat="42.94037" lon="0.73647">
        <ele>1246.2</ele>
        <time>2020-02-23T13:49:19Z</time>
      </trkpt>
      <trkpt lat="42.94036" lon="0.7365">
        <ele>1246.9</ele>
        <time>2020-02-23T13:49:20Z</time>
      </trkpt>
      <trkpt lat="42.94036" lon="0.7365">
        <ele>1246.9</ele>
        <time>2020-02-23T13:49:21Z</time>
      </trkpt>
      <trkpt lat="42.94036" lon="0.73652">
        <ele>1247.2</ele>
        <time>2020-02-23T13:49:22Z</time>
      </trkpt>
      <trkpt lat="42.94035" lon="0.73654">
        <ele>1247.6</ele>
        <time>2020-02-23T13:49:23Z</time>
      </trkpt>
      <trkpt lat="42.94035" lon="0.73655">
        <ele>1247.7</ele>
        <time>2020-02-23T13:49:24Z</time>
      </trkpt>
      <trkpt lat="42.94035" lon="0.73657">
        <ele>1247.6</ele>
        <time>2020-02-23T13:49:25Z</time>
      </trkpt>
      <trkpt lat="42.94035" lon="0.73659">
        <ele>1247.4</ele>
        <time>2020-02-23T13:49:26Z</time>
      </trkpt>
      <trkpt lat="42.94034" lon="0.73661">
        <ele>1247.3</ele>
        <time>2020-02-23T13:49:27Z</time>
      </trkpt>
      <trkpt lat="42.94034" lon="0.73662">
        <ele>1247.2</ele>
        <time>2020-02-23T13:49:28Z</time>
      </trkpt>
      <trkpt lat="42.94034" lon="0.73664">
        <ele>1247</ele>
        <time>2020-02-23T13:49:29Z</time>
      </trkpt>
      <trkpt lat="42.94034" lon="0.73666">
        <ele>1246.9</ele>
        <time>2020-02-23T13:49:30Z</time>
      </trkpt>
      <trkpt lat="42.94034" lon="0.73668">
        <ele>1247</ele>
        <time>2020-02-23T13:49:31Z</time>
      </trkpt>
      <trkpt lat="42.94033" lon="0.73671">
        <ele>1247.4</ele>
        <time>2020-02-23T13:49:32Z</time>
      </trkpt>
      <trkpt lat="42.94032" lon="0.73675">
        <ele>1247.8</ele>
        <time>2020-02-23T13:49:33Z</time>
      </trkpt>
      <trkpt lat="42.94032" lon="0.73675">
        <ele>1247.8</ele>
        <time>2020-02-23T13:49:34Z</time>
      </trkpt>
      <trkpt lat="42.94032" lon="0.73675">
        <ele>1247.8</ele>
        <time>2020-02-23T13:49:35Z</time>
      </trkpt>
      <trkpt lat="42.94032" lon="0.73678">
        <ele>1248.2</ele>
        <time>2020-02-23T13:49:36Z</time>
      </trkpt>
      <trkpt lat="42.94032" lon="0.73678">
        <ele>1248.2</ele>
        <time>2020-02-23T13:49:37Z</time>
      </trkpt>
      <trkpt lat="42.94032" lon="0.73678">
        <ele>1248.2</ele>
        <time>2020-02-23T13:49:38Z</time>
      </trkpt>
      <trkpt lat="42.94031" lon="0.73683">
        <ele>1248.9</ele>
        <time>2020-02-23T13:49:39Z</time>
      </trkpt>
      <trkpt lat="42.9403" lon="0.73687">
        <ele>1249.4</ele>
        <time>2020-02-23T13:49:40Z</time>
      </trkpt>
      <trkpt lat="42.9403" lon="0.73687">
        <ele>1249.4</ele>
        <time>2020-02-23T13:49:41Z</time>
      </trkpt>
      <trkpt lat="42.9403" lon="0.73687">
        <ele>1249.4</ele>
        <time>2020-02-23T13:49:42Z</time>
      </trkpt>
      <trkpt lat="42.9403" lon="0.73689">
        <ele>1249.6</ele>
        <time>2020-02-23T13:49:43Z</time>
      </trkpt>
      <trkpt lat="42.9403" lon="0.7369">
        <ele>1249.7</ele>
        <time>2020-02-23T13:49:44Z</time>
      </trkpt>
      <trkpt lat="42.94029" lon="0.73692">
        <ele>1249.8</ele>
        <time>2020-02-23T13:49:45Z</time>
      </trkpt>
      <trkpt lat="42.94029" lon="0.73693">
        <ele>1249.9</ele>
        <time>2020-02-23T13:49:46Z</time>
      </trkpt>
      <trkpt lat="42.94028" lon="0.73694">
        <ele>1250</ele>
        <time>2020-02-23T13:49:47Z</time>
      </trkpt>
      <trkpt lat="42.94028" lon="0.73696">
        <ele>1250.1</ele>
        <time>2020-02-23T13:49:48Z</time>
      </trkpt>
      <trkpt lat="42.94027" lon="0.73697">
        <ele>1250.2</ele>
        <time>2020-02-23T13:49:49Z</time>
      </trkpt>
      <trkpt lat="42.94027" lon="0.73697">
        <ele>1250.2</ele>
        <time>2020-02-23T13:49:50Z</time>
      </trkpt>
      <trkpt lat="42.94027" lon="0.73701">
        <ele>1250</ele>
        <time>2020-02-23T13:49:51Z</time>
      </trkpt>
      <trkpt lat="42.94027" lon="0.73701">
        <ele>1250</ele>
        <time>2020-02-23T13:49:52Z</time>
      </trkpt>
      <trkpt lat="42.94027" lon="0.73703">
        <ele>1249.7</ele>
        <time>2020-02-23T13:49:53Z</time>
      </trkpt>
      <trkpt lat="42.94026" lon="0.73704">
        <ele>1249.4</ele>
        <time>2020-02-23T13:49:54Z</time>
      </trkpt>
      <trkpt lat="42.94026" lon="0.73705">
        <ele>1249.1</ele>
        <time>2020-02-23T13:49:55Z</time>
      </trkpt>
      <trkpt lat="42.94025" lon="0.73707">
        <ele>1248.8</ele>
        <time>2020-02-23T13:49:56Z</time>
      </trkpt>
      <trkpt lat="42.94025" lon="0.73708">
        <ele>1248.5</ele>
        <time>2020-02-23T13:49:57Z</time>
      </trkpt>
      <trkpt lat="42.94025" lon="0.73709">
        <ele>1248.2</ele>
        <time>2020-02-23T13:49:58Z</time>
      </trkpt>
      <trkpt lat="42.94024" lon="0.73711">
        <ele>1247.9</ele>
        <time>2020-02-23T13:49:59Z</time>
      </trkpt>
      <trkpt lat="42.94024" lon="0.73712">
        <ele>1248</ele>
        <time>2020-02-23T13:50:00Z</time>
      </trkpt>
      <trkpt lat="42.94023" lon="0.73713">
        <ele>1248.1</ele>
        <time>2020-02-23T13:50:01Z</time>
      </trkpt>
      <trkpt lat="42.94023" lon="0.73716">
        <ele>1248.4</ele>
        <time>2020-02-23T13:50:02Z</time>
      </trkpt>
      <trkpt lat="42.94023" lon="0.73716">
        <ele>1248.4</ele>
        <time>2020-02-23T13:50:03Z</time>
      </trkpt>
      <trkpt lat="42.94022" lon="0.73718">
        <ele>1248.5</ele>
        <time>2020-02-23T13:50:04Z</time>
      </trkpt>
      <trkpt lat="42.94022" lon="0.7372">
        <ele>1248.7</ele>
        <time>2020-02-23T13:50:05Z</time>
      </trkpt>
      <trkpt lat="42.94021" lon="0.73722">
        <ele>1248.8</ele>
        <time>2020-02-23T13:50:06Z</time>
      </trkpt>
      <trkpt lat="42.94021" lon="0.73723">
        <ele>1248.8</ele>
        <time>2020-02-23T13:50:07Z</time>
      </trkpt>
      <trkpt lat="42.9402" lon="0.73725">
        <ele>1248.9</ele>
        <time>2020-02-23T13:50:08Z</time>
      </trkpt>
      <trkpt lat="42.9402" lon="0.73727">
        <ele>1248.9</ele>
        <time>2020-02-23T13:50:09Z</time>
      </trkpt>
      <trkpt lat="42.94019" lon="0.73728">
        <ele>1248.9</ele>
        <time>2020-02-23T13:50:10Z</time>
      </trkpt>
      <trkpt lat="42.94019" lon="0.73728">
        <ele>1248.9</ele>
        <time>2020-02-23T13:50:11Z</time>
      </trkpt>
      <trkpt lat="42.94018" lon="0.73732">
        <ele>1249</ele>
        <time>2020-02-23T13:50:12Z</time>
      </trkpt>
      <trkpt lat="42.94018" lon="0.73732">
        <ele>1249</ele>
        <time>2020-02-23T13:50:13Z</time>
      </trkpt>
      <trkpt lat="42.94018" lon="0.73735">
        <ele>1249.3</ele>
        <time>2020-02-23T13:50:14Z</time>
      </trkpt>
      <trkpt lat="42.94018" lon="0.73735">
        <ele>1249.3</ele>
        <time>2020-02-23T13:50:15Z</time>
      </trkpt>
      <trkpt lat="42.94018" lon="0.73737">
        <ele>1249.6</ele>
        <time>2020-02-23T13:50:16Z</time>
      </trkpt>
      <trkpt lat="42.94018" lon="0.73738">
        <ele>1249.8</ele>
        <time>2020-02-23T13:50:17Z</time>
      </trkpt>
      <trkpt lat="42.94018" lon="0.7374">
        <ele>1250</ele>
        <time>2020-02-23T13:50:18Z</time>
      </trkpt>
      <trkpt lat="42.94018" lon="0.73741">
        <ele>1250.2</ele>
        <time>2020-02-23T13:50:19Z</time>
      </trkpt>
      <trkpt lat="42.94018" lon="0.73743">
        <ele>1250.4</ele>
        <time>2020-02-23T13:50:20Z</time>
      </trkpt>
      <trkpt lat="42.94017" lon="0.73746">
        <ele>1250.8</ele>
        <time>2020-02-23T13:50:21Z</time>
      </trkpt>
      <trkpt lat="42.94017" lon="0.73746">
        <ele>1250.8</ele>
        <time>2020-02-23T13:50:22Z</time>
      </trkpt>
      <trkpt lat="42.94017" lon="0.73747">
        <ele>1251</ele>
        <time>2020-02-23T13:50:23Z</time>
      </trkpt>
      <trkpt lat="42.94017" lon="0.73749">
        <ele>1251.2</ele>
        <time>2020-02-23T13:50:24Z</time>
      </trkpt>
      <trkpt lat="42.94017" lon="0.7375">
        <ele>1251.4</ele>
        <time>2020-02-23T13:50:25Z</time>
      </trkpt>
      <trkpt lat="42.94016" lon="0.73752">
        <ele>1251.6</ele>
        <time>2020-02-23T13:50:26Z</time>
      </trkpt>
      <trkpt lat="42.94016" lon="0.73753">
        <ele>1251.8</ele>
        <time>2020-02-23T13:50:27Z</time>
      </trkpt>
      <trkpt lat="42.94016" lon="0.73754">
        <ele>1252</ele>
        <time>2020-02-23T13:50:28Z</time>
      </trkpt>
      <trkpt lat="42.94016" lon="0.73754">
        <ele>1252</ele>
        <time>2020-02-23T13:50:29Z</time>
      </trkpt>
      <trkpt lat="42.94015" lon="0.73759">
        <ele>1252.3</ele>
        <time>2020-02-23T13:50:30Z</time>
      </trkpt>
      <trkpt lat="42.94015" lon="0.73759">
        <ele>1252.3</ele>
        <time>2020-02-23T13:50:31Z</time>
      </trkpt>
      <trkpt lat="42.94015" lon="0.73759">
        <ele>1252.3</ele>
        <time>2020-02-23T13:50:32Z</time>
      </trkpt>
      <trkpt lat="42.94015" lon="0.73759">
        <ele>1252.3</ele>
        <time>2020-02-23T13:50:33Z</time>
      </trkpt>
      <trkpt lat="42.94013" lon="0.73764">
        <ele>1252.7</ele>
        <time>2020-02-23T13:50:34Z</time>
      </trkpt>
      <trkpt lat="42.94013" lon="0.73764">
        <ele>1252.7</ele>
        <time>2020-02-23T13:50:35Z</time>
      </trkpt>
      <trkpt lat="42.94013" lon="0.73766">
        <ele>1252.9</ele>
        <time>2020-02-23T13:50:36Z</time>
      </trkpt>
      <trkpt lat="42.94012" lon="0.73768">
        <ele>1253.2</ele>
        <time>2020-02-23T13:50:37Z</time>
      </trkpt>
      <trkpt lat="42.94011" lon="0.7377">
        <ele>1253.4</ele>
        <time>2020-02-23T13:50:38Z</time>
      </trkpt>
      <trkpt lat="42.94011" lon="0.73772">
        <ele>1253.6</ele>
        <time>2020-02-23T13:50:39Z</time>
      </trkpt>
      <trkpt lat="42.9401" lon="0.73774">
        <ele>1253.9</ele>
        <time>2020-02-23T13:50:40Z</time>
      </trkpt>
      <trkpt lat="42.94009" lon="0.73776">
        <ele>1254.1</ele>
        <time>2020-02-23T13:50:41Z</time>
      </trkpt>
      <trkpt lat="42.94008" lon="0.73777">
        <ele>1254.2</ele>
        <time>2020-02-23T13:50:42Z</time>
      </trkpt>
      <trkpt lat="42.94008" lon="0.73779">
        <ele>1254.4</ele>
        <time>2020-02-23T13:50:43Z</time>
      </trkpt>
      <trkpt lat="42.94008" lon="0.73779">
        <ele>1254.4</ele>
        <time>2020-02-23T13:50:44Z</time>
      </trkpt>
      <trkpt lat="42.94008" lon="0.73779">
        <ele>1254.4</ele>
        <time>2020-02-23T13:50:45Z</time>
      </trkpt>
      <trkpt lat="42.94007" lon="0.73781">
        <ele>1254.6</ele>
        <time>2020-02-23T13:50:46Z</time>
      </trkpt>
      <trkpt lat="42.94006" lon="0.73783">
        <ele>1254.8</ele>
        <time>2020-02-23T13:50:47Z</time>
      </trkpt>
      <trkpt lat="42.94005" lon="0.73785">
        <ele>1254.9</ele>
        <time>2020-02-23T13:50:48Z</time>
      </trkpt>
      <trkpt lat="42.94004" lon="0.73786">
        <ele>1254.9</ele>
        <time>2020-02-23T13:50:49Z</time>
      </trkpt>
      <trkpt lat="42.94003" lon="0.73788">
        <ele>1254.9</ele>
        <time>2020-02-23T13:50:50Z</time>
      </trkpt>
      <trkpt lat="42.94003" lon="0.7379">
        <ele>1254.9</ele>
        <time>2020-02-23T13:50:51Z</time>
      </trkpt>
      <trkpt lat="42.94001" lon="0.73792">
        <ele>1255</ele>
        <time>2020-02-23T13:50:52Z</time>
      </trkpt>
      <trkpt lat="42.94" lon="0.73794">
        <ele>1254.6</ele>
        <time>2020-02-23T13:50:53Z</time>
      </trkpt>
      <trkpt lat="42.93999" lon="0.73796">
        <ele>1254</ele>
        <time>2020-02-23T13:50:54Z</time>
      </trkpt>
      <trkpt lat="42.93998" lon="0.73798">
        <ele>1253.4</ele>
        <time>2020-02-23T13:50:55Z</time>
      </trkpt>
      <trkpt lat="42.93997" lon="0.73799">
        <ele>1252.8</ele>
        <time>2020-02-23T13:50:56Z</time>
      </trkpt>
      <trkpt lat="42.93996" lon="0.73801">
        <ele>1252.3</ele>
        <time>2020-02-23T13:50:57Z</time>
      </trkpt>
      <trkpt lat="42.93995" lon="0.73803">
        <ele>1252.3</ele>
        <time>2020-02-23T13:50:58Z</time>
      </trkpt>
      <trkpt lat="42.93994" lon="0.73805">
        <ele>1252.3</ele>
        <time>2020-02-23T13:50:59Z</time>
      </trkpt>
      <trkpt lat="42.93993" lon="0.73807">
        <ele>1252.3</ele>
        <time>2020-02-23T13:51:00Z</time>
      </trkpt>
      <trkpt lat="42.93992" lon="0.73808">
        <ele>1252.4</ele>
        <time>2020-02-23T13:51:01Z</time>
      </trkpt>
      <trkpt lat="42.93991" lon="0.7381">
        <ele>1252.4</ele>
        <time>2020-02-23T13:51:02Z</time>
      </trkpt>
      <trkpt lat="42.9399" lon="0.73812">
        <ele>1252.1</ele>
        <time>2020-02-23T13:51:03Z</time>
      </trkpt>
      <trkpt lat="42.93989" lon="0.73813">
        <ele>1251.5</ele>
        <time>2020-02-23T13:51:04Z</time>
      </trkpt>
      <trkpt lat="42.93989" lon="0.73814">
        <ele>1251</ele>
        <time>2020-02-23T13:51:05Z</time>
      </trkpt>
      <trkpt lat="42.93988" lon="0.73816">
        <ele>1250.4</ele>
        <time>2020-02-23T13:51:06Z</time>
      </trkpt>
      <trkpt lat="42.93987" lon="0.73817">
        <ele>1249.9</ele>
        <time>2020-02-23T13:51:07Z</time>
      </trkpt>
      <trkpt lat="42.93986" lon="0.73818">
        <ele>1249.5</ele>
        <time>2020-02-23T13:51:08Z</time>
      </trkpt>
      <trkpt lat="42.93985" lon="0.7382">
        <ele>1249.1</ele>
        <time>2020-02-23T13:51:09Z</time>
      </trkpt>
      <trkpt lat="42.93985" lon="0.73821">
        <ele>1248.9</ele>
        <time>2020-02-23T13:51:10Z</time>
      </trkpt>
      <trkpt lat="42.93984" lon="0.73822">
        <ele>1248.7</ele>
        <time>2020-02-23T13:51:11Z</time>
      </trkpt>
      <trkpt lat="42.93983" lon="0.73823">
        <ele>1248.5</ele>
        <time>2020-02-23T13:51:12Z</time>
      </trkpt>
      <trkpt lat="42.93983" lon="0.73824">
        <ele>1248.4</ele>
        <time>2020-02-23T13:51:13Z</time>
      </trkpt>
      <trkpt lat="42.93982" lon="0.73826">
        <ele>1248.2</ele>
        <time>2020-02-23T13:51:14Z</time>
      </trkpt>
      <trkpt lat="42.93981" lon="0.73827">
        <ele>1248</ele>
        <time>2020-02-23T13:51:15Z</time>
      </trkpt>
      <trkpt lat="42.93981" lon="0.73828">
        <ele>1247.8</ele>
        <time>2020-02-23T13:51:16Z</time>
      </trkpt>
      <trkpt lat="42.9398" lon="0.73829">
        <ele>1247.7</ele>
        <time>2020-02-23T13:51:17Z</time>
      </trkpt>
      <trkpt lat="42.93979" lon="0.73831">
        <ele>1247.7</ele>
        <time>2020-02-23T13:51:18Z</time>
      </trkpt>
      <trkpt lat="42.93978" lon="0.73832">
        <ele>1247.7</ele>
        <time>2020-02-23T13:51:19Z</time>
      </trkpt>
      <trkpt lat="42.93977" lon="0.73833">
        <ele>1247.7</ele>
        <time>2020-02-23T13:51:20Z</time>
      </trkpt>
      <trkpt lat="42.93976" lon="0.73835">
        <ele>1247.6</ele>
        <time>2020-02-23T13:51:21Z</time>
      </trkpt>
      <trkpt lat="42.93975" lon="0.73836">
        <ele>1247.6</ele>
        <time>2020-02-23T13:51:22Z</time>
      </trkpt>
      <trkpt lat="42.93974" lon="0.73837">
        <ele>1247.6</ele>
        <time>2020-02-23T13:51:23Z</time>
      </trkpt>
      <trkpt lat="42.93974" lon="0.73841">
        <ele>1247.1</ele>
        <time>2020-02-23T13:51:24Z</time>
      </trkpt>
      <trkpt lat="42.93973" lon="0.73844">
        <ele>1246.6</ele>
        <time>2020-02-23T13:51:25Z</time>
      </trkpt>
      <trkpt lat="42.93973" lon="0.73844">
        <ele>1246.6</ele>
        <time>2020-02-23T13:51:26Z</time>
      </trkpt>
      <trkpt lat="42.93973" lon="0.73844">
        <ele>1246.6</ele>
        <time>2020-02-23T13:51:27Z</time>
      </trkpt>
      <trkpt lat="42.93973" lon="0.73847">
        <ele>1246.3</ele>
        <time>2020-02-23T13:51:28Z</time>
      </trkpt>
      <trkpt lat="42.93973" lon="0.73849">
        <ele>1246.1</ele>
        <time>2020-02-23T13:51:29Z</time>
      </trkpt>
      <trkpt lat="42.93972" lon="0.73851">
        <ele>1246.5</ele>
        <time>2020-02-23T13:51:30Z</time>
      </trkpt>
      <trkpt lat="42.93972" lon="0.73854">
        <ele>1246.8</ele>
        <time>2020-02-23T13:51:31Z</time>
      </trkpt>
      <trkpt lat="42.93973" lon="0.73856">
        <ele>1247.2</ele>
        <time>2020-02-23T13:51:32Z</time>
      </trkpt>
      <trkpt lat="42.93973" lon="0.73858">
        <ele>1247.7</ele>
        <time>2020-02-23T13:51:33Z</time>
      </trkpt>
      <trkpt lat="42.93973" lon="0.7386">
        <ele>1248.3</ele>
        <time>2020-02-23T13:51:34Z</time>
      </trkpt>
      <trkpt lat="42.93974" lon="0.73862">
        <ele>1249</ele>
        <time>2020-02-23T13:51:35Z</time>
      </trkpt>
      <trkpt lat="42.93974" lon="0.73864">
        <ele>1249.6</ele>
        <time>2020-02-23T13:51:36Z</time>
      </trkpt>
      <trkpt lat="42.93975" lon="0.73866">
        <ele>1250</ele>
        <time>2020-02-23T13:51:37Z</time>
      </trkpt>
      <trkpt lat="42.93975" lon="0.73868">
        <ele>1250.3</ele>
        <time>2020-02-23T13:51:38Z</time>
      </trkpt>
      <trkpt lat="42.93975" lon="0.73871">
        <ele>1250.6</ele>
        <time>2020-02-23T13:51:39Z</time>
      </trkpt>
      <trkpt lat="42.93976" lon="0.73874">
        <ele>1251</ele>
        <time>2020-02-23T13:51:40Z</time>
      </trkpt>
      <trkpt lat="42.93976" lon="0.73876">
        <ele>1251.5</ele>
        <time>2020-02-23T13:51:41Z</time>
      </trkpt>
      <trkpt lat="42.93976" lon="0.73879">
        <ele>1251.9</ele>
        <time>2020-02-23T13:51:42Z</time>
      </trkpt>
      <trkpt lat="42.93978" lon="0.73883">
        <ele>1252.8</ele>
        <time>2020-02-23T13:51:43Z</time>
      </trkpt>
      <trkpt lat="42.93978" lon="0.73883">
        <ele>1252.8</ele>
        <time>2020-02-23T13:51:44Z</time>
      </trkpt>
      <trkpt lat="42.93979" lon="0.73885">
        <ele>1252.9</ele>
        <time>2020-02-23T13:51:45Z</time>
      </trkpt>
      <trkpt lat="42.93979" lon="0.73887">
        <ele>1252.7</ele>
        <time>2020-02-23T13:51:46Z</time>
      </trkpt>
      <trkpt lat="42.9398" lon="0.73889">
        <ele>1252.5</ele>
        <time>2020-02-23T13:51:47Z</time>
      </trkpt>
      <trkpt lat="42.9398" lon="0.73891">
        <ele>1252.3</ele>
        <time>2020-02-23T13:51:48Z</time>
      </trkpt>
      <trkpt lat="42.93981" lon="0.73894">
        <ele>1252.1</ele>
        <time>2020-02-23T13:51:49Z</time>
      </trkpt>
      <trkpt lat="42.93982" lon="0.73896">
        <ele>1252.1</ele>
        <time>2020-02-23T13:51:50Z</time>
      </trkpt>
      <trkpt lat="42.93984" lon="0.73902">
        <ele>1253.8</ele>
        <time>2020-02-23T13:51:51Z</time>
      </trkpt>
      <trkpt lat="42.93984" lon="0.73902">
        <ele>1253.8</ele>
        <time>2020-02-23T13:51:52Z</time>
      </trkpt>
      <trkpt lat="42.93984" lon="0.73902">
        <ele>1253.8</ele>
        <time>2020-02-23T13:51:53Z</time>
      </trkpt>
      <trkpt lat="42.93984" lon="0.73903">
        <ele>1254.3</ele>
        <time>2020-02-23T13:51:54Z</time>
      </trkpt>
      <trkpt lat="42.93985" lon="0.73905">
        <ele>1254.8</ele>
        <time>2020-02-23T13:51:55Z</time>
      </trkpt>
      <trkpt lat="42.93986" lon="0.73907">
        <ele>1254.9</ele>
        <time>2020-02-23T13:51:56Z</time>
      </trkpt>
      <trkpt lat="42.93987" lon="0.73912">
        <ele>1254.6</ele>
        <time>2020-02-23T13:51:57Z</time>
      </trkpt>
      <trkpt lat="42.93987" lon="0.73912">
        <ele>1254.6</ele>
        <time>2020-02-23T13:51:58Z</time>
      </trkpt>
      <trkpt lat="42.93987" lon="0.73912">
        <ele>1254.6</ele>
        <time>2020-02-23T13:51:59Z</time>
      </trkpt>
      <trkpt lat="42.93988" lon="0.73916">
        <ele>1254.3</ele>
        <time>2020-02-23T13:52:00Z</time>
      </trkpt>
      <trkpt lat="42.93988" lon="0.73916">
        <ele>1254.3</ele>
        <time>2020-02-23T13:52:01Z</time>
      </trkpt>
      <trkpt lat="42.93989" lon="0.7392">
        <ele>1253.7</ele>
        <time>2020-02-23T13:52:02Z</time>
      </trkpt>
      <trkpt lat="42.93989" lon="0.7392">
        <ele>1253.7</ele>
        <time>2020-02-23T13:52:03Z</time>
      </trkpt>
      <trkpt lat="42.93989" lon="0.73922">
        <ele>1253.3</ele>
        <time>2020-02-23T13:52:04Z</time>
      </trkpt>
      <trkpt lat="42.93989" lon="0.73924">
        <ele>1253</ele>
        <time>2020-02-23T13:52:05Z</time>
      </trkpt>
      <trkpt lat="42.93988" lon="0.73926">
        <ele>1252.6</ele>
        <time>2020-02-23T13:52:06Z</time>
      </trkpt>
      <trkpt lat="42.93988" lon="0.73929">
        <ele>1252.1</ele>
        <time>2020-02-23T13:52:07Z</time>
      </trkpt>
      <trkpt lat="42.93987" lon="0.73931">
        <ele>1251.1</ele>
        <time>2020-02-23T13:52:08Z</time>
      </trkpt>
      <trkpt lat="42.93987" lon="0.73933">
        <ele>1250.2</ele>
        <time>2020-02-23T13:52:09Z</time>
      </trkpt>
      <trkpt lat="42.93986" lon="0.73934">
        <ele>1249.5</ele>
        <time>2020-02-23T13:52:10Z</time>
      </trkpt>
      <trkpt lat="42.93985" lon="0.73935">
        <ele>1248.7</ele>
        <time>2020-02-23T13:52:11Z</time>
      </trkpt>
      <trkpt lat="42.93984" lon="0.73936">
        <ele>1248</ele>
        <time>2020-02-23T13:52:12Z</time>
      </trkpt>
      <trkpt lat="42.93983" lon="0.73937">
        <ele>1247.1</ele>
        <time>2020-02-23T13:52:13Z</time>
      </trkpt>
      <trkpt lat="42.93982" lon="0.73938">
        <ele>1246.1</ele>
        <time>2020-02-23T13:52:14Z</time>
      </trkpt>
      <trkpt lat="42.93981" lon="0.73939">
        <ele>1245.1</ele>
        <time>2020-02-23T13:52:15Z</time>
      </trkpt>
      <trkpt lat="42.93981" lon="0.7394">
        <ele>1244.2</ele>
        <time>2020-02-23T13:52:16Z</time>
      </trkpt>
      <trkpt lat="42.9398" lon="0.73941">
        <ele>1243.4</ele>
        <time>2020-02-23T13:52:17Z</time>
      </trkpt>
      <trkpt lat="42.9398" lon="0.73942">
        <ele>1242.6</ele>
        <time>2020-02-23T13:52:18Z</time>
      </trkpt>
      <trkpt lat="42.93979" lon="0.73943">
        <ele>1241.8</ele>
        <time>2020-02-23T13:52:19Z</time>
      </trkpt>
      <trkpt lat="42.93978" lon="0.73944">
        <ele>1241.1</ele>
        <time>2020-02-23T13:52:20Z</time>
      </trkpt>
      <trkpt lat="42.93978" lon="0.73945">
        <ele>1240.6</ele>
        <time>2020-02-23T13:52:21Z</time>
      </trkpt>
      <trkpt lat="42.93978" lon="0.73945">
        <ele>1240.6</ele>
        <time>2020-02-23T13:52:22Z</time>
      </trkpt>
      <trkpt lat="42.93976" lon="0.73949">
        <ele>1239</ele>
        <time>2020-02-23T13:52:23Z</time>
      </trkpt>
      <trkpt lat="42.93976" lon="0.73949">
        <ele>1239</ele>
        <time>2020-02-23T13:52:24Z</time>
      </trkpt>
      <trkpt lat="42.93976" lon="0.73949">
        <ele>1239</ele>
        <time>2020-02-23T13:52:25Z</time>
      </trkpt>
      <trkpt lat="42.93976" lon="0.7395">
        <ele>1238.7</ele>
        <time>2020-02-23T13:52:26Z</time>
      </trkpt>
      <trkpt lat="42.93975" lon="0.73951">
        <ele>1238.3</ele>
        <time>2020-02-23T13:52:27Z</time>
      </trkpt>
      <trkpt lat="42.93975" lon="0.73952">
        <ele>1238</ele>
        <time>2020-02-23T13:52:28Z</time>
      </trkpt>
      <trkpt lat="42.93975" lon="0.73953">
        <ele>1237.6</ele>
        <time>2020-02-23T13:52:29Z</time>
      </trkpt>
      <trkpt lat="42.93975" lon="0.73954">
        <ele>1237.3</ele>
        <time>2020-02-23T13:52:30Z</time>
      </trkpt>
      <trkpt lat="42.93974" lon="0.73955">
        <ele>1236.9</ele>
        <time>2020-02-23T13:52:31Z</time>
      </trkpt>
      <trkpt lat="42.93974" lon="0.73956">
        <ele>1236.6</ele>
        <time>2020-02-23T13:52:32Z</time>
      </trkpt>
      <trkpt lat="42.93974" lon="0.73957">
        <ele>1236.2</ele>
        <time>2020-02-23T13:52:33Z</time>
      </trkpt>
      <trkpt lat="42.93974" lon="0.73958">
        <ele>1235.8</ele>
        <time>2020-02-23T13:52:34Z</time>
      </trkpt>
      <trkpt lat="42.93974" lon="0.7396">
        <ele>1235.3</ele>
        <time>2020-02-23T13:52:35Z</time>
      </trkpt>
      <trkpt lat="42.93974" lon="0.73961">
        <ele>1234.8</ele>
        <time>2020-02-23T13:52:36Z</time>
      </trkpt>
      <trkpt lat="42.93974" lon="0.73962">
        <ele>1234.4</ele>
        <time>2020-02-23T13:52:37Z</time>
      </trkpt>
      <trkpt lat="42.93975" lon="0.73964">
        <ele>1234</ele>
        <time>2020-02-23T13:52:38Z</time>
      </trkpt>
      <trkpt lat="42.93975" lon="0.73967">
        <ele>1233.4</ele>
        <time>2020-02-23T13:52:39Z</time>
      </trkpt>
      <trkpt lat="42.93976" lon="0.7397">
        <ele>1232.8</ele>
        <time>2020-02-23T13:52:40Z</time>
      </trkpt>
      <trkpt lat="42.93977" lon="0.73974">
        <ele>1232.1</ele>
        <time>2020-02-23T13:52:41Z</time>
      </trkpt>
      <trkpt lat="42.93977" lon="0.73974">
        <ele>1232.1</ele>
        <time>2020-02-23T13:52:42Z</time>
      </trkpt>
      <trkpt lat="42.93977" lon="0.73974">
        <ele>1232.1</ele>
        <time>2020-02-23T13:52:43Z</time>
      </trkpt>
      <trkpt lat="42.93978" lon="0.73977">
        <ele>1231.1</ele>
        <time>2020-02-23T13:52:44Z</time>
      </trkpt>
      <trkpt lat="42.93979" lon="0.7398">
        <ele>1230.2</ele>
        <time>2020-02-23T13:52:45Z</time>
      </trkpt>
      <trkpt lat="42.9398" lon="0.73984">
        <ele>1230.3</ele>
        <time>2020-02-23T13:52:46Z</time>
      </trkpt>
      <trkpt lat="42.93981" lon="0.73987">
        <ele>1230.6</ele>
        <time>2020-02-23T13:52:47Z</time>
      </trkpt>
      <trkpt lat="42.93981" lon="0.73987">
        <ele>1230.6</ele>
        <time>2020-02-23T13:52:48Z</time>
      </trkpt>
      <trkpt lat="42.93982" lon="0.73989">
        <ele>1230.9</ele>
        <time>2020-02-23T13:52:49Z</time>
      </trkpt>
      <trkpt lat="42.93984" lon="0.73994">
        <ele>1231.7</ele>
        <time>2020-02-23T13:52:50Z</time>
      </trkpt>
      <trkpt lat="42.93985" lon="0.73997">
        <ele>1232.2</ele>
        <time>2020-02-23T13:52:51Z</time>
      </trkpt>
      <trkpt lat="42.93985" lon="0.73997">
        <ele>1232.2</ele>
        <time>2020-02-23T13:52:52Z</time>
      </trkpt>
      <trkpt lat="42.93985" lon="0.73997">
        <ele>1232.2</ele>
        <time>2020-02-23T13:52:53Z</time>
      </trkpt>
      <trkpt lat="42.9399" lon="0.74004">
        <ele>1232.4</ele>
        <time>2020-02-23T13:52:54Z</time>
      </trkpt>
      <trkpt lat="42.93991" lon="0.74005">
        <ele>1232.7</ele>
        <time>2020-02-23T13:52:55Z</time>
      </trkpt>
      <trkpt lat="42.93991" lon="0.74005">
        <ele>1232.7</ele>
        <time>2020-02-23T13:52:56Z</time>
      </trkpt>
      <trkpt lat="42.93994" lon="0.74008">
        <ele>1233.9</ele>
        <time>2020-02-23T13:52:57Z</time>
      </trkpt>
      <trkpt lat="42.93994" lon="0.74008">
        <ele>1233.9</ele>
        <time>2020-02-23T13:52:58Z</time>
      </trkpt>
      <trkpt lat="42.93995" lon="0.7401">
        <ele>1234.6</ele>
        <time>2020-02-23T13:52:59Z</time>
      </trkpt>
      <trkpt lat="42.93998" lon="0.74012">
        <ele>1235</ele>
        <time>2020-02-23T13:53:00Z</time>
      </trkpt>
      <trkpt lat="42.93998" lon="0.74012">
        <ele>1235</ele>
        <time>2020-02-23T13:53:01Z</time>
      </trkpt>
      <trkpt lat="42.93998" lon="0.74012">
        <ele>1235</ele>
        <time>2020-02-23T13:53:02Z</time>
      </trkpt>
      <trkpt lat="42.93999" lon="0.74013">
        <ele>1235.2</ele>
        <time>2020-02-23T13:53:03Z</time>
      </trkpt>
      <trkpt lat="42.94" lon="0.74014">
        <ele>1235.3</ele>
        <time>2020-02-23T13:53:04Z</time>
      </trkpt>
      <trkpt lat="42.94002" lon="0.74015">
        <ele>1235.5</ele>
        <time>2020-02-23T13:53:05Z</time>
      </trkpt>
      <trkpt lat="42.94004" lon="0.74017">
        <ele>1235.9</ele>
        <time>2020-02-23T13:53:06Z</time>
      </trkpt>
      <trkpt lat="42.94006" lon="0.74019">
        <ele>1236.2</ele>
        <time>2020-02-23T13:53:07Z</time>
      </trkpt>
      <trkpt lat="42.94006" lon="0.74019">
        <ele>1236.2</ele>
        <time>2020-02-23T13:53:08Z</time>
      </trkpt>
      <trkpt lat="42.94006" lon="0.74019">
        <ele>1236.2</ele>
        <time>2020-02-23T13:53:09Z</time>
      </trkpt>
      <trkpt lat="42.94008" lon="0.74022">
        <ele>1236.7</ele>
        <time>2020-02-23T13:53:10Z</time>
      </trkpt>
      <trkpt lat="42.94008" lon="0.74022">
        <ele>1236.7</ele>
        <time>2020-02-23T13:53:11Z</time>
      </trkpt>
      <trkpt lat="42.9401" lon="0.74025">
        <ele>1237.3</ele>
        <time>2020-02-23T13:53:12Z</time>
      </trkpt>
      <trkpt lat="42.9401" lon="0.74025">
        <ele>1237.3</ele>
        <time>2020-02-23T13:53:13Z</time>
      </trkpt>
      <trkpt lat="42.94011" lon="0.74026">
        <ele>1237.6</ele>
        <time>2020-02-23T13:53:14Z</time>
      </trkpt>
      <trkpt lat="42.94012" lon="0.74027">
        <ele>1238</ele>
        <time>2020-02-23T13:53:15Z</time>
      </trkpt>
      <trkpt lat="42.94014" lon="0.74028">
        <ele>1238.3</ele>
        <time>2020-02-23T13:53:16Z</time>
      </trkpt>
      <trkpt lat="42.94015" lon="0.74029">
        <ele>1238.4</ele>
        <time>2020-02-23T13:53:17Z</time>
      </trkpt>
      <trkpt lat="42.94016" lon="0.7403">
        <ele>1237.7</ele>
        <time>2020-02-23T13:53:18Z</time>
      </trkpt>
      <trkpt lat="42.94017" lon="0.74031">
        <ele>1237.1</ele>
        <time>2020-02-23T13:53:19Z</time>
      </trkpt>
      <trkpt lat="42.94018" lon="0.74032">
        <ele>1236.5</ele>
        <time>2020-02-23T13:53:20Z</time>
      </trkpt>
      <trkpt lat="42.94019" lon="0.74034">
        <ele>1235.9</ele>
        <time>2020-02-23T13:53:21Z</time>
      </trkpt>
      <trkpt lat="42.9402" lon="0.74035">
        <ele>1235.7</ele>
        <time>2020-02-23T13:53:22Z</time>
      </trkpt>
      <trkpt lat="42.9402" lon="0.74037">
        <ele>1235.7</ele>
        <time>2020-02-23T13:53:23Z</time>
      </trkpt>
      <trkpt lat="42.9402" lon="0.74039">
        <ele>1235.7</ele>
        <time>2020-02-23T13:53:24Z</time>
      </trkpt>
      <trkpt lat="42.9402" lon="0.74041">
        <ele>1235.7</ele>
        <time>2020-02-23T13:53:25Z</time>
      </trkpt>
      <trkpt lat="42.94021" lon="0.74043">
        <ele>1235.6</ele>
        <time>2020-02-23T13:53:26Z</time>
      </trkpt>
      <trkpt lat="42.94021" lon="0.74045">
        <ele>1235.2</ele>
        <time>2020-02-23T13:53:27Z</time>
      </trkpt>
      <trkpt lat="42.94021" lon="0.74047">
        <ele>1234.8</ele>
        <time>2020-02-23T13:53:28Z</time>
      </trkpt>
      <trkpt lat="42.94022" lon="0.74049">
        <ele>1234.4</ele>
        <time>2020-02-23T13:53:29Z</time>
      </trkpt>
      <trkpt lat="42.94021" lon="0.74054">
        <ele>1233.4</ele>
        <time>2020-02-23T13:53:30Z</time>
      </trkpt>
      <trkpt lat="42.9402" lon="0.74059">
        <ele>1232.7</ele>
        <time>2020-02-23T13:53:31Z</time>
      </trkpt>
      <trkpt lat="42.94019" lon="0.74065">
        <ele>1231.9</ele>
        <time>2020-02-23T13:53:32Z</time>
      </trkpt>
      <trkpt lat="42.94018" lon="0.74068">
        <ele>1231.2</ele>
        <time>2020-02-23T13:53:33Z</time>
      </trkpt>
      <trkpt lat="42.94017" lon="0.74071">
        <ele>1230.6</ele>
        <time>2020-02-23T13:53:34Z</time>
      </trkpt>
      <trkpt lat="42.94016" lon="0.74074">
        <ele>1230.1</ele>
        <time>2020-02-23T13:53:35Z</time>
      </trkpt>
      <trkpt lat="42.94015" lon="0.74078">
        <ele>1230.2</ele>
        <time>2020-02-23T13:53:36Z</time>
      </trkpt>
      <trkpt lat="42.94016" lon="0.74079">
        <ele>1230.2</ele>
        <time>2020-02-23T13:53:37Z</time>
      </trkpt>
      <trkpt lat="42.94017" lon="0.7408">
        <ele>1230.2</ele>
        <time>2020-02-23T13:53:38Z</time>
      </trkpt>
      <trkpt lat="42.94018" lon="0.74081">
        <ele>1230.3</ele>
        <time>2020-02-23T13:53:39Z</time>
      </trkpt>
      <trkpt lat="42.94019" lon="0.74082">
        <ele>1230.3</ele>
        <time>2020-02-23T13:53:40Z</time>
      </trkpt>
      <trkpt lat="42.94019" lon="0.74084">
        <ele>1230.3</ele>
        <time>2020-02-23T13:53:41Z</time>
      </trkpt>
      <trkpt lat="42.9402" lon="0.74085">
        <ele>1230.2</ele>
        <time>2020-02-23T13:53:42Z</time>
      </trkpt>
      <trkpt lat="42.94021" lon="0.74086">
        <ele>1230.1</ele>
        <time>2020-02-23T13:53:43Z</time>
      </trkpt>
      <trkpt lat="42.94022" lon="0.74087">
        <ele>1230</ele>
        <time>2020-02-23T13:53:44Z</time>
      </trkpt>
      <trkpt lat="42.94022" lon="0.74087">
        <ele>1230</ele>
        <time>2020-02-23T13:53:45Z</time>
      </trkpt>
      <trkpt lat="42.94024" lon="0.7409">
        <ele>1229.8</ele>
        <time>2020-02-23T13:53:46Z</time>
      </trkpt>
      <trkpt lat="42.94024" lon="0.7409">
        <ele>1229.8</ele>
        <time>2020-02-23T13:53:47Z</time>
      </trkpt>
      <trkpt lat="42.94024" lon="0.7409">
        <ele>1229.8</ele>
        <time>2020-02-23T13:53:48Z</time>
      </trkpt>
      <trkpt lat="42.94024" lon="0.7409">
        <ele>1229.8</ele>
        <time>2020-02-23T13:53:49Z</time>
      </trkpt>
      <trkpt lat="42.94024" lon="0.7409">
        <ele>1229.8</ele>
        <time>2020-02-23T13:53:50Z</time>
      </trkpt>
      <trkpt lat="42.94024" lon="0.7409">
        <ele>1229.8</ele>
        <time>2020-02-23T13:53:51Z</time>
      </trkpt>
      <trkpt lat="42.94028" lon="0.74093">
        <ele>1229.4</ele>
        <time>2020-02-23T13:53:52Z</time>
      </trkpt>
      <trkpt lat="42.94028" lon="0.74093">
        <ele>1229.4</ele>
        <time>2020-02-23T13:53:53Z</time>
      </trkpt>
      <trkpt lat="42.9403" lon="0.74094">
        <ele>1229.2</ele>
        <time>2020-02-23T13:53:54Z</time>
      </trkpt>
      <trkpt lat="42.9403" lon="0.74094">
        <ele>1229.2</ele>
        <time>2020-02-23T13:53:55Z</time>
      </trkpt>
      <trkpt lat="42.9403" lon="0.74094">
        <ele>1229.2</ele>
        <time>2020-02-23T13:53:56Z</time>
      </trkpt>
      <trkpt lat="42.9403" lon="0.74094">
        <ele>1229.2</ele>
        <time>2020-02-23T13:53:57Z</time>
      </trkpt>
      <trkpt lat="42.94031" lon="0.74095">
        <ele>1229</ele>
        <time>2020-02-23T13:53:58Z</time>
      </trkpt>
      <trkpt lat="42.94031" lon="0.74095">
        <ele>1229</ele>
        <time>2020-02-23T13:53:59Z</time>
      </trkpt>
      <trkpt lat="42.94031" lon="0.74095">
        <ele>1229</ele>
        <time>2020-02-23T13:54:00Z</time>
      </trkpt>
      <trkpt lat="42.94033" lon="0.74097">
        <ele>1228.8</ele>
        <time>2020-02-23T13:54:01Z</time>
      </trkpt>
      <trkpt lat="42.94033" lon="0.74097">
        <ele>1228.8</ele>
        <time>2020-02-23T13:54:02Z</time>
      </trkpt>
      <trkpt lat="42.94033" lon="0.74097">
        <ele>1228.8</ele>
        <time>2020-02-23T13:54:03Z</time>
      </trkpt>
      <trkpt lat="42.94034" lon="0.74099">
        <ele>1228.6</ele>
        <time>2020-02-23T13:54:04Z</time>
      </trkpt>
      <trkpt lat="42.94036" lon="0.74102">
        <ele>1228.4</ele>
        <time>2020-02-23T13:54:05Z</time>
      </trkpt>
      <trkpt lat="42.94036" lon="0.74102">
        <ele>1228.4</ele>
        <time>2020-02-23T13:54:06Z</time>
      </trkpt>
      <trkpt lat="42.94036" lon="0.74102">
        <ele>1228.4</ele>
        <time>2020-02-23T13:54:07Z</time>
      </trkpt>
      <trkpt lat="42.94038" lon="0.74105">
        <ele>1228.2</ele>
        <time>2020-02-23T13:54:08Z</time>
      </trkpt>
      <trkpt lat="42.9404" lon="0.74107">
        <ele>1228</ele>
        <time>2020-02-23T13:54:09Z</time>
      </trkpt>
      <trkpt lat="42.94042" lon="0.7411">
        <ele>1227.9</ele>
        <time>2020-02-23T13:54:10Z</time>
      </trkpt>
      <trkpt lat="42.94044" lon="0.74113">
        <ele>1227.8</ele>
        <time>2020-02-23T13:54:11Z</time>
      </trkpt>
      <trkpt lat="42.94045" lon="0.74115">
        <ele>1227.8</ele>
        <time>2020-02-23T13:54:12Z</time>
      </trkpt>
      <trkpt lat="42.94045" lon="0.74115">
        <ele>1227.8</ele>
        <time>2020-02-23T13:54:13Z</time>
      </trkpt>
      <trkpt lat="42.94047" lon="0.74117">
        <ele>1228</ele>
        <time>2020-02-23T13:54:14Z</time>
      </trkpt>
      <trkpt lat="42.94047" lon="0.74117">
        <ele>1228</ele>
        <time>2020-02-23T13:54:15Z</time>
      </trkpt>
      <trkpt lat="42.94048" lon="0.74119">
        <ele>1228.1</ele>
        <time>2020-02-23T13:54:16Z</time>
      </trkpt>
      <trkpt lat="42.94049" lon="0.74121">
        <ele>1228.3</ele>
        <time>2020-02-23T13:54:17Z</time>
      </trkpt>
      <trkpt lat="42.94051" lon="0.74123">
        <ele>1228.4</ele>
        <time>2020-02-23T13:54:18Z</time>
      </trkpt>
      <trkpt lat="42.94052" lon="0.74125">
        <ele>1228.5</ele>
        <time>2020-02-23T13:54:19Z</time>
      </trkpt>
      <trkpt lat="42.94053" lon="0.74127">
        <ele>1228.4</ele>
        <time>2020-02-23T13:54:20Z</time>
      </trkpt>
      <trkpt lat="42.94054" lon="0.7413">
        <ele>1228.3</ele>
        <time>2020-02-23T13:54:21Z</time>
      </trkpt>
      <trkpt lat="42.94055" lon="0.74133">
        <ele>1228.2</ele>
        <time>2020-02-23T13:54:22Z</time>
      </trkpt>
      <trkpt lat="42.94057" lon="0.74136">
        <ele>1228.1</ele>
        <time>2020-02-23T13:54:23Z</time>
      </trkpt>
      <trkpt lat="42.94057" lon="0.74136">
        <ele>1228.1</ele>
        <time>2020-02-23T13:54:24Z</time>
      </trkpt>
      <trkpt lat="42.94057" lon="0.74138">
        <ele>1228</ele>
        <time>2020-02-23T13:54:25Z</time>
      </trkpt>
      <trkpt lat="42.94058" lon="0.7414">
        <ele>1227.9</ele>
        <time>2020-02-23T13:54:26Z</time>
      </trkpt>
      <trkpt lat="42.94059" lon="0.74143">
        <ele>1227.7</ele>
        <time>2020-02-23T13:54:27Z</time>
      </trkpt>
      <trkpt lat="42.94059" lon="0.74145">
        <ele>1227.6</ele>
        <time>2020-02-23T13:54:28Z</time>
      </trkpt>
      <trkpt lat="42.9406" lon="0.74148">
        <ele>1227.4</ele>
        <time>2020-02-23T13:54:29Z</time>
      </trkpt>
      <trkpt lat="42.9406" lon="0.7415">
        <ele>1227.3</ele>
        <time>2020-02-23T13:54:30Z</time>
      </trkpt>
      <trkpt lat="42.9406" lon="0.74152">
        <ele>1227.1</ele>
        <time>2020-02-23T13:54:31Z</time>
      </trkpt>
      <trkpt lat="42.9406" lon="0.74154">
        <ele>1227</ele>
        <time>2020-02-23T13:54:32Z</time>
      </trkpt>
      <trkpt lat="42.9406" lon="0.74157">
        <ele>1226.9</ele>
        <time>2020-02-23T13:54:33Z</time>
      </trkpt>
      <trkpt lat="42.9406" lon="0.74159">
        <ele>1226.7</ele>
        <time>2020-02-23T13:54:34Z</time>
      </trkpt>
      <trkpt lat="42.9406" lon="0.74161">
        <ele>1226.5</ele>
        <time>2020-02-23T13:54:35Z</time>
      </trkpt>
      <trkpt lat="42.94059" lon="0.74163">
        <ele>1226.4</ele>
        <time>2020-02-23T13:54:36Z</time>
      </trkpt>
      <trkpt lat="42.94059" lon="0.74164">
        <ele>1226.3</ele>
        <time>2020-02-23T13:54:37Z</time>
      </trkpt>
      <trkpt lat="42.94058" lon="0.74166">
        <ele>1226.4</ele>
        <time>2020-02-23T13:54:38Z</time>
      </trkpt>
      <trkpt lat="42.94058" lon="0.74167">
        <ele>1226.6</ele>
        <time>2020-02-23T13:54:39Z</time>
      </trkpt>
      <trkpt lat="42.94057" lon="0.74168">
        <ele>1226.7</ele>
        <time>2020-02-23T13:54:40Z</time>
      </trkpt>
      <trkpt lat="42.94056" lon="0.7417">
        <ele>1226.8</ele>
        <time>2020-02-23T13:54:41Z</time>
      </trkpt>
      <trkpt lat="42.94056" lon="0.74171">
        <ele>1226.9</ele>
        <time>2020-02-23T13:54:42Z</time>
      </trkpt>
      <trkpt lat="42.94055" lon="0.74172">
        <ele>1226.9</ele>
        <time>2020-02-23T13:54:43Z</time>
      </trkpt>
      <trkpt lat="42.94055" lon="0.74174">
        <ele>1226.8</ele>
        <time>2020-02-23T13:54:44Z</time>
      </trkpt>
      <trkpt lat="42.94054" lon="0.74175">
        <ele>1226.8</ele>
        <time>2020-02-23T13:54:45Z</time>
      </trkpt>
      <trkpt lat="42.94053" lon="0.74177">
        <ele>1226.8</ele>
        <time>2020-02-23T13:54:46Z</time>
      </trkpt>
      <trkpt lat="42.94053" lon="0.74178">
        <ele>1226.7</ele>
        <time>2020-02-23T13:54:47Z</time>
      </trkpt>
      <trkpt lat="42.94053" lon="0.74179">
        <ele>1226.7</ele>
        <time>2020-02-23T13:54:48Z</time>
      </trkpt>
      <trkpt lat="42.94052" lon="0.7418">
        <ele>1226.8</ele>
        <time>2020-02-23T13:54:49Z</time>
      </trkpt>
      <trkpt lat="42.94052" lon="0.7418">
        <ele>1226.8</ele>
        <time>2020-02-23T13:54:50Z</time>
      </trkpt>
      <trkpt lat="42.94052" lon="0.74181">
        <ele>1226.9</ele>
        <time>2020-02-23T13:54:51Z</time>
      </trkpt>
      <trkpt lat="42.94052" lon="0.74182">
        <ele>1227</ele>
        <time>2020-02-23T13:54:52Z</time>
      </trkpt>
      <trkpt lat="42.94051" lon="0.74183">
        <ele>1227.1</ele>
        <time>2020-02-23T13:54:53Z</time>
      </trkpt>
      <trkpt lat="42.94051" lon="0.74184">
        <ele>1227.2</ele>
        <time>2020-02-23T13:54:54Z</time>
      </trkpt>
      <trkpt lat="42.94051" lon="0.74185">
        <ele>1227.3</ele>
        <time>2020-02-23T13:54:55Z</time>
      </trkpt>
      <trkpt lat="42.94051" lon="0.74186">
        <ele>1227.4</ele>
        <time>2020-02-23T13:54:56Z</time>
      </trkpt>
      <trkpt lat="42.9405" lon="0.74187">
        <ele>1227.5</ele>
        <time>2020-02-23T13:54:57Z</time>
      </trkpt>
      <trkpt lat="42.9405" lon="0.74187">
        <ele>1227.6</ele>
        <time>2020-02-23T13:54:58Z</time>
      </trkpt>
      <trkpt lat="42.9405" lon="0.74188">
        <ele>1227.7</ele>
        <time>2020-02-23T13:54:59Z</time>
      </trkpt>
      <trkpt lat="42.9405" lon="0.74188">
        <ele>1227.7</ele>
        <time>2020-02-23T13:55:00Z</time>
      </trkpt>
      <trkpt lat="42.94048" lon="0.74193">
        <ele>1228.6</ele>
        <time>2020-02-23T13:55:01Z</time>
      </trkpt>
      <trkpt lat="42.94048" lon="0.74193">
        <ele>1228.6</ele>
        <time>2020-02-23T13:55:02Z</time>
      </trkpt>
      <trkpt lat="42.94048" lon="0.74193">
        <ele>1228.6</ele>
        <time>2020-02-23T13:55:03Z</time>
      </trkpt>
      <trkpt lat="42.94047" lon="0.74195">
        <ele>1228.9</ele>
        <time>2020-02-23T13:55:04Z</time>
      </trkpt>
      <trkpt lat="42.94046" lon="0.74196">
        <ele>1229.3</ele>
        <time>2020-02-23T13:55:05Z</time>
      </trkpt>
      <trkpt lat="42.94046" lon="0.74198">
        <ele>1229.7</ele>
        <time>2020-02-23T13:55:06Z</time>
      </trkpt>
      <trkpt lat="42.94045" lon="0.74199">
        <ele>1230</ele>
        <time>2020-02-23T13:55:07Z</time>
      </trkpt>
      <trkpt lat="42.94045" lon="0.742">
        <ele>1230.4</ele>
        <time>2020-02-23T13:55:08Z</time>
      </trkpt>
      <trkpt lat="42.94044" lon="0.74202">
        <ele>1230.8</ele>
        <time>2020-02-23T13:55:09Z</time>
      </trkpt>
      <trkpt lat="42.94044" lon="0.74203">
        <ele>1231.2</ele>
        <time>2020-02-23T13:55:10Z</time>
      </trkpt>
      <trkpt lat="42.94043" lon="0.74204">
        <ele>1231.5</ele>
        <time>2020-02-23T13:55:11Z</time>
      </trkpt>
      <trkpt lat="42.94043" lon="0.74205">
        <ele>1231.7</ele>
        <time>2020-02-23T13:55:12Z</time>
      </trkpt>
      <trkpt lat="42.94043" lon="0.74206">
        <ele>1231.8</ele>
        <time>2020-02-23T13:55:13Z</time>
      </trkpt>
      <trkpt lat="42.94043" lon="0.74207">
        <ele>1231.9</ele>
        <time>2020-02-23T13:55:14Z</time>
      </trkpt>
      <trkpt lat="42.94043" lon="0.74208">
        <ele>1232</ele>
        <time>2020-02-23T13:55:15Z</time>
      </trkpt>
      <trkpt lat="42.94043" lon="0.74209">
        <ele>1232</ele>
        <time>2020-02-23T13:55:16Z</time>
      </trkpt>
      <trkpt lat="42.94043" lon="0.7421">
        <ele>1232.1</ele>
        <time>2020-02-23T13:55:17Z</time>
      </trkpt>
      <trkpt lat="42.94043" lon="0.7421">
        <ele>1232.1</ele>
        <time>2020-02-23T13:55:18Z</time>
      </trkpt>
      <trkpt lat="42.94043" lon="0.74211">
        <ele>1231.5</ele>
        <time>2020-02-23T13:55:19Z</time>
      </trkpt>
      <trkpt lat="42.94043" lon="0.74212">
        <ele>1231.4</ele>
        <time>2020-02-23T13:55:20Z</time>
      </trkpt>
      <trkpt lat="42.94044" lon="0.74213">
        <ele>1231.4</ele>
        <time>2020-02-23T13:55:21Z</time>
      </trkpt>
      <trkpt lat="42.94044" lon="0.74214">
        <ele>1231.6</ele>
        <time>2020-02-23T13:55:22Z</time>
      </trkpt>
      <trkpt lat="42.94044" lon="0.74215">
        <ele>1231.5</ele>
        <time>2020-02-23T13:55:23Z</time>
      </trkpt>
      <trkpt lat="42.94044" lon="0.74216">
        <ele>1231.5</ele>
        <time>2020-02-23T13:55:24Z</time>
      </trkpt>
      <trkpt lat="42.94045" lon="0.74217">
        <ele>1231.5</ele>
        <time>2020-02-23T13:55:25Z</time>
      </trkpt>
      <trkpt lat="42.94046" lon="0.74218">
        <ele>1231.6</ele>
        <time>2020-02-23T13:55:26Z</time>
      </trkpt>
      <trkpt lat="42.94046" lon="0.74219">
        <ele>1231.6</ele>
        <time>2020-02-23T13:55:27Z</time>
      </trkpt>
      <trkpt lat="42.94047" lon="0.74222">
        <ele>1231.1</ele>
        <time>2020-02-23T13:55:28Z</time>
      </trkpt>
      <trkpt lat="42.94048" lon="0.74225">
        <ele>1231.1</ele>
        <time>2020-02-23T13:55:29Z</time>
      </trkpt>
      <trkpt lat="42.94049" lon="0.74228">
        <ele>1231.3</ele>
        <time>2020-02-23T13:55:30Z</time>
      </trkpt>
      <trkpt lat="42.9405" lon="0.74231">
        <ele>1230.8</ele>
        <time>2020-02-23T13:55:31Z</time>
      </trkpt>
      <trkpt lat="42.9405" lon="0.74231">
        <ele>1230.7</ele>
        <time>2020-02-23T13:55:32Z</time>
      </trkpt>
      <trkpt lat="42.94051" lon="0.74233">
        <ele>1230.7</ele>
        <time>2020-02-23T13:55:33Z</time>
      </trkpt>
      <trkpt lat="42.94053" lon="0.74235">
        <ele>1230.9</ele>
        <time>2020-02-23T13:55:34Z</time>
      </trkpt>
      <trkpt lat="42.94055" lon="0.74239">
        <ele>1230.4</ele>
        <time>2020-02-23T13:55:35Z</time>
      </trkpt>
      <trkpt lat="42.94055" lon="0.74239">
        <ele>1230.4</ele>
        <time>2020-02-23T13:55:36Z</time>
      </trkpt>
      <trkpt lat="42.94056" lon="0.74241">
        <ele>1230.3</ele>
        <time>2020-02-23T13:55:37Z</time>
      </trkpt>
      <trkpt lat="42.94056" lon="0.74241">
        <ele>1230.3</ele>
        <time>2020-02-23T13:55:38Z</time>
      </trkpt>
      <trkpt lat="42.94058" lon="0.74246">
        <ele>1229.8</ele>
        <time>2020-02-23T13:55:39Z</time>
      </trkpt>
      <trkpt lat="42.94058" lon="0.74246">
        <ele>1229.7</ele>
        <time>2020-02-23T13:55:40Z</time>
      </trkpt>
      <trkpt lat="42.94059" lon="0.74248">
        <ele>1229.2</ele>
        <time>2020-02-23T13:55:41Z</time>
      </trkpt>
      <trkpt lat="42.9406" lon="0.7425">
        <ele>1229.2</ele>
        <time>2020-02-23T13:55:42Z</time>
      </trkpt>
      <trkpt lat="42.94061" lon="0.74252">
        <ele>1229.4</ele>
        <time>2020-02-23T13:55:43Z</time>
      </trkpt>
      <trkpt lat="42.94065" lon="0.74258">
        <ele>1229</ele>
        <time>2020-02-23T13:55:44Z</time>
      </trkpt>
      <trkpt lat="42.94065" lon="0.74258">
        <ele>1229</ele>
        <time>2020-02-23T13:55:45Z</time>
      </trkpt>
      <trkpt lat="42.94065" lon="0.74258">
        <ele>1228.9</ele>
        <time>2020-02-23T13:55:46Z</time>
      </trkpt>
      <trkpt lat="42.94066" lon="0.74259">
        <ele>1228.3</ele>
        <time>2020-02-23T13:55:47Z</time>
      </trkpt>
      <trkpt lat="42.94067" lon="0.74261">
        <ele>1228.3</ele>
        <time>2020-02-23T13:55:48Z</time>
      </trkpt>
      <trkpt lat="42.94068" lon="0.74262">
        <ele>1228.5</ele>
        <time>2020-02-23T13:55:49Z</time>
      </trkpt>
      <trkpt lat="42.94069" lon="0.74264">
        <ele>1228</ele>
        <time>2020-02-23T13:55:50Z</time>
      </trkpt>
      <trkpt lat="42.9407" lon="0.74265">
        <ele>1228.2</ele>
        <time>2020-02-23T13:55:51Z</time>
      </trkpt>
      <trkpt lat="42.94071" lon="0.74267">
        <ele>1228.2</ele>
        <time>2020-02-23T13:55:52Z</time>
      </trkpt>
      <trkpt lat="42.94073" lon="0.74269">
        <ele>1228</ele>
        <time>2020-02-23T13:55:53Z</time>
      </trkpt>
      <trkpt lat="42.94073" lon="0.74269">
        <ele>1228</ele>
        <time>2020-02-23T13:55:54Z</time>
      </trkpt>
      <trkpt lat="42.94074" lon="0.74272">
        <ele>1228</ele>
        <time>2020-02-23T13:55:55Z</time>
      </trkpt>
      <trkpt lat="42.94076" lon="0.74275">
        <ele>1227.9</ele>
        <time>2020-02-23T13:55:56Z</time>
      </trkpt>
      <trkpt lat="42.94076" lon="0.74275">
        <ele>1227.8</ele>
        <time>2020-02-23T13:55:57Z</time>
      </trkpt>
      <trkpt lat="42.94076" lon="0.74275">
        <ele>1227.8</ele>
        <time>2020-02-23T13:55:58Z</time>
      </trkpt>
      <trkpt lat="42.94078" lon="0.74279">
        <ele>1227.6</ele>
        <time>2020-02-23T13:55:59Z</time>
      </trkpt>
      <trkpt lat="42.94078" lon="0.74279">
        <ele>1227.6</ele>
        <time>2020-02-23T13:56:00Z</time>
      </trkpt>
      <trkpt lat="42.94078" lon="0.74279">
        <ele>1227.6</ele>
        <time>2020-02-23T13:56:01Z</time>
      </trkpt>
      <trkpt lat="42.9408" lon="0.7428">
        <ele>1227.6</ele>
        <time>2020-02-23T13:56:02Z</time>
      </trkpt>
      <trkpt lat="42.9408" lon="0.7428">
        <ele>1227.5</ele>
        <time>2020-02-23T13:56:03Z</time>
      </trkpt>
      <trkpt lat="42.9408" lon="0.7428">
        <ele>1227.5</ele>
        <time>2020-02-23T13:56:04Z</time>
      </trkpt>
      <trkpt lat="42.9408" lon="0.7428">
        <ele>1227.5</ele>
        <time>2020-02-23T13:56:05Z</time>
      </trkpt>
      <trkpt lat="42.94083" lon="0.74284">
        <ele>1227.3</ele>
        <time>2020-02-23T13:56:06Z</time>
      </trkpt>
      <trkpt lat="42.94083" lon="0.74284">
        <ele>1227.2</ele>
        <time>2020-02-23T13:56:07Z</time>
      </trkpt>
      <trkpt lat="42.94084" lon="0.74287">
        <ele>1227</ele>
        <time>2020-02-23T13:56:08Z</time>
      </trkpt>
      <trkpt lat="42.94085" lon="0.74291">
        <ele>1227.3</ele>
        <time>2020-02-23T13:56:09Z</time>
      </trkpt>
      <trkpt lat="42.94085" lon="0.74291">
        <ele>1227.3</ele>
        <time>2020-02-23T13:56:10Z</time>
      </trkpt>
      <trkpt lat="42.94086" lon="0.74296">
        <ele>1227.6</ele>
        <time>2020-02-23T13:56:11Z</time>
      </trkpt>
      <trkpt lat="42.94086" lon="0.74296">
        <ele>1227.6</ele>
        <time>2020-02-23T13:56:12Z</time>
      </trkpt>
      <trkpt lat="42.94086" lon="0.74302">
        <ele>1227.9</ele>
        <time>2020-02-23T13:56:13Z</time>
      </trkpt>
      <trkpt lat="42.94086" lon="0.74302">
        <ele>1227.9</ele>
        <time>2020-02-23T13:56:14Z</time>
      </trkpt>
      <trkpt lat="42.94086" lon="0.74307">
        <ele>1228.2</ele>
        <time>2020-02-23T13:56:15Z</time>
      </trkpt>
      <trkpt lat="42.94086" lon="0.74307">
        <ele>1228.2</ele>
        <time>2020-02-23T13:56:16Z</time>
      </trkpt>
      <trkpt lat="42.94086" lon="0.74307">
        <ele>1228.2</ele>
        <time>2020-02-23T13:56:17Z</time>
      </trkpt>
      <trkpt lat="42.94086" lon="0.7431">
        <ele>1228.5</ele>
        <time>2020-02-23T13:56:18Z</time>
      </trkpt>
      <trkpt lat="42.94086" lon="0.74312">
        <ele>1228.9</ele>
        <time>2020-02-23T13:56:19Z</time>
      </trkpt>
      <trkpt lat="42.94086" lon="0.74315">
        <ele>1228.9</ele>
        <time>2020-02-23T13:56:20Z</time>
      </trkpt>
      <trkpt lat="42.94086" lon="0.74317">
        <ele>1229.3</ele>
        <time>2020-02-23T13:56:21Z</time>
      </trkpt>
      <trkpt lat="42.94086" lon="0.7432">
        <ele>1229.3</ele>
        <time>2020-02-23T13:56:22Z</time>
      </trkpt>
      <trkpt lat="42.94086" lon="0.74323">
        <ele>1229.7</ele>
        <time>2020-02-23T13:56:23Z</time>
      </trkpt>
      <trkpt lat="42.94085" lon="0.74327">
        <ele>1230.3</ele>
        <time>2020-02-23T13:56:24Z</time>
      </trkpt>
      <trkpt lat="42.94084" lon="0.74331">
        <ele>1230.8</ele>
        <time>2020-02-23T13:56:25Z</time>
      </trkpt>
      <trkpt lat="42.94084" lon="0.74331">
        <ele>1230.8</ele>
        <time>2020-02-23T13:56:26Z</time>
      </trkpt>
      <trkpt lat="42.94084" lon="0.74331">
        <ele>1230.7</ele>
        <time>2020-02-23T13:56:27Z</time>
      </trkpt>
      <trkpt lat="42.94085" lon="0.74332">
        <ele>1230.7</ele>
        <time>2020-02-23T13:56:28Z</time>
      </trkpt>
      <trkpt lat="42.94085" lon="0.74334">
        <ele>1231.3</ele>
        <time>2020-02-23T13:56:29Z</time>
      </trkpt>
      <trkpt lat="42.94085" lon="0.74336">
        <ele>1231.2</ele>
        <time>2020-02-23T13:56:30Z</time>
      </trkpt>
      <trkpt lat="42.94085" lon="0.74337">
        <ele>1231.2</ele>
        <time>2020-02-23T13:56:31Z</time>
      </trkpt>
      <trkpt lat="42.94085" lon="0.74339">
        <ele>1231.7</ele>
        <time>2020-02-23T13:56:32Z</time>
      </trkpt>
      <trkpt lat="42.94085" lon="0.7434">
        <ele>1231.7</ele>
        <time>2020-02-23T13:56:33Z</time>
      </trkpt>
      <trkpt lat="42.94085" lon="0.74342">
        <ele>1231.7</ele>
        <time>2020-02-23T13:56:34Z</time>
      </trkpt>
      <trkpt lat="42.94085" lon="0.74343">
        <ele>1232.1</ele>
        <time>2020-02-23T13:56:35Z</time>
      </trkpt>
      <trkpt lat="42.94086" lon="0.74346">
        <ele>1232.1</ele>
        <time>2020-02-23T13:56:36Z</time>
      </trkpt>
      <trkpt lat="42.94088" lon="0.74348">
        <ele>1231.9</ele>
        <time>2020-02-23T13:56:37Z</time>
      </trkpt>
      <trkpt lat="42.94089" lon="0.74351">
        <ele>1231.9</ele>
        <time>2020-02-23T13:56:38Z</time>
      </trkpt>
      <trkpt lat="42.94091" lon="0.74353">
        <ele>1231.8</ele>
        <time>2020-02-23T13:56:39Z</time>
      </trkpt>
      <trkpt lat="42.94092" lon="0.74356">
        <ele>1232.3</ele>
        <time>2020-02-23T13:56:40Z</time>
      </trkpt>
      <trkpt lat="42.94092" lon="0.74356">
        <ele>1232.3</ele>
        <time>2020-02-23T13:56:41Z</time>
      </trkpt>
      <trkpt lat="42.94095" lon="0.74358">
        <ele>1231.7</ele>
        <time>2020-02-23T13:56:42Z</time>
      </trkpt>
      <trkpt lat="42.94095" lon="0.74358">
        <ele>1231.7</ele>
        <time>2020-02-23T13:56:43Z</time>
      </trkpt>
      <trkpt lat="42.94095" lon="0.74358">
        <ele>1231.7</ele>
        <time>2020-02-23T13:56:44Z</time>
      </trkpt>
      <trkpt lat="42.94099" lon="0.74362">
        <ele>1231.2</ele>
        <time>2020-02-23T13:56:45Z</time>
      </trkpt>
      <trkpt lat="42.941" lon="0.74363">
        <ele>1230.8</ele>
        <time>2020-02-23T13:56:46Z</time>
      </trkpt>
      <trkpt lat="42.941" lon="0.74363">
        <ele>1230.8</ele>
        <time>2020-02-23T13:56:47Z</time>
      </trkpt>
      <trkpt lat="42.94101" lon="0.74364">
        <ele>1230.5</ele>
        <time>2020-02-23T13:56:48Z</time>
      </trkpt>
      <trkpt lat="42.94102" lon="0.74365">
        <ele>1230.1</ele>
        <time>2020-02-23T13:56:49Z</time>
      </trkpt>
      <trkpt lat="42.94103" lon="0.74366">
        <ele>1229.8</ele>
        <time>2020-02-23T13:56:50Z</time>
      </trkpt>
      <trkpt lat="42.94104" lon="0.74367">
        <ele>1229.5</ele>
        <time>2020-02-23T13:56:51Z</time>
      </trkpt>
      <trkpt lat="42.94105" lon="0.74368">
        <ele>1229.2</ele>
        <time>2020-02-23T13:56:52Z</time>
      </trkpt>
      <trkpt lat="42.94106" lon="0.74369">
        <ele>1228.9</ele>
        <time>2020-02-23T13:56:53Z</time>
      </trkpt>
      <trkpt lat="42.94107" lon="0.7437">
        <ele>1228.6</ele>
        <time>2020-02-23T13:56:54Z</time>
      </trkpt>
      <trkpt lat="42.94108" lon="0.7437">
        <ele>1228.3</ele>
        <time>2020-02-23T13:56:55Z</time>
      </trkpt>
      <trkpt lat="42.94109" lon="0.74371">
        <ele>1228</ele>
        <time>2020-02-23T13:56:56Z</time>
      </trkpt>
      <trkpt lat="42.9411" lon="0.74372">
        <ele>1227.7</ele>
        <time>2020-02-23T13:56:57Z</time>
      </trkpt>
      <trkpt lat="42.94112" lon="0.74373">
        <ele>1227.4</ele>
        <time>2020-02-23T13:56:58Z</time>
      </trkpt>
      <trkpt lat="42.94113" lon="0.74373">
        <ele>1227.2</ele>
        <time>2020-02-23T13:56:59Z</time>
      </trkpt>
      <trkpt lat="42.94114" lon="0.74374">
        <ele>1226.9</ele>
        <time>2020-02-23T13:57:00Z</time>
      </trkpt>
      <trkpt lat="42.94115" lon="0.74375">
        <ele>1226.6</ele>
        <time>2020-02-23T13:57:01Z</time>
      </trkpt>
      <trkpt lat="42.94117" lon="0.74376">
        <ele>1226.3</ele>
        <time>2020-02-23T13:57:02Z</time>
      </trkpt>
      <trkpt lat="42.94118" lon="0.74375">
        <ele>1226.1</ele>
        <time>2020-02-23T13:57:03Z</time>
      </trkpt>
      <trkpt lat="42.94118" lon="0.74374">
        <ele>1225.9</ele>
        <time>2020-02-23T13:57:04Z</time>
      </trkpt>
      <trkpt lat="42.94119" lon="0.74373">
        <ele>1225.7</ele>
        <time>2020-02-23T13:57:05Z</time>
      </trkpt>
      <trkpt lat="42.9412" lon="0.74372">
        <ele>1225.5</ele>
        <time>2020-02-23T13:57:06Z</time>
      </trkpt>
      <trkpt lat="42.94121" lon="0.74371">
        <ele>1225.3</ele>
        <time>2020-02-23T13:57:07Z</time>
      </trkpt>
      <trkpt lat="42.94122" lon="0.7437">
        <ele>1225.1</ele>
        <time>2020-02-23T13:57:08Z</time>
      </trkpt>
      <trkpt lat="42.94123" lon="0.74369">
        <ele>1224.9</ele>
        <time>2020-02-23T13:57:09Z</time>
      </trkpt>
      <trkpt lat="42.94124" lon="0.74368">
        <ele>1224.7</ele>
        <time>2020-02-23T13:57:10Z</time>
      </trkpt>
      <trkpt lat="42.94124" lon="0.74366">
        <ele>1224.5</ele>
        <time>2020-02-23T13:57:11Z</time>
      </trkpt>
      <trkpt lat="42.94125" lon="0.74365">
        <ele>1224.3</ele>
        <time>2020-02-23T13:57:12Z</time>
      </trkpt>
      <trkpt lat="42.94126" lon="0.74363">
        <ele>1224.1</ele>
        <time>2020-02-23T13:57:13Z</time>
      </trkpt>
      <trkpt lat="42.94127" lon="0.74362">
        <ele>1224</ele>
        <time>2020-02-23T13:57:14Z</time>
      </trkpt>
      <trkpt lat="42.94127" lon="0.7436">
        <ele>1223.8</ele>
        <time>2020-02-23T13:57:15Z</time>
      </trkpt>
      <trkpt lat="42.94128" lon="0.74359">
        <ele>1223.7</ele>
        <time>2020-02-23T13:57:16Z</time>
      </trkpt>
      <trkpt lat="42.94129" lon="0.74357">
        <ele>1223.5</ele>
        <time>2020-02-23T13:57:17Z</time>
      </trkpt>
      <trkpt lat="42.9413" lon="0.74356">
        <ele>1223.3</ele>
        <time>2020-02-23T13:57:18Z</time>
      </trkpt>
      <trkpt lat="42.94131" lon="0.74355">
        <ele>1223</ele>
        <time>2020-02-23T13:57:19Z</time>
      </trkpt>
      <trkpt lat="42.94132" lon="0.74353">
        <ele>1222.6</ele>
        <time>2020-02-23T13:57:20Z</time>
      </trkpt>
      <trkpt lat="42.94134" lon="0.74352">
        <ele>1222.2</ele>
        <time>2020-02-23T13:57:21Z</time>
      </trkpt>
      <trkpt lat="42.94135" lon="0.7435">
        <ele>1221.8</ele>
        <time>2020-02-23T13:57:22Z</time>
      </trkpt>
      <trkpt lat="42.94136" lon="0.74349">
        <ele>1221.4</ele>
        <time>2020-02-23T13:57:23Z</time>
      </trkpt>
      <trkpt lat="42.94138" lon="0.74348">
        <ele>1221</ele>
        <time>2020-02-23T13:57:24Z</time>
      </trkpt>
      <trkpt lat="42.94139" lon="0.74347">
        <ele>1220.5</ele>
        <time>2020-02-23T13:57:25Z</time>
      </trkpt>
      <trkpt lat="42.94141" lon="0.74346">
        <ele>1220.2</ele>
        <time>2020-02-23T13:57:26Z</time>
      </trkpt>
      <trkpt lat="42.94142" lon="0.74345">
        <ele>1219.8</ele>
        <time>2020-02-23T13:57:27Z</time>
      </trkpt>
      <trkpt lat="42.94144" lon="0.74344">
        <ele>1219.5</ele>
        <time>2020-02-23T13:57:28Z</time>
      </trkpt>
      <trkpt lat="42.94145" lon="0.74343">
        <ele>1219.1</ele>
        <time>2020-02-23T13:57:29Z</time>
      </trkpt>
      <trkpt lat="42.94147" lon="0.74341">
        <ele>1218.8</ele>
        <time>2020-02-23T13:57:30Z</time>
      </trkpt>
      <trkpt lat="42.94148" lon="0.7434">
        <ele>1218.5</ele>
        <time>2020-02-23T13:57:31Z</time>
      </trkpt>
      <trkpt lat="42.94149" lon="0.74339">
        <ele>1218.3</ele>
        <time>2020-02-23T13:57:32Z</time>
      </trkpt>
      <trkpt lat="42.9415" lon="0.74338">
        <ele>1218</ele>
        <time>2020-02-23T13:57:33Z</time>
      </trkpt>
      <trkpt lat="42.94151" lon="0.74337">
        <ele>1217.8</ele>
        <time>2020-02-23T13:57:34Z</time>
      </trkpt>
      <trkpt lat="42.94152" lon="0.74336">
        <ele>1217.6</ele>
        <time>2020-02-23T13:57:35Z</time>
      </trkpt>
      <trkpt lat="42.94153" lon="0.74335">
        <ele>1217.4</ele>
        <time>2020-02-23T13:57:36Z</time>
      </trkpt>
      <trkpt lat="42.94155" lon="0.74334">
        <ele>1217.2</ele>
        <time>2020-02-23T13:57:37Z</time>
      </trkpt>
      <trkpt lat="42.94156" lon="0.74334">
        <ele>1217</ele>
        <time>2020-02-23T13:57:38Z</time>
      </trkpt>
      <trkpt lat="42.94158" lon="0.74333">
        <ele>1216.7</ele>
        <time>2020-02-23T13:57:39Z</time>
      </trkpt>
      <trkpt lat="42.9416" lon="0.74332">
        <ele>1216.4</ele>
        <time>2020-02-23T13:57:40Z</time>
      </trkpt>
      <trkpt lat="42.94161" lon="0.74331">
        <ele>1215.9</ele>
        <time>2020-02-23T13:57:41Z</time>
      </trkpt>
      <trkpt lat="42.94163" lon="0.74331">
        <ele>1215.4</ele>
        <time>2020-02-23T13:57:42Z</time>
      </trkpt>
      <trkpt lat="42.94163" lon="0.74331">
        <ele>1215.1</ele>
        <time>2020-02-23T13:57:43Z</time>
      </trkpt>
      <trkpt lat="42.94164" lon="0.74331">
        <ele>1214.9</ele>
        <time>2020-02-23T13:57:44Z</time>
      </trkpt>
      <trkpt lat="42.94165" lon="0.74331">
        <ele>1214.6</ele>
        <time>2020-02-23T13:57:45Z</time>
      </trkpt>
      <trkpt lat="42.94166" lon="0.74331">
        <ele>1214.4</ele>
        <time>2020-02-23T13:57:46Z</time>
      </trkpt>
      <trkpt lat="42.94167" lon="0.74331">
        <ele>1214.1</ele>
        <time>2020-02-23T13:57:47Z</time>
      </trkpt>
      <trkpt lat="42.94168" lon="0.74331">
        <ele>1213.9</ele>
        <time>2020-02-23T13:57:48Z</time>
      </trkpt>
      <trkpt lat="42.94168" lon="0.74331">
        <ele>1213.8</ele>
        <time>2020-02-23T13:57:49Z</time>
      </trkpt>
      <trkpt lat="42.94169" lon="0.74331">
        <ele>1213.7</ele>
        <time>2020-02-23T13:57:50Z</time>
      </trkpt>
      <trkpt lat="42.9417" lon="0.74331">
        <ele>1213.6</ele>
        <time>2020-02-23T13:57:51Z</time>
      </trkpt>
      <trkpt lat="42.94171" lon="0.74331">
        <ele>1213.5</ele>
        <time>2020-02-23T13:57:52Z</time>
      </trkpt>
      <trkpt lat="42.94172" lon="0.74331">
        <ele>1213.4</ele>
        <time>2020-02-23T13:57:53Z</time>
      </trkpt>
      <trkpt lat="42.94173" lon="0.74331">
        <ele>1213.3</ele>
        <time>2020-02-23T13:57:54Z</time>
      </trkpt>
      <trkpt lat="42.94174" lon="0.74331">
        <ele>1213.2</ele>
        <time>2020-02-23T13:57:55Z</time>
      </trkpt>
      <trkpt lat="42.94175" lon="0.74331">
        <ele>1213</ele>
        <time>2020-02-23T13:57:56Z</time>
      </trkpt>
      <trkpt lat="42.94176" lon="0.74332">
        <ele>1212.9</ele>
        <time>2020-02-23T13:57:57Z</time>
      </trkpt>
      <trkpt lat="42.94177" lon="0.74332">
        <ele>1212.7</ele>
        <time>2020-02-23T13:57:58Z</time>
      </trkpt>
      <trkpt lat="42.94178" lon="0.74333">
        <ele>1212.6</ele>
        <time>2020-02-23T13:57:59Z</time>
      </trkpt>
      <trkpt lat="42.94179" lon="0.74333">
        <ele>1212.5</ele>
        <time>2020-02-23T13:58:00Z</time>
      </trkpt>
      <trkpt lat="42.94181" lon="0.74333">
        <ele>1212.5</ele>
        <time>2020-02-23T13:58:01Z</time>
      </trkpt>
      <trkpt lat="42.94182" lon="0.74334">
        <ele>1212.5</ele>
        <time>2020-02-23T13:58:02Z</time>
      </trkpt>
      <trkpt lat="42.94183" lon="0.74334">
        <ele>1212.5</ele>
        <time>2020-02-23T13:58:03Z</time>
      </trkpt>
      <trkpt lat="42.94184" lon="0.74335">
        <ele>1212.5</ele>
        <time>2020-02-23T13:58:04Z</time>
      </trkpt>
      <trkpt lat="42.94185" lon="0.74336">
        <ele>1212.5</ele>
        <time>2020-02-23T13:58:05Z</time>
      </trkpt>
      <trkpt lat="42.94185" lon="0.74336">
        <ele>1212.5</ele>
        <time>2020-02-23T13:58:06Z</time>
      </trkpt>
      <trkpt lat="42.94186" lon="0.74337">
        <ele>1212.4</ele>
        <time>2020-02-23T13:58:07Z</time>
      </trkpt>
      <trkpt lat="42.94187" lon="0.74337">
        <ele>1212.4</ele>
        <time>2020-02-23T13:58:08Z</time>
      </trkpt>
      <trkpt lat="42.94188" lon="0.74338">
        <ele>1212.4</ele>
        <time>2020-02-23T13:58:09Z</time>
      </trkpt>
      <trkpt lat="42.94189" lon="0.74339">
        <ele>1212.5</ele>
        <time>2020-02-23T13:58:10Z</time>
      </trkpt>
      <trkpt lat="42.9419" lon="0.74339">
        <ele>1212.7</ele>
        <time>2020-02-23T13:58:11Z</time>
      </trkpt>
      <trkpt lat="42.94191" lon="0.74341">
        <ele>1212.8</ele>
        <time>2020-02-23T13:58:12Z</time>
      </trkpt>
      <trkpt lat="42.94192" lon="0.74342">
        <ele>1213</ele>
        <time>2020-02-23T13:58:13Z</time>
      </trkpt>
      <trkpt lat="42.94192" lon="0.74344">
        <ele>1213.2</ele>
        <time>2020-02-23T13:58:14Z</time>
      </trkpt>
      <trkpt lat="42.94193" lon="0.74345">
        <ele>1213.4</ele>
        <time>2020-02-23T13:58:15Z</time>
      </trkpt>
      <trkpt lat="42.94194" lon="0.74347">
        <ele>1213.6</ele>
        <time>2020-02-23T13:58:16Z</time>
      </trkpt>
      <trkpt lat="42.94195" lon="0.74348">
        <ele>1213.7</ele>
        <time>2020-02-23T13:58:17Z</time>
      </trkpt>
      <trkpt lat="42.94195" lon="0.7435">
        <ele>1213.9</ele>
        <time>2020-02-23T13:58:18Z</time>
      </trkpt>
      <trkpt lat="42.94196" lon="0.74351">
        <ele>1214.1</ele>
        <time>2020-02-23T13:58:19Z</time>
      </trkpt>
      <trkpt lat="42.94197" lon="0.74352">
        <ele>1214.2</ele>
        <time>2020-02-23T13:58:20Z</time>
      </trkpt>
      <trkpt lat="42.94197" lon="0.74354">
        <ele>1214.3</ele>
        <time>2020-02-23T13:58:21Z</time>
      </trkpt>
      <trkpt lat="42.94198" lon="0.74355">
        <ele>1214.5</ele>
        <time>2020-02-23T13:58:22Z</time>
      </trkpt>
      <trkpt lat="42.94199" lon="0.74357">
        <ele>1214.6</ele>
        <time>2020-02-23T13:58:23Z</time>
      </trkpt>
      <trkpt lat="42.94199" lon="0.74358">
        <ele>1214.8</ele>
        <time>2020-02-23T13:58:24Z</time>
      </trkpt>
      <trkpt lat="42.942" lon="0.74359">
        <ele>1214.9</ele>
        <time>2020-02-23T13:58:25Z</time>
      </trkpt>
      <trkpt lat="42.942" lon="0.74361">
        <ele>1215.1</ele>
        <time>2020-02-23T13:58:26Z</time>
      </trkpt>
      <trkpt lat="42.94201" lon="0.74363">
        <ele>1215.2</ele>
        <time>2020-02-23T13:58:27Z</time>
      </trkpt>
      <trkpt lat="42.94201" lon="0.74364">
        <ele>1215.3</ele>
        <time>2020-02-23T13:58:28Z</time>
      </trkpt>
      <trkpt lat="42.94201" lon="0.74366">
        <ele>1215.5</ele>
        <time>2020-02-23T13:58:29Z</time>
      </trkpt>
      <trkpt lat="42.94201" lon="0.74368">
        <ele>1215.6</ele>
        <time>2020-02-23T13:58:30Z</time>
      </trkpt>
      <trkpt lat="42.94201" lon="0.7437">
        <ele>1215.7</ele>
        <time>2020-02-23T13:58:31Z</time>
      </trkpt>
      <trkpt lat="42.94201" lon="0.74372">
        <ele>1215.8</ele>
        <time>2020-02-23T13:58:32Z</time>
      </trkpt>
      <trkpt lat="42.94201" lon="0.74374">
        <ele>1215.9</ele>
        <time>2020-02-23T13:58:33Z</time>
      </trkpt>
      <trkpt lat="42.94202" lon="0.74375">
        <ele>1216</ele>
        <time>2020-02-23T13:58:34Z</time>
      </trkpt>
      <trkpt lat="42.94202" lon="0.74377">
        <ele>1216.1</ele>
        <time>2020-02-23T13:58:35Z</time>
      </trkpt>
      <trkpt lat="42.94202" lon="0.74378">
        <ele>1216.3</ele>
        <time>2020-02-23T13:58:36Z</time>
      </trkpt>
      <trkpt lat="42.94202" lon="0.7438">
        <ele>1216.5</ele>
        <time>2020-02-23T13:58:37Z</time>
      </trkpt>
      <trkpt lat="42.94203" lon="0.74381">
        <ele>1216.7</ele>
        <time>2020-02-23T13:58:38Z</time>
      </trkpt>
      <trkpt lat="42.94203" lon="0.74383">
        <ele>1216.9</ele>
        <time>2020-02-23T13:58:39Z</time>
      </trkpt>
      <trkpt lat="42.94203" lon="0.74384">
        <ele>1217.1</ele>
        <time>2020-02-23T13:58:40Z</time>
      </trkpt>
      <trkpt lat="42.94203" lon="0.74386">
        <ele>1217.3</ele>
        <time>2020-02-23T13:58:41Z</time>
      </trkpt>
      <trkpt lat="42.94203" lon="0.74388">
        <ele>1217.6</ele>
        <time>2020-02-23T13:58:42Z</time>
      </trkpt>
      <trkpt lat="42.94202" lon="0.7439">
        <ele>1217.9</ele>
        <time>2020-02-23T13:58:43Z</time>
      </trkpt>
      <trkpt lat="42.94201" lon="0.74392">
        <ele>1218.2</ele>
        <time>2020-02-23T13:58:44Z</time>
      </trkpt>
      <trkpt lat="42.94201" lon="0.74394">
        <ele>1218.5</ele>
        <time>2020-02-23T13:58:45Z</time>
      </trkpt>
      <trkpt lat="42.942" lon="0.74397">
        <ele>1218.9</ele>
        <time>2020-02-23T13:58:46Z</time>
      </trkpt>
      <trkpt lat="42.942" lon="0.74399">
        <ele>1219.3</ele>
        <time>2020-02-23T13:58:47Z</time>
      </trkpt>
      <trkpt lat="42.94199" lon="0.74401">
        <ele>1219.6</ele>
        <time>2020-02-23T13:58:48Z</time>
      </trkpt>
      <trkpt lat="42.94198" lon="0.74403">
        <ele>1220</ele>
        <time>2020-02-23T13:58:49Z</time>
      </trkpt>
      <trkpt lat="42.94198" lon="0.74405">
        <ele>1220.4</ele>
        <time>2020-02-23T13:58:50Z</time>
      </trkpt>
      <trkpt lat="42.94197" lon="0.74408">
        <ele>1220.7</ele>
        <time>2020-02-23T13:58:51Z</time>
      </trkpt>
      <trkpt lat="42.94197" lon="0.7441">
        <ele>1221.1</ele>
        <time>2020-02-23T13:58:52Z</time>
      </trkpt>
      <trkpt lat="42.94196" lon="0.74412">
        <ele>1221.4</ele>
        <time>2020-02-23T13:58:53Z</time>
      </trkpt>
      <trkpt lat="42.94195" lon="0.74414">
        <ele>1221.8</ele>
        <time>2020-02-23T13:58:54Z</time>
      </trkpt>
      <trkpt lat="42.94191" lon="0.74423">
        <ele>1223.4</ele>
        <time>2020-02-23T13:58:55Z</time>
      </trkpt>
      <trkpt lat="42.94192" lon="0.74444">
        <ele>1226.2</ele>
        <time>2020-02-23T13:58:56Z</time>
      </trkpt>
      <trkpt lat="42.94192" lon="0.74444">
        <ele>1226.2</ele>
        <time>2020-02-23T13:58:57Z</time>
      </trkpt>
      <trkpt lat="42.9419" lon="0.74446">
        <ele>1226.8</ele>
        <time>2020-02-23T13:58:58Z</time>
      </trkpt>
      <trkpt lat="42.94189" lon="0.74449">
        <ele>1227.3</ele>
        <time>2020-02-23T13:58:59Z</time>
      </trkpt>
      <trkpt lat="42.94188" lon="0.74451">
        <ele>1227.8</ele>
        <time>2020-02-23T13:59:00Z</time>
      </trkpt>
      <trkpt lat="42.94187" lon="0.74454">
        <ele>1228.3</ele>
        <time>2020-02-23T13:59:01Z</time>
      </trkpt>
      <trkpt lat="42.94186" lon="0.74456">
        <ele>1228.8</ele>
        <time>2020-02-23T13:59:02Z</time>
      </trkpt>
      <trkpt lat="42.94184" lon="0.74459">
        <ele>1229.4</ele>
        <time>2020-02-23T13:59:03Z</time>
      </trkpt>
      <trkpt lat="42.94183" lon="0.74461">
        <ele>1230.1</ele>
        <time>2020-02-23T13:59:04Z</time>
      </trkpt>
      <trkpt lat="42.94181" lon="0.74464">
        <ele>1230.7</ele>
        <time>2020-02-23T13:59:05Z</time>
      </trkpt>
      <trkpt lat="42.94179" lon="0.74467">
        <ele>1231.3</ele>
        <time>2020-02-23T13:59:06Z</time>
      </trkpt>
      <trkpt lat="42.9418" lon="0.74468">
        <ele>1231.5</ele>
        <time>2020-02-23T13:59:07Z</time>
      </trkpt>
      <trkpt lat="42.9418" lon="0.7447">
        <ele>1231.8</ele>
        <time>2020-02-23T13:59:08Z</time>
      </trkpt>
      <trkpt lat="42.9418" lon="0.74471">
        <ele>1232</ele>
        <time>2020-02-23T13:59:09Z</time>
      </trkpt>
      <trkpt lat="42.9418" lon="0.74472">
        <ele>1232.3</ele>
        <time>2020-02-23T13:59:10Z</time>
      </trkpt>
      <trkpt lat="42.94181" lon="0.74474">
        <ele>1232.5</ele>
        <time>2020-02-23T13:59:11Z</time>
      </trkpt>
      <trkpt lat="42.94181" lon="0.74475">
        <ele>1232.8</ele>
        <time>2020-02-23T13:59:12Z</time>
      </trkpt>
      <trkpt lat="42.94181" lon="0.74477">
        <ele>1232.9</ele>
        <time>2020-02-23T13:59:13Z</time>
      </trkpt>
      <trkpt lat="42.94181" lon="0.74478">
        <ele>1233</ele>
        <time>2020-02-23T13:59:14Z</time>
      </trkpt>
      <trkpt lat="42.94182" lon="0.74479">
        <ele>1233</ele>
        <time>2020-02-23T13:59:15Z</time>
      </trkpt>
      <trkpt lat="42.94183" lon="0.74481">
        <ele>1233.1</ele>
        <time>2020-02-23T13:59:16Z</time>
      </trkpt>
      <trkpt lat="42.94184" lon="0.74482">
        <ele>1233.2</ele>
        <time>2020-02-23T13:59:17Z</time>
      </trkpt>
      <trkpt lat="42.94185" lon="0.74484">
        <ele>1233.2</ele>
        <time>2020-02-23T13:59:18Z</time>
      </trkpt>
      <trkpt lat="42.94186" lon="0.74485">
        <ele>1233.4</ele>
        <time>2020-02-23T13:59:19Z</time>
      </trkpt>
      <trkpt lat="42.94187" lon="0.74487">
        <ele>1233.5</ele>
        <time>2020-02-23T13:59:20Z</time>
      </trkpt>
      <trkpt lat="42.94188" lon="0.74488">
        <ele>1233.6</ele>
        <time>2020-02-23T13:59:21Z</time>
      </trkpt>
      <trkpt lat="42.94188" lon="0.7449">
        <ele>1233.7</ele>
        <time>2020-02-23T13:59:22Z</time>
      </trkpt>
      <trkpt lat="42.94189" lon="0.74491">
        <ele>1233.2</ele>
        <time>2020-02-23T13:59:23Z</time>
      </trkpt>
      <trkpt lat="42.94191" lon="0.74492">
        <ele>1233.1</ele>
        <time>2020-02-23T13:59:24Z</time>
      </trkpt>
      <trkpt lat="42.94192" lon="0.74493">
        <ele>1233.1</ele>
        <time>2020-02-23T13:59:25Z</time>
      </trkpt>
      <trkpt lat="42.94193" lon="0.74494">
        <ele>1233</ele>
        <time>2020-02-23T13:59:26Z</time>
      </trkpt>
      <trkpt lat="42.94194" lon="0.74495">
        <ele>1232.9</ele>
        <time>2020-02-23T13:59:27Z</time>
      </trkpt>
      <trkpt lat="42.94195" lon="0.74496">
        <ele>1232.9</ele>
        <time>2020-02-23T13:59:28Z</time>
      </trkpt>
      <trkpt lat="42.94196" lon="0.74496">
        <ele>1232.8</ele>
        <time>2020-02-23T13:59:29Z</time>
      </trkpt>
      <trkpt lat="42.94198" lon="0.74497">
        <ele>1232.7</ele>
        <time>2020-02-23T13:59:30Z</time>
      </trkpt>
      <trkpt lat="42.94199" lon="0.74498">
        <ele>1232.6</ele>
        <time>2020-02-23T13:59:31Z</time>
      </trkpt>
      <trkpt lat="42.94201" lon="0.745">
        <ele>1232.5</ele>
        <time>2020-02-23T13:59:32Z</time>
      </trkpt>
      <trkpt lat="42.94203" lon="0.74501">
        <ele>1232.4</ele>
        <time>2020-02-23T13:59:33Z</time>
      </trkpt>
      <trkpt lat="42.94204" lon="0.74502">
        <ele>1232.3</ele>
        <time>2020-02-23T13:59:34Z</time>
      </trkpt>
      <trkpt lat="42.94206" lon="0.74503">
        <ele>1232.2</ele>
        <time>2020-02-23T13:59:35Z</time>
      </trkpt>
      <trkpt lat="42.94208" lon="0.74504">
        <ele>1232.1</ele>
        <time>2020-02-23T13:59:36Z</time>
      </trkpt>
      <trkpt lat="42.9421" lon="0.74504">
        <ele>1232</ele>
        <time>2020-02-23T13:59:37Z</time>
      </trkpt>
      <trkpt lat="42.94212" lon="0.74505">
        <ele>1231.9</ele>
        <time>2020-02-23T13:59:38Z</time>
      </trkpt>
      <trkpt lat="42.94214" lon="0.74506">
        <ele>1231.8</ele>
        <time>2020-02-23T13:59:39Z</time>
      </trkpt>
      <trkpt lat="42.94216" lon="0.74507">
        <ele>1231.7</ele>
        <time>2020-02-23T13:59:40Z</time>
      </trkpt>
      <trkpt lat="42.94217" lon="0.74507">
        <ele>1231.7</ele>
        <time>2020-02-23T13:59:41Z</time>
      </trkpt>
      <trkpt lat="42.94219" lon="0.74507">
        <ele>1231.6</ele>
        <time>2020-02-23T13:59:42Z</time>
      </trkpt>
      <trkpt lat="42.9422" lon="0.74507">
        <ele>1231.5</ele>
        <time>2020-02-23T13:59:43Z</time>
      </trkpt>
      <trkpt lat="42.94222" lon="0.74508">
        <ele>1231.4</ele>
        <time>2020-02-23T13:59:44Z</time>
      </trkpt>
      <trkpt lat="42.94224" lon="0.74508">
        <ele>1231.3</ele>
        <time>2020-02-23T13:59:45Z</time>
      </trkpt>
      <trkpt lat="42.94225" lon="0.74508">
        <ele>1231.2</ele>
        <time>2020-02-23T13:59:46Z</time>
      </trkpt>
      <trkpt lat="42.94226" lon="0.74507">
        <ele>1231.2</ele>
        <time>2020-02-23T13:59:47Z</time>
      </trkpt>
      <trkpt lat="42.94227" lon="0.74506">
        <ele>1231.1</ele>
        <time>2020-02-23T13:59:48Z</time>
      </trkpt>
      <trkpt lat="42.94227" lon="0.74506">
        <ele>1231.1</ele>
        <time>2020-02-23T13:59:49Z</time>
      </trkpt>
      <trkpt lat="42.94228" lon="0.74505">
        <ele>1231</ele>
        <time>2020-02-23T13:59:50Z</time>
      </trkpt>
      <trkpt lat="42.94229" lon="0.74504">
        <ele>1230.9</ele>
        <time>2020-02-23T13:59:51Z</time>
      </trkpt>
      <trkpt lat="42.94229" lon="0.74503">
        <ele>1230.9</ele>
        <time>2020-02-23T13:59:52Z</time>
      </trkpt>
      <trkpt lat="42.9423" lon="0.74503">
        <ele>1230.8</ele>
        <time>2020-02-23T13:59:53Z</time>
      </trkpt>
      <trkpt lat="42.9423" lon="0.74502">
        <ele>1230.7</ele>
        <time>2020-02-23T13:59:54Z</time>
      </trkpt>
      <trkpt lat="42.94231" lon="0.74501">
        <ele>1230.7</ele>
        <time>2020-02-23T13:59:55Z</time>
      </trkpt>
      <trkpt lat="42.94232" lon="0.745">
        <ele>1230.6</ele>
        <time>2020-02-23T13:59:56Z</time>
      </trkpt>
      <trkpt lat="42.94232" lon="0.74499">
        <ele>1230.5</ele>
        <time>2020-02-23T13:59:57Z</time>
      </trkpt>
      <trkpt lat="42.94233" lon="0.74499">
        <ele>1230.5</ele>
        <time>2020-02-23T13:59:58Z</time>
      </trkpt>
      <trkpt lat="42.94235" lon="0.74499">
        <ele>1230.3</ele>
        <time>2020-02-23T13:59:59Z</time>
      </trkpt>
      <trkpt lat="42.94236" lon="0.74499">
        <ele>1230.2</ele>
        <time>2020-02-23T14:00:00Z</time>
      </trkpt>
      <trkpt lat="42.94238" lon="0.74499">
        <ele>1230.1</ele>
        <time>2020-02-23T14:00:01Z</time>
      </trkpt>
      <trkpt lat="42.94239" lon="0.74499">
        <ele>1229.9</ele>
        <time>2020-02-23T14:00:02Z</time>
      </trkpt>
      <trkpt lat="42.94241" lon="0.74499">
        <ele>1229.7</ele>
        <time>2020-02-23T14:00:03Z</time>
      </trkpt>
      <trkpt lat="42.94243" lon="0.74499">
        <ele>1229.6</ele>
        <time>2020-02-23T14:00:04Z</time>
      </trkpt>
      <trkpt lat="42.94245" lon="0.74499">
        <ele>1229.4</ele>
        <time>2020-02-23T14:00:05Z</time>
      </trkpt>
      <trkpt lat="42.94246" lon="0.74499">
        <ele>1229.2</ele>
        <time>2020-02-23T14:00:06Z</time>
      </trkpt>
      <trkpt lat="42.94248" lon="0.74499">
        <ele>1229.1</ele>
        <time>2020-02-23T14:00:07Z</time>
      </trkpt>
      <trkpt lat="42.9425" lon="0.74499">
        <ele>1228.9</ele>
        <time>2020-02-23T14:00:08Z</time>
      </trkpt>
      <trkpt lat="42.94252" lon="0.74499">
        <ele>1228.7</ele>
        <time>2020-02-23T14:00:09Z</time>
      </trkpt>
      <trkpt lat="42.94253" lon="0.74499">
        <ele>1228.6</ele>
        <time>2020-02-23T14:00:10Z</time>
      </trkpt>
      <trkpt lat="42.94254" lon="0.74499">
        <ele>1228.5</ele>
        <time>2020-02-23T14:00:11Z</time>
      </trkpt>
      <trkpt lat="42.94256" lon="0.74499">
        <ele>1228.4</ele>
        <time>2020-02-23T14:00:12Z</time>
      </trkpt>
      <trkpt lat="42.94257" lon="0.74499">
        <ele>1228.3</ele>
        <time>2020-02-23T14:00:13Z</time>
      </trkpt>
      <trkpt lat="42.94259" lon="0.74499">
        <ele>1228.2</ele>
        <time>2020-02-23T14:00:14Z</time>
      </trkpt>
      <trkpt lat="42.9426" lon="0.74499">
        <ele>1228.1</ele>
        <time>2020-02-23T14:00:15Z</time>
      </trkpt>
      <trkpt lat="42.94261" lon="0.74499">
        <ele>1228</ele>
        <time>2020-02-23T14:00:16Z</time>
      </trkpt>
      <trkpt lat="42.94263" lon="0.74499">
        <ele>1227.9</ele>
        <time>2020-02-23T14:00:17Z</time>
      </trkpt>
      <trkpt lat="42.94264" lon="0.74498">
        <ele>1227.9</ele>
        <time>2020-02-23T14:00:18Z</time>
      </trkpt>
      <trkpt lat="42.94266" lon="0.74498">
        <ele>1227.8</ele>
        <time>2020-02-23T14:00:19Z</time>
      </trkpt>
      <trkpt lat="42.94268" lon="0.74497">
        <ele>1227.7</ele>
        <time>2020-02-23T14:00:20Z</time>
      </trkpt>
      <trkpt lat="42.94269" lon="0.74496">
        <ele>1227.7</ele>
        <time>2020-02-23T14:00:21Z</time>
      </trkpt>
      <trkpt lat="42.94271" lon="0.74496">
        <ele>1227.6</ele>
        <time>2020-02-23T14:00:22Z</time>
      </trkpt>
      <trkpt lat="42.94272" lon="0.74495">
        <ele>1227.6</ele>
        <time>2020-02-23T14:00:23Z</time>
      </trkpt>
      <trkpt lat="42.94274" lon="0.74494">
        <ele>1227.5</ele>
        <time>2020-02-23T14:00:24Z</time>
      </trkpt>
      <trkpt lat="42.94275" lon="0.74492">
        <ele>1227.5</ele>
        <time>2020-02-23T14:00:25Z</time>
      </trkpt>
      <trkpt lat="42.94277" lon="0.74491">
        <ele>1227.4</ele>
        <time>2020-02-23T14:00:26Z</time>
      </trkpt>
      <trkpt lat="42.94278" lon="0.7449">
        <ele>1227.4</ele>
        <time>2020-02-23T14:00:27Z</time>
      </trkpt>
      <trkpt lat="42.9428" lon="0.74489">
        <ele>1227.3</ele>
        <time>2020-02-23T14:00:28Z</time>
      </trkpt>
      <trkpt lat="42.94281" lon="0.74489">
        <ele>1227.3</ele>
        <time>2020-02-23T14:00:29Z</time>
      </trkpt>
      <trkpt lat="42.94282" lon="0.74488">
        <ele>1227.3</ele>
        <time>2020-02-23T14:00:30Z</time>
      </trkpt>
      <trkpt lat="42.94283" lon="0.74488">
        <ele>1227.2</ele>
        <time>2020-02-23T14:00:31Z</time>
      </trkpt>
      <trkpt lat="42.94284" lon="0.74487">
        <ele>1227.2</ele>
        <time>2020-02-23T14:00:32Z</time>
      </trkpt>
      <trkpt lat="42.94285" lon="0.74487">
        <ele>1227.2</ele>
        <time>2020-02-23T14:00:33Z</time>
      </trkpt>
      <trkpt lat="42.94286" lon="0.74486">
        <ele>1227.2</ele>
        <time>2020-02-23T14:00:34Z</time>
      </trkpt>
      <trkpt lat="42.94287" lon="0.74486">
        <ele>1227.1</ele>
        <time>2020-02-23T14:00:35Z</time>
      </trkpt>
      <trkpt lat="42.94288" lon="0.74485">
        <ele>1227.1</ele>
        <time>2020-02-23T14:00:36Z</time>
      </trkpt>
      <trkpt lat="42.94289" lon="0.74485">
        <ele>1227</ele>
        <time>2020-02-23T14:00:37Z</time>
      </trkpt>
      <trkpt lat="42.9429" lon="0.74485">
        <ele>1227</ele>
        <time>2020-02-23T14:00:38Z</time>
      </trkpt>
      <trkpt lat="42.94292" lon="0.74486">
        <ele>1227</ele>
        <time>2020-02-23T14:00:39Z</time>
      </trkpt>
      <trkpt lat="42.94293" lon="0.74486">
        <ele>1226.9</ele>
        <time>2020-02-23T14:00:40Z</time>
      </trkpt>
      <trkpt lat="42.94295" lon="0.74487">
        <ele>1226.9</ele>
        <time>2020-02-23T14:00:41Z</time>
      </trkpt>
      <trkpt lat="42.94296" lon="0.74488">
        <ele>1226.8</ele>
        <time>2020-02-23T14:00:42Z</time>
      </trkpt>
      <trkpt lat="42.94298" lon="0.74488">
        <ele>1226.8</ele>
        <time>2020-02-23T14:00:43Z</time>
      </trkpt>
      <trkpt lat="42.94299" lon="0.74489">
        <ele>1226.7</ele>
        <time>2020-02-23T14:00:44Z</time>
      </trkpt>
      <trkpt lat="42.943" lon="0.74489">
        <ele>1226.7</ele>
        <time>2020-02-23T14:00:45Z</time>
      </trkpt>
      <trkpt lat="42.943" lon="0.74489">
        <ele>1226.7</ele>
        <time>2020-02-23T14:00:46Z</time>
      </trkpt>
      <trkpt lat="42.94302" lon="0.74491">
        <ele>1226.6</ele>
        <time>2020-02-23T14:00:47Z</time>
      </trkpt>
      <trkpt lat="42.94302" lon="0.74491">
        <ele>1226.6</ele>
        <time>2020-02-23T14:00:48Z</time>
      </trkpt>
      <trkpt lat="42.94302" lon="0.74491">
        <ele>1226.6</ele>
        <time>2020-02-23T14:00:49Z</time>
      </trkpt>
      <trkpt lat="42.94304" lon="0.74492">
        <ele>1226.5</ele>
        <time>2020-02-23T14:00:50Z</time>
      </trkpt>
      <trkpt lat="42.94304" lon="0.74492">
        <ele>1226.5</ele>
        <time>2020-02-23T14:00:51Z</time>
      </trkpt>
      <trkpt lat="42.94304" lon="0.74492">
        <ele>1226.5</ele>
        <time>2020-02-23T14:00:52Z</time>
      </trkpt>
      <trkpt lat="42.94305" lon="0.74492">
        <ele>1226.5</ele>
        <time>2020-02-23T14:00:53Z</time>
      </trkpt>
      <trkpt lat="42.94305" lon="0.74492">
        <ele>1226.5</ele>
        <time>2020-02-23T14:00:54Z</time>
      </trkpt>
      <trkpt lat="42.94306" lon="0.74492">
        <ele>1226.5</ele>
        <time>2020-02-23T14:00:55Z</time>
      </trkpt>
      <trkpt lat="42.94306" lon="0.74492">
        <ele>1226.4</ele>
        <time>2020-02-23T14:00:56Z</time>
      </trkpt>
      <trkpt lat="42.94307" lon="0.74492">
        <ele>1226.4</ele>
        <time>2020-02-23T14:00:57Z</time>
      </trkpt>
      <trkpt lat="42.94307" lon="0.74491">
        <ele>1226.4</ele>
        <time>2020-02-23T14:00:58Z</time>
      </trkpt>
      <trkpt lat="42.94307" lon="0.74491">
        <ele>1226.4</ele>
        <time>2020-02-23T14:00:59Z</time>
      </trkpt>
      <trkpt lat="42.94308" lon="0.74491">
        <ele>1226.4</ele>
        <time>2020-02-23T14:01:00Z</time>
      </trkpt>
      <trkpt lat="42.94308" lon="0.74491">
        <ele>1226.3</ele>
        <time>2020-02-23T14:01:01Z</time>
      </trkpt>
      <trkpt lat="42.94308" lon="0.74491">
        <ele>1226.3</ele>
        <time>2020-02-23T14:01:02Z</time>
      </trkpt>
      <trkpt lat="42.94308" lon="0.74491">
        <ele>1226.3</ele>
        <time>2020-02-23T14:01:03Z</time>
      </trkpt>
      <trkpt lat="42.9431" lon="0.7449">
        <ele>1226.2</ele>
        <time>2020-02-23T14:01:04Z</time>
      </trkpt>
      <trkpt lat="42.9431" lon="0.7449">
        <ele>1226.2</ele>
        <time>2020-02-23T14:01:05Z</time>
      </trkpt>
      <trkpt lat="42.94311" lon="0.7449">
        <ele>1226.2</ele>
        <time>2020-02-23T14:01:06Z</time>
      </trkpt>
      <trkpt lat="42.94312" lon="0.74491">
        <ele>1226.1</ele>
        <time>2020-02-23T14:01:07Z</time>
      </trkpt>
      <trkpt lat="42.94313" lon="0.74491">
        <ele>1226.1</ele>
        <time>2020-02-23T14:01:08Z</time>
      </trkpt>
      <trkpt lat="42.94314" lon="0.74491">
        <ele>1226</ele>
        <time>2020-02-23T14:01:09Z</time>
      </trkpt>
      <trkpt lat="42.94315" lon="0.74491">
        <ele>1226</ele>
        <time>2020-02-23T14:01:10Z</time>
      </trkpt>
      <trkpt lat="42.94316" lon="0.74492">
        <ele>1225.9</ele>
        <time>2020-02-23T14:01:11Z</time>
      </trkpt>
      <trkpt lat="42.94317" lon="0.74492">
        <ele>1225.9</ele>
        <time>2020-02-23T14:01:12Z</time>
      </trkpt>
      <trkpt lat="42.94318" lon="0.74492">
        <ele>1225.8</ele>
        <time>2020-02-23T14:01:13Z</time>
      </trkpt>
      <trkpt lat="42.94319" lon="0.74493">
        <ele>1225.8</ele>
        <time>2020-02-23T14:01:14Z</time>
      </trkpt>
      <trkpt lat="42.9432" lon="0.74493">
        <ele>1225.7</ele>
        <time>2020-02-23T14:01:15Z</time>
      </trkpt>
      <trkpt lat="42.94321" lon="0.74494">
        <ele>1225.6</ele>
        <time>2020-02-23T14:01:16Z</time>
      </trkpt>
      <trkpt lat="42.94323" lon="0.74495">
        <ele>1225.5</ele>
        <time>2020-02-23T14:01:17Z</time>
      </trkpt>
      <trkpt lat="42.94324" lon="0.74496">
        <ele>1225.3</ele>
        <time>2020-02-23T14:01:18Z</time>
      </trkpt>
      <trkpt lat="42.94325" lon="0.74497">
        <ele>1225.2</ele>
        <time>2020-02-23T14:01:19Z</time>
      </trkpt>
      <trkpt lat="42.94327" lon="0.74498">
        <ele>1225.1</ele>
        <time>2020-02-23T14:01:20Z</time>
      </trkpt>
      <trkpt lat="42.94328" lon="0.745">
        <ele>1224.9</ele>
        <time>2020-02-23T14:01:21Z</time>
      </trkpt>
      <trkpt lat="42.9433" lon="0.74501">
        <ele>1224.8</ele>
        <time>2020-02-23T14:01:22Z</time>
      </trkpt>
      <trkpt lat="42.94332" lon="0.74502">
        <ele>1224.6</ele>
        <time>2020-02-23T14:01:23Z</time>
      </trkpt>
      <trkpt lat="42.94334" lon="0.74504">
        <ele>1224.4</ele>
        <time>2020-02-23T14:01:24Z</time>
      </trkpt>
      <trkpt lat="42.94336" lon="0.74505">
        <ele>1224.2</ele>
        <time>2020-02-23T14:01:25Z</time>
      </trkpt>
      <trkpt lat="42.94338" lon="0.74506">
        <ele>1224</ele>
        <time>2020-02-23T14:01:26Z</time>
      </trkpt>
      <trkpt lat="42.9434" lon="0.74508">
        <ele>1223.8</ele>
        <time>2020-02-23T14:01:27Z</time>
      </trkpt>
      <trkpt lat="42.94342" lon="0.7451">
        <ele>1223.6</ele>
        <time>2020-02-23T14:01:28Z</time>
      </trkpt>
      <trkpt lat="42.94344" lon="0.74513">
        <ele>1223.4</ele>
        <time>2020-02-23T14:01:29Z</time>
      </trkpt>
      <trkpt lat="42.94346" lon="0.74515">
        <ele>1223.2</ele>
        <time>2020-02-23T14:01:30Z</time>
      </trkpt>
      <trkpt lat="42.94348" lon="0.74517">
        <ele>1223</ele>
        <time>2020-02-23T14:01:31Z</time>
      </trkpt>
      <trkpt lat="42.9435" lon="0.74519">
        <ele>1222.8</ele>
        <time>2020-02-23T14:01:32Z</time>
      </trkpt>
      <trkpt lat="42.94352" lon="0.74521">
        <ele>1222.7</ele>
        <time>2020-02-23T14:01:33Z</time>
      </trkpt>
      <trkpt lat="42.94354" lon="0.74523">
        <ele>1222.5</ele>
        <time>2020-02-23T14:01:34Z</time>
      </trkpt>
      <trkpt lat="42.94356" lon="0.74525">
        <ele>1222.4</ele>
        <time>2020-02-23T14:01:35Z</time>
      </trkpt>
      <trkpt lat="42.94358" lon="0.74526">
        <ele>1222.2</ele>
        <time>2020-02-23T14:01:36Z</time>
      </trkpt>
      <trkpt lat="42.94361" lon="0.74528">
        <ele>1222.1</ele>
        <time>2020-02-23T14:01:37Z</time>
      </trkpt>
      <trkpt lat="42.94363" lon="0.7453">
        <ele>1222</ele>
        <time>2020-02-23T14:01:38Z</time>
      </trkpt>
      <trkpt lat="42.94365" lon="0.74531">
        <ele>1221.9</ele>
        <time>2020-02-23T14:01:39Z</time>
      </trkpt>
      <trkpt lat="42.94367" lon="0.74533">
        <ele>1221.9</ele>
        <time>2020-02-23T14:01:40Z</time>
      </trkpt>
      <trkpt lat="42.94369" lon="0.74534">
        <ele>1221.8</ele>
        <time>2020-02-23T14:01:41Z</time>
      </trkpt>
      <trkpt lat="42.9437" lon="0.74535">
        <ele>1221.7</ele>
        <time>2020-02-23T14:01:42Z</time>
      </trkpt>
      <trkpt lat="42.94372" lon="0.74537">
        <ele>1221.6</ele>
        <time>2020-02-23T14:01:43Z</time>
      </trkpt>
      <trkpt lat="42.94375" lon="0.74538">
        <ele>1221.6</ele>
        <time>2020-02-23T14:01:44Z</time>
      </trkpt>
      <trkpt lat="42.94377" lon="0.74539">
        <ele>1221.5</ele>
        <time>2020-02-23T14:01:45Z</time>
      </trkpt>
      <trkpt lat="42.94379" lon="0.7454">
        <ele>1221.5</ele>
        <time>2020-02-23T14:01:46Z</time>
      </trkpt>
      <trkpt lat="42.94381" lon="0.74541">
        <ele>1221.4</ele>
        <time>2020-02-23T14:01:47Z</time>
      </trkpt>
      <trkpt lat="42.94383" lon="0.74541">
        <ele>1221.3</ele>
        <time>2020-02-23T14:01:48Z</time>
      </trkpt>
      <trkpt lat="42.94385" lon="0.74542">
        <ele>1221.3</ele>
        <time>2020-02-23T14:01:49Z</time>
      </trkpt>
      <trkpt lat="42.94387" lon="0.74543">
        <ele>1221.2</ele>
        <time>2020-02-23T14:01:50Z</time>
      </trkpt>
      <trkpt lat="42.94389" lon="0.74543">
        <ele>1221.2</ele>
        <time>2020-02-23T14:01:51Z</time>
      </trkpt>
      <trkpt lat="42.9439" lon="0.74544">
        <ele>1221.1</ele>
        <time>2020-02-23T14:01:52Z</time>
      </trkpt>
      <trkpt lat="42.94392" lon="0.74544">
        <ele>1221.1</ele>
        <time>2020-02-23T14:01:53Z</time>
      </trkpt>
      <trkpt lat="42.94393" lon="0.74545">
        <ele>1221.1</ele>
        <time>2020-02-23T14:01:54Z</time>
      </trkpt>
      <trkpt lat="42.94394" lon="0.74545">
        <ele>1221.1</ele>
        <time>2020-02-23T14:01:55Z</time>
      </trkpt>
      <trkpt lat="42.94395" lon="0.74545">
        <ele>1221</ele>
        <time>2020-02-23T14:01:56Z</time>
      </trkpt>
      <trkpt lat="42.94396" lon="0.74545">
        <ele>1221</ele>
        <time>2020-02-23T14:01:57Z</time>
      </trkpt>
      <trkpt lat="42.94397" lon="0.74546">
        <ele>1221</ele>
        <time>2020-02-23T14:01:58Z</time>
      </trkpt>
      <trkpt lat="42.94398" lon="0.74546">
        <ele>1220.9</ele>
        <time>2020-02-23T14:01:59Z</time>
      </trkpt>
      <trkpt lat="42.94399" lon="0.74546">
        <ele>1220.9</ele>
        <time>2020-02-23T14:02:00Z</time>
      </trkpt>
      <trkpt lat="42.944" lon="0.74546">
        <ele>1220.9</ele>
        <time>2020-02-23T14:02:01Z</time>
      </trkpt>
      <trkpt lat="42.94401" lon="0.74545">
        <ele>1220.8</ele>
        <time>2020-02-23T14:02:02Z</time>
      </trkpt>
      <trkpt lat="42.94402" lon="0.74545">
        <ele>1220.8</ele>
        <time>2020-02-23T14:02:03Z</time>
      </trkpt>
      <trkpt lat="42.94402" lon="0.74544">
        <ele>1220.8</ele>
        <time>2020-02-23T14:02:04Z</time>
      </trkpt>
      <trkpt lat="42.94403" lon="0.74544">
        <ele>1220.8</ele>
        <time>2020-02-23T14:02:05Z</time>
      </trkpt>
      <trkpt lat="42.94404" lon="0.74543">
        <ele>1220.7</ele>
        <time>2020-02-23T14:02:06Z</time>
      </trkpt>
      <trkpt lat="42.94405" lon="0.74543">
        <ele>1220.7</ele>
        <time>2020-02-23T14:02:07Z</time>
      </trkpt>
      <trkpt lat="42.94406" lon="0.74542">
        <ele>1220.7</ele>
        <time>2020-02-23T14:02:08Z</time>
      </trkpt>
      <trkpt lat="42.94406" lon="0.74542">
        <ele>1220.7</ele>
        <time>2020-02-23T14:02:09Z</time>
      </trkpt>
      <trkpt lat="42.94407" lon="0.74541">
        <ele>1220.6</ele>
        <time>2020-02-23T14:02:10Z</time>
      </trkpt>
      <trkpt lat="42.94408" lon="0.74541">
        <ele>1220.6</ele>
        <time>2020-02-23T14:02:11Z</time>
      </trkpt>
      <trkpt lat="42.9441" lon="0.7454">
        <ele>1220.5</ele>
        <time>2020-02-23T14:02:12Z</time>
      </trkpt>
      <trkpt lat="42.9441" lon="0.7454">
        <ele>1220.5</ele>
        <time>2020-02-23T14:02:13Z</time>
      </trkpt>
      <trkpt lat="42.94412" lon="0.74539">
        <ele>1220.5</ele>
        <time>2020-02-23T14:02:14Z</time>
      </trkpt>
      <trkpt lat="42.94413" lon="0.74538">
        <ele>1220.4</ele>
        <time>2020-02-23T14:02:15Z</time>
      </trkpt>
      <trkpt lat="42.94415" lon="0.74537">
        <ele>1220.4</ele>
        <time>2020-02-23T14:02:16Z</time>
      </trkpt>
      <trkpt lat="42.94416" lon="0.74536">
        <ele>1220.3</ele>
        <time>2020-02-23T14:02:17Z</time>
      </trkpt>
      <trkpt lat="42.94418" lon="0.74535">
        <ele>1220.2</ele>
        <time>2020-02-23T14:02:18Z</time>
      </trkpt>
      <trkpt lat="42.9442" lon="0.74534">
        <ele>1220.2</ele>
        <time>2020-02-23T14:02:19Z</time>
      </trkpt>
      <trkpt lat="42.94421" lon="0.74533">
        <ele>1220.1</ele>
        <time>2020-02-23T14:02:20Z</time>
      </trkpt>
      <trkpt lat="42.94423" lon="0.74532">
        <ele>1220</ele>
        <time>2020-02-23T14:02:21Z</time>
      </trkpt>
      <trkpt lat="42.94425" lon="0.74531">
        <ele>1219.9</ele>
        <time>2020-02-23T14:02:22Z</time>
      </trkpt>
      <trkpt lat="42.94427" lon="0.7453">
        <ele>1219.9</ele>
        <time>2020-02-23T14:02:23Z</time>
      </trkpt>
      <trkpt lat="42.94428" lon="0.74529">
        <ele>1219.7</ele>
        <time>2020-02-23T14:02:24Z</time>
      </trkpt>
      <trkpt lat="42.9443" lon="0.74528">
        <ele>1219.6</ele>
        <time>2020-02-23T14:02:25Z</time>
      </trkpt>
      <trkpt lat="42.94431" lon="0.74527">
        <ele>1219.5</ele>
        <time>2020-02-23T14:02:26Z</time>
      </trkpt>
      <trkpt lat="42.94432" lon="0.74526">
        <ele>1219.5</ele>
        <time>2020-02-23T14:02:27Z</time>
      </trkpt>
      <trkpt lat="42.94433" lon="0.74526">
        <ele>1219.4</ele>
        <time>2020-02-23T14:02:28Z</time>
      </trkpt>
      <trkpt lat="42.94434" lon="0.74525">
        <ele>1219.3</ele>
        <time>2020-02-23T14:02:29Z</time>
      </trkpt>
      <trkpt lat="42.94436" lon="0.74524">
        <ele>1219.2</ele>
        <time>2020-02-23T14:02:30Z</time>
      </trkpt>
      <trkpt lat="42.94437" lon="0.74523">
        <ele>1219.1</ele>
        <time>2020-02-23T14:02:31Z</time>
      </trkpt>
      <trkpt lat="42.94437" lon="0.74522">
        <ele>1219</ele>
        <time>2020-02-23T14:02:32Z</time>
      </trkpt>
      <trkpt lat="42.94438" lon="0.74522">
        <ele>1218.9</ele>
        <time>2020-02-23T14:02:33Z</time>
      </trkpt>
      <trkpt lat="42.94438" lon="0.74521">
        <ele>1218.9</ele>
        <time>2020-02-23T14:02:34Z</time>
      </trkpt>
      <trkpt lat="42.94439" lon="0.7452">
        <ele>1218.8</ele>
        <time>2020-02-23T14:02:35Z</time>
      </trkpt>
      <trkpt lat="42.94439" lon="0.74519">
        <ele>1218.8</ele>
        <time>2020-02-23T14:02:36Z</time>
      </trkpt>
      <trkpt lat="42.9444" lon="0.74518">
        <ele>1218.7</ele>
        <time>2020-02-23T14:02:37Z</time>
      </trkpt>
      <trkpt lat="42.9444" lon="0.74517">
        <ele>1218.7</ele>
        <time>2020-02-23T14:02:38Z</time>
      </trkpt>
      <trkpt lat="42.94441" lon="0.74517">
        <ele>1218.6</ele>
        <time>2020-02-23T14:02:39Z</time>
      </trkpt>
      <trkpt lat="42.94441" lon="0.74516">
        <ele>1218.5</ele>
        <time>2020-02-23T14:02:40Z</time>
      </trkpt>
      <trkpt lat="42.94442" lon="0.74515">
        <ele>1218.4</ele>
        <time>2020-02-23T14:02:41Z</time>
      </trkpt>
      <trkpt lat="42.94442" lon="0.74514">
        <ele>1218.3</ele>
        <time>2020-02-23T14:02:42Z</time>
      </trkpt>
      <trkpt lat="42.94443" lon="0.74513">
        <ele>1218.3</ele>
        <time>2020-02-23T14:02:43Z</time>
      </trkpt>
      <trkpt lat="42.94444" lon="0.74512">
        <ele>1218.2</ele>
        <time>2020-02-23T14:02:44Z</time>
      </trkpt>
      <trkpt lat="42.94445" lon="0.74511">
        <ele>1218.1</ele>
        <time>2020-02-23T14:02:45Z</time>
      </trkpt>
      <trkpt lat="42.94445" lon="0.74509">
        <ele>1218</ele>
        <time>2020-02-23T14:02:46Z</time>
      </trkpt>
      <trkpt lat="42.94446" lon="0.74508">
        <ele>1217.9</ele>
        <time>2020-02-23T14:02:47Z</time>
      </trkpt>
      <trkpt lat="42.94447" lon="0.74507">
        <ele>1217.8</ele>
        <time>2020-02-23T14:02:48Z</time>
      </trkpt>
      <trkpt lat="42.94448" lon="0.74505">
        <ele>1217.6</ele>
        <time>2020-02-23T14:02:49Z</time>
      </trkpt>
      <trkpt lat="42.94449" lon="0.74504">
        <ele>1217.5</ele>
        <time>2020-02-23T14:02:50Z</time>
      </trkpt>
      <trkpt lat="42.9445" lon="0.74503">
        <ele>1217.4</ele>
        <time>2020-02-23T14:02:51Z</time>
      </trkpt>
      <trkpt lat="42.94451" lon="0.74501">
        <ele>1217.3</ele>
        <time>2020-02-23T14:02:52Z</time>
      </trkpt>
      <trkpt lat="42.94451" lon="0.74501">
        <ele>1217.3</ele>
        <time>2020-02-23T14:02:53Z</time>
      </trkpt>
      <trkpt lat="42.94451" lon="0.74501">
        <ele>1217.3</ele>
        <time>2020-02-23T14:02:54Z</time>
      </trkpt>
      <trkpt lat="42.94451" lon="0.745">
        <ele>1217.3</ele>
        <time>2020-02-23T14:02:55Z</time>
      </trkpt>
      <trkpt lat="42.94452" lon="0.745">
        <ele>1217.2</ele>
        <time>2020-02-23T14:02:56Z</time>
      </trkpt>
      <trkpt lat="42.94452" lon="0.74499">
        <ele>1217.1</ele>
        <time>2020-02-23T14:02:57Z</time>
      </trkpt>
      <trkpt lat="42.94453" lon="0.74498">
        <ele>1217</ele>
        <time>2020-02-23T14:02:58Z</time>
      </trkpt>
      <trkpt lat="42.94453" lon="0.74497">
        <ele>1216.9</ele>
        <time>2020-02-23T14:02:59Z</time>
      </trkpt>
      <trkpt lat="42.94454" lon="0.74496">
        <ele>1216.9</ele>
        <time>2020-02-23T14:03:00Z</time>
      </trkpt>
      <trkpt lat="42.94454" lon="0.74495">
        <ele>1216.8</ele>
        <time>2020-02-23T14:03:01Z</time>
      </trkpt>
      <trkpt lat="42.94454" lon="0.74495">
        <ele>1216.8</ele>
        <time>2020-02-23T14:03:02Z</time>
      </trkpt>
      <trkpt lat="42.94456" lon="0.74494">
        <ele>1216.6</ele>
        <time>2020-02-23T14:03:03Z</time>
      </trkpt>
      <trkpt lat="42.94456" lon="0.74494">
        <ele>1216.6</ele>
        <time>2020-02-23T14:03:04Z</time>
      </trkpt>
      <trkpt lat="42.94459" lon="0.74495">
        <ele>1216.4</ele>
        <time>2020-02-23T14:03:05Z</time>
      </trkpt>
      <trkpt lat="42.94459" lon="0.74495">
        <ele>1216.4</ele>
        <time>2020-02-23T14:03:06Z</time>
      </trkpt>
      <trkpt lat="42.94459" lon="0.74495">
        <ele>1216.4</ele>
        <time>2020-02-23T14:03:07Z</time>
      </trkpt>
      <trkpt lat="42.94459" lon="0.74495">
        <ele>1216.4</ele>
        <time>2020-02-23T14:03:08Z</time>
      </trkpt>
      <trkpt lat="42.94461" lon="0.74492">
        <ele>1216.2</ele>
        <time>2020-02-23T14:03:09Z</time>
      </trkpt>
      <trkpt lat="42.94461" lon="0.74492">
        <ele>1216.2</ele>
        <time>2020-02-23T14:03:10Z</time>
      </trkpt>
      <trkpt lat="42.94464" lon="0.74492">
        <ele>1216</ele>
        <time>2020-02-23T14:03:11Z</time>
      </trkpt>
      <trkpt lat="42.94464" lon="0.74492">
        <ele>1215.9</ele>
        <time>2020-02-23T14:03:12Z</time>
      </trkpt>
      <trkpt lat="42.94466" lon="0.74492">
        <ele>1215.8</ele>
        <time>2020-02-23T14:03:13Z</time>
      </trkpt>
      <trkpt lat="42.94467" lon="0.74492">
        <ele>1215.6</ele>
        <time>2020-02-23T14:03:14Z</time>
      </trkpt>
      <trkpt lat="42.94469" lon="0.74492">
        <ele>1215.5</ele>
        <time>2020-02-23T14:03:15Z</time>
      </trkpt>
      <trkpt lat="42.9447" lon="0.74492">
        <ele>1215.4</ele>
        <time>2020-02-23T14:03:16Z</time>
      </trkpt>
      <trkpt lat="42.94472" lon="0.74492">
        <ele>1215.3</ele>
        <time>2020-02-23T14:03:17Z</time>
      </trkpt>
      <trkpt lat="42.94473" lon="0.74491">
        <ele>1215.2</ele>
        <time>2020-02-23T14:03:18Z</time>
      </trkpt>
      <trkpt lat="42.94475" lon="0.74491">
        <ele>1215.1</ele>
        <time>2020-02-23T14:03:19Z</time>
      </trkpt>
      <trkpt lat="42.94477" lon="0.74491">
        <ele>1214.9</ele>
        <time>2020-02-23T14:03:20Z</time>
      </trkpt>
      <trkpt lat="42.94478" lon="0.74491">
        <ele>1214.8</ele>
        <time>2020-02-23T14:03:21Z</time>
      </trkpt>
      <trkpt lat="42.9448" lon="0.74491">
        <ele>1214.8</ele>
        <time>2020-02-23T14:03:22Z</time>
      </trkpt>
      <trkpt lat="42.94482" lon="0.7449">
        <ele>1214.6</ele>
        <time>2020-02-23T14:03:23Z</time>
      </trkpt>
      <trkpt lat="42.94483" lon="0.7449">
        <ele>1214.5</ele>
        <time>2020-02-23T14:03:24Z</time>
      </trkpt>
      <trkpt lat="42.94485" lon="0.7449">
        <ele>1214.4</ele>
        <time>2020-02-23T14:03:25Z</time>
      </trkpt>
      <trkpt lat="42.94486" lon="0.74489">
        <ele>1214.3</ele>
        <time>2020-02-23T14:03:26Z</time>
      </trkpt>
      <trkpt lat="42.94488" lon="0.74489">
        <ele>1214.3</ele>
        <time>2020-02-23T14:03:27Z</time>
      </trkpt>
      <trkpt lat="42.94489" lon="0.74489">
        <ele>1214.2</ele>
        <time>2020-02-23T14:03:28Z</time>
      </trkpt>
      <trkpt lat="42.94491" lon="0.74488">
        <ele>1214.1</ele>
        <time>2020-02-23T14:03:29Z</time>
      </trkpt>
      <trkpt lat="42.94492" lon="0.74488">
        <ele>1214</ele>
        <time>2020-02-23T14:03:30Z</time>
      </trkpt>
      <trkpt lat="42.94494" lon="0.74488">
        <ele>1213.9</ele>
        <time>2020-02-23T14:03:31Z</time>
      </trkpt>
      <trkpt lat="42.94496" lon="0.74487">
        <ele>1213.8</ele>
        <time>2020-02-23T14:03:32Z</time>
      </trkpt>
      <trkpt lat="42.94498" lon="0.74487">
        <ele>1213.8</ele>
        <time>2020-02-23T14:03:33Z</time>
      </trkpt>
      <trkpt lat="42.94499" lon="0.74487">
        <ele>1213.7</ele>
        <time>2020-02-23T14:03:34Z</time>
      </trkpt>
      <trkpt lat="42.94501" lon="0.74487">
        <ele>1213.7</ele>
        <time>2020-02-23T14:03:35Z</time>
      </trkpt>
      <trkpt lat="42.94503" lon="0.74487">
        <ele>1213.5</ele>
        <time>2020-02-23T14:03:36Z</time>
      </trkpt>
      <trkpt lat="42.94505" lon="0.74487">
        <ele>1213.5</ele>
        <time>2020-02-23T14:03:37Z</time>
      </trkpt>
      <trkpt lat="42.94506" lon="0.74487">
        <ele>1213.4</ele>
        <time>2020-02-23T14:03:38Z</time>
      </trkpt>
      <trkpt lat="42.94507" lon="0.74487">
        <ele>1213.4</ele>
        <time>2020-02-23T14:03:39Z</time>
      </trkpt>
      <trkpt lat="42.94508" lon="0.74487">
        <ele>1213.4</ele>
        <time>2020-02-23T14:03:40Z</time>
      </trkpt>
      <trkpt lat="42.94509" lon="0.74487">
        <ele>1213.3</ele>
        <time>2020-02-23T14:03:41Z</time>
      </trkpt>
      <trkpt lat="42.94511" lon="0.74487">
        <ele>1213.3</ele>
        <time>2020-02-23T14:03:42Z</time>
      </trkpt>
      <trkpt lat="42.94512" lon="0.74487">
        <ele>1213.3</ele>
        <time>2020-02-23T14:03:43Z</time>
      </trkpt>
      <trkpt lat="42.94513" lon="0.74487">
        <ele>1213.2</ele>
        <time>2020-02-23T14:03:44Z</time>
      </trkpt>
      <trkpt lat="42.94515" lon="0.74487">
        <ele>1213.2</ele>
        <time>2020-02-23T14:03:45Z</time>
      </trkpt>
      <trkpt lat="42.94516" lon="0.74486">
        <ele>1213.2</ele>
        <time>2020-02-23T14:03:46Z</time>
      </trkpt>
      <trkpt lat="42.94518" lon="0.74486">
        <ele>1213.1</ele>
        <time>2020-02-23T14:03:47Z</time>
      </trkpt>
      <trkpt lat="42.94519" lon="0.74486">
        <ele>1213</ele>
        <time>2020-02-23T14:03:48Z</time>
      </trkpt>
      <trkpt lat="42.94521" lon="0.74486">
        <ele>1212.9</ele>
        <time>2020-02-23T14:03:49Z</time>
      </trkpt>
      <trkpt lat="42.94523" lon="0.74485">
        <ele>1212.9</ele>
        <time>2020-02-23T14:03:50Z</time>
      </trkpt>
      <trkpt lat="42.94524" lon="0.74485">
        <ele>1212.9</ele>
        <time>2020-02-23T14:03:51Z</time>
      </trkpt>
      <trkpt lat="42.94524" lon="0.74485">
        <ele>1212.9</ele>
        <time>2020-02-23T14:03:52Z</time>
      </trkpt>
      <trkpt lat="42.94524" lon="0.74485">
        <ele>1212.9</ele>
        <time>2020-02-23T14:03:53Z</time>
      </trkpt>
      <trkpt lat="42.94525" lon="0.74485">
        <ele>1212.8</ele>
        <time>2020-02-23T14:03:54Z</time>
      </trkpt>
      <trkpt lat="42.94527" lon="0.74485">
        <ele>1212.8</ele>
        <time>2020-02-23T14:03:55Z</time>
      </trkpt>
      <trkpt lat="42.94528" lon="0.74485">
        <ele>1212.8</ele>
        <time>2020-02-23T14:03:56Z</time>
      </trkpt>
      <trkpt lat="42.94529" lon="0.74485">
        <ele>1212.7</ele>
        <time>2020-02-23T14:03:57Z</time>
      </trkpt>
      <trkpt lat="42.9453" lon="0.74485">
        <ele>1212.7</ele>
        <time>2020-02-23T14:03:58Z</time>
      </trkpt>
      <trkpt lat="42.94531" lon="0.74485">
        <ele>1212.6</ele>
        <time>2020-02-23T14:03:59Z</time>
      </trkpt>
      <trkpt lat="42.94533" lon="0.74485">
        <ele>1212.6</ele>
        <time>2020-02-23T14:04:00Z</time>
      </trkpt>
      <trkpt lat="42.94534" lon="0.74485">
        <ele>1212.5</ele>
        <time>2020-02-23T14:04:01Z</time>
      </trkpt>
      <trkpt lat="42.94535" lon="0.74485">
        <ele>1212.5</ele>
        <time>2020-02-23T14:04:02Z</time>
      </trkpt>
      <trkpt lat="42.94536" lon="0.74485">
        <ele>1212.5</ele>
        <time>2020-02-23T14:04:03Z</time>
      </trkpt>
      <trkpt lat="42.94538" lon="0.74485">
        <ele>1212.4</ele>
        <time>2020-02-23T14:04:04Z</time>
      </trkpt>
      <trkpt lat="42.94539" lon="0.74485">
        <ele>1212.4</ele>
        <time>2020-02-23T14:04:05Z</time>
      </trkpt>
      <trkpt lat="42.9454" lon="0.74485">
        <ele>1212.4</ele>
        <time>2020-02-23T14:04:06Z</time>
      </trkpt>
      <trkpt lat="42.94541" lon="0.74486">
        <ele>1212.4</ele>
        <time>2020-02-23T14:04:07Z</time>
      </trkpt>
      <trkpt lat="42.94542" lon="0.74486">
        <ele>1212.3</ele>
        <time>2020-02-23T14:04:08Z</time>
      </trkpt>
      <trkpt lat="42.94542" lon="0.74486">
        <ele>1212.3</ele>
        <time>2020-02-23T14:04:09Z</time>
      </trkpt>
      <trkpt lat="42.94543" lon="0.74486">
        <ele>1212.3</ele>
        <time>2020-02-23T14:04:10Z</time>
      </trkpt>
      <trkpt lat="42.94544" lon="0.74487">
        <ele>1212.3</ele>
        <time>2020-02-23T14:04:11Z</time>
      </trkpt>
      <trkpt lat="42.94545" lon="0.74487">
        <ele>1212.3</ele>
        <time>2020-02-23T14:04:12Z</time>
      </trkpt>
      <trkpt lat="42.94546" lon="0.74487">
        <ele>1212.2</ele>
        <time>2020-02-23T14:04:13Z</time>
      </trkpt>
      <trkpt lat="42.94548" lon="0.74488">
        <ele>1212.1</ele>
        <time>2020-02-23T14:04:14Z</time>
      </trkpt>
      <trkpt lat="42.94548" lon="0.74488">
        <ele>1212.1</ele>
        <time>2020-02-23T14:04:15Z</time>
      </trkpt>
      <trkpt lat="42.9455" lon="0.74489">
        <ele>1212.1</ele>
        <time>2020-02-23T14:04:16Z</time>
      </trkpt>
      <trkpt lat="42.94551" lon="0.7449">
        <ele>1212</ele>
        <time>2020-02-23T14:04:17Z</time>
      </trkpt>
      <trkpt lat="42.94552" lon="0.7449">
        <ele>1212</ele>
        <time>2020-02-23T14:04:18Z</time>
      </trkpt>
      <trkpt lat="42.94554" lon="0.74491">
        <ele>1212</ele>
        <time>2020-02-23T14:04:19Z</time>
      </trkpt>
      <trkpt lat="42.94555" lon="0.74492">
        <ele>1211.9</ele>
        <time>2020-02-23T14:04:20Z</time>
      </trkpt>
      <trkpt lat="42.94556" lon="0.74492">
        <ele>1211.8</ele>
        <time>2020-02-23T14:04:21Z</time>
      </trkpt>
      <trkpt lat="42.94558" lon="0.74493">
        <ele>1211.8</ele>
        <time>2020-02-23T14:04:22Z</time>
      </trkpt>
      <trkpt lat="42.94559" lon="0.74494">
        <ele>1211.7</ele>
        <time>2020-02-23T14:04:23Z</time>
      </trkpt>
      <trkpt lat="42.94561" lon="0.74494">
        <ele>1211.6</ele>
        <time>2020-02-23T14:04:24Z</time>
      </trkpt>
      <trkpt lat="42.94563" lon="0.74495">
        <ele>1211.6</ele>
        <time>2020-02-23T14:04:25Z</time>
      </trkpt>
      <trkpt lat="42.94564" lon="0.74496">
        <ele>1211.5</ele>
        <time>2020-02-23T14:04:26Z</time>
      </trkpt>
      <trkpt lat="42.94564" lon="0.74496">
        <ele>1211.5</ele>
        <time>2020-02-23T14:04:27Z</time>
      </trkpt>
      <trkpt lat="42.94564" lon="0.74496">
        <ele>1211.5</ele>
        <time>2020-02-23T14:04:28Z</time>
      </trkpt>
      <trkpt lat="42.94566" lon="0.74496">
        <ele>1211.5</ele>
        <time>2020-02-23T14:04:29Z</time>
      </trkpt>
      <trkpt lat="42.94567" lon="0.74496">
        <ele>1211.4</ele>
        <time>2020-02-23T14:04:30Z</time>
      </trkpt>
      <trkpt lat="42.94568" lon="0.74496">
        <ele>1211.4</ele>
        <time>2020-02-23T14:04:31Z</time>
      </trkpt>
      <trkpt lat="42.94569" lon="0.74497">
        <ele>1211.3</ele>
        <time>2020-02-23T14:04:32Z</time>
      </trkpt>
      <trkpt lat="42.94569" lon="0.74497">
        <ele>1211.3</ele>
        <time>2020-02-23T14:04:33Z</time>
      </trkpt>
      <trkpt lat="42.94572" lon="0.74498">
        <ele>1211.1</ele>
        <time>2020-02-23T14:04:34Z</time>
      </trkpt>
      <trkpt lat="42.94572" lon="0.74498">
        <ele>1211.1</ele>
        <time>2020-02-23T14:04:35Z</time>
      </trkpt>
      <trkpt lat="42.94573" lon="0.74499">
        <ele>1211.1</ele>
        <time>2020-02-23T14:04:36Z</time>
      </trkpt>
      <trkpt lat="42.94575" lon="0.74499">
        <ele>1211</ele>
        <time>2020-02-23T14:04:37Z</time>
      </trkpt>
      <trkpt lat="42.94576" lon="0.74499">
        <ele>1210.9</ele>
        <time>2020-02-23T14:04:38Z</time>
      </trkpt>
      <trkpt lat="42.94578" lon="0.745">
        <ele>1210.8</ele>
        <time>2020-02-23T14:04:39Z</time>
      </trkpt>
      <trkpt lat="42.94579" lon="0.745">
        <ele>1210.7</ele>
        <time>2020-02-23T14:04:40Z</time>
      </trkpt>
      <trkpt lat="42.94581" lon="0.74501">
        <ele>1210.6</ele>
        <time>2020-02-23T14:04:41Z</time>
      </trkpt>
      <trkpt lat="42.94582" lon="0.74501">
        <ele>1210.6</ele>
        <time>2020-02-23T14:04:42Z</time>
      </trkpt>
      <trkpt lat="42.94584" lon="0.74501">
        <ele>1210.5</ele>
        <time>2020-02-23T14:04:43Z</time>
      </trkpt>
      <trkpt lat="42.94585" lon="0.74501">
        <ele>1210.4</ele>
        <time>2020-02-23T14:04:44Z</time>
      </trkpt>
      <trkpt lat="42.94587" lon="0.74501">
        <ele>1210.3</ele>
        <time>2020-02-23T14:04:45Z</time>
      </trkpt>
      <trkpt lat="42.94588" lon="0.74502">
        <ele>1210.3</ele>
        <time>2020-02-23T14:04:46Z</time>
      </trkpt>
      <trkpt lat="42.9459" lon="0.74502">
        <ele>1210.2</ele>
        <time>2020-02-23T14:04:47Z</time>
      </trkpt>
      <trkpt lat="42.94591" lon="0.74502">
        <ele>1210.1</ele>
        <time>2020-02-23T14:04:48Z</time>
      </trkpt>
      <trkpt lat="42.94592" lon="0.74502">
        <ele>1210.1</ele>
        <time>2020-02-23T14:04:49Z</time>
      </trkpt>
      <trkpt lat="42.94593" lon="0.74502">
        <ele>1210</ele>
        <time>2020-02-23T14:04:50Z</time>
      </trkpt>
      <trkpt lat="42.94595" lon="0.74502">
        <ele>1209.9</ele>
        <time>2020-02-23T14:04:51Z</time>
      </trkpt>
      <trkpt lat="42.94596" lon="0.74502">
        <ele>1209.9</ele>
        <time>2020-02-23T14:04:52Z</time>
      </trkpt>
      <trkpt lat="42.94597" lon="0.74503">
        <ele>1209.8</ele>
        <time>2020-02-23T14:04:53Z</time>
      </trkpt>
      <trkpt lat="42.94597" lon="0.74503">
        <ele>1209.8</ele>
        <time>2020-02-23T14:04:54Z</time>
      </trkpt>
      <trkpt lat="42.94598" lon="0.74503">
        <ele>1209.8</ele>
        <time>2020-02-23T14:04:55Z</time>
      </trkpt>
      <trkpt lat="42.94599" lon="0.74504">
        <ele>1209.7</ele>
        <time>2020-02-23T14:04:56Z</time>
      </trkpt>
      <trkpt lat="42.94599" lon="0.74504">
        <ele>1209.7</ele>
        <time>2020-02-23T14:04:57Z</time>
      </trkpt>
      <trkpt lat="42.946" lon="0.74504">
        <ele>1209.7</ele>
        <time>2020-02-23T14:04:58Z</time>
      </trkpt>
      <trkpt lat="42.946" lon="0.74505">
        <ele>1209.6</ele>
        <time>2020-02-23T14:04:59Z</time>
      </trkpt>
      <trkpt lat="42.94601" lon="0.74505">
        <ele>1209.6</ele>
        <time>2020-02-23T14:05:00Z</time>
      </trkpt>
      <trkpt lat="42.94601" lon="0.74505">
        <ele>1209.6</ele>
        <time>2020-02-23T14:05:01Z</time>
      </trkpt>
      <trkpt lat="42.94602" lon="0.74505">
        <ele>1209.5</ele>
        <time>2020-02-23T14:05:02Z</time>
      </trkpt>
      <trkpt lat="42.94602" lon="0.74506">
        <ele>1209.5</ele>
        <time>2020-02-23T14:05:03Z</time>
      </trkpt>
      <trkpt lat="42.94603" lon="0.74506">
        <ele>1209.5</ele>
        <time>2020-02-23T14:05:04Z</time>
      </trkpt>
      <trkpt lat="42.94604" lon="0.74506">
        <ele>1209.4</ele>
        <time>2020-02-23T14:05:05Z</time>
      </trkpt>
      <trkpt lat="42.94604" lon="0.74507">
        <ele>1209.4</ele>
        <time>2020-02-23T14:05:06Z</time>
      </trkpt>
      <trkpt lat="42.94605" lon="0.74507">
        <ele>1209.4</ele>
        <time>2020-02-23T14:05:07Z</time>
      </trkpt>
      <trkpt lat="42.94605" lon="0.74507">
        <ele>1209.3</ele>
        <time>2020-02-23T14:05:08Z</time>
      </trkpt>
      <trkpt lat="42.94606" lon="0.74508">
        <ele>1209.3</ele>
        <time>2020-02-23T14:05:09Z</time>
      </trkpt>
      <trkpt lat="42.94607" lon="0.74509">
        <ele>1209.2</ele>
        <time>2020-02-23T14:05:10Z</time>
      </trkpt>
      <trkpt lat="42.94608" lon="0.7451">
        <ele>1209.1</ele>
        <time>2020-02-23T14:05:11Z</time>
      </trkpt>
      <trkpt lat="42.94609" lon="0.74511">
        <ele>1209</ele>
        <time>2020-02-23T14:05:12Z</time>
      </trkpt>
      <trkpt lat="42.9461" lon="0.74512">
        <ele>1209</ele>
        <time>2020-02-23T14:05:13Z</time>
      </trkpt>
      <trkpt lat="42.94611" lon="0.74513">
        <ele>1208.9</ele>
        <time>2020-02-23T14:05:14Z</time>
      </trkpt>
      <trkpt lat="42.94612" lon="0.74514">
        <ele>1208.8</ele>
        <time>2020-02-23T14:05:15Z</time>
      </trkpt>
      <trkpt lat="42.94613" lon="0.74515">
        <ele>1208.7</ele>
        <time>2020-02-23T14:05:16Z</time>
      </trkpt>
      <trkpt lat="42.94613" lon="0.74516">
        <ele>1208.6</ele>
        <time>2020-02-23T14:05:17Z</time>
      </trkpt>
      <trkpt lat="42.94615" lon="0.74516">
        <ele>1208.4</ele>
        <time>2020-02-23T14:05:18Z</time>
      </trkpt>
      <trkpt lat="42.94617" lon="0.74516">
        <ele>1208.3</ele>
        <time>2020-02-23T14:05:19Z</time>
      </trkpt>
      <trkpt lat="42.94618" lon="0.74517">
        <ele>1208.1</ele>
        <time>2020-02-23T14:05:20Z</time>
      </trkpt>
      <trkpt lat="42.9462" lon="0.74517">
        <ele>1207.9</ele>
        <time>2020-02-23T14:05:21Z</time>
      </trkpt>
      <trkpt lat="42.94621" lon="0.74517">
        <ele>1207.8</ele>
        <time>2020-02-23T14:05:22Z</time>
      </trkpt>
      <trkpt lat="42.94623" lon="0.74517">
        <ele>1207.6</ele>
        <time>2020-02-23T14:05:23Z</time>
      </trkpt>
      <trkpt lat="42.94623" lon="0.74517">
        <ele>1207.5</ele>
        <time>2020-02-23T14:05:24Z</time>
      </trkpt>
      <trkpt lat="42.94624" lon="0.74517">
        <ele>1207.4</ele>
        <time>2020-02-23T14:05:25Z</time>
      </trkpt>
      <trkpt lat="42.94625" lon="0.74517">
        <ele>1207.3</ele>
        <time>2020-02-23T14:05:26Z</time>
      </trkpt>
      <trkpt lat="42.94625" lon="0.74517">
        <ele>1207.3</ele>
        <time>2020-02-23T14:05:27Z</time>
      </trkpt>
      <trkpt lat="42.94626" lon="0.74516">
        <ele>1207.2</ele>
        <time>2020-02-23T14:05:28Z</time>
      </trkpt>
      <trkpt lat="42.94627" lon="0.74516">
        <ele>1207.1</ele>
        <time>2020-02-23T14:05:29Z</time>
      </trkpt>
      <trkpt lat="42.94627" lon="0.74516">
        <ele>1207.1</ele>
        <time>2020-02-23T14:05:30Z</time>
      </trkpt>
      <trkpt lat="42.94628" lon="0.74516">
        <ele>1207</ele>
        <time>2020-02-23T14:05:31Z</time>
      </trkpt>
      <trkpt lat="42.94628" lon="0.74516">
        <ele>1207</ele>
        <time>2020-02-23T14:05:32Z</time>
      </trkpt>
      <trkpt lat="42.94631" lon="0.74515">
        <ele>1206.7</ele>
        <time>2020-02-23T14:05:33Z</time>
      </trkpt>
      <trkpt lat="42.94631" lon="0.74515">
        <ele>1206.7</ele>
        <time>2020-02-23T14:05:34Z</time>
      </trkpt>
      <trkpt lat="42.94633" lon="0.74514">
        <ele>1206.5</ele>
        <time>2020-02-23T14:05:35Z</time>
      </trkpt>
      <trkpt lat="42.94633" lon="0.74514">
        <ele>1206.5</ele>
        <time>2020-02-23T14:05:36Z</time>
      </trkpt>
      <trkpt lat="42.94635" lon="0.74514">
        <ele>1206.3</ele>
        <time>2020-02-23T14:05:37Z</time>
      </trkpt>
      <trkpt lat="42.94635" lon="0.74514">
        <ele>1206.3</ele>
        <time>2020-02-23T14:05:38Z</time>
      </trkpt>
      <trkpt lat="42.94637" lon="0.74514">
        <ele>1206.1</ele>
        <time>2020-02-23T14:05:39Z</time>
      </trkpt>
      <trkpt lat="42.94637" lon="0.74514">
        <ele>1206.1</ele>
        <time>2020-02-23T14:05:40Z</time>
      </trkpt>
      <trkpt lat="42.94637" lon="0.74514">
        <ele>1206.1</ele>
        <time>2020-02-23T14:05:41Z</time>
      </trkpt>
      <trkpt lat="42.94637" lon="0.74514">
        <ele>1206.1</ele>
        <time>2020-02-23T14:05:42Z</time>
      </trkpt>
      <trkpt lat="42.94642" lon="0.74516">
        <ele>1205.6</ele>
        <time>2020-02-23T14:05:43Z</time>
      </trkpt>
      <trkpt lat="42.94642" lon="0.74516">
        <ele>1205.6</ele>
        <time>2020-02-23T14:05:44Z</time>
      </trkpt>
      <trkpt lat="42.94645" lon="0.74518">
        <ele>1205.3</ele>
        <time>2020-02-23T14:05:45Z</time>
      </trkpt>
      <trkpt lat="42.94645" lon="0.74518">
        <ele>1205.3</ele>
        <time>2020-02-23T14:05:46Z</time>
      </trkpt>
      <trkpt lat="42.94645" lon="0.74518">
        <ele>1205.3</ele>
        <time>2020-02-23T14:05:47Z</time>
      </trkpt>
      <trkpt lat="42.94647" lon="0.74519">
        <ele>1205.2</ele>
        <time>2020-02-23T14:05:48Z</time>
      </trkpt>
      <trkpt lat="42.94649" lon="0.7452">
        <ele>1205</ele>
        <time>2020-02-23T14:05:49Z</time>
      </trkpt>
      <trkpt lat="42.9465" lon="0.74521">
        <ele>1204.9</ele>
        <time>2020-02-23T14:05:50Z</time>
      </trkpt>
      <trkpt lat="42.94652" lon="0.74522">
        <ele>1204.7</ele>
        <time>2020-02-23T14:05:51Z</time>
      </trkpt>
      <trkpt lat="42.94654" lon="0.74523">
        <ele>1204.6</ele>
        <time>2020-02-23T14:05:52Z</time>
      </trkpt>
      <trkpt lat="42.94656" lon="0.74525">
        <ele>1204.4</ele>
        <time>2020-02-23T14:05:53Z</time>
      </trkpt>
      <trkpt lat="42.94658" lon="0.74528">
        <ele>1204.2</ele>
        <time>2020-02-23T14:05:54Z</time>
      </trkpt>
      <trkpt lat="42.94661" lon="0.7453">
        <ele>1204.1</ele>
        <time>2020-02-23T14:05:55Z</time>
      </trkpt>
      <trkpt lat="42.94663" lon="0.74532">
        <ele>1204</ele>
        <time>2020-02-23T14:05:56Z</time>
      </trkpt>
      <trkpt lat="42.94665" lon="0.74535">
        <ele>1203.9</ele>
        <time>2020-02-23T14:05:57Z</time>
      </trkpt>
      <trkpt lat="42.94668" lon="0.74537">
        <ele>1203.9</ele>
        <time>2020-02-23T14:05:58Z</time>
      </trkpt>
      <trkpt lat="42.94672" lon="0.74541">
        <ele>1203.7</ele>
        <time>2020-02-23T14:05:59Z</time>
      </trkpt>
      <trkpt lat="42.94672" lon="0.74541">
        <ele>1203.7</ele>
        <time>2020-02-23T14:06:00Z</time>
      </trkpt>
      <trkpt lat="42.94673" lon="0.74543">
        <ele>1203.6</ele>
        <time>2020-02-23T14:06:01Z</time>
      </trkpt>
      <trkpt lat="42.94675" lon="0.74545">
        <ele>1203.6</ele>
        <time>2020-02-23T14:06:02Z</time>
      </trkpt>
      <trkpt lat="42.94677" lon="0.74547">
        <ele>1203.5</ele>
        <time>2020-02-23T14:06:03Z</time>
      </trkpt>
      <trkpt lat="42.94678" lon="0.74549">
        <ele>1203.4</ele>
        <time>2020-02-23T14:06:04Z</time>
      </trkpt>
      <trkpt lat="42.9468" lon="0.7455">
        <ele>1203.4</ele>
        <time>2020-02-23T14:06:05Z</time>
      </trkpt>
      <trkpt lat="42.94682" lon="0.74551">
        <ele>1203.3</ele>
        <time>2020-02-23T14:06:06Z</time>
      </trkpt>
      <trkpt lat="42.94683" lon="0.74551">
        <ele>1203.3</ele>
        <time>2020-02-23T14:06:07Z</time>
      </trkpt>
      <trkpt lat="42.94685" lon="0.74552">
        <ele>1203.2</ele>
        <time>2020-02-23T14:06:08Z</time>
      </trkpt>
      <trkpt lat="42.94686" lon="0.74552">
        <ele>1203.2</ele>
        <time>2020-02-23T14:06:09Z</time>
      </trkpt>
      <trkpt lat="42.94688" lon="0.74553">
        <ele>1203.1</ele>
        <time>2020-02-23T14:06:10Z</time>
      </trkpt>
      <trkpt lat="42.9469" lon="0.74554">
        <ele>1203.1</ele>
        <time>2020-02-23T14:06:11Z</time>
      </trkpt>
      <trkpt lat="42.94691" lon="0.74554">
        <ele>1203</ele>
        <time>2020-02-23T14:06:12Z</time>
      </trkpt>
      <trkpt lat="42.94693" lon="0.74554">
        <ele>1203</ele>
        <time>2020-02-23T14:06:13Z</time>
      </trkpt>
      <trkpt lat="42.94694" lon="0.74555">
        <ele>1202.9</ele>
        <time>2020-02-23T14:06:14Z</time>
      </trkpt>
      <trkpt lat="42.94696" lon="0.74555">
        <ele>1202.9</ele>
        <time>2020-02-23T14:06:15Z</time>
      </trkpt>
      <trkpt lat="42.94697" lon="0.74556">
        <ele>1202.8</ele>
        <time>2020-02-23T14:06:16Z</time>
      </trkpt>
      <trkpt lat="42.94699" lon="0.74556">
        <ele>1202.7</ele>
        <time>2020-02-23T14:06:17Z</time>
      </trkpt>
      <trkpt lat="42.947" lon="0.74557">
        <ele>1202.7</ele>
        <time>2020-02-23T14:06:18Z</time>
      </trkpt>
      <trkpt lat="42.94702" lon="0.74557">
        <ele>1202.6</ele>
        <time>2020-02-23T14:06:19Z</time>
      </trkpt>
      <trkpt lat="42.94703" lon="0.74557">
        <ele>1202.6</ele>
        <time>2020-02-23T14:06:20Z</time>
      </trkpt>
      <trkpt lat="42.94704" lon="0.74558">
        <ele>1202.5</ele>
        <time>2020-02-23T14:06:21Z</time>
      </trkpt>
      <trkpt lat="42.94705" lon="0.74558">
        <ele>1202.5</ele>
        <time>2020-02-23T14:06:22Z</time>
      </trkpt>
      <trkpt lat="42.94707" lon="0.74559">
        <ele>1202.4</ele>
        <time>2020-02-23T14:06:23Z</time>
      </trkpt>
      <trkpt lat="42.94708" lon="0.74559">
        <ele>1202.3</ele>
        <time>2020-02-23T14:06:24Z</time>
      </trkpt>
      <trkpt lat="42.9471" lon="0.74559">
        <ele>1202.3</ele>
        <time>2020-02-23T14:06:25Z</time>
      </trkpt>
      <trkpt lat="42.94711" lon="0.74559">
        <ele>1202.2</ele>
        <time>2020-02-23T14:06:26Z</time>
      </trkpt>
      <trkpt lat="42.94713" lon="0.74559">
        <ele>1202.1</ele>
        <time>2020-02-23T14:06:27Z</time>
      </trkpt>
      <trkpt lat="42.94715" lon="0.74559">
        <ele>1202</ele>
        <time>2020-02-23T14:06:28Z</time>
      </trkpt>
      <trkpt lat="42.94716" lon="0.74559">
        <ele>1202</ele>
        <time>2020-02-23T14:06:29Z</time>
      </trkpt>
      <trkpt lat="42.94717" lon="0.74559">
        <ele>1201.9</ele>
        <time>2020-02-23T14:06:30Z</time>
      </trkpt>
      <trkpt lat="42.94718" lon="0.74559">
        <ele>1201.8</ele>
        <time>2020-02-23T14:06:31Z</time>
      </trkpt>
      <trkpt lat="42.94719" lon="0.74558">
        <ele>1201.8</ele>
        <time>2020-02-23T14:06:32Z</time>
      </trkpt>
      <trkpt lat="42.9472" lon="0.74558">
        <ele>1201.7</ele>
        <time>2020-02-23T14:06:33Z</time>
      </trkpt>
      <trkpt lat="42.94721" lon="0.74557">
        <ele>1201.7</ele>
        <time>2020-02-23T14:06:34Z</time>
      </trkpt>
      <trkpt lat="42.94722" lon="0.74556">
        <ele>1201.6</ele>
        <time>2020-02-23T14:06:35Z</time>
      </trkpt>
      <trkpt lat="42.94723" lon="0.74555">
        <ele>1201.5</ele>
        <time>2020-02-23T14:06:36Z</time>
      </trkpt>
      <trkpt lat="42.94724" lon="0.74555">
        <ele>1201.5</ele>
        <time>2020-02-23T14:06:37Z</time>
      </trkpt>
      <trkpt lat="42.94727" lon="0.74555">
        <ele>1201.3</ele>
        <time>2020-02-23T14:06:38Z</time>
      </trkpt>
      <trkpt lat="42.94727" lon="0.74555">
        <ele>1201.3</ele>
        <time>2020-02-23T14:06:39Z</time>
      </trkpt>
      <trkpt lat="42.94727" lon="0.74555">
        <ele>1201.3</ele>
        <time>2020-02-23T14:06:40Z</time>
      </trkpt>
      <trkpt lat="42.94729" lon="0.74556">
        <ele>1201.2</ele>
        <time>2020-02-23T14:06:41Z</time>
      </trkpt>
      <trkpt lat="42.9473" lon="0.74556">
        <ele>1201.2</ele>
        <time>2020-02-23T14:06:42Z</time>
      </trkpt>
      <trkpt lat="42.94731" lon="0.74557">
        <ele>1201.1</ele>
        <time>2020-02-23T14:06:43Z</time>
      </trkpt>
      <trkpt lat="42.94733" lon="0.74557">
        <ele>1201.1</ele>
        <time>2020-02-23T14:06:44Z</time>
      </trkpt>
      <trkpt lat="42.94734" lon="0.74556">
        <ele>1201</ele>
        <time>2020-02-23T14:06:45Z</time>
      </trkpt>
      <trkpt lat="42.94736" lon="0.74556">
        <ele>1201</ele>
        <time>2020-02-23T14:06:46Z</time>
      </trkpt>
      <trkpt lat="42.94737" lon="0.74555">
        <ele>1200.9</ele>
        <time>2020-02-23T14:06:47Z</time>
      </trkpt>
      <trkpt lat="42.94739" lon="0.74555">
        <ele>1200.8</ele>
        <time>2020-02-23T14:06:48Z</time>
      </trkpt>
      <trkpt lat="42.9474" lon="0.74554">
        <ele>1200.8</ele>
        <time>2020-02-23T14:06:49Z</time>
      </trkpt>
      <trkpt lat="42.94742" lon="0.74554">
        <ele>1200.7</ele>
        <time>2020-02-23T14:06:50Z</time>
      </trkpt>
      <trkpt lat="42.94743" lon="0.74553">
        <ele>1200.7</ele>
        <time>2020-02-23T14:06:51Z</time>
      </trkpt>
      <trkpt lat="42.94744" lon="0.74551">
        <ele>1200.6</ele>
        <time>2020-02-23T14:06:52Z</time>
      </trkpt>
      <trkpt lat="42.94745" lon="0.7455">
        <ele>1200.6</ele>
        <time>2020-02-23T14:06:53Z</time>
      </trkpt>
      <trkpt lat="42.94745" lon="0.74549">
        <ele>1200.5</ele>
        <time>2020-02-23T14:06:54Z</time>
      </trkpt>
      <trkpt lat="42.94746" lon="0.74548">
        <ele>1200.5</ele>
        <time>2020-02-23T14:06:55Z</time>
      </trkpt>
      <trkpt lat="42.94747" lon="0.74547">
        <ele>1200.4</ele>
        <time>2020-02-23T14:06:56Z</time>
      </trkpt>
      <trkpt lat="42.94748" lon="0.74546">
        <ele>1200.4</ele>
        <time>2020-02-23T14:06:57Z</time>
      </trkpt>
      <trkpt lat="42.94749" lon="0.74544">
        <ele>1200.3</ele>
        <time>2020-02-23T14:06:58Z</time>
      </trkpt>
      <trkpt lat="42.9475" lon="0.74544">
        <ele>1200.3</ele>
        <time>2020-02-23T14:06:59Z</time>
      </trkpt>
      <trkpt lat="42.9475" lon="0.74543">
        <ele>1200.3</ele>
        <time>2020-02-23T14:07:00Z</time>
      </trkpt>
      <trkpt lat="42.94751" lon="0.74543">
        <ele>1200.3</ele>
        <time>2020-02-23T14:07:01Z</time>
      </trkpt>
      <trkpt lat="42.94751" lon="0.74542">
        <ele>1200.2</ele>
        <time>2020-02-23T14:07:02Z</time>
      </trkpt>
      <trkpt lat="42.94752" lon="0.74541">
        <ele>1200.2</ele>
        <time>2020-02-23T14:07:03Z</time>
      </trkpt>
      <trkpt lat="42.94752" lon="0.74541">
        <ele>1200.2</ele>
        <time>2020-02-23T14:07:04Z</time>
      </trkpt>
      <trkpt lat="42.94753" lon="0.7454">
        <ele>1200.2</ele>
        <time>2020-02-23T14:07:05Z</time>
      </trkpt>
      <trkpt lat="42.94753" lon="0.74539">
        <ele>1200.2</ele>
        <time>2020-02-23T14:07:06Z</time>
      </trkpt>
      <trkpt lat="42.94754" lon="0.74539">
        <ele>1200.1</ele>
        <time>2020-02-23T14:07:07Z</time>
      </trkpt>
      <trkpt lat="42.94754" lon="0.74539">
        <ele>1200.1</ele>
        <time>2020-02-23T14:07:08Z</time>
      </trkpt>
      <trkpt lat="42.94756" lon="0.74539">
        <ele>1200</ele>
        <time>2020-02-23T14:07:09Z</time>
      </trkpt>
      <trkpt lat="42.94756" lon="0.74539">
        <ele>1200</ele>
        <time>2020-02-23T14:07:10Z</time>
      </trkpt>
      <trkpt lat="42.94756" lon="0.74539">
        <ele>1200</ele>
        <time>2020-02-23T14:07:11Z</time>
      </trkpt>
      <trkpt lat="42.94756" lon="0.74539">
        <ele>1200</ele>
        <time>2020-02-23T14:07:12Z</time>
      </trkpt>
      <trkpt lat="42.94756" lon="0.74539">
        <ele>1200</ele>
        <time>2020-02-23T14:07:13Z</time>
      </trkpt>
      <trkpt lat="42.9476" lon="0.74541">
        <ele>1199.9</ele>
        <time>2020-02-23T14:07:14Z</time>
      </trkpt>
      <trkpt lat="42.9476" lon="0.74541">
        <ele>1199.9</ele>
        <time>2020-02-23T14:07:15Z</time>
      </trkpt>
      <trkpt lat="42.94762" lon="0.74541">
        <ele>1199.8</ele>
        <time>2020-02-23T14:07:16Z</time>
      </trkpt>
      <trkpt lat="42.94763" lon="0.7454">
        <ele>1199.7</ele>
        <time>2020-02-23T14:07:17Z</time>
      </trkpt>
      <trkpt lat="42.94765" lon="0.7454">
        <ele>1199.6</ele>
        <time>2020-02-23T14:07:18Z</time>
      </trkpt>
      <trkpt lat="42.94767" lon="0.7454">
        <ele>1199.5</ele>
        <time>2020-02-23T14:07:19Z</time>
      </trkpt>
      <trkpt lat="42.94769" lon="0.74539">
        <ele>1199.4</ele>
        <time>2020-02-23T14:07:20Z</time>
      </trkpt>
      <trkpt lat="42.9477" lon="0.74539">
        <ele>1199.3</ele>
        <time>2020-02-23T14:07:21Z</time>
      </trkpt>
      <trkpt lat="42.94772" lon="0.74538">
        <ele>1199.3</ele>
        <time>2020-02-23T14:07:22Z</time>
      </trkpt>
      <trkpt lat="42.94773" lon="0.74537">
        <ele>1199.2</ele>
        <time>2020-02-23T14:07:23Z</time>
      </trkpt>
      <trkpt lat="42.94774" lon="0.74537">
        <ele>1199.1</ele>
        <time>2020-02-23T14:07:24Z</time>
      </trkpt>
      <trkpt lat="42.94775" lon="0.74536">
        <ele>1199</ele>
        <time>2020-02-23T14:07:25Z</time>
      </trkpt>
      <trkpt lat="42.94777" lon="0.74535">
        <ele>1198.9</ele>
        <time>2020-02-23T14:07:26Z</time>
      </trkpt>
      <trkpt lat="42.94778" lon="0.74535">
        <ele>1198.8</ele>
        <time>2020-02-23T14:07:27Z</time>
      </trkpt>
      <trkpt lat="42.94779" lon="0.74535">
        <ele>1198.7</ele>
        <time>2020-02-23T14:07:28Z</time>
      </trkpt>
      <trkpt lat="42.9478" lon="0.74534">
        <ele>1198.6</ele>
        <time>2020-02-23T14:07:29Z</time>
      </trkpt>
      <trkpt lat="42.94781" lon="0.74534">
        <ele>1198.5</ele>
        <time>2020-02-23T14:07:30Z</time>
      </trkpt>
      <trkpt lat="42.94782" lon="0.74534">
        <ele>1198.4</ele>
        <time>2020-02-23T14:07:31Z</time>
      </trkpt>
      <trkpt lat="42.94783" lon="0.74534">
        <ele>1198.3</ele>
        <time>2020-02-23T14:07:32Z</time>
      </trkpt>
      <trkpt lat="42.94785" lon="0.74534">
        <ele>1198.2</ele>
        <time>2020-02-23T14:07:33Z</time>
      </trkpt>
      <trkpt lat="42.94786" lon="0.74534">
        <ele>1198.1</ele>
        <time>2020-02-23T14:07:34Z</time>
      </trkpt>
      <trkpt lat="42.94787" lon="0.74534">
        <ele>1197.9</ele>
        <time>2020-02-23T14:07:35Z</time>
      </trkpt>
      <trkpt lat="42.94788" lon="0.74533">
        <ele>1197.8</ele>
        <time>2020-02-23T14:07:36Z</time>
      </trkpt>
      <trkpt lat="42.94789" lon="0.74533">
        <ele>1197.7</ele>
        <time>2020-02-23T14:07:37Z</time>
      </trkpt>
      <trkpt lat="42.9479" lon="0.74533">
        <ele>1197.5</ele>
        <time>2020-02-23T14:07:38Z</time>
      </trkpt>
      <trkpt lat="42.94791" lon="0.74533">
        <ele>1197.4</ele>
        <time>2020-02-23T14:07:39Z</time>
      </trkpt>
      <trkpt lat="42.94793" lon="0.74533">
        <ele>1197.2</ele>
        <time>2020-02-23T14:07:40Z</time>
      </trkpt>
      <trkpt lat="42.94794" lon="0.74533">
        <ele>1197.1</ele>
        <time>2020-02-23T14:07:41Z</time>
      </trkpt>
      <trkpt lat="42.94795" lon="0.74533">
        <ele>1197</ele>
        <time>2020-02-23T14:07:42Z</time>
      </trkpt>
      <trkpt lat="42.94796" lon="0.74533">
        <ele>1196.8</ele>
        <time>2020-02-23T14:07:43Z</time>
      </trkpt>
      <trkpt lat="42.94797" lon="0.74532">
        <ele>1196.7</ele>
        <time>2020-02-23T14:07:44Z</time>
      </trkpt>
      <trkpt lat="42.948" lon="0.74532">
        <ele>1196.4</ele>
        <time>2020-02-23T14:07:45Z</time>
      </trkpt>
      <trkpt lat="42.94802" lon="0.74532">
        <ele>1196.1</ele>
        <time>2020-02-23T14:07:46Z</time>
      </trkpt>
      <trkpt lat="42.94804" lon="0.74531">
        <ele>1195.8</ele>
        <time>2020-02-23T14:07:47Z</time>
      </trkpt>
      <trkpt lat="42.94807" lon="0.74531">
        <ele>1195.5</ele>
        <time>2020-02-23T14:07:48Z</time>
      </trkpt>
      <trkpt lat="42.94807" lon="0.74532">
        <ele>1195.4</ele>
        <time>2020-02-23T14:07:49Z</time>
      </trkpt>
      <trkpt lat="42.94808" lon="0.74532">
        <ele>1195.3</ele>
        <time>2020-02-23T14:07:50Z</time>
      </trkpt>
      <trkpt lat="42.94809" lon="0.74533">
        <ele>1195.1</ele>
        <time>2020-02-23T14:07:51Z</time>
      </trkpt>
      <trkpt lat="42.9481" lon="0.74533">
        <ele>1195</ele>
        <time>2020-02-23T14:07:52Z</time>
      </trkpt>
      <trkpt lat="42.94811" lon="0.74534">
        <ele>1194.9</ele>
        <time>2020-02-23T14:07:53Z</time>
      </trkpt>
      <trkpt lat="42.94812" lon="0.74534">
        <ele>1194.8</ele>
        <time>2020-02-23T14:07:54Z</time>
      </trkpt>
      <trkpt lat="42.94813" lon="0.74535">
        <ele>1194.7</ele>
        <time>2020-02-23T14:07:55Z</time>
      </trkpt>
      <trkpt lat="42.94813" lon="0.74536">
        <ele>1194.6</ele>
        <time>2020-02-23T14:07:56Z</time>
      </trkpt>
      <trkpt lat="42.94814" lon="0.74536">
        <ele>1194.5</ele>
        <time>2020-02-23T14:07:57Z</time>
      </trkpt>
      <trkpt lat="42.94815" lon="0.74537">
        <ele>1194.3</ele>
        <time>2020-02-23T14:07:58Z</time>
      </trkpt>
      <trkpt lat="42.94816" lon="0.74537">
        <ele>1194.2</ele>
        <time>2020-02-23T14:07:59Z</time>
      </trkpt>
      <trkpt lat="42.94817" lon="0.74538">
        <ele>1194.1</ele>
        <time>2020-02-23T14:08:00Z</time>
      </trkpt>
      <trkpt lat="42.94818" lon="0.74538">
        <ele>1194</ele>
        <time>2020-02-23T14:08:01Z</time>
      </trkpt>
      <trkpt lat="42.94819" lon="0.74539">
        <ele>1194</ele>
        <time>2020-02-23T14:08:02Z</time>
      </trkpt>
      <trkpt lat="42.9482" lon="0.74539">
        <ele>1193.9</ele>
        <time>2020-02-23T14:08:03Z</time>
      </trkpt>
      <trkpt lat="42.94821" lon="0.7454">
        <ele>1193.8</ele>
        <time>2020-02-23T14:08:04Z</time>
      </trkpt>
      <trkpt lat="42.94822" lon="0.7454">
        <ele>1193.7</ele>
        <time>2020-02-23T14:08:05Z</time>
      </trkpt>
      <trkpt lat="42.94823" lon="0.74541">
        <ele>1193.7</ele>
        <time>2020-02-23T14:08:06Z</time>
      </trkpt>
      <trkpt lat="42.94824" lon="0.74541">
        <ele>1193.6</ele>
        <time>2020-02-23T14:08:07Z</time>
      </trkpt>
      <trkpt lat="42.94825" lon="0.74542">
        <ele>1193.6</ele>
        <time>2020-02-23T14:08:08Z</time>
      </trkpt>
      <trkpt lat="42.94826" lon="0.74542">
        <ele>1193.5</ele>
        <time>2020-02-23T14:08:09Z</time>
      </trkpt>
      <trkpt lat="42.94827" lon="0.74542">
        <ele>1193.4</ele>
        <time>2020-02-23T14:08:10Z</time>
      </trkpt>
      <trkpt lat="42.94827" lon="0.74543">
        <ele>1193.4</ele>
        <time>2020-02-23T14:08:11Z</time>
      </trkpt>
      <trkpt lat="42.94828" lon="0.74543">
        <ele>1193.3</ele>
        <time>2020-02-23T14:08:12Z</time>
      </trkpt>
      <trkpt lat="42.94829" lon="0.74543">
        <ele>1193.3</ele>
        <time>2020-02-23T14:08:13Z</time>
      </trkpt>
      <trkpt lat="42.9483" lon="0.74544">
        <ele>1193.3</ele>
        <time>2020-02-23T14:08:14Z</time>
      </trkpt>
      <trkpt lat="42.9483" lon="0.74544">
        <ele>1193.2</ele>
        <time>2020-02-23T14:08:15Z</time>
      </trkpt>
      <trkpt lat="42.94831" lon="0.74545">
        <ele>1193.2</ele>
        <time>2020-02-23T14:08:16Z</time>
      </trkpt>
      <trkpt lat="42.94832" lon="0.74545">
        <ele>1193.2</ele>
        <time>2020-02-23T14:08:17Z</time>
      </trkpt>
      <trkpt lat="42.94833" lon="0.74545">
        <ele>1193.1</ele>
        <time>2020-02-23T14:08:18Z</time>
      </trkpt>
      <trkpt lat="42.94833" lon="0.74546">
        <ele>1193.1</ele>
        <time>2020-02-23T14:08:19Z</time>
      </trkpt>
      <trkpt lat="42.94834" lon="0.74547">
        <ele>1193</ele>
        <time>2020-02-23T14:08:20Z</time>
      </trkpt>
      <trkpt lat="42.94835" lon="0.74548">
        <ele>1193</ele>
        <time>2020-02-23T14:08:21Z</time>
      </trkpt>
      <trkpt lat="42.94836" lon="0.74549">
        <ele>1192.9</ele>
        <time>2020-02-23T14:08:22Z</time>
      </trkpt>
      <trkpt lat="42.94837" lon="0.7455">
        <ele>1192.8</ele>
        <time>2020-02-23T14:08:23Z</time>
      </trkpt>
      <trkpt lat="42.94838" lon="0.74552">
        <ele>1192.8</ele>
        <time>2020-02-23T14:08:24Z</time>
      </trkpt>
      <trkpt lat="42.94839" lon="0.74553">
        <ele>1192.7</ele>
        <time>2020-02-23T14:08:25Z</time>
      </trkpt>
      <trkpt lat="42.9484" lon="0.74554">
        <ele>1192.6</ele>
        <time>2020-02-23T14:08:26Z</time>
      </trkpt>
      <trkpt lat="42.94841" lon="0.74555">
        <ele>1192.6</ele>
        <time>2020-02-23T14:08:27Z</time>
      </trkpt>
      <trkpt lat="42.94842" lon="0.74556">
        <ele>1192.5</ele>
        <time>2020-02-23T14:08:28Z</time>
      </trkpt>
      <trkpt lat="42.94843" lon="0.74557">
        <ele>1192.5</ele>
        <time>2020-02-23T14:08:29Z</time>
      </trkpt>
      <trkpt lat="42.94844" lon="0.74558">
        <ele>1192.4</ele>
        <time>2020-02-23T14:08:30Z</time>
      </trkpt>
      <trkpt lat="42.94845" lon="0.74559">
        <ele>1192.4</ele>
        <time>2020-02-23T14:08:31Z</time>
      </trkpt>
      <trkpt lat="42.94845" lon="0.7456">
        <ele>1192.3</ele>
        <time>2020-02-23T14:08:32Z</time>
      </trkpt>
      <trkpt lat="42.94846" lon="0.74561">
        <ele>1192.3</ele>
        <time>2020-02-23T14:08:33Z</time>
      </trkpt>
      <trkpt lat="42.94847" lon="0.74562">
        <ele>1192.3</ele>
        <time>2020-02-23T14:08:34Z</time>
      </trkpt>
      <trkpt lat="42.94848" lon="0.74563">
        <ele>1192.2</ele>
        <time>2020-02-23T14:08:35Z</time>
      </trkpt>
      <trkpt lat="42.94848" lon="0.74564">
        <ele>1192.2</ele>
        <time>2020-02-23T14:08:36Z</time>
      </trkpt>
      <trkpt lat="42.94848" lon="0.74564">
        <ele>1192.2</ele>
        <time>2020-02-23T14:08:37Z</time>
      </trkpt>
      <trkpt lat="42.94849" lon="0.74565">
        <ele>1192.2</ele>
        <time>2020-02-23T14:08:38Z</time>
      </trkpt>
      <trkpt lat="42.94849" lon="0.74565">
        <ele>1192.2</ele>
        <time>2020-02-23T14:08:39Z</time>
      </trkpt>
      <trkpt lat="42.94849" lon="0.74566">
        <ele>1192.2</ele>
        <time>2020-02-23T14:08:40Z</time>
      </trkpt>
      <trkpt lat="42.94849" lon="0.74566">
        <ele>1192.1</ele>
        <time>2020-02-23T14:08:41Z</time>
      </trkpt>
      <trkpt lat="42.9485" lon="0.74567">
        <ele>1192.1</ele>
        <time>2020-02-23T14:08:42Z</time>
      </trkpt>
      <trkpt lat="42.9485" lon="0.74567">
        <ele>1192.1</ele>
        <time>2020-02-23T14:08:43Z</time>
      </trkpt>
      <trkpt lat="42.9485" lon="0.74568">
        <ele>1192.1</ele>
        <time>2020-02-23T14:08:44Z</time>
      </trkpt>
      <trkpt lat="42.9485" lon="0.74568">
        <ele>1192.1</ele>
        <time>2020-02-23T14:08:45Z</time>
      </trkpt>
      <trkpt lat="42.94851" lon="0.74569">
        <ele>1192.1</ele>
        <time>2020-02-23T14:08:46Z</time>
      </trkpt>
      <trkpt lat="42.94851" lon="0.7457">
        <ele>1192.1</ele>
        <time>2020-02-23T14:08:47Z</time>
      </trkpt>
      <trkpt lat="42.94851" lon="0.7457">
        <ele>1192.1</ele>
        <time>2020-02-23T14:08:48Z</time>
      </trkpt>
      <trkpt lat="42.94851" lon="0.74571">
        <ele>1192</ele>
        <time>2020-02-23T14:08:49Z</time>
      </trkpt>
      <trkpt lat="42.94852" lon="0.74571">
        <ele>1192</ele>
        <time>2020-02-23T14:08:50Z</time>
      </trkpt>
      <trkpt lat="42.94852" lon="0.74572">
        <ele>1192</ele>
        <time>2020-02-23T14:08:51Z</time>
      </trkpt>
      <trkpt lat="42.94852" lon="0.74572">
        <ele>1192</ele>
        <time>2020-02-23T14:08:52Z</time>
      </trkpt>
      <trkpt lat="42.94852" lon="0.74573">
        <ele>1192</ele>
        <time>2020-02-23T14:08:53Z</time>
      </trkpt>
      <trkpt lat="42.94853" lon="0.74573">
        <ele>1192</ele>
        <time>2020-02-23T14:08:54Z</time>
      </trkpt>
      <trkpt lat="42.94853" lon="0.74574">
        <ele>1192</ele>
        <time>2020-02-23T14:08:55Z</time>
      </trkpt>
      <trkpt lat="42.94854" lon="0.74574">
        <ele>1191.9</ele>
        <time>2020-02-23T14:08:56Z</time>
      </trkpt>
      <trkpt lat="42.94854" lon="0.74575">
        <ele>1191.9</ele>
        <time>2020-02-23T14:08:57Z</time>
      </trkpt>
      <trkpt lat="42.94855" lon="0.74575">
        <ele>1191.9</ele>
        <time>2020-02-23T14:08:58Z</time>
      </trkpt>
      <trkpt lat="42.94856" lon="0.74575">
        <ele>1191.9</ele>
        <time>2020-02-23T14:08:59Z</time>
      </trkpt>
      <trkpt lat="42.94857" lon="0.74576">
        <ele>1191.9</ele>
        <time>2020-02-23T14:09:00Z</time>
      </trkpt>
      <trkpt lat="42.94857" lon="0.74576">
        <ele>1191.8</ele>
        <time>2020-02-23T14:09:01Z</time>
      </trkpt>
      <trkpt lat="42.94858" lon="0.74577">
        <ele>1191.8</ele>
        <time>2020-02-23T14:09:02Z</time>
      </trkpt>
      <trkpt lat="42.94859" lon="0.74577">
        <ele>1191.8</ele>
        <time>2020-02-23T14:09:03Z</time>
      </trkpt>
      <trkpt lat="42.9486" lon="0.74578">
        <ele>1191.8</ele>
        <time>2020-02-23T14:09:04Z</time>
      </trkpt>
      <trkpt lat="42.9486" lon="0.74578">
        <ele>1191.8</ele>
        <time>2020-02-23T14:09:05Z</time>
      </trkpt>
      <trkpt lat="42.94861" lon="0.74579">
        <ele>1191.8</ele>
        <time>2020-02-23T14:09:06Z</time>
      </trkpt>
      <trkpt lat="42.94862" lon="0.74579">
        <ele>1191.7</ele>
        <time>2020-02-23T14:09:07Z</time>
      </trkpt>
      <trkpt lat="42.94863" lon="0.7458">
        <ele>1191.7</ele>
        <time>2020-02-23T14:09:08Z</time>
      </trkpt>
      <trkpt lat="42.94864" lon="0.74581">
        <ele>1191.7</ele>
        <time>2020-02-23T14:09:09Z</time>
      </trkpt>
      <trkpt lat="42.94865" lon="0.74582">
        <ele>1191.7</ele>
        <time>2020-02-23T14:09:10Z</time>
      </trkpt>
      <trkpt lat="42.94866" lon="0.74583">
        <ele>1191.6</ele>
        <time>2020-02-23T14:09:11Z</time>
      </trkpt>
      <trkpt lat="42.94867" lon="0.74584">
        <ele>1191.6</ele>
        <time>2020-02-23T14:09:12Z</time>
      </trkpt>
      <trkpt lat="42.94868" lon="0.74584">
        <ele>1191.6</ele>
        <time>2020-02-23T14:09:13Z</time>
      </trkpt>
      <trkpt lat="42.94869" lon="0.74585">
        <ele>1191.6</ele>
        <time>2020-02-23T14:09:14Z</time>
      </trkpt>
      <trkpt lat="42.9487" lon="0.74586">
        <ele>1191.5</ele>
        <time>2020-02-23T14:09:15Z</time>
      </trkpt>
      <trkpt lat="42.94871" lon="0.74587">
        <ele>1191.5</ele>
        <time>2020-02-23T14:09:16Z</time>
      </trkpt>
      <trkpt lat="42.94872" lon="0.74588">
        <ele>1191.5</ele>
        <time>2020-02-23T14:09:17Z</time>
      </trkpt>
      <trkpt lat="42.94874" lon="0.74589">
        <ele>1191.4</ele>
        <time>2020-02-23T14:09:18Z</time>
      </trkpt>
      <trkpt lat="42.94875" lon="0.7459">
        <ele>1191.4</ele>
        <time>2020-02-23T14:09:19Z</time>
      </trkpt>
      <trkpt lat="42.94876" lon="0.74591">
        <ele>1191.3</ele>
        <time>2020-02-23T14:09:20Z</time>
      </trkpt>
      <trkpt lat="42.94877" lon="0.74592">
        <ele>1191.3</ele>
        <time>2020-02-23T14:09:21Z</time>
      </trkpt>
      <trkpt lat="42.94879" lon="0.74593">
        <ele>1191.3</ele>
        <time>2020-02-23T14:09:22Z</time>
      </trkpt>
      <trkpt lat="42.9488" lon="0.74594">
        <ele>1191.2</ele>
        <time>2020-02-23T14:09:23Z</time>
      </trkpt>
      <trkpt lat="42.94881" lon="0.74594">
        <ele>1191.2</ele>
        <time>2020-02-23T14:09:24Z</time>
      </trkpt>
      <trkpt lat="42.94883" lon="0.74595">
        <ele>1191.1</ele>
        <time>2020-02-23T14:09:25Z</time>
      </trkpt>
      <trkpt lat="42.94884" lon="0.74596">
        <ele>1191</ele>
        <time>2020-02-23T14:09:26Z</time>
      </trkpt>
      <trkpt lat="42.94885" lon="0.74596">
        <ele>1191</ele>
        <time>2020-02-23T14:09:27Z</time>
      </trkpt>
      <trkpt lat="42.94887" lon="0.74597">
        <ele>1190.9</ele>
        <time>2020-02-23T14:09:28Z</time>
      </trkpt>
      <trkpt lat="42.94888" lon="0.74598">
        <ele>1190.8</ele>
        <time>2020-02-23T14:09:29Z</time>
      </trkpt>
      <trkpt lat="42.94889" lon="0.74598">
        <ele>1190.8</ele>
        <time>2020-02-23T14:09:30Z</time>
      </trkpt>
      <trkpt lat="42.9489" lon="0.74598">
        <ele>1190.7</ele>
        <time>2020-02-23T14:09:31Z</time>
      </trkpt>
      <trkpt lat="42.94892" lon="0.74598">
        <ele>1190.6</ele>
        <time>2020-02-23T14:09:32Z</time>
      </trkpt>
      <trkpt lat="42.94893" lon="0.74598">
        <ele>1190.5</ele>
        <time>2020-02-23T14:09:33Z</time>
      </trkpt>
      <trkpt lat="42.94894" lon="0.74598">
        <ele>1190.4</ele>
        <time>2020-02-23T14:09:34Z</time>
      </trkpt>
      <trkpt lat="42.94895" lon="0.74598">
        <ele>1190.2</ele>
        <time>2020-02-23T14:09:35Z</time>
      </trkpt>
      <trkpt lat="42.94896" lon="0.74597">
        <ele>1190.1</ele>
        <time>2020-02-23T14:09:36Z</time>
      </trkpt>
      <trkpt lat="42.94898" lon="0.74597">
        <ele>1190</ele>
        <time>2020-02-23T14:09:37Z</time>
      </trkpt>
      <trkpt lat="42.94899" lon="0.74598">
        <ele>1189.9</ele>
        <time>2020-02-23T14:09:38Z</time>
      </trkpt>
      <trkpt lat="42.949" lon="0.74598">
        <ele>1189.8</ele>
        <time>2020-02-23T14:09:39Z</time>
      </trkpt>
      <trkpt lat="42.94901" lon="0.74599">
        <ele>1189.7</ele>
        <time>2020-02-23T14:09:40Z</time>
      </trkpt>
      <trkpt lat="42.94902" lon="0.74599">
        <ele>1189.6</ele>
        <time>2020-02-23T14:09:41Z</time>
      </trkpt>
      <trkpt lat="42.94903" lon="0.74599">
        <ele>1189.5</ele>
        <time>2020-02-23T14:09:42Z</time>
      </trkpt>
      <trkpt lat="42.94904" lon="0.746">
        <ele>1189.4</ele>
        <time>2020-02-23T14:09:43Z</time>
      </trkpt>
      <trkpt lat="42.94905" lon="0.746">
        <ele>1189.3</ele>
        <time>2020-02-23T14:09:44Z</time>
      </trkpt>
      <trkpt lat="42.94906" lon="0.746">
        <ele>1189.2</ele>
        <time>2020-02-23T14:09:45Z</time>
      </trkpt>
      <trkpt lat="42.94907" lon="0.74601">
        <ele>1189.1</ele>
        <time>2020-02-23T14:09:46Z</time>
      </trkpt>
      <trkpt lat="42.94908" lon="0.74601">
        <ele>1189.1</ele>
        <time>2020-02-23T14:09:47Z</time>
      </trkpt>
      <trkpt lat="42.94909" lon="0.74601">
        <ele>1189</ele>
        <time>2020-02-23T14:09:48Z</time>
      </trkpt>
      <trkpt lat="42.9491" lon="0.74601">
        <ele>1188.9</ele>
        <time>2020-02-23T14:09:49Z</time>
      </trkpt>
      <trkpt lat="42.9491" lon="0.74602">
        <ele>1188.8</ele>
        <time>2020-02-23T14:09:50Z</time>
      </trkpt>
      <trkpt lat="42.94911" lon="0.74602">
        <ele>1188.8</ele>
        <time>2020-02-23T14:09:51Z</time>
      </trkpt>
      <trkpt lat="42.94912" lon="0.74602">
        <ele>1188.7</ele>
        <time>2020-02-23T14:09:52Z</time>
      </trkpt>
      <trkpt lat="42.94913" lon="0.74602">
        <ele>1188.6</ele>
        <time>2020-02-23T14:09:53Z</time>
      </trkpt>
      <trkpt lat="42.94914" lon="0.74603">
        <ele>1188.5</ele>
        <time>2020-02-23T14:09:54Z</time>
      </trkpt>
      <trkpt lat="42.94915" lon="0.74603">
        <ele>1188.5</ele>
        <time>2020-02-23T14:09:55Z</time>
      </trkpt>
      <trkpt lat="42.94916" lon="0.74603">
        <ele>1188.4</ele>
        <time>2020-02-23T14:09:56Z</time>
      </trkpt>
      <trkpt lat="42.94917" lon="0.74603">
        <ele>1188.4</ele>
        <time>2020-02-23T14:09:57Z</time>
      </trkpt>
      <trkpt lat="42.94918" lon="0.74603">
        <ele>1188.3</ele>
        <time>2020-02-23T14:09:58Z</time>
      </trkpt>
      <trkpt lat="42.94919" lon="0.74603">
        <ele>1188.2</ele>
        <time>2020-02-23T14:09:59Z</time>
      </trkpt>
      <trkpt lat="42.9492" lon="0.74603">
        <ele>1188.2</ele>
        <time>2020-02-23T14:10:00Z</time>
      </trkpt>
      <trkpt lat="42.94921" lon="0.74603">
        <ele>1188.1</ele>
        <time>2020-02-23T14:10:01Z</time>
      </trkpt>
      <trkpt lat="42.94922" lon="0.74604">
        <ele>1188</ele>
        <time>2020-02-23T14:10:02Z</time>
      </trkpt>
      <trkpt lat="42.94923" lon="0.74604">
        <ele>1188</ele>
        <time>2020-02-23T14:10:03Z</time>
      </trkpt>
      <trkpt lat="42.94924" lon="0.74604">
        <ele>1187.9</ele>
        <time>2020-02-23T14:10:04Z</time>
      </trkpt>
      <trkpt lat="42.94925" lon="0.74604">
        <ele>1187.9</ele>
        <time>2020-02-23T14:10:05Z</time>
      </trkpt>
      <trkpt lat="42.94926" lon="0.74604">
        <ele>1187.8</ele>
        <time>2020-02-23T14:10:06Z</time>
      </trkpt>
      <trkpt lat="42.94927" lon="0.74604">
        <ele>1187.7</ele>
        <time>2020-02-23T14:10:07Z</time>
      </trkpt>
      <trkpt lat="42.94928" lon="0.74603">
        <ele>1187.7</ele>
        <time>2020-02-23T14:10:08Z</time>
      </trkpt>
      <trkpt lat="42.94929" lon="0.74603">
        <ele>1187.6</ele>
        <time>2020-02-23T14:10:09Z</time>
      </trkpt>
      <trkpt lat="42.9493" lon="0.74603">
        <ele>1187.5</ele>
        <time>2020-02-23T14:10:10Z</time>
      </trkpt>
      <trkpt lat="42.94931" lon="0.74603">
        <ele>1187.4</ele>
        <time>2020-02-23T14:10:11Z</time>
      </trkpt>
      <trkpt lat="42.94932" lon="0.74603">
        <ele>1187.3</ele>
        <time>2020-02-23T14:10:12Z</time>
      </trkpt>
      <trkpt lat="42.94933" lon="0.74602">
        <ele>1187.2</ele>
        <time>2020-02-23T14:10:13Z</time>
      </trkpt>
      <trkpt lat="42.94934" lon="0.74602">
        <ele>1187.1</ele>
        <time>2020-02-23T14:10:14Z</time>
      </trkpt>
      <trkpt lat="42.94935" lon="0.74602">
        <ele>1187</ele>
        <time>2020-02-23T14:10:15Z</time>
      </trkpt>
      <trkpt lat="42.94936" lon="0.74602">
        <ele>1186.9</ele>
        <time>2020-02-23T14:10:16Z</time>
      </trkpt>
      <trkpt lat="42.94938" lon="0.74602">
        <ele>1186.8</ele>
        <time>2020-02-23T14:10:17Z</time>
      </trkpt>
      <trkpt lat="42.9494" lon="0.74601">
        <ele>1186.6</ele>
        <time>2020-02-23T14:10:18Z</time>
      </trkpt>
      <trkpt lat="42.94942" lon="0.74601">
        <ele>1186.5</ele>
        <time>2020-02-23T14:10:19Z</time>
      </trkpt>
      <trkpt lat="42.94943" lon="0.74601">
        <ele>1186.3</ele>
        <time>2020-02-23T14:10:20Z</time>
      </trkpt>
      <trkpt lat="42.94945" lon="0.746">
        <ele>1186.1</ele>
        <time>2020-02-23T14:10:21Z</time>
      </trkpt>
      <trkpt lat="42.94947" lon="0.746">
        <ele>1186</ele>
        <time>2020-02-23T14:10:22Z</time>
      </trkpt>
      <trkpt lat="42.94949" lon="0.74599">
        <ele>1185.8</ele>
        <time>2020-02-23T14:10:23Z</time>
      </trkpt>
      <trkpt lat="42.94951" lon="0.74598">
        <ele>1185.6</ele>
        <time>2020-02-23T14:10:24Z</time>
      </trkpt>
      <trkpt lat="42.94952" lon="0.74597">
        <ele>1185.4</ele>
        <time>2020-02-23T14:10:25Z</time>
      </trkpt>
      <trkpt lat="42.94954" lon="0.74596">
        <ele>1185.2</ele>
        <time>2020-02-23T14:10:26Z</time>
      </trkpt>
      <trkpt lat="42.94956" lon="0.74595">
        <ele>1185</ele>
        <time>2020-02-23T14:10:27Z</time>
      </trkpt>
      <trkpt lat="42.94958" lon="0.74594">
        <ele>1184.7</ele>
        <time>2020-02-23T14:10:28Z</time>
      </trkpt>
      <trkpt lat="42.9496" lon="0.74594">
        <ele>1184.5</ele>
        <time>2020-02-23T14:10:29Z</time>
      </trkpt>
      <trkpt lat="42.94962" lon="0.74593">
        <ele>1184.3</ele>
        <time>2020-02-23T14:10:30Z</time>
      </trkpt>
      <trkpt lat="42.94964" lon="0.74592">
        <ele>1184.1</ele>
        <time>2020-02-23T14:10:31Z</time>
      </trkpt>
      <trkpt lat="42.94967" lon="0.74592">
        <ele>1183.9</ele>
        <time>2020-02-23T14:10:32Z</time>
      </trkpt>
      <trkpt lat="42.94968" lon="0.74591">
        <ele>1183.7</ele>
        <time>2020-02-23T14:10:33Z</time>
      </trkpt>
      <trkpt lat="42.9497" lon="0.7459">
        <ele>1183.6</ele>
        <time>2020-02-23T14:10:34Z</time>
      </trkpt>
      <trkpt lat="42.94972" lon="0.74589">
        <ele>1183.4</ele>
        <time>2020-02-23T14:10:35Z</time>
      </trkpt>
      <trkpt lat="42.94974" lon="0.74588">
        <ele>1183.2</ele>
        <time>2020-02-23T14:10:36Z</time>
      </trkpt>
      <trkpt lat="42.94976" lon="0.74588">
        <ele>1183.1</ele>
        <time>2020-02-23T14:10:37Z</time>
      </trkpt>
      <trkpt lat="42.94977" lon="0.74587">
        <ele>1183</ele>
        <time>2020-02-23T14:10:38Z</time>
      </trkpt>
      <trkpt lat="42.94979" lon="0.74587">
        <ele>1182.9</ele>
        <time>2020-02-23T14:10:39Z</time>
      </trkpt>
      <trkpt lat="42.94981" lon="0.74586">
        <ele>1182.8</ele>
        <time>2020-02-23T14:10:40Z</time>
      </trkpt>
      <trkpt lat="42.94982" lon="0.74586">
        <ele>1182.7</ele>
        <time>2020-02-23T14:10:41Z</time>
      </trkpt>
      <trkpt lat="42.94984" lon="0.74585">
        <ele>1182.5</ele>
        <time>2020-02-23T14:10:42Z</time>
      </trkpt>
      <trkpt lat="42.94986" lon="0.74585">
        <ele>1182.4</ele>
        <time>2020-02-23T14:10:43Z</time>
      </trkpt>
      <trkpt lat="42.94987" lon="0.74585">
        <ele>1182.3</ele>
        <time>2020-02-23T14:10:44Z</time>
      </trkpt>
      <trkpt lat="42.94989" lon="0.74584">
        <ele>1182.1</ele>
        <time>2020-02-23T14:10:45Z</time>
      </trkpt>
      <trkpt lat="42.94991" lon="0.74584">
        <ele>1182</ele>
        <time>2020-02-23T14:10:46Z</time>
      </trkpt>
      <trkpt lat="42.94993" lon="0.74584">
        <ele>1181.8</ele>
        <time>2020-02-23T14:10:47Z</time>
      </trkpt>
      <trkpt lat="42.94995" lon="0.74583">
        <ele>1181.6</ele>
        <time>2020-02-23T14:10:48Z</time>
      </trkpt>
      <trkpt lat="42.94997" lon="0.74582">
        <ele>1181.4</ele>
        <time>2020-02-23T14:10:49Z</time>
      </trkpt>
      <trkpt lat="42.94999" lon="0.7458">
        <ele>1181.2</ele>
        <time>2020-02-23T14:10:50Z</time>
      </trkpt>
      <trkpt lat="42.95001" lon="0.74579">
        <ele>1180.9</ele>
        <time>2020-02-23T14:10:51Z</time>
      </trkpt>
      <trkpt lat="42.95003" lon="0.74578">
        <ele>1180.8</ele>
        <time>2020-02-23T14:10:52Z</time>
      </trkpt>
      <trkpt lat="42.95005" lon="0.74576">
        <ele>1180.5</ele>
        <time>2020-02-23T14:10:53Z</time>
      </trkpt>
      <trkpt lat="42.95006" lon="0.74575">
        <ele>1180.3</ele>
        <time>2020-02-23T14:10:54Z</time>
      </trkpt>
      <trkpt lat="42.95008" lon="0.74574">
        <ele>1180.1</ele>
        <time>2020-02-23T14:10:55Z</time>
      </trkpt>
      <trkpt lat="42.9501" lon="0.74572">
        <ele>1179.9</ele>
        <time>2020-02-23T14:10:56Z</time>
      </trkpt>
      <trkpt lat="42.9501" lon="0.74571">
        <ele>1179.8</ele>
        <time>2020-02-23T14:10:57Z</time>
      </trkpt>
      <trkpt lat="42.95011" lon="0.7457">
        <ele>1179.7</ele>
        <time>2020-02-23T14:10:58Z</time>
      </trkpt>
      <trkpt lat="42.95012" lon="0.74568">
        <ele>1179.5</ele>
        <time>2020-02-23T14:10:59Z</time>
      </trkpt>
      <trkpt lat="42.95013" lon="0.74567">
        <ele>1179.4</ele>
        <time>2020-02-23T14:11:00Z</time>
      </trkpt>
      <trkpt lat="42.95013" lon="0.74565">
        <ele>1179.2</ele>
        <time>2020-02-23T14:11:01Z</time>
      </trkpt>
      <trkpt lat="42.95014" lon="0.74564">
        <ele>1179.1</ele>
        <time>2020-02-23T14:11:02Z</time>
      </trkpt>
      <trkpt lat="42.95014" lon="0.74563">
        <ele>1179</ele>
        <time>2020-02-23T14:11:03Z</time>
      </trkpt>
      <trkpt lat="42.95014" lon="0.74561">
        <ele>1178.9</ele>
        <time>2020-02-23T14:11:04Z</time>
      </trkpt>
      <trkpt lat="42.95015" lon="0.7456">
        <ele>1178.7</ele>
        <time>2020-02-23T14:11:05Z</time>
      </trkpt>
      <trkpt lat="42.95015" lon="0.74559">
        <ele>1178.6</ele>
        <time>2020-02-23T14:11:06Z</time>
      </trkpt>
      <trkpt lat="42.95016" lon="0.74558">
        <ele>1178.5</ele>
        <time>2020-02-23T14:11:07Z</time>
      </trkpt>
      <trkpt lat="42.95016" lon="0.74556">
        <ele>1178.3</ele>
        <time>2020-02-23T14:11:08Z</time>
      </trkpt>
      <trkpt lat="42.95018" lon="0.74555">
        <ele>1178.1</ele>
        <time>2020-02-23T14:11:09Z</time>
      </trkpt>
      <trkpt lat="42.95018" lon="0.74555">
        <ele>1178.1</ele>
        <time>2020-02-23T14:11:10Z</time>
      </trkpt>
      <trkpt lat="42.95019" lon="0.74554">
        <ele>1177.9</ele>
        <time>2020-02-23T14:11:11Z</time>
      </trkpt>
      <trkpt lat="42.9502" lon="0.74553">
        <ele>1177.7</ele>
        <time>2020-02-23T14:11:12Z</time>
      </trkpt>
      <trkpt lat="42.95021" lon="0.74552">
        <ele>1177.5</ele>
        <time>2020-02-23T14:11:13Z</time>
      </trkpt>
      <trkpt lat="42.95022" lon="0.74551">
        <ele>1177.3</ele>
        <time>2020-02-23T14:11:14Z</time>
      </trkpt>
      <trkpt lat="42.95023" lon="0.74549">
        <ele>1177.2</ele>
        <time>2020-02-23T14:11:15Z</time>
      </trkpt>
      <trkpt lat="42.95024" lon="0.74548">
        <ele>1177</ele>
        <time>2020-02-23T14:11:16Z</time>
      </trkpt>
      <trkpt lat="42.95026" lon="0.74547">
        <ele>1176.8</ele>
        <time>2020-02-23T14:11:17Z</time>
      </trkpt>
      <trkpt lat="42.95028" lon="0.74547">
        <ele>1176.5</ele>
        <time>2020-02-23T14:11:18Z</time>
      </trkpt>
      <trkpt lat="42.9503" lon="0.74546">
        <ele>1176.3</ele>
        <time>2020-02-23T14:11:19Z</time>
      </trkpt>
      <trkpt lat="42.95031" lon="0.74545">
        <ele>1176.1</ele>
        <time>2020-02-23T14:11:20Z</time>
      </trkpt>
      <trkpt lat="42.95033" lon="0.74543">
        <ele>1175.8</ele>
        <time>2020-02-23T14:11:21Z</time>
      </trkpt>
      <trkpt lat="42.95036" lon="0.74542">
        <ele>1175.4</ele>
        <time>2020-02-23T14:11:22Z</time>
      </trkpt>
      <trkpt lat="42.95038" lon="0.7454">
        <ele>1175.2</ele>
        <time>2020-02-23T14:11:23Z</time>
      </trkpt>
      <trkpt lat="42.95039" lon="0.74538">
        <ele>1174.9</ele>
        <time>2020-02-23T14:11:24Z</time>
      </trkpt>
      <trkpt lat="42.95041" lon="0.74536">
        <ele>1174.7</ele>
        <time>2020-02-23T14:11:25Z</time>
      </trkpt>
      <trkpt lat="42.95043" lon="0.74534">
        <ele>1174.4</ele>
        <time>2020-02-23T14:11:26Z</time>
      </trkpt>
      <trkpt lat="42.95045" lon="0.74532">
        <ele>1174.2</ele>
        <time>2020-02-23T14:11:27Z</time>
      </trkpt>
      <trkpt lat="42.95046" lon="0.74531">
        <ele>1174</ele>
        <time>2020-02-23T14:11:28Z</time>
      </trkpt>
      <trkpt lat="42.95048" lon="0.74527">
        <ele>1173.8</ele>
        <time>2020-02-23T14:11:29Z</time>
      </trkpt>
      <trkpt lat="42.95049" lon="0.74524">
        <ele>1173.6</ele>
        <time>2020-02-23T14:11:30Z</time>
      </trkpt>
      <trkpt lat="42.9505" lon="0.74521">
        <ele>1173.4</ele>
        <time>2020-02-23T14:11:31Z</time>
      </trkpt>
      <trkpt lat="42.95051" lon="0.74518">
        <ele>1173.2</ele>
        <time>2020-02-23T14:11:32Z</time>
      </trkpt>
      <trkpt lat="42.95052" lon="0.74514">
        <ele>1173</ele>
        <time>2020-02-23T14:11:33Z</time>
      </trkpt>
      <trkpt lat="42.95054" lon="0.74511">
        <ele>1172.8</ele>
        <time>2020-02-23T14:11:34Z</time>
      </trkpt>
      <trkpt lat="42.95055" lon="0.74507">
        <ele>1172.6</ele>
        <time>2020-02-23T14:11:35Z</time>
      </trkpt>
      <trkpt lat="42.95056" lon="0.74504">
        <ele>1172.4</ele>
        <time>2020-02-23T14:11:36Z</time>
      </trkpt>
      <trkpt lat="42.95058" lon="0.74501">
        <ele>1172.3</ele>
        <time>2020-02-23T14:11:37Z</time>
      </trkpt>
      <trkpt lat="42.95059" lon="0.74499">
        <ele>1172.1</ele>
        <time>2020-02-23T14:11:38Z</time>
      </trkpt>
      <trkpt lat="42.9506" lon="0.74496">
        <ele>1171.9</ele>
        <time>2020-02-23T14:11:39Z</time>
      </trkpt>
      <trkpt lat="42.95062" lon="0.74493">
        <ele>1171.8</ele>
        <time>2020-02-23T14:11:40Z</time>
      </trkpt>
      <trkpt lat="42.95064" lon="0.7449">
        <ele>1171.5</ele>
        <time>2020-02-23T14:11:41Z</time>
      </trkpt>
      <trkpt lat="42.95067" lon="0.74486">
        <ele>1171.2</ele>
        <time>2020-02-23T14:11:42Z</time>
      </trkpt>
      <trkpt lat="42.95069" lon="0.74483">
        <ele>1170.8</ele>
        <time>2020-02-23T14:11:43Z</time>
      </trkpt>
      <trkpt lat="42.95071" lon="0.74479">
        <ele>1170.5</ele>
        <time>2020-02-23T14:11:44Z</time>
      </trkpt>
      <trkpt lat="42.95071" lon="0.74479">
        <ele>1170.5</ele>
        <time>2020-02-23T14:11:45Z</time>
      </trkpt>
      <trkpt lat="42.95071" lon="0.74479">
        <ele>1170.5</ele>
        <time>2020-02-23T14:11:46Z</time>
      </trkpt>
      <trkpt lat="42.95073" lon="0.74477">
        <ele>1170.2</ele>
        <time>2020-02-23T14:11:47Z</time>
      </trkpt>
      <trkpt lat="42.95074" lon="0.74476">
        <ele>1170</ele>
        <time>2020-02-23T14:11:48Z</time>
      </trkpt>
      <trkpt lat="42.95076" lon="0.74474">
        <ele>1169.8</ele>
        <time>2020-02-23T14:11:49Z</time>
      </trkpt>
      <trkpt lat="42.95078" lon="0.74472">
        <ele>1169.5</ele>
        <time>2020-02-23T14:11:50Z</time>
      </trkpt>
      <trkpt lat="42.95079" lon="0.74471">
        <ele>1169.2</ele>
        <time>2020-02-23T14:11:51Z</time>
      </trkpt>
      <trkpt lat="42.95081" lon="0.7447">
        <ele>1168.9</ele>
        <time>2020-02-23T14:11:52Z</time>
      </trkpt>
      <trkpt lat="42.95083" lon="0.7447">
        <ele>1168.5</ele>
        <time>2020-02-23T14:11:53Z</time>
      </trkpt>
      <trkpt lat="42.95085" lon="0.7447">
        <ele>1168.2</ele>
        <time>2020-02-23T14:11:54Z</time>
      </trkpt>
      <trkpt lat="42.95087" lon="0.74469">
        <ele>1167.9</ele>
        <time>2020-02-23T14:11:55Z</time>
      </trkpt>
      <trkpt lat="42.95089" lon="0.74469">
        <ele>1167.6</ele>
        <time>2020-02-23T14:11:56Z</time>
      </trkpt>
      <trkpt lat="42.95091" lon="0.74468">
        <ele>1167.2</ele>
        <time>2020-02-23T14:11:57Z</time>
      </trkpt>
      <trkpt lat="42.95092" lon="0.74468">
        <ele>1167.1</ele>
        <time>2020-02-23T14:11:58Z</time>
      </trkpt>
      <trkpt lat="42.95095" lon="0.74468">
        <ele>1166.7</ele>
        <time>2020-02-23T14:11:59Z</time>
      </trkpt>
      <trkpt lat="42.95097" lon="0.74468">
        <ele>1166.3</ele>
        <time>2020-02-23T14:12:00Z</time>
      </trkpt>
      <trkpt lat="42.95099" lon="0.74468">
        <ele>1165.9</ele>
        <time>2020-02-23T14:12:01Z</time>
      </trkpt>
      <trkpt lat="42.95102" lon="0.74468">
        <ele>1165.6</ele>
        <time>2020-02-23T14:12:02Z</time>
      </trkpt>
      <trkpt lat="42.95104" lon="0.7447">
        <ele>1165.2</ele>
        <time>2020-02-23T14:12:03Z</time>
      </trkpt>
      <trkpt lat="42.95106" lon="0.74471">
        <ele>1164.8</ele>
        <time>2020-02-23T14:12:04Z</time>
      </trkpt>
      <trkpt lat="42.95108" lon="0.74472">
        <ele>1164.4</ele>
        <time>2020-02-23T14:12:05Z</time>
      </trkpt>
      <trkpt lat="42.9511" lon="0.74474">
        <ele>1164</ele>
        <time>2020-02-23T14:12:06Z</time>
      </trkpt>
      <trkpt lat="42.95113" lon="0.74475">
        <ele>1163.6</ele>
        <time>2020-02-23T14:12:07Z</time>
      </trkpt>
      <trkpt lat="42.95114" lon="0.74476">
        <ele>1163.4</ele>
        <time>2020-02-23T14:12:08Z</time>
      </trkpt>
      <trkpt lat="42.95114" lon="0.74476">
        <ele>1163.4</ele>
        <time>2020-02-23T14:12:09Z</time>
      </trkpt>
      <trkpt lat="42.95116" lon="0.74477">
        <ele>1163.2</ele>
        <time>2020-02-23T14:12:10Z</time>
      </trkpt>
      <trkpt lat="42.95117" lon="0.74478">
        <ele>1163</ele>
        <time>2020-02-23T14:12:11Z</time>
      </trkpt>
      <trkpt lat="42.95119" lon="0.74479">
        <ele>1162.7</ele>
        <time>2020-02-23T14:12:12Z</time>
      </trkpt>
      <trkpt lat="42.9512" lon="0.7448">
        <ele>1162.5</ele>
        <time>2020-02-23T14:12:13Z</time>
      </trkpt>
      <trkpt lat="42.95122" lon="0.7448">
        <ele>1162.3</ele>
        <time>2020-02-23T14:12:14Z</time>
      </trkpt>
      <trkpt lat="42.95123" lon="0.74481">
        <ele>1162.1</ele>
        <time>2020-02-23T14:12:15Z</time>
      </trkpt>
      <trkpt lat="42.95124" lon="0.74482">
        <ele>1161.9</ele>
        <time>2020-02-23T14:12:16Z</time>
      </trkpt>
      <trkpt lat="42.95126" lon="0.74483">
        <ele>1161.8</ele>
        <time>2020-02-23T14:12:17Z</time>
      </trkpt>
      <trkpt lat="42.95127" lon="0.74484">
        <ele>1161.6</ele>
        <time>2020-02-23T14:12:18Z</time>
      </trkpt>
      <trkpt lat="42.95128" lon="0.74485">
        <ele>1161.4</ele>
        <time>2020-02-23T14:12:19Z</time>
      </trkpt>
      <trkpt lat="42.95129" lon="0.74486">
        <ele>1161.3</ele>
        <time>2020-02-23T14:12:20Z</time>
      </trkpt>
      <trkpt lat="42.95131" lon="0.74487">
        <ele>1161.2</ele>
        <time>2020-02-23T14:12:21Z</time>
      </trkpt>
      <trkpt lat="42.95132" lon="0.74488">
        <ele>1161</ele>
        <time>2020-02-23T14:12:22Z</time>
      </trkpt>
      <trkpt lat="42.95133" lon="0.74489">
        <ele>1160.9</ele>
        <time>2020-02-23T14:12:23Z</time>
      </trkpt>
      <trkpt lat="42.95134" lon="0.7449">
        <ele>1160.8</ele>
        <time>2020-02-23T14:12:24Z</time>
      </trkpt>
      <trkpt lat="42.95134" lon="0.74491">
        <ele>1160.7</ele>
        <time>2020-02-23T14:12:25Z</time>
      </trkpt>
      <trkpt lat="42.95135" lon="0.74492">
        <ele>1160.6</ele>
        <time>2020-02-23T14:12:26Z</time>
      </trkpt>
      <trkpt lat="42.95136" lon="0.74494">
        <ele>1160.5</ele>
        <time>2020-02-23T14:12:27Z</time>
      </trkpt>
      <trkpt lat="42.95137" lon="0.74495">
        <ele>1160.4</ele>
        <time>2020-02-23T14:12:28Z</time>
      </trkpt>
      <trkpt lat="42.95138" lon="0.74496">
        <ele>1160.3</ele>
        <time>2020-02-23T14:12:29Z</time>
      </trkpt>
      <trkpt lat="42.95139" lon="0.74497">
        <ele>1160.2</ele>
        <time>2020-02-23T14:12:30Z</time>
      </trkpt>
      <trkpt lat="42.9514" lon="0.74498">
        <ele>1160.1</ele>
        <time>2020-02-23T14:12:31Z</time>
      </trkpt>
      <trkpt lat="42.9514" lon="0.74499">
        <ele>1160</ele>
        <time>2020-02-23T14:12:32Z</time>
      </trkpt>
      <trkpt lat="42.95141" lon="0.745">
        <ele>1159.8</ele>
        <time>2020-02-23T14:12:33Z</time>
      </trkpt>
      <trkpt lat="42.95142" lon="0.74501">
        <ele>1159.7</ele>
        <time>2020-02-23T14:12:34Z</time>
      </trkpt>
      <trkpt lat="42.95143" lon="0.74502">
        <ele>1159.6</ele>
        <time>2020-02-23T14:12:35Z</time>
      </trkpt>
      <trkpt lat="42.95144" lon="0.74503">
        <ele>1159.5</ele>
        <time>2020-02-23T14:12:36Z</time>
      </trkpt>
      <trkpt lat="42.95145" lon="0.74504">
        <ele>1159.3</ele>
        <time>2020-02-23T14:12:37Z</time>
      </trkpt>
      <trkpt lat="42.95146" lon="0.74505">
        <ele>1159.2</ele>
        <time>2020-02-23T14:12:38Z</time>
      </trkpt>
      <trkpt lat="42.95146" lon="0.74505">
        <ele>1159.2</ele>
        <time>2020-02-23T14:12:39Z</time>
      </trkpt>
      <trkpt lat="42.95149" lon="0.74507">
        <ele>1158.8</ele>
        <time>2020-02-23T14:12:40Z</time>
      </trkpt>
      <trkpt lat="42.95149" lon="0.74507">
        <ele>1158.8</ele>
        <time>2020-02-23T14:12:41Z</time>
      </trkpt>
      <trkpt lat="42.95149" lon="0.74507">
        <ele>1158.8</ele>
        <time>2020-02-23T14:12:42Z</time>
      </trkpt>
      <trkpt lat="42.95149" lon="0.74507">
        <ele>1158.7</ele>
        <time>2020-02-23T14:12:43Z</time>
      </trkpt>
      <trkpt lat="42.9515" lon="0.74508">
        <ele>1158.7</ele>
        <time>2020-02-23T14:12:44Z</time>
      </trkpt>
      <trkpt lat="42.9515" lon="0.74508">
        <ele>1158.6</ele>
        <time>2020-02-23T14:12:45Z</time>
      </trkpt>
      <trkpt lat="42.9515" lon="0.74509">
        <ele>1158.5</ele>
        <time>2020-02-23T14:12:46Z</time>
      </trkpt>
      <trkpt lat="42.95151" lon="0.74509">
        <ele>1158.4</ele>
        <time>2020-02-23T14:12:47Z</time>
      </trkpt>
      <trkpt lat="42.95151" lon="0.7451">
        <ele>1158.4</ele>
        <time>2020-02-23T14:12:48Z</time>
      </trkpt>
      <trkpt lat="42.95151" lon="0.7451">
        <ele>1158.3</ele>
        <time>2020-02-23T14:12:49Z</time>
      </trkpt>
      <trkpt lat="42.95152" lon="0.7451">
        <ele>1158.2</ele>
        <time>2020-02-23T14:12:50Z</time>
      </trkpt>
      <trkpt lat="42.95152" lon="0.74511">
        <ele>1158.2</ele>
        <time>2020-02-23T14:12:51Z</time>
      </trkpt>
      <trkpt lat="42.95152" lon="0.74511">
        <ele>1158.1</ele>
        <time>2020-02-23T14:12:52Z</time>
      </trkpt>
      <trkpt lat="42.95153" lon="0.74512">
        <ele>1158</ele>
        <time>2020-02-23T14:12:53Z</time>
      </trkpt>
      <trkpt lat="42.95153" lon="0.74512">
        <ele>1157.9</ele>
        <time>2020-02-23T14:12:54Z</time>
      </trkpt>
      <trkpt lat="42.95154" lon="0.74513">
        <ele>1157.9</ele>
        <time>2020-02-23T14:12:55Z</time>
      </trkpt>
      <trkpt lat="42.95154" lon="0.74513">
        <ele>1157.8</ele>
        <time>2020-02-23T14:12:56Z</time>
      </trkpt>
      <trkpt lat="42.95154" lon="0.74513">
        <ele>1157.7</ele>
        <time>2020-02-23T14:12:57Z</time>
      </trkpt>
      <trkpt lat="42.95155" lon="0.74514">
        <ele>1157.6</ele>
        <time>2020-02-23T14:12:58Z</time>
      </trkpt>
      <trkpt lat="42.95155" lon="0.74514">
        <ele>1157.6</ele>
        <time>2020-02-23T14:12:59Z</time>
      </trkpt>
      <trkpt lat="42.95155" lon="0.74515">
        <ele>1157.5</ele>
        <time>2020-02-23T14:13:00Z</time>
      </trkpt>
      <trkpt lat="42.95156" lon="0.74515">
        <ele>1157.4</ele>
        <time>2020-02-23T14:13:01Z</time>
      </trkpt>
      <trkpt lat="42.95156" lon="0.74516">
        <ele>1157.4</ele>
        <time>2020-02-23T14:13:02Z</time>
      </trkpt>
      <trkpt lat="42.95157" lon="0.74518">
        <ele>1157</ele>
        <time>2020-02-23T14:13:03Z</time>
      </trkpt>
      <trkpt lat="42.95159" lon="0.7452">
        <ele>1156.7</ele>
        <time>2020-02-23T14:13:04Z</time>
      </trkpt>
      <trkpt lat="42.9516" lon="0.74522">
        <ele>1156.4</ele>
        <time>2020-02-23T14:13:05Z</time>
      </trkpt>
      <trkpt lat="42.95161" lon="0.74524">
        <ele>1156</ele>
        <time>2020-02-23T14:13:06Z</time>
      </trkpt>
      <trkpt lat="42.95162" lon="0.74527">
        <ele>1155.6</ele>
        <time>2020-02-23T14:13:07Z</time>
      </trkpt>
      <trkpt lat="42.95163" lon="0.74528">
        <ele>1155.4</ele>
        <time>2020-02-23T14:13:08Z</time>
      </trkpt>
      <trkpt lat="42.95164" lon="0.74529">
        <ele>1155.2</ele>
        <time>2020-02-23T14:13:09Z</time>
      </trkpt>
      <trkpt lat="42.95165" lon="0.7453">
        <ele>1154.9</ele>
        <time>2020-02-23T14:13:10Z</time>
      </trkpt>
      <trkpt lat="42.95166" lon="0.74531">
        <ele>1154.7</ele>
        <time>2020-02-23T14:13:11Z</time>
      </trkpt>
      <trkpt lat="42.95167" lon="0.74532">
        <ele>1154.5</ele>
        <time>2020-02-23T14:13:12Z</time>
      </trkpt>
      <trkpt lat="42.95168" lon="0.74533">
        <ele>1154.2</ele>
        <time>2020-02-23T14:13:13Z</time>
      </trkpt>
      <trkpt lat="42.95168" lon="0.74534">
        <ele>1154</ele>
        <time>2020-02-23T14:13:14Z</time>
      </trkpt>
      <trkpt lat="42.95169" lon="0.74535">
        <ele>1153.8</ele>
        <time>2020-02-23T14:13:15Z</time>
      </trkpt>
      <trkpt lat="42.9517" lon="0.74535">
        <ele>1153.6</ele>
        <time>2020-02-23T14:13:16Z</time>
      </trkpt>
      <trkpt lat="42.95171" lon="0.74536">
        <ele>1153.4</ele>
        <time>2020-02-23T14:13:17Z</time>
      </trkpt>
      <trkpt lat="42.95172" lon="0.74536">
        <ele>1153.3</ele>
        <time>2020-02-23T14:13:18Z</time>
      </trkpt>
      <trkpt lat="42.95172" lon="0.74536">
        <ele>1153.1</ele>
        <time>2020-02-23T14:13:19Z</time>
      </trkpt>
      <trkpt lat="42.95173" lon="0.74537">
        <ele>1152.9</ele>
        <time>2020-02-23T14:13:20Z</time>
      </trkpt>
      <trkpt lat="42.95174" lon="0.74537">
        <ele>1152.8</ele>
        <time>2020-02-23T14:13:21Z</time>
      </trkpt>
      <trkpt lat="42.95175" lon="0.74537">
        <ele>1152.6</ele>
        <time>2020-02-23T14:13:22Z</time>
      </trkpt>
      <trkpt lat="42.95176" lon="0.74537">
        <ele>1152.4</ele>
        <time>2020-02-23T14:13:23Z</time>
      </trkpt>
      <trkpt lat="42.95176" lon="0.74538">
        <ele>1152.3</ele>
        <time>2020-02-23T14:13:24Z</time>
      </trkpt>
      <trkpt lat="42.95177" lon="0.74538">
        <ele>1152.1</ele>
        <time>2020-02-23T14:13:25Z</time>
      </trkpt>
      <trkpt lat="42.95178" lon="0.74538">
        <ele>1151.9</ele>
        <time>2020-02-23T14:13:26Z</time>
      </trkpt>
      <trkpt lat="42.95179" lon="0.7454">
        <ele>1151.6</ele>
        <time>2020-02-23T14:13:27Z</time>
      </trkpt>
      <trkpt lat="42.9518" lon="0.74542">
        <ele>1151.3</ele>
        <time>2020-02-23T14:13:28Z</time>
      </trkpt>
      <trkpt lat="42.95181" lon="0.74543">
        <ele>1151</ele>
        <time>2020-02-23T14:13:29Z</time>
      </trkpt>
      <trkpt lat="42.95182" lon="0.74545">
        <ele>1150.7</ele>
        <time>2020-02-23T14:13:30Z</time>
      </trkpt>
      <trkpt lat="42.95183" lon="0.74547">
        <ele>1150.4</ele>
        <time>2020-02-23T14:13:31Z</time>
      </trkpt>
      <trkpt lat="42.95184" lon="0.74549">
        <ele>1150.1</ele>
        <time>2020-02-23T14:13:32Z</time>
      </trkpt>
      <trkpt lat="42.95186" lon="0.74552">
        <ele>1149.5</ele>
        <time>2020-02-23T14:13:33Z</time>
      </trkpt>
      <trkpt lat="42.95188" lon="0.74556">
        <ele>1148.9</ele>
        <time>2020-02-23T14:13:34Z</time>
      </trkpt>
      <trkpt lat="42.9519" lon="0.74559">
        <ele>1148.3</ele>
        <time>2020-02-23T14:13:35Z</time>
      </trkpt>
      <trkpt lat="42.95192" lon="0.74563">
        <ele>1147.8</ele>
        <time>2020-02-23T14:13:36Z</time>
      </trkpt>
      <trkpt lat="42.95194" lon="0.74566">
        <ele>1147.3</ele>
        <time>2020-02-23T14:13:37Z</time>
      </trkpt>
      <trkpt lat="42.95197" lon="0.7457">
        <ele>1146.8</ele>
        <time>2020-02-23T14:13:38Z</time>
      </trkpt>
      <trkpt lat="42.952" lon="0.74572">
        <ele>1146.3</ele>
        <time>2020-02-23T14:13:39Z</time>
      </trkpt>
      <trkpt lat="42.95208" lon="0.74579">
        <ele>1144.9</ele>
        <time>2020-02-23T14:13:40Z</time>
      </trkpt>
      <trkpt lat="42.95208" lon="0.74579">
        <ele>1144.9</ele>
        <time>2020-02-23T14:13:41Z</time>
      </trkpt>
      <trkpt lat="42.95211" lon="0.74581">
        <ele>1144.5</ele>
        <time>2020-02-23T14:13:42Z</time>
      </trkpt>
      <trkpt lat="42.95213" lon="0.74583">
        <ele>1144.1</ele>
        <time>2020-02-23T14:13:43Z</time>
      </trkpt>
      <trkpt lat="42.95216" lon="0.74585">
        <ele>1143.9</ele>
        <time>2020-02-23T14:13:44Z</time>
      </trkpt>
      <trkpt lat="42.95218" lon="0.74587">
        <ele>1143.6</ele>
        <time>2020-02-23T14:13:45Z</time>
      </trkpt>
      <trkpt lat="42.95221" lon="0.74589">
        <ele>1143.3</ele>
        <time>2020-02-23T14:13:46Z</time>
      </trkpt>
      <trkpt lat="42.95224" lon="0.74592">
        <ele>1142.9</ele>
        <time>2020-02-23T14:13:47Z</time>
      </trkpt>
      <trkpt lat="42.95226" lon="0.74595">
        <ele>1142.6</ele>
        <time>2020-02-23T14:13:48Z</time>
      </trkpt>
      <trkpt lat="42.95228" lon="0.74597">
        <ele>1142.4</ele>
        <time>2020-02-23T14:13:49Z</time>
      </trkpt>
      <trkpt lat="42.95229" lon="0.746">
        <ele>1142.2</ele>
        <time>2020-02-23T14:13:50Z</time>
      </trkpt>
      <trkpt lat="42.9523" lon="0.74603">
        <ele>1142</ele>
        <time>2020-02-23T14:13:51Z</time>
      </trkpt>
      <trkpt lat="42.95232" lon="0.74605">
        <ele>1141.8</ele>
        <time>2020-02-23T14:13:52Z</time>
      </trkpt>
      <trkpt lat="42.95233" lon="0.74607">
        <ele>1141.6</ele>
        <time>2020-02-23T14:13:53Z</time>
      </trkpt>
      <trkpt lat="42.95234" lon="0.74608">
        <ele>1141.5</ele>
        <time>2020-02-23T14:13:54Z</time>
      </trkpt>
      <trkpt lat="42.95235" lon="0.74609">
        <ele>1141.4</ele>
        <time>2020-02-23T14:13:55Z</time>
      </trkpt>
      <trkpt lat="42.95236" lon="0.7461">
        <ele>1141.2</ele>
        <time>2020-02-23T14:13:56Z</time>
      </trkpt>
      <trkpt lat="42.95237" lon="0.74611">
        <ele>1141.1</ele>
        <time>2020-02-23T14:13:57Z</time>
      </trkpt>
      <trkpt lat="42.95238" lon="0.74612">
        <ele>1140.9</ele>
        <time>2020-02-23T14:13:58Z</time>
      </trkpt>
      <trkpt lat="42.95239" lon="0.74613">
        <ele>1140.8</ele>
        <time>2020-02-23T14:13:59Z</time>
      </trkpt>
      <trkpt lat="42.9524" lon="0.74613">
        <ele>1140.7</ele>
        <time>2020-02-23T14:14:00Z</time>
      </trkpt>
      <trkpt lat="42.95241" lon="0.74614">
        <ele>1140.6</ele>
        <time>2020-02-23T14:14:01Z</time>
      </trkpt>
      <trkpt lat="42.95242" lon="0.74614">
        <ele>1140.6</ele>
        <time>2020-02-23T14:14:02Z</time>
      </trkpt>
      <trkpt lat="42.95243" lon="0.74615">
        <ele>1140.5</ele>
        <time>2020-02-23T14:14:03Z</time>
      </trkpt>
      <trkpt lat="42.95244" lon="0.74615">
        <ele>1140.4</ele>
        <time>2020-02-23T14:14:04Z</time>
      </trkpt>
      <trkpt lat="42.95245" lon="0.74616">
        <ele>1140.3</ele>
        <time>2020-02-23T14:14:05Z</time>
      </trkpt>
      <trkpt lat="42.95245" lon="0.74617">
        <ele>1140.3</ele>
        <time>2020-02-23T14:14:06Z</time>
      </trkpt>
      <trkpt lat="42.95246" lon="0.74617">
        <ele>1140.2</ele>
        <time>2020-02-23T14:14:07Z</time>
      </trkpt>
      <trkpt lat="42.95247" lon="0.74618">
        <ele>1140.1</ele>
        <time>2020-02-23T14:14:08Z</time>
      </trkpt>
      <trkpt lat="42.95248" lon="0.74618">
        <ele>1140.1</ele>
        <time>2020-02-23T14:14:09Z</time>
      </trkpt>
      <trkpt lat="42.95249" lon="0.74619">
        <ele>1140</ele>
        <time>2020-02-23T14:14:10Z</time>
      </trkpt>
      <trkpt lat="42.95249" lon="0.7462">
        <ele>1140</ele>
        <time>2020-02-23T14:14:11Z</time>
      </trkpt>
      <trkpt lat="42.9525" lon="0.7462">
        <ele>1139.9</ele>
        <time>2020-02-23T14:14:12Z</time>
      </trkpt>
      <trkpt lat="42.95251" lon="0.74621">
        <ele>1139.8</ele>
        <time>2020-02-23T14:14:13Z</time>
      </trkpt>
      <trkpt lat="42.95252" lon="0.74622">
        <ele>1139.8</ele>
        <time>2020-02-23T14:14:14Z</time>
      </trkpt>
      <trkpt lat="42.95252" lon="0.74622">
        <ele>1139.7</ele>
        <time>2020-02-23T14:14:15Z</time>
      </trkpt>
      <trkpt lat="42.95253" lon="0.74623">
        <ele>1139.6</ele>
        <time>2020-02-23T14:14:16Z</time>
      </trkpt>
      <trkpt lat="42.95254" lon="0.74624">
        <ele>1139.6</ele>
        <time>2020-02-23T14:14:17Z</time>
      </trkpt>
      <trkpt lat="42.95255" lon="0.74625">
        <ele>1139.5</ele>
        <time>2020-02-23T14:14:18Z</time>
      </trkpt>
      <trkpt lat="42.95255" lon="0.74625">
        <ele>1139.5</ele>
        <time>2020-02-23T14:14:19Z</time>
      </trkpt>
      <trkpt lat="42.95256" lon="0.74626">
        <ele>1139.4</ele>
        <time>2020-02-23T14:14:20Z</time>
      </trkpt>
      <trkpt lat="42.95257" lon="0.74628">
        <ele>1139.2</ele>
        <time>2020-02-23T14:14:21Z</time>
      </trkpt>
      <trkpt lat="42.95259" lon="0.7463">
        <ele>1139.1</ele>
        <time>2020-02-23T14:14:22Z</time>
      </trkpt>
      <trkpt lat="42.9526" lon="0.74632">
        <ele>1139</ele>
        <time>2020-02-23T14:14:23Z</time>
      </trkpt>
      <trkpt lat="42.95261" lon="0.74634">
        <ele>1138.8</ele>
        <time>2020-02-23T14:14:24Z</time>
      </trkpt>
      <trkpt lat="42.95262" lon="0.74636">
        <ele>1138.6</ele>
        <time>2020-02-23T14:14:25Z</time>
      </trkpt>
      <trkpt lat="42.95263" lon="0.74638">
        <ele>1138.4</ele>
        <time>2020-02-23T14:14:26Z</time>
      </trkpt>
      <trkpt lat="42.95265" lon="0.74641">
        <ele>1138.2</ele>
        <time>2020-02-23T14:14:27Z</time>
      </trkpt>
      <trkpt lat="42.95266" lon="0.74643">
        <ele>1138</ele>
        <time>2020-02-23T14:14:28Z</time>
      </trkpt>
      <trkpt lat="42.95267" lon="0.74646">
        <ele>1137.8</ele>
        <time>2020-02-23T14:14:29Z</time>
      </trkpt>
      <trkpt lat="42.95268" lon="0.74649">
        <ele>1137.5</ele>
        <time>2020-02-23T14:14:30Z</time>
      </trkpt>
      <trkpt lat="42.95269" lon="0.74652">
        <ele>1137.2</ele>
        <time>2020-02-23T14:14:31Z</time>
      </trkpt>
      <trkpt lat="42.9527" lon="0.74655">
        <ele>1136.8</ele>
        <time>2020-02-23T14:14:32Z</time>
      </trkpt>
      <trkpt lat="42.9527" lon="0.74658">
        <ele>1136.5</ele>
        <time>2020-02-23T14:14:33Z</time>
      </trkpt>
      <trkpt lat="42.95271" lon="0.74661">
        <ele>1136.2</ele>
        <time>2020-02-23T14:14:34Z</time>
      </trkpt>
      <trkpt lat="42.95272" lon="0.74663">
        <ele>1136</ele>
        <time>2020-02-23T14:14:35Z</time>
      </trkpt>
      <trkpt lat="42.95272" lon="0.74664">
        <ele>1135.9</ele>
        <time>2020-02-23T14:14:36Z</time>
      </trkpt>
      <trkpt lat="42.95272" lon="0.74666">
        <ele>1135.7</ele>
        <time>2020-02-23T14:14:37Z</time>
      </trkpt>
      <trkpt lat="42.95273" lon="0.74668">
        <ele>1135.6</ele>
        <time>2020-02-23T14:14:38Z</time>
      </trkpt>
      <trkpt lat="42.95273" lon="0.7467">
        <ele>1135.4</ele>
        <time>2020-02-23T14:14:39Z</time>
      </trkpt>
      <trkpt lat="42.95273" lon="0.74671">
        <ele>1135.2</ele>
        <time>2020-02-23T14:14:40Z</time>
      </trkpt>
      <trkpt lat="42.95274" lon="0.74673">
        <ele>1135.1</ele>
        <time>2020-02-23T14:14:41Z</time>
      </trkpt>
      <trkpt lat="42.95274" lon="0.74675">
        <ele>1134.8</ele>
        <time>2020-02-23T14:14:42Z</time>
      </trkpt>
      <trkpt lat="42.95275" lon="0.74677">
        <ele>1134.5</ele>
        <time>2020-02-23T14:14:43Z</time>
      </trkpt>
      <trkpt lat="42.95276" lon="0.7468">
        <ele>1134.2</ele>
        <time>2020-02-23T14:14:44Z</time>
      </trkpt>
      <trkpt lat="42.95277" lon="0.74682">
        <ele>1133.9</ele>
        <time>2020-02-23T14:14:45Z</time>
      </trkpt>
      <trkpt lat="42.95278" lon="0.74684">
        <ele>1133.6</ele>
        <time>2020-02-23T14:14:46Z</time>
      </trkpt>
      <trkpt lat="42.95279" lon="0.74686">
        <ele>1133.3</ele>
        <time>2020-02-23T14:14:47Z</time>
      </trkpt>
      <trkpt lat="42.95279" lon="0.74688">
        <ele>1133</ele>
        <time>2020-02-23T14:14:48Z</time>
      </trkpt>
      <trkpt lat="42.9528" lon="0.74693">
        <ele>1132.4</ele>
        <time>2020-02-23T14:14:49Z</time>
      </trkpt>
      <trkpt lat="42.95281" lon="0.74697">
        <ele>1131.9</ele>
        <time>2020-02-23T14:14:50Z</time>
      </trkpt>
      <trkpt lat="42.95281" lon="0.74701">
        <ele>1131.3</ele>
        <time>2020-02-23T14:14:51Z</time>
      </trkpt>
      <trkpt lat="42.95284" lon="0.74702">
        <ele>1130.8</ele>
        <time>2020-02-23T14:14:52Z</time>
      </trkpt>
      <trkpt lat="42.95286" lon="0.74704">
        <ele>1130.2</ele>
        <time>2020-02-23T14:14:53Z</time>
      </trkpt>
      <trkpt lat="42.95289" lon="0.74706">
        <ele>1129.7</ele>
        <time>2020-02-23T14:14:54Z</time>
      </trkpt>
      <trkpt lat="42.95291" lon="0.74708">
        <ele>1129.2</ele>
        <time>2020-02-23T14:14:55Z</time>
      </trkpt>
      <trkpt lat="42.95293" lon="0.7471">
        <ele>1128.9</ele>
        <time>2020-02-23T14:14:56Z</time>
      </trkpt>
      <trkpt lat="42.95294" lon="0.74712">
        <ele>1128.5</ele>
        <time>2020-02-23T14:14:57Z</time>
      </trkpt>
      <trkpt lat="42.95295" lon="0.74714">
        <ele>1128.1</ele>
        <time>2020-02-23T14:14:58Z</time>
      </trkpt>
      <trkpt lat="42.95297" lon="0.74716">
        <ele>1127.7</ele>
        <time>2020-02-23T14:14:59Z</time>
      </trkpt>
      <trkpt lat="42.95298" lon="0.74718">
        <ele>1127.3</ele>
        <time>2020-02-23T14:15:00Z</time>
      </trkpt>
      <trkpt lat="42.95299" lon="0.74721">
        <ele>1126.8</ele>
        <time>2020-02-23T14:15:01Z</time>
      </trkpt>
      <trkpt lat="42.953" lon="0.74723">
        <ele>1126.5</ele>
        <time>2020-02-23T14:15:02Z</time>
      </trkpt>
      <trkpt lat="42.95301" lon="0.74726">
        <ele>1126.2</ele>
        <time>2020-02-23T14:15:03Z</time>
      </trkpt>
      <trkpt lat="42.95302" lon="0.74728">
        <ele>1125.9</ele>
        <time>2020-02-23T14:15:04Z</time>
      </trkpt>
      <trkpt lat="42.95303" lon="0.7473">
        <ele>1125.6</ele>
        <time>2020-02-23T14:15:05Z</time>
      </trkpt>
      <trkpt lat="42.95303" lon="0.74731">
        <ele>1125.5</ele>
        <time>2020-02-23T14:15:06Z</time>
      </trkpt>
      <trkpt lat="42.95304" lon="0.74732">
        <ele>1125.3</ele>
        <time>2020-02-23T14:15:07Z</time>
      </trkpt>
      <trkpt lat="42.95304" lon="0.74733">
        <ele>1125.2</ele>
        <time>2020-02-23T14:15:08Z</time>
      </trkpt>
      <trkpt lat="42.95305" lon="0.74734">
        <ele>1125.1</ele>
        <time>2020-02-23T14:15:09Z</time>
      </trkpt>
      <trkpt lat="42.95305" lon="0.74735">
        <ele>1125</ele>
        <time>2020-02-23T14:15:10Z</time>
      </trkpt>
      <trkpt lat="42.95306" lon="0.74735">
        <ele>1124.9</ele>
        <time>2020-02-23T14:15:11Z</time>
      </trkpt>
      <trkpt lat="42.95306" lon="0.74736">
        <ele>1124.8</ele>
        <time>2020-02-23T14:15:12Z</time>
      </trkpt>
      <trkpt lat="42.95307" lon="0.74737">
        <ele>1124.7</ele>
        <time>2020-02-23T14:15:13Z</time>
      </trkpt>
      <trkpt lat="42.95307" lon="0.74738">
        <ele>1124.6</ele>
        <time>2020-02-23T14:15:14Z</time>
      </trkpt>
      <trkpt lat="42.95308" lon="0.74739">
        <ele>1124.5</ele>
        <time>2020-02-23T14:15:15Z</time>
      </trkpt>
      <trkpt lat="42.95308" lon="0.7474">
        <ele>1124.4</ele>
        <time>2020-02-23T14:15:16Z</time>
      </trkpt>
      <trkpt lat="42.95308" lon="0.7474">
        <ele>1124.2</ele>
        <time>2020-02-23T14:15:17Z</time>
      </trkpt>
      <trkpt lat="42.95309" lon="0.74741">
        <ele>1124.1</ele>
        <time>2020-02-23T14:15:18Z</time>
      </trkpt>
      <trkpt lat="42.9531" lon="0.74742">
        <ele>1123.9</ele>
        <time>2020-02-23T14:15:19Z</time>
      </trkpt>
      <trkpt lat="42.95311" lon="0.74743">
        <ele>1123.8</ele>
        <time>2020-02-23T14:15:20Z</time>
      </trkpt>
      <trkpt lat="42.95312" lon="0.74744">
        <ele>1123.6</ele>
        <time>2020-02-23T14:15:21Z</time>
      </trkpt>
      <trkpt lat="42.95313" lon="0.74745">
        <ele>1123.4</ele>
        <time>2020-02-23T14:15:22Z</time>
      </trkpt>
      <trkpt lat="42.95314" lon="0.74746">
        <ele>1123.3</ele>
        <time>2020-02-23T14:15:23Z</time>
      </trkpt>
      <trkpt lat="42.95315" lon="0.74747">
        <ele>1123.1</ele>
        <time>2020-02-23T14:15:24Z</time>
      </trkpt>
      <trkpt lat="42.95316" lon="0.74748">
        <ele>1123</ele>
        <time>2020-02-23T14:15:25Z</time>
      </trkpt>
      <trkpt lat="42.95317" lon="0.7475">
        <ele>1122.8</ele>
        <time>2020-02-23T14:15:26Z</time>
      </trkpt>
      <trkpt lat="42.95317" lon="0.74753">
        <ele>1122.6</ele>
        <time>2020-02-23T14:15:27Z</time>
      </trkpt>
      <trkpt lat="42.95318" lon="0.74755">
        <ele>1122.4</ele>
        <time>2020-02-23T14:15:28Z</time>
      </trkpt>
      <trkpt lat="42.95318" lon="0.74757">
        <ele>1122.2</ele>
        <time>2020-02-23T14:15:29Z</time>
      </trkpt>
      <trkpt lat="42.95319" lon="0.7476">
        <ele>1122.1</ele>
        <time>2020-02-23T14:15:30Z</time>
      </trkpt>
      <trkpt lat="42.95319" lon="0.74762">
        <ele>1121.9</ele>
        <time>2020-02-23T14:15:31Z</time>
      </trkpt>
      <trkpt lat="42.9532" lon="0.74764">
        <ele>1121.8</ele>
        <time>2020-02-23T14:15:32Z</time>
      </trkpt>
      <trkpt lat="42.95321" lon="0.74765">
        <ele>1121.6</ele>
        <time>2020-02-23T14:15:33Z</time>
      </trkpt>
      <trkpt lat="42.95321" lon="0.74767">
        <ele>1121.5</ele>
        <time>2020-02-23T14:15:34Z</time>
      </trkpt>
      <trkpt lat="42.95322" lon="0.74769">
        <ele>1121.3</ele>
        <time>2020-02-23T14:15:35Z</time>
      </trkpt>
      <trkpt lat="42.95322" lon="0.74771">
        <ele>1121.1</ele>
        <time>2020-02-23T14:15:36Z</time>
      </trkpt>
      <trkpt lat="42.95323" lon="0.74772">
        <ele>1120.9</ele>
        <time>2020-02-23T14:15:37Z</time>
      </trkpt>
      <trkpt lat="42.95323" lon="0.74774">
        <ele>1120.7</ele>
        <time>2020-02-23T14:15:38Z</time>
      </trkpt>
      <trkpt lat="42.95323" lon="0.74775">
        <ele>1120.6</ele>
        <time>2020-02-23T14:15:39Z</time>
      </trkpt>
      <trkpt lat="42.95323" lon="0.74777">
        <ele>1120.5</ele>
        <time>2020-02-23T14:15:40Z</time>
      </trkpt>
      <trkpt lat="42.95322" lon="0.74778">
        <ele>1120.4</ele>
        <time>2020-02-23T14:15:41Z</time>
      </trkpt>
      <trkpt lat="42.95322" lon="0.74779">
        <ele>1120.3</ele>
        <time>2020-02-23T14:15:42Z</time>
      </trkpt>
      <trkpt lat="42.95322" lon="0.74781">
        <ele>1120.2</ele>
        <time>2020-02-23T14:15:43Z</time>
      </trkpt>
      <trkpt lat="42.95321" lon="0.74782">
        <ele>1120.1</ele>
        <time>2020-02-23T14:15:44Z</time>
      </trkpt>
      <trkpt lat="42.95321" lon="0.74783">
        <ele>1120</ele>
        <time>2020-02-23T14:15:45Z</time>
      </trkpt>
      <trkpt lat="42.9532" lon="0.74785">
        <ele>1119.9</ele>
        <time>2020-02-23T14:15:46Z</time>
      </trkpt>
      <trkpt lat="42.9532" lon="0.74786">
        <ele>1119.8</ele>
        <time>2020-02-23T14:15:47Z</time>
      </trkpt>
      <trkpt lat="42.9532" lon="0.74788">
        <ele>1119.7</ele>
        <time>2020-02-23T14:15:48Z</time>
      </trkpt>
      <trkpt lat="42.9532" lon="0.74789">
        <ele>1119.6</ele>
        <time>2020-02-23T14:15:49Z</time>
      </trkpt>
      <trkpt lat="42.9532" lon="0.74791">
        <ele>1119.5</ele>
        <time>2020-02-23T14:15:50Z</time>
      </trkpt>
      <trkpt lat="42.95321" lon="0.74792">
        <ele>1119.4</ele>
        <time>2020-02-23T14:15:51Z</time>
      </trkpt>
      <trkpt lat="42.95321" lon="0.74794">
        <ele>1119.3</ele>
        <time>2020-02-23T14:15:52Z</time>
      </trkpt>
      <trkpt lat="42.95321" lon="0.74796">
        <ele>1119.2</ele>
        <time>2020-02-23T14:15:53Z</time>
      </trkpt>
      <trkpt lat="42.95321" lon="0.74797">
        <ele>1119.1</ele>
        <time>2020-02-23T14:15:54Z</time>
      </trkpt>
      <trkpt lat="42.95321" lon="0.74799">
        <ele>1119.1</ele>
        <time>2020-02-23T14:15:55Z</time>
      </trkpt>
      <trkpt lat="42.95321" lon="0.748">
        <ele>1119</ele>
        <time>2020-02-23T14:15:56Z</time>
      </trkpt>
      <trkpt lat="42.95322" lon="0.74801">
        <ele>1119</ele>
        <time>2020-02-23T14:15:57Z</time>
      </trkpt>
      <trkpt lat="42.95322" lon="0.74801">
        <ele>1118.9</ele>
        <time>2020-02-23T14:15:58Z</time>
      </trkpt>
      <trkpt lat="42.95322" lon="0.74802">
        <ele>1118.9</ele>
        <time>2020-02-23T14:15:59Z</time>
      </trkpt>
      <trkpt lat="42.95322" lon="0.74803">
        <ele>1118.9</ele>
        <time>2020-02-23T14:16:00Z</time>
      </trkpt>
      <trkpt lat="42.95323" lon="0.74804">
        <ele>1118.8</ele>
        <time>2020-02-23T14:16:01Z</time>
      </trkpt>
      <trkpt lat="42.95323" lon="0.74805">
        <ele>1118.8</ele>
        <time>2020-02-23T14:16:02Z</time>
      </trkpt>
      <trkpt lat="42.95323" lon="0.74806">
        <ele>1118.7</ele>
        <time>2020-02-23T14:16:03Z</time>
      </trkpt>
      <trkpt lat="42.95324" lon="0.74807">
        <ele>1118.7</ele>
        <time>2020-02-23T14:16:04Z</time>
      </trkpt>
      <trkpt lat="42.95324" lon="0.74808">
        <ele>1118.7</ele>
        <time>2020-02-23T14:16:05Z</time>
      </trkpt>
      <trkpt lat="42.95324" lon="0.74808">
        <ele>1118.6</ele>
        <time>2020-02-23T14:16:06Z</time>
      </trkpt>
      <trkpt lat="42.95324" lon="0.74809">
        <ele>1118.6</ele>
        <time>2020-02-23T14:16:07Z</time>
      </trkpt>
      <trkpt lat="42.95325" lon="0.7481">
        <ele>1118.6</ele>
        <time>2020-02-23T14:16:08Z</time>
      </trkpt>
      <trkpt lat="42.95325" lon="0.74811">
        <ele>1118.5</ele>
        <time>2020-02-23T14:16:09Z</time>
      </trkpt>
      <trkpt lat="42.95325" lon="0.74811">
        <ele>1118.5</ele>
        <time>2020-02-23T14:16:10Z</time>
      </trkpt>
      <trkpt lat="42.95326" lon="0.74812">
        <ele>1118.5</ele>
        <time>2020-02-23T14:16:11Z</time>
      </trkpt>
      <trkpt lat="42.95326" lon="0.74812">
        <ele>1118.5</ele>
        <time>2020-02-23T14:16:12Z</time>
      </trkpt>
      <trkpt lat="42.95327" lon="0.74813">
        <ele>1118.4</ele>
        <time>2020-02-23T14:16:13Z</time>
      </trkpt>
      <trkpt lat="42.95327" lon="0.74814">
        <ele>1118.4</ele>
        <time>2020-02-23T14:16:14Z</time>
      </trkpt>
      <trkpt lat="42.95328" lon="0.74814">
        <ele>1118.4</ele>
        <time>2020-02-23T14:16:15Z</time>
      </trkpt>
      <trkpt lat="42.95328" lon="0.74815">
        <ele>1118.4</ele>
        <time>2020-02-23T14:16:16Z</time>
      </trkpt>
      <trkpt lat="42.95328" lon="0.74815">
        <ele>1118.3</ele>
        <time>2020-02-23T14:16:17Z</time>
      </trkpt>
      <trkpt lat="42.95329" lon="0.74816">
        <ele>1118.3</ele>
        <time>2020-02-23T14:16:18Z</time>
      </trkpt>
      <trkpt lat="42.95329" lon="0.74817">
        <ele>1118.3</ele>
        <time>2020-02-23T14:16:19Z</time>
      </trkpt>
      <trkpt lat="42.9533" lon="0.74817">
        <ele>1118.3</ele>
        <time>2020-02-23T14:16:20Z</time>
      </trkpt>
      <trkpt lat="42.9533" lon="0.74818">
        <ele>1118.3</ele>
        <time>2020-02-23T14:16:21Z</time>
      </trkpt>
      <trkpt lat="42.95331" lon="0.74818">
        <ele>1118.3</ele>
        <time>2020-02-23T14:16:22Z</time>
      </trkpt>
      <trkpt lat="42.95331" lon="0.74819">
        <ele>1118.3</ele>
        <time>2020-02-23T14:16:23Z</time>
      </trkpt>
      <trkpt lat="42.95331" lon="0.7482">
        <ele>1118.3</ele>
        <time>2020-02-23T14:16:24Z</time>
      </trkpt>
      <trkpt lat="42.95332" lon="0.7482">
        <ele>1118.3</ele>
        <time>2020-02-23T14:16:25Z</time>
      </trkpt>
      <trkpt lat="42.95332" lon="0.74821">
        <ele>1118.3</ele>
        <time>2020-02-23T14:16:26Z</time>
      </trkpt>
      <trkpt lat="42.95333" lon="0.74821">
        <ele>1118.3</ele>
        <time>2020-02-23T14:16:27Z</time>
      </trkpt>
      <trkpt lat="42.95333" lon="0.74822">
        <ele>1118.3</ele>
        <time>2020-02-23T14:16:28Z</time>
      </trkpt>
      <trkpt lat="42.95333" lon="0.74822">
        <ele>1118.3</ele>
        <time>2020-02-23T14:16:29Z</time>
      </trkpt>
      <trkpt lat="42.95335" lon="0.74822">
        <ele>1118.3</ele>
        <time>2020-02-23T14:16:30Z</time>
      </trkpt>
      <trkpt lat="42.95337" lon="0.74822">
        <ele>1118.3</ele>
        <time>2020-02-23T14:16:31Z</time>
      </trkpt>
      <trkpt lat="42.95339" lon="0.74822">
        <ele>1118.3</ele>
        <time>2020-02-23T14:16:32Z</time>
      </trkpt>
      <trkpt lat="42.95341" lon="0.74822">
        <ele>1118.4</ele>
        <time>2020-02-23T14:16:33Z</time>
      </trkpt>
      <trkpt lat="42.95343" lon="0.74822">
        <ele>1118.4</ele>
        <time>2020-02-23T14:16:34Z</time>
      </trkpt>
      <trkpt lat="42.95345" lon="0.74823">
        <ele>1118.4</ele>
        <time>2020-02-23T14:16:35Z</time>
      </trkpt>
      <trkpt lat="42.95346" lon="0.74823">
        <ele>1118.4</ele>
        <time>2020-02-23T14:16:36Z</time>
      </trkpt>
      <trkpt lat="42.95348" lon="0.74823">
        <ele>1118.4</ele>
        <time>2020-02-23T14:16:37Z</time>
      </trkpt>
      <trkpt lat="42.95349" lon="0.74824">
        <ele>1118.5</ele>
        <time>2020-02-23T14:16:38Z</time>
      </trkpt>
      <trkpt lat="42.9535" lon="0.74824">
        <ele>1118.5</ele>
        <time>2020-02-23T14:16:39Z</time>
      </trkpt>
      <trkpt lat="42.95352" lon="0.74824">
        <ele>1118.5</ele>
        <time>2020-02-23T14:16:40Z</time>
      </trkpt>
      <trkpt lat="42.95353" lon="0.74825">
        <ele>1118.5</ele>
        <time>2020-02-23T14:16:41Z</time>
      </trkpt>
      <trkpt lat="42.95355" lon="0.74825">
        <ele>1118.5</ele>
        <time>2020-02-23T14:16:42Z</time>
      </trkpt>
      <trkpt lat="42.95356" lon="0.74825">
        <ele>1118.5</ele>
        <time>2020-02-23T14:16:43Z</time>
      </trkpt>
      <trkpt lat="42.95358" lon="0.74825">
        <ele>1118.5</ele>
        <time>2020-02-23T14:16:44Z</time>
      </trkpt>
      <trkpt lat="42.9536" lon="0.74826">
        <ele>1118.5</ele>
        <time>2020-02-23T14:16:45Z</time>
      </trkpt>
      <trkpt lat="42.95361" lon="0.74826">
        <ele>1118.5</ele>
        <time>2020-02-23T14:16:46Z</time>
      </trkpt>
      <trkpt lat="42.95363" lon="0.74826">
        <ele>1118.5</ele>
        <time>2020-02-23T14:16:47Z</time>
      </trkpt>
      <trkpt lat="42.95365" lon="0.74827">
        <ele>1118.5</ele>
        <time>2020-02-23T14:16:48Z</time>
      </trkpt>
      <trkpt lat="42.95366" lon="0.74828">
        <ele>1118.4</ele>
        <time>2020-02-23T14:16:49Z</time>
      </trkpt>
      <trkpt lat="42.95368" lon="0.74828">
        <ele>1118.4</ele>
        <time>2020-02-23T14:16:50Z</time>
      </trkpt>
      <trkpt lat="42.9537" lon="0.74829">
        <ele>1118.4</ele>
        <time>2020-02-23T14:16:51Z</time>
      </trkpt>
      <trkpt lat="42.95372" lon="0.7483">
        <ele>1118.4</ele>
        <time>2020-02-23T14:16:52Z</time>
      </trkpt>
      <trkpt lat="42.95374" lon="0.7483">
        <ele>1118.3</ele>
        <time>2020-02-23T14:16:53Z</time>
      </trkpt>
      <trkpt lat="42.95376" lon="0.7483">
        <ele>1118.3</ele>
        <time>2020-02-23T14:16:54Z</time>
      </trkpt>
      <trkpt lat="42.95377" lon="0.74831">
        <ele>1118.2</ele>
        <time>2020-02-23T14:16:55Z</time>
      </trkpt>
      <trkpt lat="42.95379" lon="0.74831">
        <ele>1118.2</ele>
        <time>2020-02-23T14:16:56Z</time>
      </trkpt>
      <trkpt lat="42.95381" lon="0.74831">
        <ele>1118.2</ele>
        <time>2020-02-23T14:16:57Z</time>
      </trkpt>
      <trkpt lat="42.95383" lon="0.74832">
        <ele>1118.1</ele>
        <time>2020-02-23T14:16:58Z</time>
      </trkpt>
      <trkpt lat="42.95386" lon="0.74832">
        <ele>1118</ele>
        <time>2020-02-23T14:16:59Z</time>
      </trkpt>
      <trkpt lat="42.95388" lon="0.74832">
        <ele>1118</ele>
        <time>2020-02-23T14:17:00Z</time>
      </trkpt>
      <trkpt lat="42.9539" lon="0.74833">
        <ele>1117.9</ele>
        <time>2020-02-23T14:17:01Z</time>
      </trkpt>
      <trkpt lat="42.95393" lon="0.74833">
        <ele>1117.9</ele>
        <time>2020-02-23T14:17:02Z</time>
      </trkpt>
      <trkpt lat="42.95395" lon="0.74834">
        <ele>1117.8</ele>
        <time>2020-02-23T14:17:03Z</time>
      </trkpt>
      <trkpt lat="42.95397" lon="0.74834">
        <ele>1117.8</ele>
        <time>2020-02-23T14:17:04Z</time>
      </trkpt>
      <trkpt lat="42.95399" lon="0.74835">
        <ele>1117.7</ele>
        <time>2020-02-23T14:17:05Z</time>
      </trkpt>
      <trkpt lat="42.95401" lon="0.74835">
        <ele>1117.7</ele>
        <time>2020-02-23T14:17:06Z</time>
      </trkpt>
      <trkpt lat="42.95403" lon="0.74835">
        <ele>1117.6</ele>
        <time>2020-02-23T14:17:07Z</time>
      </trkpt>
      <trkpt lat="42.95404" lon="0.74836">
        <ele>1117.6</ele>
        <time>2020-02-23T14:17:08Z</time>
      </trkpt>
      <trkpt lat="42.95406" lon="0.74836">
        <ele>1117.6</ele>
        <time>2020-02-23T14:17:09Z</time>
      </trkpt>
      <trkpt lat="42.95407" lon="0.74836">
        <ele>1117.5</ele>
        <time>2020-02-23T14:17:10Z</time>
      </trkpt>
      <trkpt lat="42.95409" lon="0.74837">
        <ele>1117.5</ele>
        <time>2020-02-23T14:17:11Z</time>
      </trkpt>
      <trkpt lat="42.95411" lon="0.74837">
        <ele>1117.4</ele>
        <time>2020-02-23T14:17:12Z</time>
      </trkpt>
      <trkpt lat="42.95412" lon="0.74837">
        <ele>1117.4</ele>
        <time>2020-02-23T14:17:13Z</time>
      </trkpt>
      <trkpt lat="42.95413" lon="0.74837">
        <ele>1117.4</ele>
        <time>2020-02-23T14:17:14Z</time>
      </trkpt>
      <trkpt lat="42.95413" lon="0.74837">
        <ele>1117.3</ele>
        <time>2020-02-23T14:17:15Z</time>
      </trkpt>
      <trkpt lat="42.95414" lon="0.74836">
        <ele>1117.3</ele>
        <time>2020-02-23T14:17:16Z</time>
      </trkpt>
      <trkpt lat="42.95415" lon="0.74836">
        <ele>1117.3</ele>
        <time>2020-02-23T14:17:17Z</time>
      </trkpt>
      <trkpt lat="42.95415" lon="0.74836">
        <ele>1117.3</ele>
        <time>2020-02-23T14:17:18Z</time>
      </trkpt>
      <trkpt lat="42.95416" lon="0.74835">
        <ele>1117.3</ele>
        <time>2020-02-23T14:17:19Z</time>
      </trkpt>
      <trkpt lat="42.95417" lon="0.74835">
        <ele>1117.2</ele>
        <time>2020-02-23T14:17:20Z</time>
      </trkpt>
      <trkpt lat="42.95418" lon="0.74835">
        <ele>1117.2</ele>
        <time>2020-02-23T14:17:21Z</time>
      </trkpt>
      <trkpt lat="42.95418" lon="0.74834">
        <ele>1117.2</ele>
        <time>2020-02-23T14:17:22Z</time>
      </trkpt>
      <trkpt lat="42.95419" lon="0.74834">
        <ele>1117.2</ele>
        <time>2020-02-23T14:17:23Z</time>
      </trkpt>
      <trkpt lat="42.9542" lon="0.74834">
        <ele>1117.2</ele>
        <time>2020-02-23T14:17:24Z</time>
      </trkpt>
      <trkpt lat="42.9542" lon="0.74833">
        <ele>1117.2</ele>
        <time>2020-02-23T14:17:25Z</time>
      </trkpt>
      <trkpt lat="42.95421" lon="0.74833">
        <ele>1117.1</ele>
        <time>2020-02-23T14:17:26Z</time>
      </trkpt>
      <trkpt lat="42.95423" lon="0.74832">
        <ele>1117.1</ele>
        <time>2020-02-23T14:17:27Z</time>
      </trkpt>
      <trkpt lat="42.95424" lon="0.74831">
        <ele>1117</ele>
        <time>2020-02-23T14:17:28Z</time>
      </trkpt>
      <trkpt lat="42.95426" lon="0.7483">
        <ele>1116.9</ele>
        <time>2020-02-23T14:17:29Z</time>
      </trkpt>
      <trkpt lat="42.95428" lon="0.74829">
        <ele>1116.8</ele>
        <time>2020-02-23T14:17:30Z</time>
      </trkpt>
      <trkpt lat="42.9543" lon="0.74828">
        <ele>1116.7</ele>
        <time>2020-02-23T14:17:31Z</time>
      </trkpt>
      <trkpt lat="42.95431" lon="0.74827">
        <ele>1116.6</ele>
        <time>2020-02-23T14:17:32Z</time>
      </trkpt>
      <trkpt lat="42.95433" lon="0.74826">
        <ele>1116.5</ele>
        <time>2020-02-23T14:17:33Z</time>
      </trkpt>
      <trkpt lat="42.95434" lon="0.74825">
        <ele>1116.4</ele>
        <time>2020-02-23T14:17:34Z</time>
      </trkpt>
      <trkpt lat="42.95435" lon="0.74824">
        <ele>1116.3</ele>
        <time>2020-02-23T14:17:35Z</time>
      </trkpt>
      <trkpt lat="42.95437" lon="0.74823">
        <ele>1116.2</ele>
        <time>2020-02-23T14:17:36Z</time>
      </trkpt>
      <trkpt lat="42.95438" lon="0.74822">
        <ele>1116.2</ele>
        <time>2020-02-23T14:17:37Z</time>
      </trkpt>
      <trkpt lat="42.9544" lon="0.74822">
        <ele>1116.1</ele>
        <time>2020-02-23T14:17:38Z</time>
      </trkpt>
      <trkpt lat="42.95441" lon="0.74822">
        <ele>1116</ele>
        <time>2020-02-23T14:17:39Z</time>
      </trkpt>
      <trkpt lat="42.95442" lon="0.74822">
        <ele>1116</ele>
        <time>2020-02-23T14:17:40Z</time>
      </trkpt>
      <trkpt lat="42.95443" lon="0.74822">
        <ele>1115.9</ele>
        <time>2020-02-23T14:17:41Z</time>
      </trkpt>
      <trkpt lat="42.95444" lon="0.74822">
        <ele>1115.8</ele>
        <time>2020-02-23T14:17:42Z</time>
      </trkpt>
      <trkpt lat="42.95445" lon="0.74822">
        <ele>1115.8</ele>
        <time>2020-02-23T14:17:43Z</time>
      </trkpt>
      <trkpt lat="42.95446" lon="0.74822">
        <ele>1115.7</ele>
        <time>2020-02-23T14:17:44Z</time>
      </trkpt>
      <trkpt lat="42.95448" lon="0.74822">
        <ele>1115.7</ele>
        <time>2020-02-23T14:17:45Z</time>
      </trkpt>
      <trkpt lat="42.95449" lon="0.74823">
        <ele>1115.6</ele>
        <time>2020-02-23T14:17:46Z</time>
      </trkpt>
      <trkpt lat="42.95451" lon="0.74824">
        <ele>1115.5</ele>
        <time>2020-02-23T14:17:47Z</time>
      </trkpt>
      <trkpt lat="42.95453" lon="0.74825">
        <ele>1115.4</ele>
        <time>2020-02-23T14:17:48Z</time>
      </trkpt>
      <trkpt lat="42.95455" lon="0.74826">
        <ele>1115.2</ele>
        <time>2020-02-23T14:17:49Z</time>
      </trkpt>
      <trkpt lat="42.95457" lon="0.74827">
        <ele>1115.1</ele>
        <time>2020-02-23T14:17:50Z</time>
      </trkpt>
      <trkpt lat="42.95458" lon="0.74827">
        <ele>1115.1</ele>
        <time>2020-02-23T14:17:51Z</time>
      </trkpt>
      <trkpt lat="42.9546" lon="0.74827">
        <ele>1115</ele>
        <time>2020-02-23T14:17:52Z</time>
      </trkpt>
      <trkpt lat="42.95461" lon="0.74827">
        <ele>1114.9</ele>
        <time>2020-02-23T14:17:53Z</time>
      </trkpt>
      <trkpt lat="42.95463" lon="0.74827">
        <ele>1114.8</ele>
        <time>2020-02-23T14:17:54Z</time>
      </trkpt>
      <trkpt lat="42.95464" lon="0.74827">
        <ele>1114.7</ele>
        <time>2020-02-23T14:17:55Z</time>
      </trkpt>
      <trkpt lat="42.95466" lon="0.74827">
        <ele>1114.6</ele>
        <time>2020-02-23T14:17:56Z</time>
      </trkpt>
      <trkpt lat="42.95467" lon="0.74827">
        <ele>1114.6</ele>
        <time>2020-02-23T14:17:57Z</time>
      </trkpt>
      <trkpt lat="42.95469" lon="0.74827">
        <ele>1114.5</ele>
        <time>2020-02-23T14:17:58Z</time>
      </trkpt>
      <trkpt lat="42.9547" lon="0.74827">
        <ele>1114.4</ele>
        <time>2020-02-23T14:17:59Z</time>
      </trkpt>
      <trkpt lat="42.95471" lon="0.74827">
        <ele>1114.3</ele>
        <time>2020-02-23T14:18:00Z</time>
      </trkpt>
      <trkpt lat="42.95472" lon="0.74827">
        <ele>1114.3</ele>
        <time>2020-02-23T14:18:01Z</time>
      </trkpt>
      <trkpt lat="42.95474" lon="0.74827">
        <ele>1114.2</ele>
        <time>2020-02-23T14:18:02Z</time>
      </trkpt>
      <trkpt lat="42.95475" lon="0.74827">
        <ele>1114.1</ele>
        <time>2020-02-23T14:18:03Z</time>
      </trkpt>
      <trkpt lat="42.95476" lon="0.74828">
        <ele>1114</ele>
        <time>2020-02-23T14:18:04Z</time>
      </trkpt>
      <trkpt lat="42.95477" lon="0.74827">
        <ele>1114</ele>
        <time>2020-02-23T14:18:05Z</time>
      </trkpt>
      <trkpt lat="42.95478" lon="0.74826">
        <ele>1113.9</ele>
        <time>2020-02-23T14:18:06Z</time>
      </trkpt>
      <trkpt lat="42.95479" lon="0.74825">
        <ele>1113.8</ele>
        <time>2020-02-23T14:18:07Z</time>
      </trkpt>
      <trkpt lat="42.9548" lon="0.74824">
        <ele>1113.7</ele>
        <time>2020-02-23T14:18:08Z</time>
      </trkpt>
      <trkpt lat="42.95481" lon="0.74824">
        <ele>1113.7</ele>
        <time>2020-02-23T14:18:09Z</time>
      </trkpt>
      <trkpt lat="42.95482" lon="0.74823">
        <ele>1113.6</ele>
        <time>2020-02-23T14:18:10Z</time>
      </trkpt>
      <trkpt lat="42.95484" lon="0.74822">
        <ele>1113.6</ele>
        <time>2020-02-23T14:18:11Z</time>
      </trkpt>
      <trkpt lat="42.95485" lon="0.74821">
        <ele>1113.5</ele>
        <time>2020-02-23T14:18:12Z</time>
      </trkpt>
      <trkpt lat="42.95486" lon="0.7482">
        <ele>1113.5</ele>
        <time>2020-02-23T14:18:13Z</time>
      </trkpt>
      <trkpt lat="42.95487" lon="0.7482">
        <ele>1113.5</ele>
        <time>2020-02-23T14:18:14Z</time>
      </trkpt>
      <trkpt lat="42.95488" lon="0.74819">
        <ele>1113.4</ele>
        <time>2020-02-23T14:18:15Z</time>
      </trkpt>
      <trkpt lat="42.9549" lon="0.74818">
        <ele>1113.4</ele>
        <time>2020-02-23T14:18:16Z</time>
      </trkpt>
      <trkpt lat="42.95491" lon="0.74817">
        <ele>1113.4</ele>
        <time>2020-02-23T14:18:17Z</time>
      </trkpt>
      <trkpt lat="42.95492" lon="0.74817">
        <ele>1113.4</ele>
        <time>2020-02-23T14:18:18Z</time>
      </trkpt>
      <trkpt lat="42.95493" lon="0.74816">
        <ele>1113.4</ele>
        <time>2020-02-23T14:18:19Z</time>
      </trkpt>
      <trkpt lat="42.95492" lon="0.74815">
        <ele>1113.4</ele>
        <time>2020-02-23T14:18:20Z</time>
      </trkpt>
      <trkpt lat="42.95491" lon="0.74815">
        <ele>1113.4</ele>
        <time>2020-02-23T14:18:21Z</time>
      </trkpt>
      <trkpt lat="42.9549" lon="0.74814">
        <ele>1113.3</ele>
        <time>2020-02-23T14:18:22Z</time>
      </trkpt>
      <trkpt lat="42.95489" lon="0.74814">
        <ele>1113.3</ele>
        <time>2020-02-23T14:18:23Z</time>
      </trkpt>
      <trkpt lat="42.95488" lon="0.74813">
        <ele>1113.3</ele>
        <time>2020-02-23T14:18:24Z</time>
      </trkpt>
      <trkpt lat="42.95487" lon="0.74813">
        <ele>1113.3</ele>
        <time>2020-02-23T14:18:25Z</time>
      </trkpt>
      <trkpt lat="42.95486" lon="0.74812">
        <ele>1113.3</ele>
        <time>2020-02-23T14:18:26Z</time>
      </trkpt>
      <trkpt lat="42.95484" lon="0.74812">
        <ele>1113.3</ele>
        <time>2020-02-23T14:18:27Z</time>
      </trkpt>
      <trkpt lat="42.95483" lon="0.74811">
        <ele>1113.3</ele>
        <time>2020-02-23T14:18:28Z</time>
      </trkpt>
      <trkpt lat="42.95484" lon="0.74811">
        <ele>1113.3</ele>
        <time>2020-02-23T14:18:29Z</time>
      </trkpt>
      <trkpt lat="42.95485" lon="0.7481">
        <ele>1113.3</ele>
        <time>2020-02-23T14:18:30Z</time>
      </trkpt>
      <trkpt lat="42.95486" lon="0.7481">
        <ele>1113.3</ele>
        <time>2020-02-23T14:18:31Z</time>
      </trkpt>
      <trkpt lat="42.95487" lon="0.74809">
        <ele>1113.3</ele>
        <time>2020-02-23T14:18:32Z</time>
      </trkpt>
      <trkpt lat="42.95488" lon="0.74809">
        <ele>1113.3</ele>
        <time>2020-02-23T14:18:33Z</time>
      </trkpt>
      <trkpt lat="42.95489" lon="0.74808">
        <ele>1113.3</ele>
        <time>2020-02-23T14:18:34Z</time>
      </trkpt>
      <trkpt lat="42.95489" lon="0.74808">
        <ele>1113.3</ele>
        <time>2020-02-23T14:18:35Z</time>
      </trkpt>
      <trkpt lat="42.9549" lon="0.74807">
        <ele>1113.3</ele>
        <time>2020-02-23T14:18:36Z</time>
      </trkpt>
      <trkpt lat="42.95491" lon="0.74807">
        <ele>1113.3</ele>
        <time>2020-02-23T14:18:37Z</time>
      </trkpt>
      <trkpt lat="42.95492" lon="0.74806">
        <ele>1113.3</ele>
        <time>2020-02-23T14:18:38Z</time>
      </trkpt>
      <trkpt lat="42.95493" lon="0.74803">
        <ele>1113.3</ele>
        <time>2020-02-23T14:18:39Z</time>
      </trkpt>
      <trkpt lat="42.95494" lon="0.748">
        <ele>1113.2</ele>
        <time>2020-02-23T14:18:40Z</time>
      </trkpt>
      <trkpt lat="42.95495" lon="0.74798">
        <ele>1113.2</ele>
        <time>2020-02-23T14:18:41Z</time>
      </trkpt>
      <trkpt lat="42.95496" lon="0.74795">
        <ele>1113.1</ele>
        <time>2020-02-23T14:18:42Z</time>
      </trkpt>
      <trkpt lat="42.95497" lon="0.74793">
        <ele>1113.1</ele>
        <time>2020-02-23T14:18:43Z</time>
      </trkpt>
      <trkpt lat="42.95498" lon="0.74791">
        <ele>1113.1</ele>
        <time>2020-02-23T14:18:44Z</time>
      </trkpt>
      <trkpt lat="42.95499" lon="0.74789">
        <ele>1113</ele>
        <time>2020-02-23T14:18:45Z</time>
      </trkpt>
      <trkpt lat="42.955" lon="0.74788">
        <ele>1113</ele>
        <time>2020-02-23T14:18:46Z</time>
      </trkpt>
      <trkpt lat="42.95501" lon="0.74787">
        <ele>1112.9</ele>
        <time>2020-02-23T14:18:47Z</time>
      </trkpt>
      <trkpt lat="42.95502" lon="0.74786">
        <ele>1112.9</ele>
        <time>2020-02-23T14:18:48Z</time>
      </trkpt>
      <trkpt lat="42.95503" lon="0.74785">
        <ele>1112.9</ele>
        <time>2020-02-23T14:18:49Z</time>
      </trkpt>
      <trkpt lat="42.95504" lon="0.74784">
        <ele>1112.8</ele>
        <time>2020-02-23T14:18:50Z</time>
      </trkpt>
      <trkpt lat="42.95505" lon="0.74784">
        <ele>1112.7</ele>
        <time>2020-02-23T14:18:51Z</time>
      </trkpt>
      <trkpt lat="42.95506" lon="0.74784">
        <ele>1112.6</ele>
        <time>2020-02-23T14:18:52Z</time>
      </trkpt>
      <trkpt lat="42.95507" lon="0.74784">
        <ele>1112.5</ele>
        <time>2020-02-23T14:18:53Z</time>
      </trkpt>
      <trkpt lat="42.95509" lon="0.74784">
        <ele>1112.5</ele>
        <time>2020-02-23T14:18:54Z</time>
      </trkpt>
      <trkpt lat="42.95511" lon="0.74783">
        <ele>1112.2</ele>
        <time>2020-02-23T14:18:55Z</time>
      </trkpt>
      <trkpt lat="42.95511" lon="0.74783">
        <ele>1112.2</ele>
        <time>2020-02-23T14:18:56Z</time>
      </trkpt>
      <trkpt lat="42.95512" lon="0.74783">
        <ele>1112.1</ele>
        <time>2020-02-23T14:18:57Z</time>
      </trkpt>
      <trkpt lat="42.95514" lon="0.74783">
        <ele>1112.1</ele>
        <time>2020-02-23T14:18:58Z</time>
      </trkpt>
      <trkpt lat="42.95515" lon="0.74783">
        <ele>1111.9</ele>
        <time>2020-02-23T14:18:59Z</time>
      </trkpt>
      <trkpt lat="42.95516" lon="0.74782">
        <ele>1111.9</ele>
        <time>2020-02-23T14:19:00Z</time>
      </trkpt>
      <trkpt lat="42.95517" lon="0.74782">
        <ele>1111.8</ele>
        <time>2020-02-23T14:19:01Z</time>
      </trkpt>
      <trkpt lat="42.95518" lon="0.74782">
        <ele>1111.6</ele>
        <time>2020-02-23T14:19:02Z</time>
      </trkpt>
      <trkpt lat="42.95519" lon="0.74781">
        <ele>1111.5</ele>
        <time>2020-02-23T14:19:03Z</time>
      </trkpt>
      <trkpt lat="42.9552" lon="0.74781">
        <ele>1111.3</ele>
        <time>2020-02-23T14:19:04Z</time>
      </trkpt>
      <trkpt lat="42.95521" lon="0.74781">
        <ele>1111.2</ele>
        <time>2020-02-23T14:19:05Z</time>
      </trkpt>
      <trkpt lat="42.95522" lon="0.74781">
        <ele>1111.1</ele>
        <time>2020-02-23T14:19:06Z</time>
      </trkpt>
      <trkpt lat="42.95524" lon="0.7478">
        <ele>1110.9</ele>
        <time>2020-02-23T14:19:07Z</time>
      </trkpt>
      <trkpt lat="42.95525" lon="0.7478">
        <ele>1110.7</ele>
        <time>2020-02-23T14:19:08Z</time>
      </trkpt>
      <trkpt lat="42.95526" lon="0.74779">
        <ele>1110.5</ele>
        <time>2020-02-23T14:19:09Z</time>
      </trkpt>
      <trkpt lat="42.95527" lon="0.74779">
        <ele>1110.3</ele>
        <time>2020-02-23T14:19:10Z</time>
      </trkpt>
      <trkpt lat="42.95528" lon="0.74779">
        <ele>1110.1</ele>
        <time>2020-02-23T14:19:11Z</time>
      </trkpt>
      <trkpt lat="42.9553" lon="0.74778">
        <ele>1109.9</ele>
        <time>2020-02-23T14:19:12Z</time>
      </trkpt>
      <trkpt lat="42.95531" lon="0.74778">
        <ele>1109.7</ele>
        <time>2020-02-23T14:19:13Z</time>
      </trkpt>
      <trkpt lat="42.95532" lon="0.74778">
        <ele>1109.5</ele>
        <time>2020-02-23T14:19:14Z</time>
      </trkpt>
      <trkpt lat="42.95533" lon="0.74778">
        <ele>1109.3</ele>
        <time>2020-02-23T14:19:15Z</time>
      </trkpt>
      <trkpt lat="42.95535" lon="0.74778">
        <ele>1109.1</ele>
        <time>2020-02-23T14:19:16Z</time>
      </trkpt>
      <trkpt lat="42.95536" lon="0.74779">
        <ele>1108.9</ele>
        <time>2020-02-23T14:19:17Z</time>
      </trkpt>
      <trkpt lat="42.95537" lon="0.74779">
        <ele>1108.7</ele>
        <time>2020-02-23T14:19:18Z</time>
      </trkpt>
      <trkpt lat="42.95538" lon="0.74779">
        <ele>1108.4</ele>
        <time>2020-02-23T14:19:19Z</time>
      </trkpt>
      <trkpt lat="42.9554" lon="0.74779">
        <ele>1108.2</ele>
        <time>2020-02-23T14:19:20Z</time>
      </trkpt>
      <trkpt lat="42.95541" lon="0.7478">
        <ele>1108</ele>
        <time>2020-02-23T14:19:21Z</time>
      </trkpt>
      <trkpt lat="42.95542" lon="0.7478">
        <ele>1107.7</ele>
        <time>2020-02-23T14:19:22Z</time>
      </trkpt>
      <trkpt lat="42.95543" lon="0.7478">
        <ele>1107.5</ele>
        <time>2020-02-23T14:19:23Z</time>
      </trkpt>
      <trkpt lat="42.95545" lon="0.74781">
        <ele>1107.3</ele>
        <time>2020-02-23T14:19:24Z</time>
      </trkpt>
      <trkpt lat="42.95546" lon="0.74781">
        <ele>1107.1</ele>
        <time>2020-02-23T14:19:25Z</time>
      </trkpt>
      <trkpt lat="42.95547" lon="0.74782">
        <ele>1106.8</ele>
        <time>2020-02-23T14:19:26Z</time>
      </trkpt>
      <trkpt lat="42.95548" lon="0.74783">
        <ele>1106.7</ele>
        <time>2020-02-23T14:19:27Z</time>
      </trkpt>
      <trkpt lat="42.95549" lon="0.74783">
        <ele>1106.4</ele>
        <time>2020-02-23T14:19:28Z</time>
      </trkpt>
      <trkpt lat="42.9555" lon="0.74784">
        <ele>1106.2</ele>
        <time>2020-02-23T14:19:29Z</time>
      </trkpt>
      <trkpt lat="42.95552" lon="0.74784">
        <ele>1106</ele>
        <time>2020-02-23T14:19:30Z</time>
      </trkpt>
      <trkpt lat="42.95553" lon="0.74785">
        <ele>1105.8</ele>
        <time>2020-02-23T14:19:31Z</time>
      </trkpt>
      <trkpt lat="42.95554" lon="0.74786">
        <ele>1105.6</ele>
        <time>2020-02-23T14:19:32Z</time>
      </trkpt>
      <trkpt lat="42.95556" lon="0.74787">
        <ele>1105.2</ele>
        <time>2020-02-23T14:19:33Z</time>
      </trkpt>
      <trkpt lat="42.95556" lon="0.74787">
        <ele>1105.2</ele>
        <time>2020-02-23T14:19:34Z</time>
      </trkpt>
      <trkpt lat="42.95556" lon="0.74787">
        <ele>1105.2</ele>
        <time>2020-02-23T14:19:35Z</time>
      </trkpt>
      <trkpt lat="42.95558" lon="0.74791">
        <ele>1104.6</ele>
        <time>2020-02-23T14:19:36Z</time>
      </trkpt>
      <trkpt lat="42.95558" lon="0.74791">
        <ele>1104.6</ele>
        <time>2020-02-23T14:19:37Z</time>
      </trkpt>
      <trkpt lat="42.95559" lon="0.74792">
        <ele>1104.5</ele>
        <time>2020-02-23T14:19:38Z</time>
      </trkpt>
      <trkpt lat="42.95559" lon="0.74793">
        <ele>1104.4</ele>
        <time>2020-02-23T14:19:39Z</time>
      </trkpt>
      <trkpt lat="42.9556" lon="0.74794">
        <ele>1104.2</ele>
        <time>2020-02-23T14:19:40Z</time>
      </trkpt>
      <trkpt lat="42.9556" lon="0.74795">
        <ele>1104</ele>
        <time>2020-02-23T14:19:41Z</time>
      </trkpt>
      <trkpt lat="42.95561" lon="0.74796">
        <ele>1103.8</ele>
        <time>2020-02-23T14:19:42Z</time>
      </trkpt>
      <trkpt lat="42.95561" lon="0.74798">
        <ele>1103.8</ele>
        <time>2020-02-23T14:19:43Z</time>
      </trkpt>
      <trkpt lat="42.95562" lon="0.74799">
        <ele>1103.6</ele>
        <time>2020-02-23T14:19:44Z</time>
      </trkpt>
      <trkpt lat="42.95563" lon="0.748">
        <ele>1103.4</ele>
        <time>2020-02-23T14:19:45Z</time>
      </trkpt>
      <trkpt lat="42.95563" lon="0.74801">
        <ele>1103.3</ele>
        <time>2020-02-23T14:19:46Z</time>
      </trkpt>
      <trkpt lat="42.95564" lon="0.74803">
        <ele>1103</ele>
        <time>2020-02-23T14:19:47Z</time>
      </trkpt>
      <trkpt lat="42.95564" lon="0.74804">
        <ele>1102.8</ele>
        <time>2020-02-23T14:19:48Z</time>
      </trkpt>
      <trkpt lat="42.95565" lon="0.74805">
        <ele>1102.7</ele>
        <time>2020-02-23T14:19:49Z</time>
      </trkpt>
      <trkpt lat="42.95566" lon="0.74807">
        <ele>1102.5</ele>
        <time>2020-02-23T14:19:50Z</time>
      </trkpt>
      <trkpt lat="42.95566" lon="0.74808">
        <ele>1102.3</ele>
        <time>2020-02-23T14:19:51Z</time>
      </trkpt>
      <trkpt lat="42.95568" lon="0.74812">
        <ele>1101.9</ele>
        <time>2020-02-23T14:19:52Z</time>
      </trkpt>
      <trkpt lat="42.95568" lon="0.74812">
        <ele>1101.9</ele>
        <time>2020-02-23T14:19:53Z</time>
      </trkpt>
      <trkpt lat="42.95569" lon="0.74815">
        <ele>1101.4</ele>
        <time>2020-02-23T14:19:54Z</time>
      </trkpt>
      <trkpt lat="42.95571" lon="0.74819">
        <ele>1100.9</ele>
        <time>2020-02-23T14:19:55Z</time>
      </trkpt>
      <trkpt lat="42.95571" lon="0.74819">
        <ele>1101</ele>
        <time>2020-02-23T14:19:56Z</time>
      </trkpt>
      <trkpt lat="42.95571" lon="0.74819">
        <ele>1101</ele>
        <time>2020-02-23T14:19:57Z</time>
      </trkpt>
      <trkpt lat="42.95572" lon="0.74822">
        <ele>1100.5</ele>
        <time>2020-02-23T14:19:58Z</time>
      </trkpt>
      <trkpt lat="42.95572" lon="0.74822">
        <ele>1100.5</ele>
        <time>2020-02-23T14:19:59Z</time>
      </trkpt>
      <trkpt lat="42.95573" lon="0.74826">
        <ele>1100.1</ele>
        <time>2020-02-23T14:20:00Z</time>
      </trkpt>
      <trkpt lat="42.95573" lon="0.74826">
        <ele>1100.1</ele>
        <time>2020-02-23T14:20:01Z</time>
      </trkpt>
      <trkpt lat="42.95574" lon="0.74829">
        <ele>1099.7</ele>
        <time>2020-02-23T14:20:02Z</time>
      </trkpt>
      <trkpt lat="42.95576" lon="0.74831">
        <ele>1099.3</ele>
        <time>2020-02-23T14:20:03Z</time>
      </trkpt>
      <trkpt lat="42.95577" lon="0.74834">
        <ele>1098.9</ele>
        <time>2020-02-23T14:20:04Z</time>
      </trkpt>
      <trkpt lat="42.95577" lon="0.74834">
        <ele>1098.9</ele>
        <time>2020-02-23T14:20:05Z</time>
      </trkpt>
      <trkpt lat="42.95577" lon="0.74834">
        <ele>1098.9</ele>
        <time>2020-02-23T14:20:06Z</time>
      </trkpt>
      <trkpt lat="42.95579" lon="0.74837">
        <ele>1098.4</ele>
        <time>2020-02-23T14:20:07Z</time>
      </trkpt>
      <trkpt lat="42.95579" lon="0.74837">
        <ele>1098.4</ele>
        <time>2020-02-23T14:20:08Z</time>
      </trkpt>
      <trkpt lat="42.9558" lon="0.74839">
        <ele>1098.2</ele>
        <time>2020-02-23T14:20:09Z</time>
      </trkpt>
      <trkpt lat="42.95581" lon="0.7484">
        <ele>1097.9</ele>
        <time>2020-02-23T14:20:10Z</time>
      </trkpt>
      <trkpt lat="42.95582" lon="0.74842">
        <ele>1097.7</ele>
        <time>2020-02-23T14:20:11Z</time>
      </trkpt>
      <trkpt lat="42.95585" lon="0.74845">
        <ele>1097.2</ele>
        <time>2020-02-23T14:20:12Z</time>
      </trkpt>
      <trkpt lat="42.95585" lon="0.74845">
        <ele>1097.2</ele>
        <time>2020-02-23T14:20:13Z</time>
      </trkpt>
      <trkpt lat="42.95587" lon="0.74848">
        <ele>1096.7</ele>
        <time>2020-02-23T14:20:14Z</time>
      </trkpt>
      <trkpt lat="42.95587" lon="0.74848">
        <ele>1096.7</ele>
        <time>2020-02-23T14:20:15Z</time>
      </trkpt>
      <trkpt lat="42.95588" lon="0.74852">
        <ele>1096.2</ele>
        <time>2020-02-23T14:20:16Z</time>
      </trkpt>
      <trkpt lat="42.95588" lon="0.74852">
        <ele>1096.2</ele>
        <time>2020-02-23T14:20:17Z</time>
      </trkpt>
      <trkpt lat="42.95589" lon="0.74856">
        <ele>1095.8</ele>
        <time>2020-02-23T14:20:18Z</time>
      </trkpt>
      <trkpt lat="42.95589" lon="0.74856">
        <ele>1095.8</ele>
        <time>2020-02-23T14:20:19Z</time>
      </trkpt>
      <trkpt lat="42.95591" lon="0.74859">
        <ele>1095.5</ele>
        <time>2020-02-23T14:20:20Z</time>
      </trkpt>
      <trkpt lat="42.95591" lon="0.74859">
        <ele>1095.5</ele>
        <time>2020-02-23T14:20:21Z</time>
      </trkpt>
      <trkpt lat="42.95592" lon="0.74861">
        <ele>1095.3</ele>
        <time>2020-02-23T14:20:22Z</time>
      </trkpt>
      <trkpt lat="42.95593" lon="0.74863">
        <ele>1095.2</ele>
        <time>2020-02-23T14:20:23Z</time>
      </trkpt>
      <trkpt lat="42.95594" lon="0.74864">
        <ele>1095</ele>
        <time>2020-02-23T14:20:24Z</time>
      </trkpt>
      <trkpt lat="42.95594" lon="0.74866">
        <ele>1094.8</ele>
        <time>2020-02-23T14:20:25Z</time>
      </trkpt>
      <trkpt lat="42.95595" lon="0.74868">
        <ele>1094.7</ele>
        <time>2020-02-23T14:20:26Z</time>
      </trkpt>
      <trkpt lat="42.95596" lon="0.74869">
        <ele>1094.5</ele>
        <time>2020-02-23T14:20:27Z</time>
      </trkpt>
      <trkpt lat="42.95597" lon="0.74871">
        <ele>1094.3</ele>
        <time>2020-02-23T14:20:28Z</time>
      </trkpt>
      <trkpt lat="42.95598" lon="0.74872">
        <ele>1094.1</ele>
        <time>2020-02-23T14:20:29Z</time>
      </trkpt>
      <trkpt lat="42.95599" lon="0.74874">
        <ele>1094</ele>
        <time>2020-02-23T14:20:30Z</time>
      </trkpt>
      <trkpt lat="42.956" lon="0.74875">
        <ele>1093.8</ele>
        <time>2020-02-23T14:20:31Z</time>
      </trkpt>
      <trkpt lat="42.95601" lon="0.74877">
        <ele>1093.7</ele>
        <time>2020-02-23T14:20:32Z</time>
      </trkpt>
      <trkpt lat="42.95601" lon="0.74878">
        <ele>1093.6</ele>
        <time>2020-02-23T14:20:33Z</time>
      </trkpt>
      <trkpt lat="42.95602" lon="0.7488">
        <ele>1093.4</ele>
        <time>2020-02-23T14:20:34Z</time>
      </trkpt>
      <trkpt lat="42.95603" lon="0.74881">
        <ele>1093.3</ele>
        <time>2020-02-23T14:20:35Z</time>
      </trkpt>
      <trkpt lat="42.95604" lon="0.74882">
        <ele>1093.2</ele>
        <time>2020-02-23T14:20:36Z</time>
      </trkpt>
      <trkpt lat="42.95605" lon="0.74883">
        <ele>1093</ele>
        <time>2020-02-23T14:20:37Z</time>
      </trkpt>
      <trkpt lat="42.95606" lon="0.74884">
        <ele>1092.9</ele>
        <time>2020-02-23T14:20:38Z</time>
      </trkpt>
      <trkpt lat="42.95607" lon="0.74885">
        <ele>1092.7</ele>
        <time>2020-02-23T14:20:39Z</time>
      </trkpt>
      <trkpt lat="42.95608" lon="0.74886">
        <ele>1092.6</ele>
        <time>2020-02-23T14:20:40Z</time>
      </trkpt>
      <trkpt lat="42.95609" lon="0.74887">
        <ele>1092.4</ele>
        <time>2020-02-23T14:20:41Z</time>
      </trkpt>
      <trkpt lat="42.9561" lon="0.74889">
        <ele>1092.2</ele>
        <time>2020-02-23T14:20:42Z</time>
      </trkpt>
      <trkpt lat="42.95611" lon="0.7489">
        <ele>1092.1</ele>
        <time>2020-02-23T14:20:43Z</time>
      </trkpt>
      <trkpt lat="42.95612" lon="0.74891">
        <ele>1091.9</ele>
        <time>2020-02-23T14:20:44Z</time>
      </trkpt>
      <trkpt lat="42.95613" lon="0.74892">
        <ele>1091.7</ele>
        <time>2020-02-23T14:20:45Z</time>
      </trkpt>
      <trkpt lat="42.95614" lon="0.74893">
        <ele>1091.5</ele>
        <time>2020-02-23T14:20:46Z</time>
      </trkpt>
      <trkpt lat="42.95615" lon="0.74895">
        <ele>1091.3</ele>
        <time>2020-02-23T14:20:47Z</time>
      </trkpt>
      <trkpt lat="42.95617" lon="0.74896">
        <ele>1091.2</ele>
        <time>2020-02-23T14:20:48Z</time>
      </trkpt>
      <trkpt lat="42.95618" lon="0.74897">
        <ele>1091</ele>
        <time>2020-02-23T14:20:49Z</time>
      </trkpt>
      <trkpt lat="42.95619" lon="0.74899">
        <ele>1090.8</ele>
        <time>2020-02-23T14:20:50Z</time>
      </trkpt>
      <trkpt lat="42.9562" lon="0.749">
        <ele>1090.6</ele>
        <time>2020-02-23T14:20:51Z</time>
      </trkpt>
      <trkpt lat="42.9562" lon="0.74902">
        <ele>1090.5</ele>
        <time>2020-02-23T14:20:52Z</time>
      </trkpt>
      <trkpt lat="42.95621" lon="0.74903">
        <ele>1090.3</ele>
        <time>2020-02-23T14:20:53Z</time>
      </trkpt>
      <trkpt lat="42.95622" lon="0.74904">
        <ele>1090.1</ele>
        <time>2020-02-23T14:20:54Z</time>
      </trkpt>
      <trkpt lat="42.95623" lon="0.74906">
        <ele>1089.9</ele>
        <time>2020-02-23T14:20:55Z</time>
      </trkpt>
      <trkpt lat="42.95624" lon="0.74907">
        <ele>1089.7</ele>
        <time>2020-02-23T14:20:56Z</time>
      </trkpt>
      <trkpt lat="42.95625" lon="0.74909">
        <ele>1089.6</ele>
        <time>2020-02-23T14:20:57Z</time>
      </trkpt>
      <trkpt lat="42.95626" lon="0.7491">
        <ele>1089.4</ele>
        <time>2020-02-23T14:20:58Z</time>
      </trkpt>
      <trkpt lat="42.95626" lon="0.74912">
        <ele>1089.2</ele>
        <time>2020-02-23T14:20:59Z</time>
      </trkpt>
      <trkpt lat="42.95627" lon="0.74913">
        <ele>1089.1</ele>
        <time>2020-02-23T14:21:00Z</time>
      </trkpt>
      <trkpt lat="42.95628" lon="0.74915">
        <ele>1088.9</ele>
        <time>2020-02-23T14:21:01Z</time>
      </trkpt>
      <trkpt lat="42.95629" lon="0.74917">
        <ele>1088.7</ele>
        <time>2020-02-23T14:21:02Z</time>
      </trkpt>
      <trkpt lat="42.95629" lon="0.74918">
        <ele>1088.5</ele>
        <time>2020-02-23T14:21:03Z</time>
      </trkpt>
      <trkpt lat="42.9563" lon="0.74919">
        <ele>1088.4</ele>
        <time>2020-02-23T14:21:04Z</time>
      </trkpt>
      <trkpt lat="42.95631" lon="0.7492">
        <ele>1088.2</ele>
        <time>2020-02-23T14:21:05Z</time>
      </trkpt>
      <trkpt lat="42.95632" lon="0.74922">
        <ele>1088.1</ele>
        <time>2020-02-23T14:21:06Z</time>
      </trkpt>
      <trkpt lat="42.95633" lon="0.74923">
        <ele>1087.9</ele>
        <time>2020-02-23T14:21:07Z</time>
      </trkpt>
      <trkpt lat="42.95634" lon="0.74924">
        <ele>1087.8</ele>
        <time>2020-02-23T14:21:08Z</time>
      </trkpt>
      <trkpt lat="42.95635" lon="0.74925">
        <ele>1087.6</ele>
        <time>2020-02-23T14:21:09Z</time>
      </trkpt>
      <trkpt lat="42.95636" lon="0.74927">
        <ele>1087.4</ele>
        <time>2020-02-23T14:21:10Z</time>
      </trkpt>
      <trkpt lat="42.95637" lon="0.74928">
        <ele>1087.3</ele>
        <time>2020-02-23T14:21:11Z</time>
      </trkpt>
      <trkpt lat="42.95637" lon="0.74929">
        <ele>1087.1</ele>
        <time>2020-02-23T14:21:12Z</time>
      </trkpt>
      <trkpt lat="42.95638" lon="0.7493">
        <ele>1087</ele>
        <time>2020-02-23T14:21:13Z</time>
      </trkpt>
      <trkpt lat="42.95639" lon="0.74931">
        <ele>1086.9</ele>
        <time>2020-02-23T14:21:14Z</time>
      </trkpt>
      <trkpt lat="42.9564" lon="0.74932">
        <ele>1086.7</ele>
        <time>2020-02-23T14:21:15Z</time>
      </trkpt>
      <trkpt lat="42.9564" lon="0.74933">
        <ele>1086.6</ele>
        <time>2020-02-23T14:21:16Z</time>
      </trkpt>
      <trkpt lat="42.95641" lon="0.74934">
        <ele>1086.5</ele>
        <time>2020-02-23T14:21:17Z</time>
      </trkpt>
      <trkpt lat="42.95642" lon="0.74936">
        <ele>1086.4</ele>
        <time>2020-02-23T14:21:18Z</time>
      </trkpt>
      <trkpt lat="42.95643" lon="0.74937">
        <ele>1086.2</ele>
        <time>2020-02-23T14:21:19Z</time>
      </trkpt>
      <trkpt lat="42.95643" lon="0.74938">
        <ele>1086.1</ele>
        <time>2020-02-23T14:21:20Z</time>
      </trkpt>
      <trkpt lat="42.95644" lon="0.74939">
        <ele>1086</ele>
        <time>2020-02-23T14:21:21Z</time>
      </trkpt>
      <trkpt lat="42.95645" lon="0.74941">
        <ele>1085.8</ele>
        <time>2020-02-23T14:21:22Z</time>
      </trkpt>
      <trkpt lat="42.95645" lon="0.74942">
        <ele>1085.7</ele>
        <time>2020-02-23T14:21:23Z</time>
      </trkpt>
      <trkpt lat="42.95646" lon="0.74943">
        <ele>1085.6</ele>
        <time>2020-02-23T14:21:24Z</time>
      </trkpt>
      <trkpt lat="42.95647" lon="0.74944">
        <ele>1085.4</ele>
        <time>2020-02-23T14:21:25Z</time>
      </trkpt>
      <trkpt lat="42.95647" lon="0.74946">
        <ele>1085.3</ele>
        <time>2020-02-23T14:21:26Z</time>
      </trkpt>
      <trkpt lat="42.95648" lon="0.74947">
        <ele>1085.2</ele>
        <time>2020-02-23T14:21:27Z</time>
      </trkpt>
      <trkpt lat="42.95649" lon="0.74948">
        <ele>1085</ele>
        <time>2020-02-23T14:21:28Z</time>
      </trkpt>
      <trkpt lat="42.9565" lon="0.7495">
        <ele>1084.8</ele>
        <time>2020-02-23T14:21:29Z</time>
      </trkpt>
      <trkpt lat="42.95651" lon="0.74951">
        <ele>1084.5</ele>
        <time>2020-02-23T14:21:30Z</time>
      </trkpt>
      <trkpt lat="42.95652" lon="0.74952">
        <ele>1084.4</ele>
        <time>2020-02-23T14:21:31Z</time>
      </trkpt>
      <trkpt lat="42.95653" lon="0.74954">
        <ele>1084.2</ele>
        <time>2020-02-23T14:21:32Z</time>
      </trkpt>
      <trkpt lat="42.95654" lon="0.74955">
        <ele>1084</ele>
        <time>2020-02-23T14:21:33Z</time>
      </trkpt>
      <trkpt lat="42.95656" lon="0.74957">
        <ele>1083.8</ele>
        <time>2020-02-23T14:21:34Z</time>
      </trkpt>
      <trkpt lat="42.95656" lon="0.74959">
        <ele>1083.7</ele>
        <time>2020-02-23T14:21:35Z</time>
      </trkpt>
      <trkpt lat="42.95657" lon="0.74961">
        <ele>1083.5</ele>
        <time>2020-02-23T14:21:36Z</time>
      </trkpt>
      <trkpt lat="42.95658" lon="0.74963">
        <ele>1083.3</ele>
        <time>2020-02-23T14:21:37Z</time>
      </trkpt>
      <trkpt lat="42.95659" lon="0.74965">
        <ele>1083.2</ele>
        <time>2020-02-23T14:21:38Z</time>
      </trkpt>
      <trkpt lat="42.9566" lon="0.74967">
        <ele>1083</ele>
        <time>2020-02-23T14:21:39Z</time>
      </trkpt>
      <trkpt lat="42.9566" lon="0.74969">
        <ele>1082.9</ele>
        <time>2020-02-23T14:21:40Z</time>
      </trkpt>
      <trkpt lat="42.95661" lon="0.7497">
        <ele>1082.8</ele>
        <time>2020-02-23T14:21:41Z</time>
      </trkpt>
      <trkpt lat="42.95662" lon="0.74971">
        <ele>1082.6</ele>
        <time>2020-02-23T14:21:42Z</time>
      </trkpt>
      <trkpt lat="42.95663" lon="0.74972">
        <ele>1082.5</ele>
        <time>2020-02-23T14:21:43Z</time>
      </trkpt>
      <trkpt lat="42.95664" lon="0.74973">
        <ele>1082.4</ele>
        <time>2020-02-23T14:21:44Z</time>
      </trkpt>
      <trkpt lat="42.95665" lon="0.74974">
        <ele>1082.3</ele>
        <time>2020-02-23T14:21:45Z</time>
      </trkpt>
      <trkpt lat="42.95666" lon="0.74975">
        <ele>1082.2</ele>
        <time>2020-02-23T14:21:46Z</time>
      </trkpt>
      <trkpt lat="42.95667" lon="0.74976">
        <ele>1082.1</ele>
        <time>2020-02-23T14:21:47Z</time>
      </trkpt>
      <trkpt lat="42.95668" lon="0.74977">
        <ele>1082</ele>
        <time>2020-02-23T14:21:48Z</time>
      </trkpt>
      <trkpt lat="42.95669" lon="0.74979">
        <ele>1081.9</ele>
        <time>2020-02-23T14:21:49Z</time>
      </trkpt>
      <trkpt lat="42.9567" lon="0.7498">
        <ele>1081.8</ele>
        <time>2020-02-23T14:21:50Z</time>
      </trkpt>
      <trkpt lat="42.95671" lon="0.74981">
        <ele>1081.7</ele>
        <time>2020-02-23T14:21:51Z</time>
      </trkpt>
      <trkpt lat="42.95672" lon="0.74982">
        <ele>1081.6</ele>
        <time>2020-02-23T14:21:52Z</time>
      </trkpt>
      <trkpt lat="42.95673" lon="0.74983">
        <ele>1081.5</ele>
        <time>2020-02-23T14:21:53Z</time>
      </trkpt>
      <trkpt lat="42.95674" lon="0.74985">
        <ele>1081.4</ele>
        <time>2020-02-23T14:21:54Z</time>
      </trkpt>
      <trkpt lat="42.95675" lon="0.74986">
        <ele>1081.3</ele>
        <time>2020-02-23T14:21:55Z</time>
      </trkpt>
      <trkpt lat="42.95676" lon="0.74987">
        <ele>1081.3</ele>
        <time>2020-02-23T14:21:56Z</time>
      </trkpt>
      <trkpt lat="42.95676" lon="0.74988">
        <ele>1081.2</ele>
        <time>2020-02-23T14:21:57Z</time>
      </trkpt>
      <trkpt lat="42.95677" lon="0.74989">
        <ele>1081.1</ele>
        <time>2020-02-23T14:21:58Z</time>
      </trkpt>
      <trkpt lat="42.95677" lon="0.7499">
        <ele>1081</ele>
        <time>2020-02-23T14:21:59Z</time>
      </trkpt>
      <trkpt lat="42.95678" lon="0.74991">
        <ele>1081</ele>
        <time>2020-02-23T14:22:00Z</time>
      </trkpt>
      <trkpt lat="42.95678" lon="0.74992">
        <ele>1080.9</ele>
        <time>2020-02-23T14:22:01Z</time>
      </trkpt>
      <trkpt lat="42.95679" lon="0.74994">
        <ele>1080.8</ele>
        <time>2020-02-23T14:22:02Z</time>
      </trkpt>
      <trkpt lat="42.9568" lon="0.74995">
        <ele>1080.8</ele>
        <time>2020-02-23T14:22:03Z</time>
      </trkpt>
      <trkpt lat="42.9568" lon="0.74996">
        <ele>1080.7</ele>
        <time>2020-02-23T14:22:04Z</time>
      </trkpt>
      <trkpt lat="42.95681" lon="0.74997">
        <ele>1080.6</ele>
        <time>2020-02-23T14:22:05Z</time>
      </trkpt>
      <trkpt lat="42.95681" lon="0.74998">
        <ele>1080.5</ele>
        <time>2020-02-23T14:22:06Z</time>
      </trkpt>
      <trkpt lat="42.95682" lon="0.74998">
        <ele>1080.4</ele>
        <time>2020-02-23T14:22:07Z</time>
      </trkpt>
      <trkpt lat="42.95683" lon="0.74999">
        <ele>1080.3</ele>
        <time>2020-02-23T14:22:08Z</time>
      </trkpt>
      <trkpt lat="42.95684" lon="0.75">
        <ele>1080.2</ele>
        <time>2020-02-23T14:22:09Z</time>
      </trkpt>
      <trkpt lat="42.95684" lon="0.75001">
        <ele>1080.1</ele>
        <time>2020-02-23T14:22:10Z</time>
      </trkpt>
      <trkpt lat="42.95685" lon="0.75001">
        <ele>1080</ele>
        <time>2020-02-23T14:22:11Z</time>
      </trkpt>
      <trkpt lat="42.95686" lon="0.75002">
        <ele>1079.8</ele>
        <time>2020-02-23T14:22:12Z</time>
      </trkpt>
      <trkpt lat="42.95687" lon="0.75003">
        <ele>1079.7</ele>
        <time>2020-02-23T14:22:13Z</time>
      </trkpt>
      <trkpt lat="42.95687" lon="0.75004">
        <ele>1079.6</ele>
        <time>2020-02-23T14:22:14Z</time>
      </trkpt>
      <trkpt lat="42.95688" lon="0.75004">
        <ele>1079.4</ele>
        <time>2020-02-23T14:22:15Z</time>
      </trkpt>
      <trkpt lat="42.95689" lon="0.75004">
        <ele>1079.3</ele>
        <time>2020-02-23T14:22:16Z</time>
      </trkpt>
      <trkpt lat="42.9569" lon="0.75005">
        <ele>1079.1</ele>
        <time>2020-02-23T14:22:17Z</time>
      </trkpt>
      <trkpt lat="42.95691" lon="0.75005">
        <ele>1079</ele>
        <time>2020-02-23T14:22:18Z</time>
      </trkpt>
      <trkpt lat="42.95692" lon="0.75005">
        <ele>1078.8</ele>
        <time>2020-02-23T14:22:19Z</time>
      </trkpt>
      <trkpt lat="42.95693" lon="0.75005">
        <ele>1078.6</ele>
        <time>2020-02-23T14:22:20Z</time>
      </trkpt>
      <trkpt lat="42.95694" lon="0.75005">
        <ele>1078.5</ele>
        <time>2020-02-23T14:22:21Z</time>
      </trkpt>
      <trkpt lat="42.95696" lon="0.75005">
        <ele>1078.3</ele>
        <time>2020-02-23T14:22:22Z</time>
      </trkpt>
      <trkpt lat="42.95697" lon="0.75006">
        <ele>1078.1</ele>
        <time>2020-02-23T14:22:23Z</time>
      </trkpt>
      <trkpt lat="42.95698" lon="0.75006">
        <ele>1077.9</ele>
        <time>2020-02-23T14:22:24Z</time>
      </trkpt>
      <trkpt lat="42.95699" lon="0.75005">
        <ele>1077.7</ele>
        <time>2020-02-23T14:22:25Z</time>
      </trkpt>
      <trkpt lat="42.95701" lon="0.75005">
        <ele>1077.5</ele>
        <time>2020-02-23T14:22:26Z</time>
      </trkpt>
      <trkpt lat="42.95702" lon="0.75005">
        <ele>1077.3</ele>
        <time>2020-02-23T14:22:27Z</time>
      </trkpt>
      <trkpt lat="42.95703" lon="0.75004">
        <ele>1077.1</ele>
        <time>2020-02-23T14:22:28Z</time>
      </trkpt>
      <trkpt lat="42.95705" lon="0.75004">
        <ele>1076.9</ele>
        <time>2020-02-23T14:22:29Z</time>
      </trkpt>
      <trkpt lat="42.95706" lon="0.75004">
        <ele>1076.6</ele>
        <time>2020-02-23T14:22:30Z</time>
      </trkpt>
      <trkpt lat="42.95708" lon="0.75003">
        <ele>1076.4</ele>
        <time>2020-02-23T14:22:31Z</time>
      </trkpt>
      <trkpt lat="42.95709" lon="0.75003">
        <ele>1076.2</ele>
        <time>2020-02-23T14:22:32Z</time>
      </trkpt>
      <trkpt lat="42.9571" lon="0.75003">
        <ele>1076</ele>
        <time>2020-02-23T14:22:33Z</time>
      </trkpt>
      <trkpt lat="42.95712" lon="0.75003">
        <ele>1075.8</ele>
        <time>2020-02-23T14:22:34Z</time>
      </trkpt>
      <trkpt lat="42.95713" lon="0.75002">
        <ele>1075.6</ele>
        <time>2020-02-23T14:22:35Z</time>
      </trkpt>
      <trkpt lat="42.95714" lon="0.75002">
        <ele>1075.4</ele>
        <time>2020-02-23T14:22:36Z</time>
      </trkpt>
      <trkpt lat="42.95716" lon="0.75002">
        <ele>1075.3</ele>
        <time>2020-02-23T14:22:37Z</time>
      </trkpt>
      <trkpt lat="42.95717" lon="0.75001">
        <ele>1075.1</ele>
        <time>2020-02-23T14:22:38Z</time>
      </trkpt>
      <trkpt lat="42.95718" lon="0.75001">
        <ele>1074.9</ele>
        <time>2020-02-23T14:22:39Z</time>
      </trkpt>
      <trkpt lat="42.9572" lon="0.75001">
        <ele>1074.6</ele>
        <time>2020-02-23T14:22:40Z</time>
      </trkpt>
      <trkpt lat="42.95722" lon="0.75001">
        <ele>1074.4</ele>
        <time>2020-02-23T14:22:41Z</time>
      </trkpt>
      <trkpt lat="42.95723" lon="0.75001">
        <ele>1074.1</ele>
        <time>2020-02-23T14:22:42Z</time>
      </trkpt>
      <trkpt lat="42.95725" lon="0.75">
        <ele>1073.8</ele>
        <time>2020-02-23T14:22:43Z</time>
      </trkpt>
      <trkpt lat="42.95727" lon="0.75">
        <ele>1073.5</ele>
        <time>2020-02-23T14:22:44Z</time>
      </trkpt>
      <trkpt lat="42.95729" lon="0.75">
        <ele>1073.2</ele>
        <time>2020-02-23T14:22:45Z</time>
      </trkpt>
      <trkpt lat="42.9573" lon="0.75">
        <ele>1072.9</ele>
        <time>2020-02-23T14:22:46Z</time>
      </trkpt>
      <trkpt lat="42.95732" lon="0.75">
        <ele>1072.6</ele>
        <time>2020-02-23T14:22:47Z</time>
      </trkpt>
      <trkpt lat="42.95733" lon="0.74999">
        <ele>1072.4</ele>
        <time>2020-02-23T14:22:48Z</time>
      </trkpt>
      <trkpt lat="42.95735" lon="0.74999">
        <ele>1072.1</ele>
        <time>2020-02-23T14:22:49Z</time>
      </trkpt>
      <trkpt lat="42.95737" lon="0.74999">
        <ele>1071.8</ele>
        <time>2020-02-23T14:22:50Z</time>
      </trkpt>
      <trkpt lat="42.95738" lon="0.74998">
        <ele>1071.5</ele>
        <time>2020-02-23T14:22:51Z</time>
      </trkpt>
      <trkpt lat="42.9574" lon="0.74998">
        <ele>1071.2</ele>
        <time>2020-02-23T14:22:52Z</time>
      </trkpt>
      <trkpt lat="42.95741" lon="0.74997">
        <ele>1071</ele>
        <time>2020-02-23T14:22:53Z</time>
      </trkpt>
      <trkpt lat="42.95742" lon="0.74996">
        <ele>1070.7</ele>
        <time>2020-02-23T14:22:54Z</time>
      </trkpt>
      <trkpt lat="42.95743" lon="0.74996">
        <ele>1070.5</ele>
        <time>2020-02-23T14:22:55Z</time>
      </trkpt>
      <trkpt lat="42.95744" lon="0.74995">
        <ele>1070.3</ele>
        <time>2020-02-23T14:22:56Z</time>
      </trkpt>
      <trkpt lat="42.95745" lon="0.74994">
        <ele>1070.1</ele>
        <time>2020-02-23T14:22:57Z</time>
      </trkpt>
      <trkpt lat="42.95746" lon="0.74993">
        <ele>1069.9</ele>
        <time>2020-02-23T14:22:58Z</time>
      </trkpt>
      <trkpt lat="42.95747" lon="0.74992">
        <ele>1069.7</ele>
        <time>2020-02-23T14:22:59Z</time>
      </trkpt>
      <trkpt lat="42.95748" lon="0.74991">
        <ele>1069.5</ele>
        <time>2020-02-23T14:23:00Z</time>
      </trkpt>
      <trkpt lat="42.95749" lon="0.74991">
        <ele>1069.3</ele>
        <time>2020-02-23T14:23:01Z</time>
      </trkpt>
      <trkpt lat="42.9575" lon="0.74991">
        <ele>1069</ele>
        <time>2020-02-23T14:23:02Z</time>
      </trkpt>
      <trkpt lat="42.95752" lon="0.7499">
        <ele>1068.8</ele>
        <time>2020-02-23T14:23:03Z</time>
      </trkpt>
      <trkpt lat="42.95753" lon="0.7499">
        <ele>1068.6</ele>
        <time>2020-02-23T14:23:04Z</time>
      </trkpt>
      <trkpt lat="42.95754" lon="0.7499">
        <ele>1068.3</ele>
        <time>2020-02-23T14:23:05Z</time>
      </trkpt>
      <trkpt lat="42.95756" lon="0.7499">
        <ele>1068.1</ele>
        <time>2020-02-23T14:23:06Z</time>
      </trkpt>
      <trkpt lat="42.95757" lon="0.74989">
        <ele>1067.9</ele>
        <time>2020-02-23T14:23:07Z</time>
      </trkpt>
      <trkpt lat="42.95758" lon="0.74989">
        <ele>1067.8</ele>
        <time>2020-02-23T14:23:08Z</time>
      </trkpt>
      <trkpt lat="42.95758" lon="0.74988">
        <ele>1067.7</ele>
        <time>2020-02-23T14:23:09Z</time>
      </trkpt>
      <trkpt lat="42.95759" lon="0.74987">
        <ele>1067.6</ele>
        <time>2020-02-23T14:23:10Z</time>
      </trkpt>
      <trkpt lat="42.9576" lon="0.74986">
        <ele>1067.4</ele>
        <time>2020-02-23T14:23:11Z</time>
      </trkpt>
      <trkpt lat="42.95761" lon="0.74986">
        <ele>1067.3</ele>
        <time>2020-02-23T14:23:12Z</time>
      </trkpt>
      <trkpt lat="42.95762" lon="0.74985">
        <ele>1067.2</ele>
        <time>2020-02-23T14:23:13Z</time>
      </trkpt>
      <trkpt lat="42.95762" lon="0.74984">
        <ele>1067.1</ele>
        <time>2020-02-23T14:23:14Z</time>
      </trkpt>
      <trkpt lat="42.95763" lon="0.74984">
        <ele>1066.9</ele>
        <time>2020-02-23T14:23:15Z</time>
      </trkpt>
      <trkpt lat="42.95764" lon="0.74983">
        <ele>1066.8</ele>
        <time>2020-02-23T14:23:16Z</time>
      </trkpt>
      <trkpt lat="42.95765" lon="0.74982">
        <ele>1066.7</ele>
        <time>2020-02-23T14:23:17Z</time>
      </trkpt>
      <trkpt lat="42.95766" lon="0.74982">
        <ele>1066.6</ele>
        <time>2020-02-23T14:23:18Z</time>
      </trkpt>
      <trkpt lat="42.95768" lon="0.74981">
        <ele>1066.4</ele>
        <time>2020-02-23T14:23:19Z</time>
      </trkpt>
      <trkpt lat="42.95769" lon="0.74981">
        <ele>1066.2</ele>
        <time>2020-02-23T14:23:20Z</time>
      </trkpt>
      <trkpt lat="42.95771" lon="0.7498">
        <ele>1066</ele>
        <time>2020-02-23T14:23:21Z</time>
      </trkpt>
      <trkpt lat="42.95772" lon="0.74979">
        <ele>1065.8</ele>
        <time>2020-02-23T14:23:22Z</time>
      </trkpt>
      <trkpt lat="42.95774" lon="0.74979">
        <ele>1065.7</ele>
        <time>2020-02-23T14:23:23Z</time>
      </trkpt>
      <trkpt lat="42.95774" lon="0.74978">
        <ele>1065.6</ele>
        <time>2020-02-23T14:23:24Z</time>
      </trkpt>
      <trkpt lat="42.95773" lon="0.74977">
        <ele>1065.5</ele>
        <time>2020-02-23T14:23:25Z</time>
      </trkpt>
      <trkpt lat="42.95773" lon="0.74976">
        <ele>1065.4</ele>
        <time>2020-02-23T14:23:26Z</time>
      </trkpt>
      <trkpt lat="42.95773" lon="0.74975">
        <ele>1065.4</ele>
        <time>2020-02-23T14:23:27Z</time>
      </trkpt>
      <trkpt lat="42.95773" lon="0.74974">
        <ele>1065.3</ele>
        <time>2020-02-23T14:23:28Z</time>
      </trkpt>
      <trkpt lat="42.95773" lon="0.74973">
        <ele>1065.2</ele>
        <time>2020-02-23T14:23:29Z</time>
      </trkpt>
      <trkpt lat="42.95773" lon="0.74972">
        <ele>1065.1</ele>
        <time>2020-02-23T14:23:30Z</time>
      </trkpt>
      <trkpt lat="42.95772" lon="0.74971">
        <ele>1065.1</ele>
        <time>2020-02-23T14:23:31Z</time>
      </trkpt>
      <trkpt lat="42.95772" lon="0.74971">
        <ele>1065</ele>
        <time>2020-02-23T14:23:32Z</time>
      </trkpt>
      <trkpt lat="42.95772" lon="0.7497">
        <ele>1064.9</ele>
        <time>2020-02-23T14:23:33Z</time>
      </trkpt>
      <trkpt lat="42.95772" lon="0.74969">
        <ele>1064.8</ele>
        <time>2020-02-23T14:23:34Z</time>
      </trkpt>
      <trkpt lat="42.95772" lon="0.74968">
        <ele>1064.8</ele>
        <time>2020-02-23T14:23:35Z</time>
      </trkpt>
      <trkpt lat="42.95771" lon="0.74967">
        <ele>1064.7</ele>
        <time>2020-02-23T14:23:36Z</time>
      </trkpt>
      <trkpt lat="42.95772" lon="0.74966">
        <ele>1064.6</ele>
        <time>2020-02-23T14:23:37Z</time>
      </trkpt>
      <trkpt lat="42.95772" lon="0.74964">
        <ele>1064.5</ele>
        <time>2020-02-23T14:23:38Z</time>
      </trkpt>
      <trkpt lat="42.95772" lon="0.74963">
        <ele>1064.4</ele>
        <time>2020-02-23T14:23:39Z</time>
      </trkpt>
      <trkpt lat="42.95772" lon="0.74962">
        <ele>1064.3</ele>
        <time>2020-02-23T14:23:40Z</time>
      </trkpt>
      <trkpt lat="42.95772" lon="0.74961">
        <ele>1064.2</ele>
        <time>2020-02-23T14:23:41Z</time>
      </trkpt>
      <trkpt lat="42.95772" lon="0.74959">
        <ele>1064.1</ele>
        <time>2020-02-23T14:23:42Z</time>
      </trkpt>
      <trkpt lat="42.95772" lon="0.74958">
        <ele>1064</ele>
        <time>2020-02-23T14:23:43Z</time>
      </trkpt>
      <trkpt lat="42.95772" lon="0.74957">
        <ele>1063.9</ele>
        <time>2020-02-23T14:23:44Z</time>
      </trkpt>
      <trkpt lat="42.95772" lon="0.74956">
        <ele>1063.8</ele>
        <time>2020-02-23T14:23:45Z</time>
      </trkpt>
      <trkpt lat="42.95772" lon="0.74954">
        <ele>1063.7</ele>
        <time>2020-02-23T14:23:46Z</time>
      </trkpt>
      <trkpt lat="42.95773" lon="0.74954">
        <ele>1063.6</ele>
        <time>2020-02-23T14:23:47Z</time>
      </trkpt>
      <trkpt lat="42.95773" lon="0.74954">
        <ele>1063.5</ele>
        <time>2020-02-23T14:23:48Z</time>
      </trkpt>
      <trkpt lat="42.95774" lon="0.74954">
        <ele>1063.4</ele>
        <time>2020-02-23T14:23:49Z</time>
      </trkpt>
      <trkpt lat="42.95775" lon="0.74954">
        <ele>1063.3</ele>
        <time>2020-02-23T14:23:50Z</time>
      </trkpt>
      <trkpt lat="42.95775" lon="0.74953">
        <ele>1063.3</ele>
        <time>2020-02-23T14:23:51Z</time>
      </trkpt>
      <trkpt lat="42.95776" lon="0.74953">
        <ele>1063.2</ele>
        <time>2020-02-23T14:23:52Z</time>
      </trkpt>
      <trkpt lat="42.95777" lon="0.74953">
        <ele>1063.1</ele>
        <time>2020-02-23T14:23:53Z</time>
      </trkpt>
      <trkpt lat="42.95777" lon="0.74953">
        <ele>1063</ele>
        <time>2020-02-23T14:23:54Z</time>
      </trkpt>
      <trkpt lat="42.95778" lon="0.74953">
        <ele>1063</ele>
        <time>2020-02-23T14:23:55Z</time>
      </trkpt>
      <trkpt lat="42.95779" lon="0.74953">
        <ele>1062.9</ele>
        <time>2020-02-23T14:23:56Z</time>
      </trkpt>
      <trkpt lat="42.95779" lon="0.74953">
        <ele>1062.8</ele>
        <time>2020-02-23T14:23:57Z</time>
      </trkpt>
      <trkpt lat="42.9578" lon="0.74952">
        <ele>1062.7</ele>
        <time>2020-02-23T14:23:58Z</time>
      </trkpt>
      <trkpt lat="42.95781" lon="0.74952">
        <ele>1062.7</ele>
        <time>2020-02-23T14:23:59Z</time>
      </trkpt>
      <trkpt lat="42.95781" lon="0.74952">
        <ele>1062.6</ele>
        <time>2020-02-23T14:24:00Z</time>
      </trkpt>
      <trkpt lat="42.95783" lon="0.74952">
        <ele>1062.5</ele>
        <time>2020-02-23T14:24:01Z</time>
      </trkpt>
      <trkpt lat="42.95784" lon="0.74953">
        <ele>1062.4</ele>
        <time>2020-02-23T14:24:02Z</time>
      </trkpt>
      <trkpt lat="42.95785" lon="0.74953">
        <ele>1062.2</ele>
        <time>2020-02-23T14:24:03Z</time>
      </trkpt>
      <trkpt lat="42.95786" lon="0.74953">
        <ele>1062.1</ele>
        <time>2020-02-23T14:24:04Z</time>
      </trkpt>
      <trkpt lat="42.95787" lon="0.74954">
        <ele>1062</ele>
        <time>2020-02-23T14:24:05Z</time>
      </trkpt>
      <trkpt lat="42.95789" lon="0.74954">
        <ele>1061.9</ele>
        <time>2020-02-23T14:24:06Z</time>
      </trkpt>
      <trkpt lat="42.9579" lon="0.74955">
        <ele>1061.8</ele>
        <time>2020-02-23T14:24:07Z</time>
      </trkpt>
      <trkpt lat="42.95791" lon="0.74955">
        <ele>1061.7</ele>
        <time>2020-02-23T14:24:08Z</time>
      </trkpt>
      <trkpt lat="42.95792" lon="0.74956">
        <ele>1061.5</ele>
        <time>2020-02-23T14:24:09Z</time>
      </trkpt>
      <trkpt lat="42.95794" lon="0.74956">
        <ele>1061.4</ele>
        <time>2020-02-23T14:24:10Z</time>
      </trkpt>
      <trkpt lat="42.95795" lon="0.74957">
        <ele>1061.3</ele>
        <time>2020-02-23T14:24:11Z</time>
      </trkpt>
      <trkpt lat="42.95796" lon="0.74958">
        <ele>1061.2</ele>
        <time>2020-02-23T14:24:12Z</time>
      </trkpt>
      <trkpt lat="42.95798" lon="0.74959">
        <ele>1061.1</ele>
        <time>2020-02-23T14:24:13Z</time>
      </trkpt>
      <trkpt lat="42.95799" lon="0.74959">
        <ele>1061</ele>
        <time>2020-02-23T14:24:14Z</time>
      </trkpt>
      <trkpt lat="42.958" lon="0.7496">
        <ele>1060.9</ele>
        <time>2020-02-23T14:24:15Z</time>
      </trkpt>
      <trkpt lat="42.95802" lon="0.74961">
        <ele>1060.8</ele>
        <time>2020-02-23T14:24:16Z</time>
      </trkpt>
      <trkpt lat="42.95803" lon="0.74961">
        <ele>1060.7</ele>
        <time>2020-02-23T14:24:17Z</time>
      </trkpt>
      <trkpt lat="42.95805" lon="0.74962">
        <ele>1060.6</ele>
        <time>2020-02-23T14:24:18Z</time>
      </trkpt>
      <trkpt lat="42.95806" lon="0.74963">
        <ele>1060.5</ele>
        <time>2020-02-23T14:24:19Z</time>
      </trkpt>
      <trkpt lat="42.95807" lon="0.74964">
        <ele>1060.4</ele>
        <time>2020-02-23T14:24:20Z</time>
      </trkpt>
      <trkpt lat="42.95809" lon="0.74964">
        <ele>1060.3</ele>
        <time>2020-02-23T14:24:21Z</time>
      </trkpt>
      <trkpt lat="42.95809" lon="0.74964">
        <ele>1060.3</ele>
        <time>2020-02-23T14:24:22Z</time>
      </trkpt>
      <trkpt lat="42.95812" lon="0.74965">
        <ele>1060.1</ele>
        <time>2020-02-23T14:24:23Z</time>
      </trkpt>
      <trkpt lat="42.95812" lon="0.74965">
        <ele>1060.1</ele>
        <time>2020-02-23T14:24:24Z</time>
      </trkpt>
      <trkpt lat="42.95812" lon="0.74965">
        <ele>1060.1</ele>
        <time>2020-02-23T14:24:25Z</time>
      </trkpt>
      <trkpt lat="42.95814" lon="0.74965">
        <ele>1059.9</ele>
        <time>2020-02-23T14:24:26Z</time>
      </trkpt>
      <trkpt lat="42.95814" lon="0.74965">
        <ele>1059.9</ele>
        <time>2020-02-23T14:24:27Z</time>
      </trkpt>
      <trkpt lat="42.95817" lon="0.74965">
        <ele>1059.8</ele>
        <time>2020-02-23T14:24:28Z</time>
      </trkpt>
      <trkpt lat="42.95817" lon="0.74965">
        <ele>1059.8</ele>
        <time>2020-02-23T14:24:29Z</time>
      </trkpt>
      <trkpt lat="42.95817" lon="0.74965">
        <ele>1059.8</ele>
        <time>2020-02-23T14:24:30Z</time>
      </trkpt>
      <trkpt lat="42.95817" lon="0.74965">
        <ele>1059.7</ele>
        <time>2020-02-23T14:24:31Z</time>
      </trkpt>
      <trkpt lat="42.95818" lon="0.74965">
        <ele>1059.7</ele>
        <time>2020-02-23T14:24:32Z</time>
      </trkpt>
      <trkpt lat="42.95818" lon="0.74966">
        <ele>1059.6</ele>
        <time>2020-02-23T14:24:33Z</time>
      </trkpt>
      <trkpt lat="42.95819" lon="0.74966">
        <ele>1059.6</ele>
        <time>2020-02-23T14:24:34Z</time>
      </trkpt>
      <trkpt lat="42.95819" lon="0.74966">
        <ele>1059.5</ele>
        <time>2020-02-23T14:24:35Z</time>
      </trkpt>
      <trkpt lat="42.9582" lon="0.74966">
        <ele>1059.5</ele>
        <time>2020-02-23T14:24:36Z</time>
      </trkpt>
      <trkpt lat="42.9582" lon="0.74967">
        <ele>1059.4</ele>
        <time>2020-02-23T14:24:37Z</time>
      </trkpt>
      <trkpt lat="42.95821" lon="0.74967">
        <ele>1059.3</ele>
        <time>2020-02-23T14:24:38Z</time>
      </trkpt>
      <trkpt lat="42.95821" lon="0.74967">
        <ele>1059.3</ele>
        <time>2020-02-23T14:24:39Z</time>
      </trkpt>
      <trkpt lat="42.95822" lon="0.74967">
        <ele>1059.2</ele>
        <time>2020-02-23T14:24:40Z</time>
      </trkpt>
      <trkpt lat="42.95823" lon="0.74967">
        <ele>1059.1</ele>
        <time>2020-02-23T14:24:41Z</time>
      </trkpt>
      <trkpt lat="42.95824" lon="0.74966">
        <ele>1059</ele>
        <time>2020-02-23T14:24:42Z</time>
      </trkpt>
      <trkpt lat="42.95825" lon="0.74966">
        <ele>1058.9</ele>
        <time>2020-02-23T14:24:43Z</time>
      </trkpt>
      <trkpt lat="42.95826" lon="0.74966">
        <ele>1058.8</ele>
        <time>2020-02-23T14:24:44Z</time>
      </trkpt>
      <trkpt lat="42.95827" lon="0.74966">
        <ele>1058.6</ele>
        <time>2020-02-23T14:24:45Z</time>
      </trkpt>
      <trkpt lat="42.95828" lon="0.74965">
        <ele>1058.5</ele>
        <time>2020-02-23T14:24:46Z</time>
      </trkpt>
      <trkpt lat="42.95829" lon="0.74965">
        <ele>1058.4</ele>
        <time>2020-02-23T14:24:47Z</time>
      </trkpt>
      <trkpt lat="42.9583" lon="0.74965">
        <ele>1058.2</ele>
        <time>2020-02-23T14:24:48Z</time>
      </trkpt>
      <trkpt lat="42.95831" lon="0.74965">
        <ele>1058.1</ele>
        <time>2020-02-23T14:24:49Z</time>
      </trkpt>
      <trkpt lat="42.95833" lon="0.74965">
        <ele>1057.8</ele>
        <time>2020-02-23T14:24:50Z</time>
      </trkpt>
      <trkpt lat="42.95834" lon="0.74964">
        <ele>1057.6</ele>
        <time>2020-02-23T14:24:51Z</time>
      </trkpt>
      <trkpt lat="42.95836" lon="0.74964">
        <ele>1057.3</ele>
        <time>2020-02-23T14:24:52Z</time>
      </trkpt>
      <trkpt lat="42.95837" lon="0.74964">
        <ele>1057.1</ele>
        <time>2020-02-23T14:24:53Z</time>
      </trkpt>
      <trkpt lat="42.95839" lon="0.74964">
        <ele>1056.8</ele>
        <time>2020-02-23T14:24:54Z</time>
      </trkpt>
      <trkpt lat="42.95841" lon="0.74964">
        <ele>1056.5</ele>
        <time>2020-02-23T14:24:55Z</time>
      </trkpt>
      <trkpt lat="42.95842" lon="0.74964">
        <ele>1056.3</ele>
        <time>2020-02-23T14:24:56Z</time>
      </trkpt>
      <trkpt lat="42.95843" lon="0.74965">
        <ele>1056</ele>
        <time>2020-02-23T14:24:57Z</time>
      </trkpt>
      <trkpt lat="42.95845" lon="0.74966">
        <ele>1055.7</ele>
        <time>2020-02-23T14:24:58Z</time>
      </trkpt>
      <trkpt lat="42.95846" lon="0.74966">
        <ele>1055.4</ele>
        <time>2020-02-23T14:24:59Z</time>
      </trkpt>
      <trkpt lat="42.95848" lon="0.74967">
        <ele>1055.1</ele>
        <time>2020-02-23T14:25:00Z</time>
      </trkpt>
      <trkpt lat="42.95849" lon="0.74967">
        <ele>1054.8</ele>
        <time>2020-02-23T14:25:01Z</time>
      </trkpt>
      <trkpt lat="42.95851" lon="0.74968">
        <ele>1054.5</ele>
        <time>2020-02-23T14:25:02Z</time>
      </trkpt>
      <trkpt lat="42.95852" lon="0.74969">
        <ele>1054.3</ele>
        <time>2020-02-23T14:25:03Z</time>
      </trkpt>
      <trkpt lat="42.95853" lon="0.7497">
        <ele>1054</ele>
        <time>2020-02-23T14:25:04Z</time>
      </trkpt>
      <trkpt lat="42.95854" lon="0.74971">
        <ele>1053.8</ele>
        <time>2020-02-23T14:25:05Z</time>
      </trkpt>
      <trkpt lat="42.95855" lon="0.74972">
        <ele>1053.5</ele>
        <time>2020-02-23T14:25:06Z</time>
      </trkpt>
      <trkpt lat="42.95856" lon="0.74973">
        <ele>1053.2</ele>
        <time>2020-02-23T14:25:07Z</time>
      </trkpt>
      <trkpt lat="42.95858" lon="0.74974">
        <ele>1053</ele>
        <time>2020-02-23T14:25:08Z</time>
      </trkpt>
      <trkpt lat="42.95859" lon="0.74975">
        <ele>1052.7</ele>
        <time>2020-02-23T14:25:09Z</time>
      </trkpt>
      <trkpt lat="42.9586" lon="0.74976">
        <ele>1052.5</ele>
        <time>2020-02-23T14:25:10Z</time>
      </trkpt>
      <trkpt lat="42.95861" lon="0.74977">
        <ele>1052.2</ele>
        <time>2020-02-23T14:25:11Z</time>
      </trkpt>
      <trkpt lat="42.95862" lon="0.74978">
        <ele>1052</ele>
        <time>2020-02-23T14:25:12Z</time>
      </trkpt>
      <trkpt lat="42.95863" lon="0.74979">
        <ele>1051.7</ele>
        <time>2020-02-23T14:25:13Z</time>
      </trkpt>
      <trkpt lat="42.95865" lon="0.7498">
        <ele>1051.5</ele>
        <time>2020-02-23T14:25:14Z</time>
      </trkpt>
      <trkpt lat="42.95866" lon="0.74981">
        <ele>1051.3</ele>
        <time>2020-02-23T14:25:15Z</time>
      </trkpt>
      <trkpt lat="42.95867" lon="0.74982">
        <ele>1051</ele>
        <time>2020-02-23T14:25:16Z</time>
      </trkpt>
      <trkpt lat="42.95869" lon="0.74983">
        <ele>1050.8</ele>
        <time>2020-02-23T14:25:17Z</time>
      </trkpt>
      <trkpt lat="42.9587" lon="0.74983">
        <ele>1050.5</ele>
        <time>2020-02-23T14:25:18Z</time>
      </trkpt>
      <trkpt lat="42.95872" lon="0.74984">
        <ele>1050.3</ele>
        <time>2020-02-23T14:25:19Z</time>
      </trkpt>
      <trkpt lat="42.95874" lon="0.74984">
        <ele>1050</ele>
        <time>2020-02-23T14:25:20Z</time>
      </trkpt>
      <trkpt lat="42.95875" lon="0.74984">
        <ele>1049.8</ele>
        <time>2020-02-23T14:25:21Z</time>
      </trkpt>
      <trkpt lat="42.9588" lon="0.74983">
        <ele>1049.2</ele>
        <time>2020-02-23T14:25:22Z</time>
      </trkpt>
      <trkpt lat="42.9588" lon="0.74983">
        <ele>1049.2</ele>
        <time>2020-02-23T14:25:23Z</time>
      </trkpt>
      <trkpt lat="42.95882" lon="0.74983">
        <ele>1049</ele>
        <time>2020-02-23T14:25:24Z</time>
      </trkpt>
      <trkpt lat="42.95884" lon="0.74982">
        <ele>1048.8</ele>
        <time>2020-02-23T14:25:25Z</time>
      </trkpt>
      <trkpt lat="42.95886" lon="0.74982">
        <ele>1048.6</ele>
        <time>2020-02-23T14:25:26Z</time>
      </trkpt>
      <trkpt lat="42.95888" lon="0.74981">
        <ele>1048.5</ele>
        <time>2020-02-23T14:25:27Z</time>
      </trkpt>
      <trkpt lat="42.9589" lon="0.74981">
        <ele>1048.3</ele>
        <time>2020-02-23T14:25:28Z</time>
      </trkpt>
      <trkpt lat="42.95892" lon="0.7498">
        <ele>1048.1</ele>
        <time>2020-02-23T14:25:29Z</time>
      </trkpt>
      <trkpt lat="42.95894" lon="0.74979">
        <ele>1047.8</ele>
        <time>2020-02-23T14:25:30Z</time>
      </trkpt>
      <trkpt lat="42.95896" lon="0.74978">
        <ele>1047.6</ele>
        <time>2020-02-23T14:25:31Z</time>
      </trkpt>
      <trkpt lat="42.95898" lon="0.74977">
        <ele>1047.4</ele>
        <time>2020-02-23T14:25:32Z</time>
      </trkpt>
      <trkpt lat="42.959" lon="0.74976">
        <ele>1047.1</ele>
        <time>2020-02-23T14:25:33Z</time>
      </trkpt>
      <trkpt lat="42.95901" lon="0.74974">
        <ele>1046.9</ele>
        <time>2020-02-23T14:25:34Z</time>
      </trkpt>
      <trkpt lat="42.95903" lon="0.74973">
        <ele>1046.7</ele>
        <time>2020-02-23T14:25:35Z</time>
      </trkpt>
      <trkpt lat="42.95904" lon="0.74971">
        <ele>1046.5</ele>
        <time>2020-02-23T14:25:36Z</time>
      </trkpt>
      <trkpt lat="42.95905" lon="0.7497">
        <ele>1046.3</ele>
        <time>2020-02-23T14:25:37Z</time>
      </trkpt>
      <trkpt lat="42.95906" lon="0.74968">
        <ele>1046.2</ele>
        <time>2020-02-23T14:25:38Z</time>
      </trkpt>
      <trkpt lat="42.95906" lon="0.74967">
        <ele>1046</ele>
        <time>2020-02-23T14:25:39Z</time>
      </trkpt>
      <trkpt lat="42.95907" lon="0.74965">
        <ele>1045.9</ele>
        <time>2020-02-23T14:25:40Z</time>
      </trkpt>
      <trkpt lat="42.95908" lon="0.74965">
        <ele>1045.8</ele>
        <time>2020-02-23T14:25:41Z</time>
      </trkpt>
      <trkpt lat="42.95909" lon="0.74964">
        <ele>1045.7</ele>
        <time>2020-02-23T14:25:42Z</time>
      </trkpt>
      <trkpt lat="42.95909" lon="0.74964">
        <ele>1045.6</ele>
        <time>2020-02-23T14:25:43Z</time>
      </trkpt>
      <trkpt lat="42.9591" lon="0.74963">
        <ele>1045.5</ele>
        <time>2020-02-23T14:25:44Z</time>
      </trkpt>
      <trkpt lat="42.95911" lon="0.74963">
        <ele>1045.3</ele>
        <time>2020-02-23T14:25:45Z</time>
      </trkpt>
      <trkpt lat="42.95912" lon="0.74962">
        <ele>1045.2</ele>
        <time>2020-02-23T14:25:46Z</time>
      </trkpt>
      <trkpt lat="42.95912" lon="0.74961">
        <ele>1045.1</ele>
        <time>2020-02-23T14:25:47Z</time>
      </trkpt>
      <trkpt lat="42.95913" lon="0.74961">
        <ele>1045</ele>
        <time>2020-02-23T14:25:48Z</time>
      </trkpt>
      <trkpt lat="42.95914" lon="0.7496">
        <ele>1044.9</ele>
        <time>2020-02-23T14:25:49Z</time>
      </trkpt>
      <trkpt lat="42.95915" lon="0.7496">
        <ele>1044.8</ele>
        <time>2020-02-23T14:25:50Z</time>
      </trkpt>
      <trkpt lat="42.95915" lon="0.74959">
        <ele>1044.7</ele>
        <time>2020-02-23T14:25:51Z</time>
      </trkpt>
      <trkpt lat="42.95915" lon="0.74959">
        <ele>1044.7</ele>
        <time>2020-02-23T14:25:52Z</time>
      </trkpt>
      <trkpt lat="42.95915" lon="0.74959">
        <ele>1044.7</ele>
        <time>2020-02-23T14:25:53Z</time>
      </trkpt>
      <trkpt lat="42.95918" lon="0.74956">
        <ele>1044.3</ele>
        <time>2020-02-23T14:25:54Z</time>
      </trkpt>
      <trkpt lat="42.95918" lon="0.74956">
        <ele>1044.3</ele>
        <time>2020-02-23T14:25:55Z</time>
      </trkpt>
      <trkpt lat="42.95919" lon="0.74956">
        <ele>1044.2</ele>
        <time>2020-02-23T14:25:56Z</time>
      </trkpt>
      <trkpt lat="42.9592" lon="0.74955">
        <ele>1044.1</ele>
        <time>2020-02-23T14:25:57Z</time>
      </trkpt>
      <trkpt lat="42.95921" lon="0.74955">
        <ele>1044</ele>
        <time>2020-02-23T14:25:58Z</time>
      </trkpt>
      <trkpt lat="42.95922" lon="0.74954">
        <ele>1043.8</ele>
        <time>2020-02-23T14:25:59Z</time>
      </trkpt>
      <trkpt lat="42.95923" lon="0.74954">
        <ele>1043.7</ele>
        <time>2020-02-23T14:26:00Z</time>
      </trkpt>
      <trkpt lat="42.95924" lon="0.74953">
        <ele>1043.6</ele>
        <time>2020-02-23T14:26:01Z</time>
      </trkpt>
      <trkpt lat="42.95925" lon="0.74953">
        <ele>1043.5</ele>
        <time>2020-02-23T14:26:02Z</time>
      </trkpt>
      <trkpt lat="42.95926" lon="0.74952">
        <ele>1043.4</ele>
        <time>2020-02-23T14:26:03Z</time>
      </trkpt>
      <trkpt lat="42.95927" lon="0.74951">
        <ele>1043.3</ele>
        <time>2020-02-23T14:26:04Z</time>
      </trkpt>
      <trkpt lat="42.95928" lon="0.74951">
        <ele>1043.2</ele>
        <time>2020-02-23T14:26:05Z</time>
      </trkpt>
      <trkpt lat="42.95928" lon="0.74951">
        <ele>1043.2</ele>
        <time>2020-02-23T14:26:06Z</time>
      </trkpt>
      <trkpt lat="42.95928" lon="0.74951">
        <ele>1043.1</ele>
        <time>2020-02-23T14:26:07Z</time>
      </trkpt>
      <trkpt lat="42.95929" lon="0.7495">
        <ele>1043.1</ele>
        <time>2020-02-23T14:26:08Z</time>
      </trkpt>
      <trkpt lat="42.95929" lon="0.7495">
        <ele>1043</ele>
        <time>2020-02-23T14:26:09Z</time>
      </trkpt>
      <trkpt lat="42.95929" lon="0.7495">
        <ele>1043</ele>
        <time>2020-02-23T14:26:10Z</time>
      </trkpt>
      <trkpt lat="42.9593" lon="0.7495">
        <ele>1042.9</ele>
        <time>2020-02-23T14:26:11Z</time>
      </trkpt>
      <trkpt lat="42.9593" lon="0.74949">
        <ele>1042.9</ele>
        <time>2020-02-23T14:26:12Z</time>
      </trkpt>
      <trkpt lat="42.95931" lon="0.74949">
        <ele>1042.9</ele>
        <time>2020-02-23T14:26:13Z</time>
      </trkpt>
      <trkpt lat="42.95931" lon="0.74949">
        <ele>1042.8</ele>
        <time>2020-02-23T14:26:14Z</time>
      </trkpt>
      <trkpt lat="42.95931" lon="0.74949">
        <ele>1042.8</ele>
        <time>2020-02-23T14:26:15Z</time>
      </trkpt>
      <trkpt lat="42.95932" lon="0.74949">
        <ele>1042.8</ele>
        <time>2020-02-23T14:26:16Z</time>
      </trkpt>
      <trkpt lat="42.95932" lon="0.74948">
        <ele>1042.7</ele>
        <time>2020-02-23T14:26:17Z</time>
      </trkpt>
      <trkpt lat="42.95932" lon="0.74948">
        <ele>1042.7</ele>
        <time>2020-02-23T14:26:18Z</time>
      </trkpt>
      <trkpt lat="42.95933" lon="0.74948">
        <ele>1042.6</ele>
        <time>2020-02-23T14:26:19Z</time>
      </trkpt>
      <trkpt lat="42.95933" lon="0.74948">
        <ele>1042.6</ele>
        <time>2020-02-23T14:26:20Z</time>
      </trkpt>
      <trkpt lat="42.95934" lon="0.74947">
        <ele>1042.5</ele>
        <time>2020-02-23T14:26:21Z</time>
      </trkpt>
      <trkpt lat="42.95934" lon="0.74947">
        <ele>1042.5</ele>
        <time>2020-02-23T14:26:22Z</time>
      </trkpt>
      <trkpt lat="42.95934" lon="0.74947">
        <ele>1042.5</ele>
        <time>2020-02-23T14:26:23Z</time>
      </trkpt>
      <trkpt lat="42.95935" lon="0.74947">
        <ele>1042.4</ele>
        <time>2020-02-23T14:26:24Z</time>
      </trkpt>
      <trkpt lat="42.95935" lon="0.74946">
        <ele>1042.4</ele>
        <time>2020-02-23T14:26:25Z</time>
      </trkpt>
      <trkpt lat="42.95935" lon="0.74946">
        <ele>1042.4</ele>
        <time>2020-02-23T14:26:26Z</time>
      </trkpt>
      <trkpt lat="42.95936" lon="0.74946">
        <ele>1042.3</ele>
        <time>2020-02-23T14:26:27Z</time>
      </trkpt>
      <trkpt lat="42.95937" lon="0.74945">
        <ele>1042.2</ele>
        <time>2020-02-23T14:26:28Z</time>
      </trkpt>
      <trkpt lat="42.95938" lon="0.74945">
        <ele>1042.1</ele>
        <time>2020-02-23T14:26:29Z</time>
      </trkpt>
      <trkpt lat="42.95939" lon="0.74944">
        <ele>1042</ele>
        <time>2020-02-23T14:26:30Z</time>
      </trkpt>
      <trkpt lat="42.9594" lon="0.74944">
        <ele>1041.9</ele>
        <time>2020-02-23T14:26:31Z</time>
      </trkpt>
      <trkpt lat="42.95941" lon="0.74943">
        <ele>1041.9</ele>
        <time>2020-02-23T14:26:32Z</time>
      </trkpt>
      <trkpt lat="42.95942" lon="0.74943">
        <ele>1041.8</ele>
        <time>2020-02-23T14:26:33Z</time>
      </trkpt>
      <trkpt lat="42.95942" lon="0.74942">
        <ele>1041.7</ele>
        <time>2020-02-23T14:26:34Z</time>
      </trkpt>
      <trkpt lat="42.95943" lon="0.74942">
        <ele>1041.6</ele>
        <time>2020-02-23T14:26:35Z</time>
      </trkpt>
      <trkpt lat="42.95944" lon="0.74941">
        <ele>1041.5</ele>
        <time>2020-02-23T14:26:36Z</time>
      </trkpt>
      <trkpt lat="42.95946" lon="0.74941">
        <ele>1041.4</ele>
        <time>2020-02-23T14:26:37Z</time>
      </trkpt>
      <trkpt lat="42.95947" lon="0.74941">
        <ele>1041.3</ele>
        <time>2020-02-23T14:26:38Z</time>
      </trkpt>
      <trkpt lat="42.95949" lon="0.74941">
        <ele>1041.2</ele>
        <time>2020-02-23T14:26:39Z</time>
      </trkpt>
      <trkpt lat="42.9595" lon="0.74941">
        <ele>1041.1</ele>
        <time>2020-02-23T14:26:40Z</time>
      </trkpt>
      <trkpt lat="42.95952" lon="0.74941">
        <ele>1041</ele>
        <time>2020-02-23T14:26:41Z</time>
      </trkpt>
      <trkpt lat="42.95953" lon="0.74941">
        <ele>1040.9</ele>
        <time>2020-02-23T14:26:42Z</time>
      </trkpt>
      <trkpt lat="42.95955" lon="0.74941">
        <ele>1040.8</ele>
        <time>2020-02-23T14:26:43Z</time>
      </trkpt>
      <trkpt lat="42.95957" lon="0.74941">
        <ele>1040.6</ele>
        <time>2020-02-23T14:26:44Z</time>
      </trkpt>
      <trkpt lat="42.95959" lon="0.74942">
        <ele>1040.5</ele>
        <time>2020-02-23T14:26:45Z</time>
      </trkpt>
      <trkpt lat="42.95961" lon="0.74942">
        <ele>1040.4</ele>
        <time>2020-02-23T14:26:46Z</time>
      </trkpt>
      <trkpt lat="42.95963" lon="0.74942">
        <ele>1040.2</ele>
        <time>2020-02-23T14:26:47Z</time>
      </trkpt>
      <trkpt lat="42.95964" lon="0.74942">
        <ele>1040.1</ele>
        <time>2020-02-23T14:26:48Z</time>
      </trkpt>
      <trkpt lat="42.95967" lon="0.74944">
        <ele>1039.8</ele>
        <time>2020-02-23T14:26:49Z</time>
      </trkpt>
      <trkpt lat="42.9597" lon="0.74945">
        <ele>1039.6</ele>
        <time>2020-02-23T14:26:50Z</time>
      </trkpt>
      <trkpt lat="42.95973" lon="0.74946">
        <ele>1039.3</ele>
        <time>2020-02-23T14:26:51Z</time>
      </trkpt>
      <trkpt lat="42.95976" lon="0.74947">
        <ele>1039.1</ele>
        <time>2020-02-23T14:26:52Z</time>
      </trkpt>
      <trkpt lat="42.95976" lon="0.74947">
        <ele>1039.1</ele>
        <time>2020-02-23T14:26:53Z</time>
      </trkpt>
      <trkpt lat="42.95978" lon="0.74948">
        <ele>1038.8</ele>
        <time>2020-02-23T14:26:54Z</time>
      </trkpt>
      <trkpt lat="42.95981" lon="0.74949">
        <ele>1038.6</ele>
        <time>2020-02-23T14:26:55Z</time>
      </trkpt>
      <trkpt lat="42.95983" lon="0.7495">
        <ele>1038.4</ele>
        <time>2020-02-23T14:26:56Z</time>
      </trkpt>
      <trkpt lat="42.95985" lon="0.74951">
        <ele>1038.1</ele>
        <time>2020-02-23T14:26:57Z</time>
      </trkpt>
      <trkpt lat="42.95989" lon="0.74954">
        <ele>1037.6</ele>
        <time>2020-02-23T14:26:58Z</time>
      </trkpt>
      <trkpt lat="42.95989" lon="0.74954">
        <ele>1037.6</ele>
        <time>2020-02-23T14:26:59Z</time>
      </trkpt>
      <trkpt lat="42.95993" lon="0.74957">
        <ele>1037</ele>
        <time>2020-02-23T14:27:00Z</time>
      </trkpt>
      <trkpt lat="42.95993" lon="0.74957">
        <ele>1037</ele>
        <time>2020-02-23T14:27:01Z</time>
      </trkpt>
      <trkpt lat="42.95994" lon="0.74958">
        <ele>1036.8</ele>
        <time>2020-02-23T14:27:02Z</time>
      </trkpt>
      <trkpt lat="42.95996" lon="0.7496">
        <ele>1036.5</ele>
        <time>2020-02-23T14:27:03Z</time>
      </trkpt>
      <trkpt lat="42.95997" lon="0.74961">
        <ele>1036.3</ele>
        <time>2020-02-23T14:27:04Z</time>
      </trkpt>
      <trkpt lat="42.95999" lon="0.74963">
        <ele>1036.1</ele>
        <time>2020-02-23T14:27:05Z</time>
      </trkpt>
      <trkpt lat="42.96" lon="0.74964">
        <ele>1035.9</ele>
        <time>2020-02-23T14:27:06Z</time>
      </trkpt>
      <trkpt lat="42.96001" lon="0.74965">
        <ele>1035.7</ele>
        <time>2020-02-23T14:27:07Z</time>
      </trkpt>
      <trkpt lat="42.96002" lon="0.74967">
        <ele>1035.5</ele>
        <time>2020-02-23T14:27:08Z</time>
      </trkpt>
      <trkpt lat="42.96003" lon="0.74968">
        <ele>1035.3</ele>
        <time>2020-02-23T14:27:09Z</time>
      </trkpt>
      <trkpt lat="42.96004" lon="0.7497">
        <ele>1035.2</ele>
        <time>2020-02-23T14:27:10Z</time>
      </trkpt>
      <trkpt lat="42.96007" lon="0.74975">
        <ele>1034.5</ele>
        <time>2020-02-23T14:27:11Z</time>
      </trkpt>
      <trkpt lat="42.96007" lon="0.74975">
        <ele>1034.5</ele>
        <time>2020-02-23T14:27:12Z</time>
      </trkpt>
      <trkpt lat="42.96007" lon="0.74975">
        <ele>1034.5</ele>
        <time>2020-02-23T14:27:13Z</time>
      </trkpt>
      <trkpt lat="42.96012" lon="0.74981">
        <ele>1033.9</ele>
        <time>2020-02-23T14:27:14Z</time>
      </trkpt>
      <trkpt lat="42.96012" lon="0.74981">
        <ele>1033.9</ele>
        <time>2020-02-23T14:27:15Z</time>
      </trkpt>
      <trkpt lat="42.96014" lon="0.74985">
        <ele>1033.4</ele>
        <time>2020-02-23T14:27:16Z</time>
      </trkpt>
      <trkpt lat="42.96014" lon="0.74985">
        <ele>1033.4</ele>
        <time>2020-02-23T14:27:17Z</time>
      </trkpt>
      <trkpt lat="42.96016" lon="0.74986">
        <ele>1033.2</ele>
        <time>2020-02-23T14:27:18Z</time>
      </trkpt>
      <trkpt lat="42.96019" lon="0.74989">
        <ele>1032.8</ele>
        <time>2020-02-23T14:27:19Z</time>
      </trkpt>
      <trkpt lat="42.96019" lon="0.74989">
        <ele>1032.8</ele>
        <time>2020-02-23T14:27:20Z</time>
      </trkpt>
      <trkpt lat="42.96021" lon="0.74991">
        <ele>1032.5</ele>
        <time>2020-02-23T14:27:21Z</time>
      </trkpt>
      <trkpt lat="42.96023" lon="0.74993">
        <ele>1032.3</ele>
        <time>2020-02-23T14:27:22Z</time>
      </trkpt>
      <trkpt lat="42.96027" lon="0.74996">
        <ele>1031.7</ele>
        <time>2020-02-23T14:27:23Z</time>
      </trkpt>
      <trkpt lat="42.96027" lon="0.74996">
        <ele>1031.7</ele>
        <time>2020-02-23T14:27:24Z</time>
      </trkpt>
      <trkpt lat="42.9603" lon="0.74998">
        <ele>1031.3</ele>
        <time>2020-02-23T14:27:25Z</time>
      </trkpt>
      <trkpt lat="42.9603" lon="0.74998">
        <ele>1031.3</ele>
        <time>2020-02-23T14:27:26Z</time>
      </trkpt>
      <trkpt lat="42.96032" lon="0.75">
        <ele>1031.1</ele>
        <time>2020-02-23T14:27:27Z</time>
      </trkpt>
      <trkpt lat="42.96034" lon="0.75001">
        <ele>1030.8</ele>
        <time>2020-02-23T14:27:28Z</time>
      </trkpt>
      <trkpt lat="42.96036" lon="0.75003">
        <ele>1030.6</ele>
        <time>2020-02-23T14:27:29Z</time>
      </trkpt>
      <trkpt lat="42.96037" lon="0.75005">
        <ele>1030.3</ele>
        <time>2020-02-23T14:27:30Z</time>
      </trkpt>
      <trkpt lat="42.96038" lon="0.75006">
        <ele>1030.1</ele>
        <time>2020-02-23T14:27:31Z</time>
      </trkpt>
      <trkpt lat="42.96039" lon="0.75008">
        <ele>1030</ele>
        <time>2020-02-23T14:27:32Z</time>
      </trkpt>
      <trkpt lat="42.9604" lon="0.75009">
        <ele>1029.8</ele>
        <time>2020-02-23T14:27:33Z</time>
      </trkpt>
      <trkpt lat="42.96041" lon="0.75011">
        <ele>1029.7</ele>
        <time>2020-02-23T14:27:34Z</time>
      </trkpt>
      <trkpt lat="42.96042" lon="0.75012">
        <ele>1029.5</ele>
        <time>2020-02-23T14:27:35Z</time>
      </trkpt>
      <trkpt lat="42.96042" lon="0.75014">
        <ele>1029.3</ele>
        <time>2020-02-23T14:27:36Z</time>
      </trkpt>
      <trkpt lat="42.96043" lon="0.75015">
        <ele>1029.2</ele>
        <time>2020-02-23T14:27:37Z</time>
      </trkpt>
      <trkpt lat="42.96044" lon="0.75017">
        <ele>1029</ele>
        <time>2020-02-23T14:27:38Z</time>
      </trkpt>
      <trkpt lat="42.96045" lon="0.75018">
        <ele>1028.8</ele>
        <time>2020-02-23T14:27:39Z</time>
      </trkpt>
      <trkpt lat="42.96046" lon="0.7502">
        <ele>1028.7</ele>
        <time>2020-02-23T14:27:40Z</time>
      </trkpt>
      <trkpt lat="42.96047" lon="0.75021">
        <ele>1028.5</ele>
        <time>2020-02-23T14:27:41Z</time>
      </trkpt>
      <trkpt lat="42.96047" lon="0.75023">
        <ele>1028.3</ele>
        <time>2020-02-23T14:27:42Z</time>
      </trkpt>
      <trkpt lat="42.96048" lon="0.75024">
        <ele>1028.1</ele>
        <time>2020-02-23T14:27:43Z</time>
      </trkpt>
      <trkpt lat="42.96049" lon="0.75026">
        <ele>1027.9</ele>
        <time>2020-02-23T14:27:44Z</time>
      </trkpt>
      <trkpt lat="42.96049" lon="0.75027">
        <ele>1027.8</ele>
        <time>2020-02-23T14:27:45Z</time>
      </trkpt>
      <trkpt lat="42.9605" lon="0.75029">
        <ele>1027.6</ele>
        <time>2020-02-23T14:27:46Z</time>
      </trkpt>
      <trkpt lat="42.96051" lon="0.7503">
        <ele>1027.4</ele>
        <time>2020-02-23T14:27:47Z</time>
      </trkpt>
      <trkpt lat="42.96051" lon="0.75032">
        <ele>1027.2</ele>
        <time>2020-02-23T14:27:48Z</time>
      </trkpt>
      <trkpt lat="42.96052" lon="0.75033">
        <ele>1027</ele>
        <time>2020-02-23T14:27:49Z</time>
      </trkpt>
      <trkpt lat="42.96053" lon="0.75035">
        <ele>1026.8</ele>
        <time>2020-02-23T14:27:50Z</time>
      </trkpt>
      <trkpt lat="42.96053" lon="0.75036">
        <ele>1026.6</ele>
        <time>2020-02-23T14:27:51Z</time>
      </trkpt>
      <trkpt lat="42.96054" lon="0.75037">
        <ele>1026.4</ele>
        <time>2020-02-23T14:27:52Z</time>
      </trkpt>
      <trkpt lat="42.96055" lon="0.75038">
        <ele>1026.1</ele>
        <time>2020-02-23T14:27:53Z</time>
      </trkpt>
      <trkpt lat="42.96055" lon="0.75038">
        <ele>1026.1</ele>
        <time>2020-02-23T14:27:54Z</time>
      </trkpt>
      <trkpt lat="42.96057" lon="0.75042">
        <ele>1025.5</ele>
        <time>2020-02-23T14:27:55Z</time>
      </trkpt>
      <trkpt lat="42.96057" lon="0.75042">
        <ele>1025.5</ele>
        <time>2020-02-23T14:27:56Z</time>
      </trkpt>
      <trkpt lat="42.96058" lon="0.75043">
        <ele>1025.1</ele>
        <time>2020-02-23T14:27:57Z</time>
      </trkpt>
      <trkpt lat="42.96059" lon="0.75045">
        <ele>1024.8</ele>
        <time>2020-02-23T14:27:58Z</time>
      </trkpt>
      <trkpt lat="42.9606" lon="0.75046">
        <ele>1024.6</ele>
        <time>2020-02-23T14:27:59Z</time>
      </trkpt>
      <trkpt lat="42.96061" lon="0.75048">
        <ele>1024.4</ele>
        <time>2020-02-23T14:28:00Z</time>
      </trkpt>
      <trkpt lat="42.96062" lon="0.75049">
        <ele>1024.2</ele>
        <time>2020-02-23T14:28:01Z</time>
      </trkpt>
      <trkpt lat="42.96063" lon="0.75051">
        <ele>1023.9</ele>
        <time>2020-02-23T14:28:02Z</time>
      </trkpt>
      <trkpt lat="42.96064" lon="0.75053">
        <ele>1023.7</ele>
        <time>2020-02-23T14:28:03Z</time>
      </trkpt>
      <trkpt lat="42.96064" lon="0.75053">
        <ele>1023.7</ele>
        <time>2020-02-23T14:28:04Z</time>
      </trkpt>
      <trkpt lat="42.96064" lon="0.75053">
        <ele>1023.7</ele>
        <time>2020-02-23T14:28:05Z</time>
      </trkpt>
      <trkpt lat="42.96065" lon="0.75056">
        <ele>1023.4</ele>
        <time>2020-02-23T14:28:06Z</time>
      </trkpt>
      <trkpt lat="42.96065" lon="0.75056">
        <ele>1023.4</ele>
        <time>2020-02-23T14:28:07Z</time>
      </trkpt>
      <trkpt lat="42.96066" lon="0.75059">
        <ele>1023</ele>
        <time>2020-02-23T14:28:08Z</time>
      </trkpt>
      <trkpt lat="42.96066" lon="0.75059">
        <ele>1023</ele>
        <time>2020-02-23T14:28:09Z</time>
      </trkpt>
      <trkpt lat="42.96066" lon="0.7506">
        <ele>1022.8</ele>
        <time>2020-02-23T14:28:10Z</time>
      </trkpt>
      <trkpt lat="42.96067" lon="0.75062">
        <ele>1022.7</ele>
        <time>2020-02-23T14:28:11Z</time>
      </trkpt>
      <trkpt lat="42.96067" lon="0.75063">
        <ele>1022.5</ele>
        <time>2020-02-23T14:28:12Z</time>
      </trkpt>
      <trkpt lat="42.96068" lon="0.75065">
        <ele>1022.4</ele>
        <time>2020-02-23T14:28:13Z</time>
      </trkpt>
      <trkpt lat="42.96068" lon="0.75067">
        <ele>1022.1</ele>
        <time>2020-02-23T14:28:14Z</time>
      </trkpt>
      <trkpt lat="42.96068" lon="0.75067">
        <ele>1022.1</ele>
        <time>2020-02-23T14:28:15Z</time>
      </trkpt>
      <trkpt lat="42.96068" lon="0.75067">
        <ele>1022.1</ele>
        <time>2020-02-23T14:28:16Z</time>
      </trkpt>
      <trkpt lat="42.96068" lon="0.75067">
        <ele>1022.1</ele>
        <time>2020-02-23T14:28:17Z</time>
      </trkpt>
      <trkpt lat="42.96068" lon="0.75067">
        <ele>1022.1</ele>
        <time>2020-02-23T14:28:18Z</time>
      </trkpt>
      <trkpt lat="42.96071" lon="0.75071">
        <ele>1021.7</ele>
        <time>2020-02-23T14:28:19Z</time>
      </trkpt>
      <trkpt lat="42.96071" lon="0.75071">
        <ele>1021.7</ele>
        <time>2020-02-23T14:28:20Z</time>
      </trkpt>
      <trkpt lat="42.96071" lon="0.75072">
        <ele>1021.6</ele>
        <time>2020-02-23T14:28:21Z</time>
      </trkpt>
      <trkpt lat="42.96071" lon="0.75073">
        <ele>1021.5</ele>
        <time>2020-02-23T14:28:22Z</time>
      </trkpt>
      <trkpt lat="42.96072" lon="0.75073">
        <ele>1021.4</ele>
        <time>2020-02-23T14:28:23Z</time>
      </trkpt>
      <trkpt lat="42.96072" lon="0.75074">
        <ele>1021.3</ele>
        <time>2020-02-23T14:28:24Z</time>
      </trkpt>
      <trkpt lat="42.96073" lon="0.75075">
        <ele>1021.3</ele>
        <time>2020-02-23T14:28:25Z</time>
      </trkpt>
      <trkpt lat="42.96073" lon="0.75076">
        <ele>1021.2</ele>
        <time>2020-02-23T14:28:26Z</time>
      </trkpt>
      <trkpt lat="42.96074" lon="0.75076">
        <ele>1021.1</ele>
        <time>2020-02-23T14:28:27Z</time>
      </trkpt>
      <trkpt lat="42.96074" lon="0.75077">
        <ele>1021</ele>
        <time>2020-02-23T14:28:28Z</time>
      </trkpt>
      <trkpt lat="42.96074" lon="0.75078">
        <ele>1020.9</ele>
        <time>2020-02-23T14:28:29Z</time>
      </trkpt>
      <trkpt lat="42.96075" lon="0.75079">
        <ele>1020.9</ele>
        <time>2020-02-23T14:28:30Z</time>
      </trkpt>
      <trkpt lat="42.96075" lon="0.75079">
        <ele>1020.8</ele>
        <time>2020-02-23T14:28:31Z</time>
      </trkpt>
      <trkpt lat="42.96076" lon="0.7508">
        <ele>1020.7</ele>
        <time>2020-02-23T14:28:32Z</time>
      </trkpt>
      <trkpt lat="42.96076" lon="0.75081">
        <ele>1020.6</ele>
        <time>2020-02-23T14:28:33Z</time>
      </trkpt>
      <trkpt lat="42.96077" lon="0.75081">
        <ele>1020.6</ele>
        <time>2020-02-23T14:28:34Z</time>
      </trkpt>
      <trkpt lat="42.96077" lon="0.75081">
        <ele>1020.5</ele>
        <time>2020-02-23T14:28:35Z</time>
      </trkpt>
      <trkpt lat="42.96077" lon="0.75081">
        <ele>1020.5</ele>
        <time>2020-02-23T14:28:36Z</time>
      </trkpt>
      <trkpt lat="42.96078" lon="0.75081">
        <ele>1020.4</ele>
        <time>2020-02-23T14:28:37Z</time>
      </trkpt>
      <trkpt lat="42.96078" lon="0.75082">
        <ele>1020.3</ele>
        <time>2020-02-23T14:28:38Z</time>
      </trkpt>
      <trkpt lat="42.96078" lon="0.75082">
        <ele>1020.3</ele>
        <time>2020-02-23T14:28:39Z</time>
      </trkpt>
      <trkpt lat="42.96079" lon="0.75082">
        <ele>1020.2</ele>
        <time>2020-02-23T14:28:40Z</time>
      </trkpt>
      <trkpt lat="42.96079" lon="0.75082">
        <ele>1020.2</ele>
        <time>2020-02-23T14:28:41Z</time>
      </trkpt>
      <trkpt lat="42.96079" lon="0.75082">
        <ele>1020.1</ele>
        <time>2020-02-23T14:28:42Z</time>
      </trkpt>
      <trkpt lat="42.9608" lon="0.75083">
        <ele>1020.1</ele>
        <time>2020-02-23T14:28:43Z</time>
      </trkpt>
      <trkpt lat="42.9608" lon="0.75083">
        <ele>1020</ele>
        <time>2020-02-23T14:28:44Z</time>
      </trkpt>
      <trkpt lat="42.9608" lon="0.75083">
        <ele>1019.9</ele>
        <time>2020-02-23T14:28:45Z</time>
      </trkpt>
      <trkpt lat="42.96081" lon="0.75083">
        <ele>1019.9</ele>
        <time>2020-02-23T14:28:46Z</time>
      </trkpt>
      <trkpt lat="42.96081" lon="0.75083">
        <ele>1019.8</ele>
        <time>2020-02-23T14:28:47Z</time>
      </trkpt>
      <trkpt lat="42.96082" lon="0.75083">
        <ele>1019.8</ele>
        <time>2020-02-23T14:28:48Z</time>
      </trkpt>
      <trkpt lat="42.96082" lon="0.75084">
        <ele>1019.7</ele>
        <time>2020-02-23T14:28:49Z</time>
      </trkpt>
      <trkpt lat="42.96082" lon="0.75084">
        <ele>1019.7</ele>
        <time>2020-02-23T14:28:50Z</time>
      </trkpt>
      <trkpt lat="42.96083" lon="0.75084">
        <ele>1019.6</ele>
        <time>2020-02-23T14:28:51Z</time>
      </trkpt>
      <trkpt lat="42.96083" lon="0.75084">
        <ele>1019.6</ele>
        <time>2020-02-23T14:28:52Z</time>
      </trkpt>
      <trkpt lat="42.96084" lon="0.75084">
        <ele>1019.5</ele>
        <time>2020-02-23T14:28:53Z</time>
      </trkpt>
      <trkpt lat="42.96084" lon="0.75084">
        <ele>1019.5</ele>
        <time>2020-02-23T14:28:54Z</time>
      </trkpt>
      <trkpt lat="42.96085" lon="0.75084">
        <ele>1019.4</ele>
        <time>2020-02-23T14:28:55Z</time>
      </trkpt>
      <trkpt lat="42.96085" lon="0.75084">
        <ele>1019.3</ele>
        <time>2020-02-23T14:28:56Z</time>
      </trkpt>
      <trkpt lat="42.96086" lon="0.75084">
        <ele>1019.2</ele>
        <time>2020-02-23T14:28:57Z</time>
      </trkpt>
      <trkpt lat="42.96086" lon="0.75084">
        <ele>1019.2</ele>
        <time>2020-02-23T14:28:58Z</time>
      </trkpt>
      <trkpt lat="42.96087" lon="0.75083">
        <ele>1019.1</ele>
        <time>2020-02-23T14:28:59Z</time>
      </trkpt>
      <trkpt lat="42.96088" lon="0.75083">
        <ele>1019</ele>
        <time>2020-02-23T14:29:00Z</time>
      </trkpt>
      <trkpt lat="42.96088" lon="0.75083">
        <ele>1019</ele>
        <time>2020-02-23T14:29:01Z</time>
      </trkpt>
      <trkpt lat="42.96089" lon="0.75083">
        <ele>1018.9</ele>
        <time>2020-02-23T14:29:02Z</time>
      </trkpt>
      <trkpt lat="42.96089" lon="0.75083">
        <ele>1018.8</ele>
        <time>2020-02-23T14:29:03Z</time>
      </trkpt>
      <trkpt lat="42.9609" lon="0.75083">
        <ele>1018.7</ele>
        <time>2020-02-23T14:29:04Z</time>
      </trkpt>
      <trkpt lat="42.9609" lon="0.75083">
        <ele>1018.7</ele>
        <time>2020-02-23T14:29:05Z</time>
      </trkpt>
      <trkpt lat="42.96091" lon="0.75083">
        <ele>1018.6</ele>
        <time>2020-02-23T14:29:06Z</time>
      </trkpt>
      <trkpt lat="42.96091" lon="0.75083">
        <ele>1018.5</ele>
        <time>2020-02-23T14:29:07Z</time>
      </trkpt>
      <trkpt lat="42.96092" lon="0.75083">
        <ele>1018.4</ele>
        <time>2020-02-23T14:29:08Z</time>
      </trkpt>
      <trkpt lat="42.96093" lon="0.75083">
        <ele>1018.2</ele>
        <time>2020-02-23T14:29:09Z</time>
      </trkpt>
      <trkpt lat="42.96094" lon="0.75084">
        <ele>1018.1</ele>
        <time>2020-02-23T14:29:10Z</time>
      </trkpt>
      <trkpt lat="42.96094" lon="0.75084">
        <ele>1017.9</ele>
        <time>2020-02-23T14:29:11Z</time>
      </trkpt>
      <trkpt lat="42.96095" lon="0.75084">
        <ele>1017.8</ele>
        <time>2020-02-23T14:29:12Z</time>
      </trkpt>
      <trkpt lat="42.96096" lon="0.75085">
        <ele>1017.7</ele>
        <time>2020-02-23T14:29:13Z</time>
      </trkpt>
      <trkpt lat="42.96097" lon="0.75085">
        <ele>1017.6</ele>
        <time>2020-02-23T14:29:14Z</time>
      </trkpt>
      <trkpt lat="42.96098" lon="0.75086">
        <ele>1017.5</ele>
        <time>2020-02-23T14:29:15Z</time>
      </trkpt>
      <trkpt lat="42.96098" lon="0.75086">
        <ele>1017.4</ele>
        <time>2020-02-23T14:29:16Z</time>
      </trkpt>
      <trkpt lat="42.96099" lon="0.75087">
        <ele>1017.3</ele>
        <time>2020-02-23T14:29:17Z</time>
      </trkpt>
      <trkpt lat="42.961" lon="0.75087">
        <ele>1017.2</ele>
        <time>2020-02-23T14:29:18Z</time>
      </trkpt>
      <trkpt lat="42.96101" lon="0.75088">
        <ele>1017.1</ele>
        <time>2020-02-23T14:29:19Z</time>
      </trkpt>
      <trkpt lat="42.96101" lon="0.75088">
        <ele>1016.9</ele>
        <time>2020-02-23T14:29:20Z</time>
      </trkpt>
      <trkpt lat="42.96103" lon="0.75089">
        <ele>1016.7</ele>
        <time>2020-02-23T14:29:21Z</time>
      </trkpt>
      <trkpt lat="42.96105" lon="0.7509">
        <ele>1016.4</ele>
        <time>2020-02-23T14:29:22Z</time>
      </trkpt>
      <trkpt lat="42.96107" lon="0.75091">
        <ele>1016.2</ele>
        <time>2020-02-23T14:29:23Z</time>
      </trkpt>
      <trkpt lat="42.96109" lon="0.75092">
        <ele>1015.9</ele>
        <time>2020-02-23T14:29:24Z</time>
      </trkpt>
      <trkpt lat="42.96111" lon="0.75093">
        <ele>1015.7</ele>
        <time>2020-02-23T14:29:25Z</time>
      </trkpt>
      <trkpt lat="42.96113" lon="0.75094">
        <ele>1015.5</ele>
        <time>2020-02-23T14:29:26Z</time>
      </trkpt>
      <trkpt lat="42.96115" lon="0.75094">
        <ele>1015.3</ele>
        <time>2020-02-23T14:29:27Z</time>
      </trkpt>
      <trkpt lat="42.96116" lon="0.75095">
        <ele>1015.1</ele>
        <time>2020-02-23T14:29:28Z</time>
      </trkpt>
      <trkpt lat="42.96118" lon="0.75096">
        <ele>1014.9</ele>
        <time>2020-02-23T14:29:29Z</time>
      </trkpt>
      <trkpt lat="42.9612" lon="0.75096">
        <ele>1014.7</ele>
        <time>2020-02-23T14:29:30Z</time>
      </trkpt>
      <trkpt lat="42.96121" lon="0.75097">
        <ele>1014.5</ele>
        <time>2020-02-23T14:29:31Z</time>
      </trkpt>
      <trkpt lat="42.96123" lon="0.75098">
        <ele>1014.3</ele>
        <time>2020-02-23T14:29:32Z</time>
      </trkpt>
      <trkpt lat="42.96124" lon="0.75098">
        <ele>1014.2</ele>
        <time>2020-02-23T14:29:33Z</time>
      </trkpt>
      <trkpt lat="42.96126" lon="0.75098">
        <ele>1014</ele>
        <time>2020-02-23T14:29:34Z</time>
      </trkpt>
      <trkpt lat="42.96128" lon="0.75099">
        <ele>1013.9</ele>
        <time>2020-02-23T14:29:35Z</time>
      </trkpt>
      <trkpt lat="42.96129" lon="0.75099">
        <ele>1013.8</ele>
        <time>2020-02-23T14:29:36Z</time>
      </trkpt>
      <trkpt lat="42.96131" lon="0.751">
        <ele>1013.7</ele>
        <time>2020-02-23T14:29:37Z</time>
      </trkpt>
      <trkpt lat="42.96132" lon="0.751">
        <ele>1013.6</ele>
        <time>2020-02-23T14:29:38Z</time>
      </trkpt>
      <trkpt lat="42.96134" lon="0.751">
        <ele>1013.5</ele>
        <time>2020-02-23T14:29:39Z</time>
      </trkpt>
      <trkpt lat="42.96135" lon="0.751">
        <ele>1013.4</ele>
        <time>2020-02-23T14:29:40Z</time>
      </trkpt>
      <trkpt lat="42.96137" lon="0.751">
        <ele>1013.3</ele>
        <time>2020-02-23T14:29:41Z</time>
      </trkpt>
      <trkpt lat="42.96138" lon="0.75101">
        <ele>1013.1</ele>
        <time>2020-02-23T14:29:42Z</time>
      </trkpt>
      <trkpt lat="42.96139" lon="0.75101">
        <ele>1013</ele>
        <time>2020-02-23T14:29:43Z</time>
      </trkpt>
      <trkpt lat="42.96141" lon="0.75101">
        <ele>1012.9</ele>
        <time>2020-02-23T14:29:44Z</time>
      </trkpt>
      <trkpt lat="42.96146" lon="0.75101">
        <ele>1012.6</ele>
        <time>2020-02-23T14:29:45Z</time>
      </trkpt>
      <trkpt lat="42.96151" lon="0.75101">
        <ele>1012.2</ele>
        <time>2020-02-23T14:29:46Z</time>
      </trkpt>
      <trkpt lat="42.96156" lon="0.75101">
        <ele>1011.7</ele>
        <time>2020-02-23T14:29:47Z</time>
      </trkpt>
      <trkpt lat="42.96161" lon="0.75101">
        <ele>1011</ele>
        <time>2020-02-23T14:29:48Z</time>
      </trkpt>
      <trkpt lat="42.96165" lon="0.75101">
        <ele>1010.4</ele>
        <time>2020-02-23T14:29:49Z</time>
      </trkpt>
      <trkpt lat="42.9617" lon="0.75101">
        <ele>1009.8</ele>
        <time>2020-02-23T14:29:50Z</time>
      </trkpt>
      <trkpt lat="42.96175" lon="0.75102">
        <ele>1009.2</ele>
        <time>2020-02-23T14:29:51Z</time>
      </trkpt>
      <trkpt lat="42.9618" lon="0.75102">
        <ele>1008.4</ele>
        <time>2020-02-23T14:29:52Z</time>
      </trkpt>
      <trkpt lat="42.96185" lon="0.75102">
        <ele>1007.6</ele>
        <time>2020-02-23T14:29:53Z</time>
      </trkpt>
      <trkpt lat="42.9619" lon="0.75102">
        <ele>1006.9</ele>
        <time>2020-02-23T14:29:54Z</time>
      </trkpt>
      <trkpt lat="42.96195" lon="0.75102">
        <ele>1006.3</ele>
        <time>2020-02-23T14:29:55Z</time>
      </trkpt>
      <trkpt lat="42.96201" lon="0.75107">
        <ele>1005.4</ele>
        <time>2020-02-23T14:29:56Z</time>
      </trkpt>
      <trkpt lat="42.96201" lon="0.75107">
        <ele>1005.4</ele>
        <time>2020-02-23T14:29:57Z</time>
      </trkpt>
      <trkpt lat="42.96202" lon="0.75106">
        <ele>1005.2</ele>
        <time>2020-02-23T14:29:58Z</time>
      </trkpt>
      <trkpt lat="42.96202" lon="0.75104">
        <ele>1005</ele>
        <time>2020-02-23T14:29:59Z</time>
      </trkpt>
      <trkpt lat="42.96203" lon="0.75102">
        <ele>1004.9</ele>
        <time>2020-02-23T14:30:00Z</time>
      </trkpt>
      <trkpt lat="42.96204" lon="0.751">
        <ele>1004.7</ele>
        <time>2020-02-23T14:30:01Z</time>
      </trkpt>
      <trkpt lat="42.96204" lon="0.75099">
        <ele>1004.5</ele>
        <time>2020-02-23T14:30:02Z</time>
      </trkpt>
      <trkpt lat="42.96205" lon="0.75097">
        <ele>1004.4</ele>
        <time>2020-02-23T14:30:03Z</time>
      </trkpt>
      <trkpt lat="42.96207" lon="0.75097">
        <ele>1004.1</ele>
        <time>2020-02-23T14:30:04Z</time>
      </trkpt>
      <trkpt lat="42.9621" lon="0.75097">
        <ele>1003.8</ele>
        <time>2020-02-23T14:30:05Z</time>
      </trkpt>
      <trkpt lat="42.96212" lon="0.75097">
        <ele>1003.4</ele>
        <time>2020-02-23T14:30:06Z</time>
      </trkpt>
      <trkpt lat="42.96214" lon="0.75097">
        <ele>1003.1</ele>
        <time>2020-02-23T14:30:07Z</time>
      </trkpt>
      <trkpt lat="42.96216" lon="0.75097">
        <ele>1002.9</ele>
        <time>2020-02-23T14:30:08Z</time>
      </trkpt>
      <trkpt lat="42.96217" lon="0.75098">
        <ele>1002.7</ele>
        <time>2020-02-23T14:30:09Z</time>
      </trkpt>
      <trkpt lat="42.96218" lon="0.75098">
        <ele>1002.6</ele>
        <time>2020-02-23T14:30:10Z</time>
      </trkpt>
      <trkpt lat="42.96219" lon="0.75098">
        <ele>1002.4</ele>
        <time>2020-02-23T14:30:11Z</time>
      </trkpt>
      <trkpt lat="42.96221" lon="0.75098">
        <ele>1002.3</ele>
        <time>2020-02-23T14:30:12Z</time>
      </trkpt>
      <trkpt lat="42.96222" lon="0.75099">
        <ele>1002.1</ele>
        <time>2020-02-23T14:30:13Z</time>
      </trkpt>
      <trkpt lat="42.96223" lon="0.75099">
        <ele>1002</ele>
        <time>2020-02-23T14:30:14Z</time>
      </trkpt>
      <trkpt lat="42.96224" lon="0.75099">
        <ele>1001.8</ele>
        <time>2020-02-23T14:30:15Z</time>
      </trkpt>
      <trkpt lat="42.96226" lon="0.751">
        <ele>1001.6</ele>
        <time>2020-02-23T14:30:16Z</time>
      </trkpt>
      <trkpt lat="42.96227" lon="0.751">
        <ele>1001.4</ele>
        <time>2020-02-23T14:30:17Z</time>
      </trkpt>
      <trkpt lat="42.96227" lon="0.75099">
        <ele>1001.3</ele>
        <time>2020-02-23T14:30:18Z</time>
      </trkpt>
      <trkpt lat="42.96228" lon="0.75099">
        <ele>1001.2</ele>
        <time>2020-02-23T14:30:19Z</time>
      </trkpt>
      <trkpt lat="42.96229" lon="0.75098">
        <ele>1001.1</ele>
        <time>2020-02-23T14:30:20Z</time>
      </trkpt>
      <trkpt lat="42.96229" lon="0.75098">
        <ele>1001</ele>
        <time>2020-02-23T14:30:21Z</time>
      </trkpt>
      <trkpt lat="42.9623" lon="0.75097">
        <ele>1000.9</ele>
        <time>2020-02-23T14:30:22Z</time>
      </trkpt>
      <trkpt lat="42.96231" lon="0.75097">
        <ele>1000.7</ele>
        <time>2020-02-23T14:30:23Z</time>
      </trkpt>
      <trkpt lat="42.96231" lon="0.75096">
        <ele>1000.6</ele>
        <time>2020-02-23T14:30:24Z</time>
      </trkpt>
      <trkpt lat="42.96232" lon="0.75096">
        <ele>1000.5</ele>
        <time>2020-02-23T14:30:25Z</time>
      </trkpt>
      <trkpt lat="42.96233" lon="0.75095">
        <ele>1000.4</ele>
        <time>2020-02-23T14:30:26Z</time>
      </trkpt>
      <trkpt lat="42.96234" lon="0.75094">
        <ele>1000.2</ele>
        <time>2020-02-23T14:30:27Z</time>
      </trkpt>
      <trkpt lat="42.96234" lon="0.75094">
        <ele>1000.1</ele>
        <time>2020-02-23T14:30:28Z</time>
      </trkpt>
      <trkpt lat="42.96235" lon="0.75093">
        <ele>1000</ele>
        <time>2020-02-23T14:30:29Z</time>
      </trkpt>
      <trkpt lat="42.96236" lon="0.75093">
        <ele>999.9</ele>
        <time>2020-02-23T14:30:30Z</time>
      </trkpt>
      <trkpt lat="42.96237" lon="0.75092">
        <ele>999.7</ele>
        <time>2020-02-23T14:30:31Z</time>
      </trkpt>
      <trkpt lat="42.96238" lon="0.75092">
        <ele>999.5</ele>
        <time>2020-02-23T14:30:32Z</time>
      </trkpt>
      <trkpt lat="42.96239" lon="0.75092">
        <ele>999.3</ele>
        <time>2020-02-23T14:30:33Z</time>
      </trkpt>
      <trkpt lat="42.96241" lon="0.75091">
        <ele>999.1</ele>
        <time>2020-02-23T14:30:34Z</time>
      </trkpt>
      <trkpt lat="42.96242" lon="0.75091">
        <ele>998.9</ele>
        <time>2020-02-23T14:30:35Z</time>
      </trkpt>
      <trkpt lat="42.96243" lon="0.7509">
        <ele>998.7</ele>
        <time>2020-02-23T14:30:36Z</time>
      </trkpt>
      <trkpt lat="42.96244" lon="0.7509">
        <ele>998.4</ele>
        <time>2020-02-23T14:30:37Z</time>
      </trkpt>
      <trkpt lat="42.96245" lon="0.7509">
        <ele>998.2</ele>
        <time>2020-02-23T14:30:38Z</time>
      </trkpt>
      <trkpt lat="42.96247" lon="0.75089">
        <ele>997.9</ele>
        <time>2020-02-23T14:30:39Z</time>
      </trkpt>
      <trkpt lat="42.96249" lon="0.75088">
        <ele>997.6</ele>
        <time>2020-02-23T14:30:40Z</time>
      </trkpt>
      <trkpt lat="42.96251" lon="0.75088">
        <ele>997.3</ele>
        <time>2020-02-23T14:30:41Z</time>
      </trkpt>
      <trkpt lat="42.96253" lon="0.75087">
        <ele>997</ele>
        <time>2020-02-23T14:30:42Z</time>
      </trkpt>
      <trkpt lat="42.96255" lon="0.75086">
        <ele>996.6</ele>
        <time>2020-02-23T14:30:43Z</time>
      </trkpt>
      <trkpt lat="42.96257" lon="0.75086">
        <ele>996.2</ele>
        <time>2020-02-23T14:30:44Z</time>
      </trkpt>
      <trkpt lat="42.96259" lon="0.75085">
        <ele>995.9</ele>
        <time>2020-02-23T14:30:45Z</time>
      </trkpt>
      <trkpt lat="42.96261" lon="0.75084">
        <ele>995.6</ele>
        <time>2020-02-23T14:30:46Z</time>
      </trkpt>
      <trkpt lat="42.96262" lon="0.75083">
        <ele>995.3</ele>
        <time>2020-02-23T14:30:47Z</time>
      </trkpt>
      <trkpt lat="42.96264" lon="0.75082">
        <ele>995.1</ele>
        <time>2020-02-23T14:30:48Z</time>
      </trkpt>
      <trkpt lat="42.96265" lon="0.75082">
        <ele>994.9</ele>
        <time>2020-02-23T14:30:49Z</time>
      </trkpt>
      <trkpt lat="42.96266" lon="0.75081">
        <ele>994.8</ele>
        <time>2020-02-23T14:30:50Z</time>
      </trkpt>
      <trkpt lat="42.96267" lon="0.75081">
        <ele>994.6</ele>
        <time>2020-02-23T14:30:51Z</time>
      </trkpt>
      <trkpt lat="42.96268" lon="0.75081">
        <ele>994.5</ele>
        <time>2020-02-23T14:30:52Z</time>
      </trkpt>
      <trkpt lat="42.96269" lon="0.75081">
        <ele>994.3</ele>
        <time>2020-02-23T14:30:53Z</time>
      </trkpt>
      <trkpt lat="42.9627" lon="0.7508">
        <ele>994.1</ele>
        <time>2020-02-23T14:30:54Z</time>
      </trkpt>
      <trkpt lat="42.96271" lon="0.7508">
        <ele>994</ele>
        <time>2020-02-23T14:30:55Z</time>
      </trkpt>
      <trkpt lat="42.96272" lon="0.7508">
        <ele>993.8</ele>
        <time>2020-02-23T14:30:56Z</time>
      </trkpt>
      <trkpt lat="42.96273" lon="0.75079">
        <ele>993.7</ele>
        <time>2020-02-23T14:30:57Z</time>
      </trkpt>
      <trkpt lat="42.96275" lon="0.75079">
        <ele>993.5</ele>
        <time>2020-02-23T14:30:58Z</time>
      </trkpt>
      <trkpt lat="42.96276" lon="0.75079">
        <ele>993.3</ele>
        <time>2020-02-23T14:30:59Z</time>
      </trkpt>
      <trkpt lat="42.96277" lon="0.75079">
        <ele>993.1</ele>
        <time>2020-02-23T14:31:00Z</time>
      </trkpt>
      <trkpt lat="42.96279" lon="0.75079">
        <ele>992.9</ele>
        <time>2020-02-23T14:31:01Z</time>
      </trkpt>
      <trkpt lat="42.9628" lon="0.75079">
        <ele>992.7</ele>
        <time>2020-02-23T14:31:02Z</time>
      </trkpt>
      <trkpt lat="42.96281" lon="0.75079">
        <ele>992.5</ele>
        <time>2020-02-23T14:31:03Z</time>
      </trkpt>
      <trkpt lat="42.96283" lon="0.75078">
        <ele>992.3</ele>
        <time>2020-02-23T14:31:04Z</time>
      </trkpt>
      <trkpt lat="42.96284" lon="0.75079">
        <ele>992.1</ele>
        <time>2020-02-23T14:31:05Z</time>
      </trkpt>
      <trkpt lat="42.96285" lon="0.75079">
        <ele>991.9</ele>
        <time>2020-02-23T14:31:06Z</time>
      </trkpt>
      <trkpt lat="42.96287" lon="0.75079">
        <ele>991.7</ele>
        <time>2020-02-23T14:31:07Z</time>
      </trkpt>
      <trkpt lat="42.96288" lon="0.75079">
        <ele>991.6</ele>
        <time>2020-02-23T14:31:08Z</time>
      </trkpt>
      <trkpt lat="42.96289" lon="0.75079">
        <ele>991.4</ele>
        <time>2020-02-23T14:31:09Z</time>
      </trkpt>
      <trkpt lat="42.9629" lon="0.7508">
        <ele>991.2</ele>
        <time>2020-02-23T14:31:10Z</time>
      </trkpt>
      <trkpt lat="42.96292" lon="0.7508">
        <ele>991.1</ele>
        <time>2020-02-23T14:31:11Z</time>
      </trkpt>
      <trkpt lat="42.96293" lon="0.7508">
        <ele>990.9</ele>
        <time>2020-02-23T14:31:12Z</time>
      </trkpt>
      <trkpt lat="42.96295" lon="0.7508">
        <ele>990.7</ele>
        <time>2020-02-23T14:31:13Z</time>
      </trkpt>
      <trkpt lat="42.96297" lon="0.7508">
        <ele>990.4</ele>
        <time>2020-02-23T14:31:14Z</time>
      </trkpt>
      <trkpt lat="42.96298" lon="0.75081">
        <ele>990.2</ele>
        <time>2020-02-23T14:31:15Z</time>
      </trkpt>
      <trkpt lat="42.963" lon="0.75081">
        <ele>989.9</ele>
        <time>2020-02-23T14:31:16Z</time>
      </trkpt>
      <trkpt lat="42.96302" lon="0.75081">
        <ele>989.7</ele>
        <time>2020-02-23T14:31:17Z</time>
      </trkpt>
      <trkpt lat="42.96303" lon="0.7508">
        <ele>989.6</ele>
        <time>2020-02-23T14:31:18Z</time>
      </trkpt>
      <trkpt lat="42.96304" lon="0.7508">
        <ele>989.5</ele>
        <time>2020-02-23T14:31:19Z</time>
      </trkpt>
      <trkpt lat="42.96305" lon="0.75079">
        <ele>989.3</ele>
        <time>2020-02-23T14:31:20Z</time>
      </trkpt>
      <trkpt lat="42.96306" lon="0.75078">
        <ele>989.2</ele>
        <time>2020-02-23T14:31:21Z</time>
      </trkpt>
      <trkpt lat="42.96307" lon="0.75077">
        <ele>989.1</ele>
        <time>2020-02-23T14:31:22Z</time>
      </trkpt>
      <trkpt lat="42.96308" lon="0.75076">
        <ele>989</ele>
        <time>2020-02-23T14:31:23Z</time>
      </trkpt>
      <trkpt lat="42.96309" lon="0.75075">
        <ele>988.9</ele>
        <time>2020-02-23T14:31:24Z</time>
      </trkpt>
      <trkpt lat="42.9631" lon="0.75075">
        <ele>988.8</ele>
        <time>2020-02-23T14:31:25Z</time>
      </trkpt>
      <trkpt lat="42.9631" lon="0.75074">
        <ele>988.7</ele>
        <time>2020-02-23T14:31:26Z</time>
      </trkpt>
      <trkpt lat="42.96312" lon="0.75074">
        <ele>988.5</ele>
        <time>2020-02-23T14:31:27Z</time>
      </trkpt>
      <trkpt lat="42.96313" lon="0.75073">
        <ele>988.4</ele>
        <time>2020-02-23T14:31:28Z</time>
      </trkpt>
      <trkpt lat="42.96314" lon="0.75073">
        <ele>988.3</ele>
        <time>2020-02-23T14:31:29Z</time>
      </trkpt>
      <trkpt lat="42.96315" lon="0.75073">
        <ele>988.2</ele>
        <time>2020-02-23T14:31:30Z</time>
      </trkpt>
      <trkpt lat="42.96316" lon="0.75073">
        <ele>988.1</ele>
        <time>2020-02-23T14:31:31Z</time>
      </trkpt>
      <trkpt lat="42.96317" lon="0.75072">
        <ele>988</ele>
        <time>2020-02-23T14:31:32Z</time>
      </trkpt>
      <trkpt lat="42.96318" lon="0.75072">
        <ele>987.9</ele>
        <time>2020-02-23T14:31:33Z</time>
      </trkpt>
      <trkpt lat="42.9632" lon="0.75072">
        <ele>987.8</ele>
        <time>2020-02-23T14:31:34Z</time>
      </trkpt>
      <trkpt lat="42.96321" lon="0.75071">
        <ele>987.7</ele>
        <time>2020-02-23T14:31:35Z</time>
      </trkpt>
      <trkpt lat="42.96322" lon="0.75071">
        <ele>987.5</ele>
        <time>2020-02-23T14:31:36Z</time>
      </trkpt>
      <trkpt lat="42.96323" lon="0.7507">
        <ele>987.4</ele>
        <time>2020-02-23T14:31:37Z</time>
      </trkpt>
      <trkpt lat="42.96324" lon="0.7507">
        <ele>987.3</ele>
        <time>2020-02-23T14:31:38Z</time>
      </trkpt>
      <trkpt lat="42.96326" lon="0.75069">
        <ele>987.2</ele>
        <time>2020-02-23T14:31:39Z</time>
      </trkpt>
      <trkpt lat="42.96327" lon="0.75069">
        <ele>987.1</ele>
        <time>2020-02-23T14:31:40Z</time>
      </trkpt>
      <trkpt lat="42.96328" lon="0.75068">
        <ele>987</ele>
        <time>2020-02-23T14:31:41Z</time>
      </trkpt>
      <trkpt lat="42.96329" lon="0.75068">
        <ele>986.8</ele>
        <time>2020-02-23T14:31:42Z</time>
      </trkpt>
      <trkpt lat="42.9633" lon="0.75067">
        <ele>986.7</ele>
        <time>2020-02-23T14:31:43Z</time>
      </trkpt>
      <trkpt lat="42.96332" lon="0.75066">
        <ele>986.5</ele>
        <time>2020-02-23T14:31:44Z</time>
      </trkpt>
      <trkpt lat="42.96334" lon="0.75066">
        <ele>986.3</ele>
        <time>2020-02-23T14:31:45Z</time>
      </trkpt>
      <trkpt lat="42.96336" lon="0.75065">
        <ele>986.2</ele>
        <time>2020-02-23T14:31:46Z</time>
      </trkpt>
      <trkpt lat="42.96338" lon="0.75065">
        <ele>986</ele>
        <time>2020-02-23T14:31:47Z</time>
      </trkpt>
      <trkpt lat="42.9634" lon="0.75064">
        <ele>985.8</ele>
        <time>2020-02-23T14:31:48Z</time>
      </trkpt>
      <trkpt lat="42.96341" lon="0.75063">
        <ele>985.6</ele>
        <time>2020-02-23T14:31:49Z</time>
      </trkpt>
      <trkpt lat="42.96342" lon="0.75063">
        <ele>985.5</ele>
        <time>2020-02-23T14:31:50Z</time>
      </trkpt>
      <trkpt lat="42.96343" lon="0.75062">
        <ele>985.3</ele>
        <time>2020-02-23T14:31:51Z</time>
      </trkpt>
      <trkpt lat="42.96344" lon="0.75061">
        <ele>985.2</ele>
        <time>2020-02-23T14:31:52Z</time>
      </trkpt>
      <trkpt lat="42.96345" lon="0.75061">
        <ele>985.1</ele>
        <time>2020-02-23T14:31:53Z</time>
      </trkpt>
      <trkpt lat="42.96346" lon="0.7506">
        <ele>984.9</ele>
        <time>2020-02-23T14:31:54Z</time>
      </trkpt>
      <trkpt lat="42.96347" lon="0.75059">
        <ele>984.8</ele>
        <time>2020-02-23T14:31:55Z</time>
      </trkpt>
      <trkpt lat="42.96348" lon="0.75059">
        <ele>984.7</ele>
        <time>2020-02-23T14:31:56Z</time>
      </trkpt>
      <trkpt lat="42.9635" lon="0.75058">
        <ele>984.5</ele>
        <time>2020-02-23T14:31:57Z</time>
      </trkpt>
      <trkpt lat="42.96351" lon="0.75058">
        <ele>984.4</ele>
        <time>2020-02-23T14:31:58Z</time>
      </trkpt>
      <trkpt lat="42.96353" lon="0.75058">
        <ele>984.2</ele>
        <time>2020-02-23T14:31:59Z</time>
      </trkpt>
      <trkpt lat="42.96354" lon="0.75057">
        <ele>984.1</ele>
        <time>2020-02-23T14:32:00Z</time>
      </trkpt>
      <trkpt lat="42.96356" lon="0.75057">
        <ele>983.9</ele>
        <time>2020-02-23T14:32:01Z</time>
      </trkpt>
      <trkpt lat="42.96357" lon="0.75057">
        <ele>983.8</ele>
        <time>2020-02-23T14:32:02Z</time>
      </trkpt>
      <trkpt lat="42.96358" lon="0.75057">
        <ele>983.6</ele>
        <time>2020-02-23T14:32:03Z</time>
      </trkpt>
      <trkpt lat="42.96359" lon="0.75056">
        <ele>983.5</ele>
        <time>2020-02-23T14:32:04Z</time>
      </trkpt>
      <trkpt lat="42.9636" lon="0.75055">
        <ele>983.3</ele>
        <time>2020-02-23T14:32:05Z</time>
      </trkpt>
      <trkpt lat="42.9636" lon="0.75055">
        <ele>983.2</ele>
        <time>2020-02-23T14:32:06Z</time>
      </trkpt>
      <trkpt lat="42.96361" lon="0.75054">
        <ele>983.1</ele>
        <time>2020-02-23T14:32:07Z</time>
      </trkpt>
      <trkpt lat="42.96362" lon="0.75053">
        <ele>983</ele>
        <time>2020-02-23T14:32:08Z</time>
      </trkpt>
      <trkpt lat="42.96363" lon="0.75052">
        <ele>982.8</ele>
        <time>2020-02-23T14:32:09Z</time>
      </trkpt>
      <trkpt lat="42.96363" lon="0.75052">
        <ele>982.7</ele>
        <time>2020-02-23T14:32:10Z</time>
      </trkpt>
      <trkpt lat="42.96364" lon="0.75051">
        <ele>982.6</ele>
        <time>2020-02-23T14:32:11Z</time>
      </trkpt>
      <trkpt lat="42.96365" lon="0.7505">
        <ele>982.5</ele>
        <time>2020-02-23T14:32:12Z</time>
      </trkpt>
      <trkpt lat="42.96365" lon="0.7505">
        <ele>982.3</ele>
        <time>2020-02-23T14:32:13Z</time>
      </trkpt>
      <trkpt lat="42.96366" lon="0.75049">
        <ele>982.2</ele>
        <time>2020-02-23T14:32:14Z</time>
      </trkpt>
      <trkpt lat="42.96368" lon="0.75049">
        <ele>981.9</ele>
        <time>2020-02-23T14:32:15Z</time>
      </trkpt>
      <trkpt lat="42.9637" lon="0.75048">
        <ele>981.6</ele>
        <time>2020-02-23T14:32:16Z</time>
      </trkpt>
      <trkpt lat="42.96371" lon="0.75048">
        <ele>981.4</ele>
        <time>2020-02-23T14:32:17Z</time>
      </trkpt>
      <trkpt lat="42.96373" lon="0.75047">
        <ele>981.1</ele>
        <time>2020-02-23T14:32:18Z</time>
      </trkpt>
      <trkpt lat="42.96375" lon="0.75047">
        <ele>980.9</ele>
        <time>2020-02-23T14:32:19Z</time>
      </trkpt>
      <trkpt lat="42.96376" lon="0.75046">
        <ele>980.6</ele>
        <time>2020-02-23T14:32:20Z</time>
      </trkpt>
      <trkpt lat="42.96379" lon="0.75046">
        <ele>980.3</ele>
        <time>2020-02-23T14:32:21Z</time>
      </trkpt>
      <trkpt lat="42.96381" lon="0.75046">
        <ele>980.1</ele>
        <time>2020-02-23T14:32:22Z</time>
      </trkpt>
      <trkpt lat="42.96383" lon="0.75046">
        <ele>979.8</ele>
        <time>2020-02-23T14:32:23Z</time>
      </trkpt>
      <trkpt lat="42.96385" lon="0.75046">
        <ele>979.6</ele>
        <time>2020-02-23T14:32:24Z</time>
      </trkpt>
      <trkpt lat="42.96387" lon="0.75046">
        <ele>979.3</ele>
        <time>2020-02-23T14:32:25Z</time>
      </trkpt>
      <trkpt lat="42.96389" lon="0.75045">
        <ele>979.1</ele>
        <time>2020-02-23T14:32:26Z</time>
      </trkpt>
      <trkpt lat="42.9639" lon="0.75045">
        <ele>978.8</ele>
        <time>2020-02-23T14:32:27Z</time>
      </trkpt>
      <trkpt lat="42.96392" lon="0.75045">
        <ele>978.6</ele>
        <time>2020-02-23T14:32:28Z</time>
      </trkpt>
      <trkpt lat="42.96393" lon="0.75045">
        <ele>978.4</ele>
        <time>2020-02-23T14:32:29Z</time>
      </trkpt>
      <trkpt lat="42.96395" lon="0.75045">
        <ele>978.2</ele>
        <time>2020-02-23T14:32:30Z</time>
      </trkpt>
      <trkpt lat="42.96397" lon="0.75045">
        <ele>978</ele>
        <time>2020-02-23T14:32:31Z</time>
      </trkpt>
      <trkpt lat="42.96397" lon="0.75045">
        <ele>977.9</ele>
        <time>2020-02-23T14:32:32Z</time>
      </trkpt>
      <trkpt lat="42.96398" lon="0.75044">
        <ele>977.8</ele>
        <time>2020-02-23T14:32:33Z</time>
      </trkpt>
      <trkpt lat="42.96399" lon="0.75044">
        <ele>977.7</ele>
        <time>2020-02-23T14:32:34Z</time>
      </trkpt>
      <trkpt lat="42.96399" lon="0.75044">
        <ele>977.6</ele>
        <time>2020-02-23T14:32:35Z</time>
      </trkpt>
      <trkpt lat="42.964" lon="0.75044">
        <ele>977.5</ele>
        <time>2020-02-23T14:32:36Z</time>
      </trkpt>
      <trkpt lat="42.964" lon="0.75043">
        <ele>977.4</ele>
        <time>2020-02-23T14:32:37Z</time>
      </trkpt>
      <trkpt lat="42.96401" lon="0.75043">
        <ele>977.3</ele>
        <time>2020-02-23T14:32:38Z</time>
      </trkpt>
      <trkpt lat="42.96402" lon="0.75043">
        <ele>977.2</ele>
        <time>2020-02-23T14:32:39Z</time>
      </trkpt>
      <trkpt lat="42.96402" lon="0.75042">
        <ele>977.1</ele>
        <time>2020-02-23T14:32:40Z</time>
      </trkpt>
      <trkpt lat="42.96403" lon="0.75042">
        <ele>977</ele>
        <time>2020-02-23T14:32:41Z</time>
      </trkpt>
      <trkpt lat="42.96404" lon="0.75042">
        <ele>976.9</ele>
        <time>2020-02-23T14:32:42Z</time>
      </trkpt>
      <trkpt lat="42.96404" lon="0.75041">
        <ele>976.8</ele>
        <time>2020-02-23T14:32:43Z</time>
      </trkpt>
      <trkpt lat="42.96405" lon="0.75041">
        <ele>976.7</ele>
        <time>2020-02-23T14:32:44Z</time>
      </trkpt>
      <trkpt lat="42.96406" lon="0.75041">
        <ele>976.7</ele>
        <time>2020-02-23T14:32:45Z</time>
      </trkpt>
      <trkpt lat="42.96406" lon="0.7504">
        <ele>976.6</ele>
        <time>2020-02-23T14:32:46Z</time>
      </trkpt>
      <trkpt lat="42.96407" lon="0.7504">
        <ele>976.4</ele>
        <time>2020-02-23T14:32:47Z</time>
      </trkpt>
      <trkpt lat="42.96409" lon="0.75039">
        <ele>976.2</ele>
        <time>2020-02-23T14:32:48Z</time>
      </trkpt>
      <trkpt lat="42.9641" lon="0.75038">
        <ele>976.1</ele>
        <time>2020-02-23T14:32:49Z</time>
      </trkpt>
      <trkpt lat="42.96411" lon="0.75037">
        <ele>975.9</ele>
        <time>2020-02-23T14:32:50Z</time>
      </trkpt>
      <trkpt lat="42.96412" lon="0.75037">
        <ele>975.7</ele>
        <time>2020-02-23T14:32:51Z</time>
      </trkpt>
      <trkpt lat="42.96413" lon="0.75036">
        <ele>975.5</ele>
        <time>2020-02-23T14:32:52Z</time>
      </trkpt>
      <trkpt lat="42.96415" lon="0.75035">
        <ele>975.3</ele>
        <time>2020-02-23T14:32:53Z</time>
      </trkpt>
      <trkpt lat="42.96415" lon="0.75036">
        <ele>975.2</ele>
        <time>2020-02-23T14:32:54Z</time>
      </trkpt>
      <trkpt lat="42.96416" lon="0.75036">
        <ele>975.1</ele>
        <time>2020-02-23T14:32:55Z</time>
      </trkpt>
      <trkpt lat="42.96417" lon="0.75037">
        <ele>974.9</ele>
        <time>2020-02-23T14:32:56Z</time>
      </trkpt>
      <trkpt lat="42.96418" lon="0.75038">
        <ele>974.8</ele>
        <time>2020-02-23T14:32:57Z</time>
      </trkpt>
      <trkpt lat="42.96419" lon="0.75038">
        <ele>974.7</ele>
        <time>2020-02-23T14:32:58Z</time>
      </trkpt>
      <trkpt lat="42.9642" lon="0.75039">
        <ele>974.5</ele>
        <time>2020-02-23T14:32:59Z</time>
      </trkpt>
      <trkpt lat="42.9642" lon="0.75039">
        <ele>974.4</ele>
        <time>2020-02-23T14:33:00Z</time>
      </trkpt>
      <trkpt lat="42.96421" lon="0.7504">
        <ele>974.3</ele>
        <time>2020-02-23T14:33:01Z</time>
      </trkpt>
      <trkpt lat="42.96422" lon="0.7504">
        <ele>974.1</ele>
        <time>2020-02-23T14:33:02Z</time>
      </trkpt>
      <trkpt lat="42.96423" lon="0.75041">
        <ele>974</ele>
        <time>2020-02-23T14:33:03Z</time>
      </trkpt>
      <trkpt lat="42.96424" lon="0.75042">
        <ele>973.9</ele>
        <time>2020-02-23T14:33:04Z</time>
      </trkpt>
      <trkpt lat="42.96425" lon="0.75041">
        <ele>973.7</ele>
        <time>2020-02-23T14:33:05Z</time>
      </trkpt>
      <trkpt lat="42.96426" lon="0.7504">
        <ele>973.5</ele>
        <time>2020-02-23T14:33:06Z</time>
      </trkpt>
      <trkpt lat="42.96427" lon="0.7504">
        <ele>973.3</ele>
        <time>2020-02-23T14:33:07Z</time>
      </trkpt>
      <trkpt lat="42.96428" lon="0.75039">
        <ele>973.1</ele>
        <time>2020-02-23T14:33:08Z</time>
      </trkpt>
      <trkpt lat="42.9643" lon="0.75039">
        <ele>972.9</ele>
        <time>2020-02-23T14:33:09Z</time>
      </trkpt>
      <trkpt lat="42.96431" lon="0.75038">
        <ele>972.7</ele>
        <time>2020-02-23T14:33:10Z</time>
      </trkpt>
      <trkpt lat="42.96432" lon="0.75037">
        <ele>972.5</ele>
        <time>2020-02-23T14:33:11Z</time>
      </trkpt>
      <trkpt lat="42.96433" lon="0.75037">
        <ele>972.3</ele>
        <time>2020-02-23T14:33:12Z</time>
      </trkpt>
      <trkpt lat="42.96435" lon="0.75036">
        <ele>972</ele>
        <time>2020-02-23T14:33:13Z</time>
      </trkpt>
      <trkpt lat="42.96436" lon="0.75035">
        <ele>971.8</ele>
        <time>2020-02-23T14:33:14Z</time>
      </trkpt>
      <trkpt lat="42.96438" lon="0.75034">
        <ele>971.5</ele>
        <time>2020-02-23T14:33:15Z</time>
      </trkpt>
      <trkpt lat="42.9644" lon="0.75033">
        <ele>971.3</ele>
        <time>2020-02-23T14:33:16Z</time>
      </trkpt>
      <trkpt lat="42.96442" lon="0.75032">
        <ele>971.1</ele>
        <time>2020-02-23T14:33:17Z</time>
      </trkpt>
      <trkpt lat="42.96443" lon="0.75032">
        <ele>970.9</ele>
        <time>2020-02-23T14:33:18Z</time>
      </trkpt>
      <trkpt lat="42.96444" lon="0.75032">
        <ele>970.7</ele>
        <time>2020-02-23T14:33:19Z</time>
      </trkpt>
      <trkpt lat="42.96446" lon="0.75031">
        <ele>970.6</ele>
        <time>2020-02-23T14:33:20Z</time>
      </trkpt>
      <trkpt lat="42.96447" lon="0.75031">
        <ele>970.4</ele>
        <time>2020-02-23T14:33:21Z</time>
      </trkpt>
      <trkpt lat="42.96449" lon="0.75031">
        <ele>970.2</ele>
        <time>2020-02-23T14:33:22Z</time>
      </trkpt>
      <trkpt lat="42.9645" lon="0.75031">
        <ele>970</ele>
        <time>2020-02-23T14:33:23Z</time>
      </trkpt>
      <trkpt lat="42.96451" lon="0.7503">
        <ele>969.9</ele>
        <time>2020-02-23T14:33:24Z</time>
      </trkpt>
      <trkpt lat="42.96452" lon="0.7503">
        <ele>969.7</ele>
        <time>2020-02-23T14:33:25Z</time>
      </trkpt>
      <trkpt lat="42.96453" lon="0.75029">
        <ele>969.6</ele>
        <time>2020-02-23T14:33:26Z</time>
      </trkpt>
      <trkpt lat="42.96455" lon="0.75028">
        <ele>969.4</ele>
        <time>2020-02-23T14:33:27Z</time>
      </trkpt>
      <trkpt lat="42.96456" lon="0.75028">
        <ele>969.3</ele>
        <time>2020-02-23T14:33:28Z</time>
      </trkpt>
      <trkpt lat="42.96457" lon="0.75027">
        <ele>969.1</ele>
        <time>2020-02-23T14:33:29Z</time>
      </trkpt>
      <trkpt lat="42.96458" lon="0.75027">
        <ele>969</ele>
        <time>2020-02-23T14:33:30Z</time>
      </trkpt>
      <trkpt lat="42.96459" lon="0.75026">
        <ele>968.8</ele>
        <time>2020-02-23T14:33:31Z</time>
      </trkpt>
      <trkpt lat="42.9646" lon="0.75025">
        <ele>967.1</ele>
        <time>2020-02-23T14:33:32Z</time>
      </trkpt>
      <trkpt lat="42.96461" lon="0.75024">
        <ele>967</ele>
        <time>2020-02-23T14:33:33Z</time>
      </trkpt>
      <trkpt lat="42.96461" lon="0.75023">
        <ele>966.9</ele>
        <time>2020-02-23T14:33:34Z</time>
      </trkpt>
      <trkpt lat="42.96462" lon="0.75022">
        <ele>966.7</ele>
        <time>2020-02-23T14:33:35Z</time>
      </trkpt>
      <trkpt lat="42.96462" lon="0.75021">
        <ele>966.6</ele>
        <time>2020-02-23T14:33:36Z</time>
      </trkpt>
      <trkpt lat="42.96463" lon="0.7502">
        <ele>966.5</ele>
        <time>2020-02-23T14:33:37Z</time>
      </trkpt>
      <trkpt lat="42.96463" lon="0.75019">
        <ele>966.4</ele>
        <time>2020-02-23T14:33:38Z</time>
      </trkpt>
      <trkpt lat="42.96464" lon="0.75018">
        <ele>966.3</ele>
        <time>2020-02-23T14:33:39Z</time>
      </trkpt>
      <trkpt lat="42.96464" lon="0.75017">
        <ele>966.2</ele>
        <time>2020-02-23T14:33:40Z</time>
      </trkpt>
      <trkpt lat="42.96465" lon="0.75016">
        <ele>966</ele>
        <time>2020-02-23T14:33:41Z</time>
      </trkpt>
      <trkpt lat="42.96466" lon="0.75015">
        <ele>965.9</ele>
        <time>2020-02-23T14:33:42Z</time>
      </trkpt>
      <trkpt lat="42.96466" lon="0.75013">
        <ele>965.8</ele>
        <time>2020-02-23T14:33:43Z</time>
      </trkpt>
      <trkpt lat="42.96466" lon="0.75011">
        <ele>965.6</ele>
        <time>2020-02-23T14:33:44Z</time>
      </trkpt>
      <trkpt lat="42.96467" lon="0.75009">
        <ele>965.4</ele>
        <time>2020-02-23T14:33:45Z</time>
      </trkpt>
      <trkpt lat="42.96467" lon="0.75007">
        <ele>965.2</ele>
        <time>2020-02-23T14:33:46Z</time>
      </trkpt>
      <trkpt lat="42.96467" lon="0.75005">
        <ele>965</ele>
        <time>2020-02-23T14:33:47Z</time>
      </trkpt>
      <trkpt lat="42.96468" lon="0.75003">
        <ele>964.8</ele>
        <time>2020-02-23T14:33:48Z</time>
      </trkpt>
      <trkpt lat="42.96468" lon="0.75003">
        <ele>964.8</ele>
        <time>2020-02-23T14:33:49Z</time>
      </trkpt>
      <trkpt lat="42.96468" lon="0.75003">
        <ele>964.8</ele>
        <time>2020-02-23T14:33:50Z</time>
      </trkpt>
      <trkpt lat="42.96468" lon="0.75003">
        <ele>964.8</ele>
        <time>2020-02-23T14:33:51Z</time>
      </trkpt>
      <trkpt lat="42.96468" lon="0.75003">
        <ele>964.8</ele>
        <time>2020-02-23T14:33:52Z</time>
      </trkpt>
      <trkpt lat="42.96469" lon="0.75">
        <ele>964.5</ele>
        <time>2020-02-23T14:33:53Z</time>
      </trkpt>
      <trkpt lat="42.96469" lon="0.75">
        <ele>964.5</ele>
        <time>2020-02-23T14:33:54Z</time>
      </trkpt>
      <trkpt lat="42.9647" lon="0.74999">
        <ele>964.3</ele>
        <time>2020-02-23T14:33:55Z</time>
      </trkpt>
      <trkpt lat="42.9647" lon="0.74999">
        <ele>964.3</ele>
        <time>2020-02-23T14:33:56Z</time>
      </trkpt>
      <trkpt lat="42.96471" lon="0.74998">
        <ele>964.1</ele>
        <time>2020-02-23T14:33:57Z</time>
      </trkpt>
      <trkpt lat="42.96472" lon="0.74996">
        <ele>964</ele>
        <time>2020-02-23T14:33:58Z</time>
      </trkpt>
      <trkpt lat="42.96473" lon="0.74995">
        <ele>963.9</ele>
        <time>2020-02-23T14:33:59Z</time>
      </trkpt>
      <trkpt lat="42.96474" lon="0.74994">
        <ele>963.7</ele>
        <time>2020-02-23T14:34:00Z</time>
      </trkpt>
      <trkpt lat="42.96475" lon="0.74993">
        <ele>963.6</ele>
        <time>2020-02-23T14:34:01Z</time>
      </trkpt>
      <trkpt lat="42.96476" lon="0.74991">
        <ele>963.4</ele>
        <time>2020-02-23T14:34:02Z</time>
      </trkpt>
      <trkpt lat="42.96477" lon="0.7499">
        <ele>963.3</ele>
        <time>2020-02-23T14:34:03Z</time>
      </trkpt>
      <trkpt lat="42.96478" lon="0.74988">
        <ele>963.2</ele>
        <time>2020-02-23T14:34:04Z</time>
      </trkpt>
      <trkpt lat="42.96479" lon="0.74987">
        <ele>963</ele>
        <time>2020-02-23T14:34:05Z</time>
      </trkpt>
      <trkpt lat="42.96479" lon="0.74987">
        <ele>963</ele>
        <time>2020-02-23T14:34:06Z</time>
      </trkpt>
      <trkpt lat="42.96479" lon="0.74987">
        <ele>963</ele>
        <time>2020-02-23T14:34:07Z</time>
      </trkpt>
      <trkpt lat="42.96479" lon="0.74987">
        <ele>963</ele>
        <time>2020-02-23T14:34:08Z</time>
      </trkpt>
      <trkpt lat="42.96482" lon="0.74983">
        <ele>962.7</ele>
        <time>2020-02-23T14:34:09Z</time>
      </trkpt>
      <trkpt lat="42.96482" lon="0.74983">
        <ele>962.7</ele>
        <time>2020-02-23T14:34:10Z</time>
      </trkpt>
      <trkpt lat="42.96482" lon="0.74983">
        <ele>962.7</ele>
        <time>2020-02-23T14:34:11Z</time>
      </trkpt>
      <trkpt lat="42.96482" lon="0.74983">
        <ele>962.7</ele>
        <time>2020-02-23T14:34:12Z</time>
      </trkpt>
      <trkpt lat="42.96482" lon="0.74983">
        <ele>962.7</ele>
        <time>2020-02-23T14:34:13Z</time>
      </trkpt>
      <trkpt lat="42.96484" lon="0.7498">
        <ele>962.2</ele>
        <time>2020-02-23T14:34:14Z</time>
      </trkpt>
      <trkpt lat="42.96485" lon="0.74977">
        <ele>962.1</ele>
        <time>2020-02-23T14:34:15Z</time>
      </trkpt>
      <trkpt lat="42.96485" lon="0.74977">
        <ele>962.1</ele>
        <time>2020-02-23T14:34:16Z</time>
      </trkpt>
      <trkpt lat="42.96485" lon="0.74977">
        <ele>962.1</ele>
        <time>2020-02-23T14:34:17Z</time>
      </trkpt>
      <trkpt lat="42.96485" lon="0.74977">
        <ele>962.1</ele>
        <time>2020-02-23T14:34:18Z</time>
      </trkpt>
      <trkpt lat="42.96486" lon="0.74973">
        <ele>962</ele>
        <time>2020-02-23T14:34:19Z</time>
      </trkpt>
      <trkpt lat="42.96486" lon="0.74973">
        <ele>962</ele>
        <time>2020-02-23T14:34:20Z</time>
      </trkpt>
    </trkseg>
  </trk>
</gpx>